<?xml version="1.0" encoding="UTF-8" standalone="no" ?>
<gpx xmlns="http://www.topografix.com/GPX/1/1" xmlns:xsi="http://www.w3.org/2001/XMLSchema-instance" xsi:schemaLocation="http://www.topografix.com/GPX/1/1 http://www.topografix.com/GPX/1/1/gpx.xsd" version="1.1" creator="VisuGPX - https://www.visugpx.com">
  <metadata>
    <name>Boucle Banon Lure CLEAN</name>
  </metadata>
  <wpt lat="44.03563" lon="5.62832">
    <ele>766.1</ele>
    <name><![CDATA[Essence]]></name>
    <type><![CDATA[essence]]></type>
  </wpt>
  <wpt lat="43.85745" lon="5.59421">
    <ele>370.6</ele>
    <name><![CDATA[Essence]]></name>
    <type><![CDATA[essence]]></type>
  </wpt>
  <wpt lat="44.19605" lon="5.53755">
    <ele>819</ele>
    <name><![CDATA[Essence]]></name>
    <type><![CDATA[essence]]></type>
  </wpt>
  <trk>
    <name><![CDATA[Banon Enduro boucles 2 choix]]></name>
    <extensions>
      <line xmlns="http://www.topografix.com/GPX/gpx_style/0/2">
        <color>ff1100</color>
        <width>4</width>
      </line>
    </extensions>
    <trkseg>
      <trkpt lat="44.03247" lon="5.64233">
        <ele>739.3</ele>
        <time>2012-09-30T07:06:17.926Z</time>
        <extensions>
          <visugpx:TrkExtension xmlns:visugpx="https://www.visugpx.com/editgpx/">
            <visugpx:node>2</visugpx:node>
            </visugpx:TrkExtension>
        </extensions>
      </trkpt>
      <trkpt lat="44.03256" lon="5.64249">
        <ele>739.4</ele>
        <time>2012-09-30T07:06:34.296Z</time>
      </trkpt>
      <trkpt lat="44.0328" lon="5.64246">
        <ele>733.1</ele>
        <time>2012-09-30T07:06:46.654Z</time>
      </trkpt>
      <trkpt lat="44.03299" lon="5.64242">
        <ele>728.3</ele>
        <time>2012-09-30T07:06:50.341Z</time>
      </trkpt>
      <trkpt lat="44.03322" lon="5.6424">
        <ele>722.8</ele>
        <time>2012-09-30T07:06:54.345Z</time>
      </trkpt>
      <trkpt lat="44.03332" lon="5.64245">
        <ele>720.4</ele>
        <time>2012-09-30T07:06:58.320Z</time>
      </trkpt>
      <trkpt lat="44.03352" lon="5.64249">
        <ele>720.2</ele>
        <time>2012-09-30T07:07:11.912Z</time>
      </trkpt>
      <trkpt lat="44.03363" lon="5.64252">
        <ele>720.5</ele>
        <time>2012-09-30T07:07:15.017Z</time>
      </trkpt>
      <trkpt lat="44.03372" lon="5.64256">
        <ele>721</ele>
        <time>2012-09-30T07:07:17.854Z</time>
      </trkpt>
      <trkpt lat="44.03382" lon="5.6426">
        <ele>721.7</ele>
        <time>2012-09-30T07:07:21.330Z</time>
      </trkpt>
      <trkpt lat="44.03404" lon="5.6427">
        <ele>723.9</ele>
        <time>2012-09-30T07:07:40.203Z</time>
      </trkpt>
      <trkpt lat="44.03415" lon="5.64274">
        <ele>725.2</ele>
        <time>2012-09-30T07:07:45.247Z</time>
      </trkpt>
      <trkpt lat="44.03425" lon="5.64278">
        <ele>726</ele>
        <time>2012-09-30T07:07:49.815Z</time>
      </trkpt>
      <trkpt lat="44.03437" lon="5.64286">
        <ele>727.6</ele>
        <time>2012-09-30T07:07:55.579Z</time>
      </trkpt>
      <trkpt lat="44.03447" lon="5.64293">
        <ele>728.9</ele>
        <time>2012-09-30T07:08:00.518Z</time>
      </trkpt>
      <trkpt lat="44.03456" lon="5.64298">
        <ele>730</ele>
        <time>2012-09-30T07:08:04.699Z</time>
      </trkpt>
      <trkpt lat="44.03465" lon="5.64304">
        <ele>731.3</ele>
        <time>2012-09-30T07:08:08.961Z</time>
      </trkpt>
      <trkpt lat="44.03478" lon="5.64311">
        <ele>732.9</ele>
        <time>2012-09-30T07:08:14.528Z</time>
      </trkpt>
      <trkpt lat="44.03487" lon="5.64316">
        <ele>734</ele>
        <time>2012-09-30T07:08:18.428Z</time>
      </trkpt>
      <trkpt lat="44.03497" lon="5.64322">
        <ele>735.5</ele>
        <time>2012-09-30T07:08:22.908Z</time>
      </trkpt>
      <trkpt lat="44.0351" lon="5.64331">
        <ele>736.6</ele>
        <time>2012-09-30T07:08:29.029Z</time>
      </trkpt>
      <trkpt lat="44.03519" lon="5.64338">
        <ele>737.5</ele>
        <time>2012-09-30T07:08:33.746Z</time>
      </trkpt>
      <trkpt lat="44.03528" lon="5.64345">
        <ele>738.6</ele>
        <time>2012-09-30T07:08:38.534Z</time>
      </trkpt>
      <trkpt lat="44.03543" lon="5.64356">
        <ele>740.1</ele>
        <time>2012-09-30T07:08:46.929Z</time>
      </trkpt>
      <trkpt lat="44.03552" lon="5.64363">
        <ele>741.1</ele>
        <time>2012-09-30T07:08:52.755Z</time>
      </trkpt>
      <trkpt lat="44.03561" lon="5.64368">
        <ele>741.5</ele>
        <time>2012-09-30T07:08:58.227Z</time>
      </trkpt>
      <trkpt lat="44.03572" lon="5.6437">
        <ele>740.9</ele>
        <time>2012-09-30T07:09:04.185Z</time>
      </trkpt>
      <trkpt lat="44.03582" lon="5.64371">
        <ele>740.1</ele>
        <time>2012-09-30T07:09:09.171Z</time>
      </trkpt>
      <trkpt lat="44.03591" lon="5.64373">
        <ele>740</ele>
        <time>2012-09-30T07:09:13.167Z</time>
      </trkpt>
      <trkpt lat="44.036" lon="5.64376">
        <ele>740.2</ele>
        <time>2012-09-30T07:09:17.333Z</time>
      </trkpt>
      <trkpt lat="44.0361" lon="5.64381">
        <ele>740.7</ele>
        <time>2012-09-30T07:09:21.506Z</time>
      </trkpt>
      <trkpt lat="44.03618" lon="5.64386">
        <ele>741.3</ele>
        <time>2012-09-30T07:09:25.301Z</time>
      </trkpt>
      <trkpt lat="44.03626" lon="5.64392">
        <ele>742.1</ele>
        <time>2012-09-30T07:09:29.031Z</time>
      </trkpt>
      <trkpt lat="44.03633" lon="5.644">
        <ele>743.4</ele>
        <time>2012-09-30T07:09:32.711Z</time>
      </trkpt>
      <trkpt lat="44.03643" lon="5.64409">
        <ele>744.6</ele>
        <time>2012-09-30T07:09:37.150Z</time>
      </trkpt>
      <trkpt lat="44.03653" lon="5.64417">
        <ele>745.4</ele>
        <time>2012-09-30T07:09:41.322Z</time>
      </trkpt>
      <trkpt lat="44.03662" lon="5.64423">
        <ele>746.4</ele>
        <time>2012-09-30T07:09:45.185Z</time>
      </trkpt>
      <trkpt lat="44.03671" lon="5.6443">
        <ele>747.4</ele>
        <time>2012-09-30T07:09:49.248Z</time>
      </trkpt>
      <trkpt lat="44.03679" lon="5.6444">
        <ele>749.3</ele>
        <time>2012-09-30T07:09:53.820Z</time>
      </trkpt>
      <trkpt lat="44.03686" lon="5.64448">
        <ele>750.6</ele>
        <time>2012-09-30T07:09:58.423Z</time>
      </trkpt>
      <trkpt lat="44.03693" lon="5.64458">
        <ele>752.3</ele>
        <time>2012-09-30T07:10:03.401Z</time>
      </trkpt>
      <trkpt lat="44.037" lon="5.64468">
        <ele>753.9</ele>
        <time>2012-09-30T07:10:08.504Z</time>
      </trkpt>
      <trkpt lat="44.03706" lon="5.64477">
        <ele>755.3</ele>
        <time>2012-09-30T07:10:13.490Z</time>
      </trkpt>
      <trkpt lat="44.03711" lon="5.64487">
        <ele>757.1</ele>
        <time>2012-09-30T07:10:18.706Z</time>
      </trkpt>
      <trkpt lat="44.03716" lon="5.64499">
        <ele>759.3</ele>
        <time>2012-09-30T07:10:24.426Z</time>
      </trkpt>
      <trkpt lat="44.03724" lon="5.6451">
        <ele>760.6</ele>
        <time>2012-09-30T07:10:30.779Z</time>
      </trkpt>
      <trkpt lat="44.03733" lon="5.64519">
        <ele>761.2</ele>
        <time>2012-09-30T07:10:36.997Z</time>
      </trkpt>
      <trkpt lat="44.0374" lon="5.64529">
        <ele>762.5</ele>
        <time>2012-09-30T07:10:42.625Z</time>
      </trkpt>
      <trkpt lat="44.03748" lon="5.64539">
        <ele>763.7</ele>
        <time>2012-09-30T07:10:48.567Z</time>
      </trkpt>
      <trkpt lat="44.03756" lon="5.6455">
        <ele>765</ele>
        <time>2012-09-30T07:10:54.555Z</time>
      </trkpt>
      <trkpt lat="44.03762" lon="5.64561">
        <ele>766.6</ele>
        <time>2012-09-30T07:11:00.120Z</time>
      </trkpt>
      <trkpt lat="44.03768" lon="5.64571">
        <ele>767.8</ele>
        <time>2012-09-30T07:11:05.321Z</time>
      </trkpt>
      <trkpt lat="44.03775" lon="5.64582">
        <ele>769</ele>
        <time>2012-09-30T07:11:11.302Z</time>
      </trkpt>
      <trkpt lat="44.03782" lon="5.64593">
        <ele>769.4</ele>
        <time>2012-09-30T07:11:16.991Z</time>
      </trkpt>
      <trkpt lat="44.03788" lon="5.64604">
        <ele>770.1</ele>
        <time>2012-09-30T07:11:22.314Z</time>
      </trkpt>
      <trkpt lat="44.03793" lon="5.64616">
        <ele>771.1</ele>
        <time>2012-09-30T07:11:27.641Z</time>
      </trkpt>
      <trkpt lat="44.03799" lon="5.64628">
        <ele>771.9</ele>
        <time>2012-09-30T07:11:33.276Z</time>
      </trkpt>
      <trkpt lat="44.03804" lon="5.64639">
        <ele>772.7</ele>
        <time>2012-09-30T07:11:38.272Z</time>
      </trkpt>
      <trkpt lat="44.0381" lon="5.64651">
        <ele>773.5</ele>
        <time>2012-09-30T07:11:44.349Z</time>
      </trkpt>
      <trkpt lat="44.03815" lon="5.64662">
        <ele>774.3</ele>
        <time>2012-09-30T07:11:49.674Z</time>
      </trkpt>
      <trkpt lat="44.0382" lon="5.64673">
        <ele>775</ele>
        <time>2012-09-30T07:11:55.390Z</time>
      </trkpt>
      <trkpt lat="44.03825" lon="5.64683">
        <ele>775.5</ele>
        <time>2012-09-30T07:12:00.800Z</time>
      </trkpt>
      <trkpt lat="44.03832" lon="5.64694">
        <ele>775.8</ele>
        <time>2012-09-30T07:12:06.723Z</time>
      </trkpt>
      <trkpt lat="44.03838" lon="5.64705">
        <ele>776.4</ele>
        <time>2012-09-30T07:12:12.504Z</time>
      </trkpt>
      <trkpt lat="44.03844" lon="5.64717">
        <ele>777.2</ele>
        <time>2012-09-30T07:12:18.175Z</time>
      </trkpt>
      <trkpt lat="44.03848" lon="5.64729">
        <ele>778.3</ele>
        <time>2012-09-30T07:12:23.907Z</time>
      </trkpt>
      <trkpt lat="44.03854" lon="5.6474">
        <ele>778.9</ele>
        <time>2012-09-30T07:12:29.580Z</time>
      </trkpt>
      <trkpt lat="44.0386" lon="5.64751">
        <ele>779.4</ele>
        <time>2012-09-30T07:12:35.142Z</time>
      </trkpt>
      <trkpt lat="44.03866" lon="5.64762">
        <ele>780</ele>
        <time>2012-09-30T07:12:40.774Z</time>
      </trkpt>
      <trkpt lat="44.03872" lon="5.64772">
        <ele>780.4</ele>
        <time>2012-09-30T07:12:46.732Z</time>
      </trkpt>
      <trkpt lat="44.03878" lon="5.64783">
        <ele>781.2</ele>
        <time>2012-09-30T07:12:52.850Z</time>
      </trkpt>
      <trkpt lat="44.03885" lon="5.64792">
        <ele>781.5</ele>
        <time>2012-09-30T07:12:58.471Z</time>
      </trkpt>
      <trkpt lat="44.03893" lon="5.64798">
        <ele>781.1</ele>
        <time>2012-09-30T07:13:04.543Z</time>
      </trkpt>
      <trkpt lat="44.03901" lon="5.64804">
        <ele>780.8</ele>
        <time>2012-09-30T07:13:10.208Z</time>
      </trkpt>
      <trkpt lat="44.03904" lon="5.64817">
        <ele>782.8</ele>
        <time>2012-09-30T07:13:16.555Z</time>
      </trkpt>
      <trkpt lat="44.03895" lon="5.64821">
        <ele>785.1</ele>
        <time>2012-09-30T07:13:23.001Z</time>
      </trkpt>
      <trkpt lat="44.03885" lon="5.64818">
        <ele>786.2</ele>
        <time>2012-09-30T07:13:29.454Z</time>
      </trkpt>
      <trkpt lat="44.03875" lon="5.64814">
        <ele>787.1</ele>
        <time>2012-09-30T07:13:36.002Z</time>
      </trkpt>
      <trkpt lat="44.03865" lon="5.64813">
        <ele>788.7</ele>
        <time>2012-09-30T07:13:42.391Z</time>
      </trkpt>
      <trkpt lat="44.03855" lon="5.64813">
        <ele>790.4</ele>
        <time>2012-09-30T07:13:48.352Z</time>
      </trkpt>
      <trkpt lat="44.03846" lon="5.64809">
        <ele>791.3</ele>
        <time>2012-09-30T07:13:54.444Z</time>
      </trkpt>
      <trkpt lat="44.03838" lon="5.64801">
        <ele>791.5</ele>
        <time>2012-09-30T07:14:00.389Z</time>
      </trkpt>
      <trkpt lat="44.03831" lon="5.64789">
        <ele>790.8</ele>
        <time>2012-09-30T07:14:06.258Z</time>
      </trkpt>
      <trkpt lat="44.03827" lon="5.64776">
        <ele>789.3</ele>
        <time>2012-09-30T07:14:11.473Z</time>
      </trkpt>
      <trkpt lat="44.03821" lon="5.64765">
        <ele>788.4</ele>
        <time>2012-09-30T07:14:16.521Z</time>
      </trkpt>
      <trkpt lat="44.03814" lon="5.64758">
        <ele>788.2</ele>
        <time>2012-09-30T07:14:21.144Z</time>
      </trkpt>
      <trkpt lat="44.03804" lon="5.64754">
        <ele>788.9</ele>
        <time>2012-09-30T07:14:26.403Z</time>
      </trkpt>
      <trkpt lat="44.03794" lon="5.6475">
        <ele>789.7</ele>
        <time>2012-09-30T07:14:31.775Z</time>
      </trkpt>
      <trkpt lat="44.03784" lon="5.64745">
        <ele>790.4</ele>
        <time>2012-09-30T07:14:36.822Z</time>
      </trkpt>
      <trkpt lat="44.03774" lon="5.64739">
        <ele>791.1</ele>
        <time>2012-09-30T07:14:42.273Z</time>
      </trkpt>
      <trkpt lat="44.03765" lon="5.64736">
        <ele>792.1</ele>
        <time>2012-09-30T07:14:47.583Z</time>
      </trkpt>
      <trkpt lat="44.03755" lon="5.64733">
        <ele>793.3</ele>
        <time>2012-09-30T07:14:53.061Z</time>
      </trkpt>
      <trkpt lat="44.03746" lon="5.64727">
        <ele>793.9</ele>
        <time>2012-09-30T07:14:58.502Z</time>
      </trkpt>
      <trkpt lat="44.03738" lon="5.64719">
        <ele>794</ele>
        <time>2012-09-30T07:15:03.672Z</time>
      </trkpt>
      <trkpt lat="44.03735" lon="5.64706">
        <ele>793.7</ele>
        <time>2012-09-30T07:15:09.593Z</time>
      </trkpt>
      <trkpt lat="44.03732" lon="5.64692">
        <ele>793.3</ele>
        <time>2012-09-30T07:15:15.265Z</time>
      </trkpt>
      <trkpt lat="44.03728" lon="5.64679">
        <ele>793.1</ele>
        <time>2012-09-30T07:15:20.885Z</time>
      </trkpt>
      <trkpt lat="44.03722" lon="5.64668">
        <ele>793.4</ele>
        <time>2012-09-30T07:15:26.336Z</time>
      </trkpt>
      <trkpt lat="44.03714" lon="5.6466">
        <ele>793.3</ele>
        <time>2012-09-30T07:15:32.032Z</time>
      </trkpt>
      <trkpt lat="44.03706" lon="5.64651">
        <ele>793</ele>
        <time>2012-09-30T07:15:37.688Z</time>
      </trkpt>
      <trkpt lat="44.03698" lon="5.64641">
        <ele>792.6</ele>
        <time>2012-09-30T07:15:43.111Z</time>
      </trkpt>
      <trkpt lat="44.03692" lon="5.64631">
        <ele>792</ele>
        <time>2012-09-30T07:15:48.676Z</time>
      </trkpt>
      <trkpt lat="44.03684" lon="5.64621">
        <ele>791.9</ele>
        <time>2012-09-30T07:15:54.330Z</time>
      </trkpt>
      <trkpt lat="44.03683" lon="5.64645">
        <ele>795.2</ele>
        <time>2012-09-30T07:18:38.067Z</time>
      </trkpt>
      <trkpt lat="44.03689" lon="5.64655">
        <ele>795.7</ele>
        <time>2012-09-30T07:18:43.857Z</time>
      </trkpt>
      <trkpt lat="44.03694" lon="5.64667">
        <ele>796.7</ele>
        <time>2012-09-30T07:18:49.473Z</time>
      </trkpt>
      <trkpt lat="44.03697" lon="5.64681">
        <ele>796.6</ele>
        <time>2012-09-30T07:18:55.411Z</time>
      </trkpt>
      <trkpt lat="44.03699" lon="5.64693">
        <ele>796.5</ele>
        <time>2012-09-30T07:19:00.304Z</time>
      </trkpt>
      <trkpt lat="44.037" lon="5.64708">
        <ele>796.7</ele>
        <time>2012-09-30T07:19:06.043Z</time>
      </trkpt>
      <trkpt lat="44.03699" lon="5.64723">
        <ele>797</ele>
        <time>2012-09-30T07:19:11.642Z</time>
      </trkpt>
      <trkpt lat="44.03698" lon="5.64736">
        <ele>797.3</ele>
        <time>2012-09-30T07:19:16.871Z</time>
      </trkpt>
      <trkpt lat="44.03697" lon="5.6475">
        <ele>797.5</ele>
        <time>2012-09-30T07:19:22.395Z</time>
      </trkpt>
      <trkpt lat="44.03696" lon="5.64764">
        <ele>797.1</ele>
        <time>2012-09-30T07:19:27.810Z</time>
      </trkpt>
      <trkpt lat="44.03695" lon="5.64777">
        <ele>796.6</ele>
        <time>2012-09-30T07:19:33.218Z</time>
      </trkpt>
      <trkpt lat="44.03695" lon="5.6479">
        <ele>796.1</ele>
        <time>2012-09-30T07:19:38.145Z</time>
      </trkpt>
      <trkpt lat="44.03692" lon="5.64803">
        <ele>795.5</ele>
        <time>2012-09-30T07:19:43.486Z</time>
      </trkpt>
      <trkpt lat="44.03689" lon="5.64818">
        <ele>794.8</ele>
        <time>2012-09-30T07:19:49.030Z</time>
      </trkpt>
      <trkpt lat="44.03686" lon="5.64831">
        <ele>794</ele>
        <time>2012-09-30T07:19:53.466Z</time>
      </trkpt>
      <trkpt lat="44.03682" lon="5.64845">
        <ele>793.3</ele>
        <time>2012-09-30T07:19:57.818Z</time>
      </trkpt>
      <trkpt lat="44.03678" lon="5.64858">
        <ele>792.4</ele>
        <time>2012-09-30T07:20:02.001Z</time>
      </trkpt>
      <trkpt lat="44.03674" lon="5.6487">
        <ele>791.5</ele>
        <time>2012-09-30T07:20:06.080Z</time>
      </trkpt>
      <trkpt lat="44.03669" lon="5.64883">
        <ele>790.3</ele>
        <time>2012-09-30T07:20:10.100Z</time>
      </trkpt>
      <trkpt lat="44.03665" lon="5.64896">
        <ele>789.1</ele>
        <time>2012-09-30T07:20:14.060Z</time>
      </trkpt>
      <trkpt lat="44.03662" lon="5.64909">
        <ele>788.1</ele>
        <time>2012-09-30T07:20:17.934Z</time>
      </trkpt>
      <trkpt lat="44.0366" lon="5.64922">
        <ele>787.6</ele>
        <time>2012-09-30T07:20:21.684Z</time>
      </trkpt>
      <trkpt lat="44.03655" lon="5.64934">
        <ele>787.5</ele>
        <time>2012-09-30T07:20:25.580Z</time>
      </trkpt>
      <trkpt lat="44.03651" lon="5.64947">
        <ele>787.4</ele>
        <time>2012-09-30T07:20:29.500Z</time>
      </trkpt>
      <trkpt lat="44.03646" lon="5.64959">
        <ele>787.2</ele>
        <time>2012-09-30T07:20:33.531Z</time>
      </trkpt>
      <trkpt lat="44.03641" lon="5.64972">
        <ele>786.8</ele>
        <time>2012-09-30T07:20:37.442Z</time>
      </trkpt>
      <trkpt lat="44.03636" lon="5.64983">
        <ele>786.3</ele>
        <time>2012-09-30T07:20:41.252Z</time>
      </trkpt>
      <trkpt lat="44.03631" lon="5.64994">
        <ele>785.8</ele>
        <time>2012-09-30T07:20:45.109Z</time>
      </trkpt>
      <trkpt lat="44.03626" lon="5.65005">
        <ele>786</ele>
        <time>2012-09-30T07:20:48.844Z</time>
      </trkpt>
      <trkpt lat="44.03622" lon="5.65019">
        <ele>787.7</ele>
        <time>2012-09-30T07:20:53.509Z</time>
      </trkpt>
      <trkpt lat="44.03617" lon="5.65033">
        <ele>789.4</ele>
        <time>2012-09-30T07:20:58.254Z</time>
      </trkpt>
      <trkpt lat="44.03613" lon="5.65045">
        <ele>791</ele>
        <time>2012-09-30T07:21:02.250Z</time>
      </trkpt>
      <trkpt lat="44.0361" lon="5.65057">
        <ele>792.7</ele>
        <time>2012-09-30T07:21:06.166Z</time>
      </trkpt>
      <trkpt lat="44.03606" lon="5.65071">
        <ele>794.7</ele>
        <time>2012-09-30T07:21:11.134Z</time>
      </trkpt>
      <trkpt lat="44.03602" lon="5.65083">
        <ele>796.5</ele>
        <time>2012-09-30T07:21:15.281Z</time>
      </trkpt>
      <trkpt lat="44.03598" lon="5.65094">
        <ele>797.8</ele>
        <time>2012-09-30T07:21:19.482Z</time>
      </trkpt>
      <trkpt lat="44.03593" lon="5.65107">
        <ele>799.4</ele>
        <time>2012-09-30T07:21:23.892Z</time>
      </trkpt>
      <trkpt lat="44.03589" lon="5.6512">
        <ele>801.1</ele>
        <time>2012-09-30T07:21:28.353Z</time>
      </trkpt>
      <trkpt lat="44.03586" lon="5.65133">
        <ele>802.9</ele>
        <time>2012-09-30T07:21:32.638Z</time>
      </trkpt>
      <trkpt lat="44.03582" lon="5.65145">
        <ele>804.5</ele>
        <time>2012-09-30T07:21:36.662Z</time>
      </trkpt>
      <trkpt lat="44.03577" lon="5.65158">
        <ele>806.1</ele>
        <time>2012-09-30T07:21:41.471Z</time>
      </trkpt>
      <trkpt lat="44.03569" lon="5.65167">
        <ele>806.8</ele>
        <time>2012-09-30T07:21:46.187Z</time>
      </trkpt>
      <trkpt lat="44.03563" lon="5.65179">
        <ele>807.2</ele>
        <time>2012-09-30T07:21:50.982Z</time>
      </trkpt>
      <trkpt lat="44.03559" lon="5.65193">
        <ele>808</ele>
        <time>2012-09-30T07:21:55.869Z</time>
      </trkpt>
      <trkpt lat="44.03559" lon="5.65207">
        <ele>809</ele>
        <time>2012-09-30T07:22:00.428Z</time>
      </trkpt>
      <trkpt lat="44.03559" lon="5.6522">
        <ele>810</ele>
        <time>2012-09-30T07:22:04.326Z</time>
      </trkpt>
      <trkpt lat="44.03557" lon="5.65235">
        <ele>811.1</ele>
        <time>2012-09-30T07:22:08.584Z</time>
      </trkpt>
      <trkpt lat="44.03555" lon="5.65248">
        <ele>812.2</ele>
        <time>2012-09-30T07:22:11.505Z</time>
      </trkpt>
      <trkpt lat="44.03552" lon="5.65264">
        <ele>811.8</ele>
        <time>2012-09-30T07:22:14.614Z</time>
      </trkpt>
      <trkpt lat="44.03548" lon="5.65277">
        <ele>811.3</ele>
        <time>2012-09-30T07:22:16.639Z</time>
      </trkpt>
      <trkpt lat="44.03544" lon="5.65292">
        <ele>810.7</ele>
        <time>2012-09-30T07:22:18.729Z</time>
      </trkpt>
      <trkpt lat="44.03535" lon="5.65314">
        <ele>810</ele>
        <time>2012-09-30T07:22:21.842Z</time>
      </trkpt>
      <trkpt lat="44.03525" lon="5.65338">
        <ele>809.2</ele>
        <time>2012-09-30T07:22:24.912Z</time>
      </trkpt>
      <trkpt lat="44.03518" lon="5.65355">
        <ele>808.6</ele>
        <time>2012-09-30T07:22:26.857Z</time>
      </trkpt>
      <trkpt lat="44.03509" lon="5.6537">
        <ele>808.1</ele>
        <time>2012-09-30T07:22:28.787Z</time>
      </trkpt>
      <trkpt lat="44.03496" lon="5.65393">
        <ele>807.1</ele>
        <time>2012-09-30T07:22:31.677Z</time>
      </trkpt>
      <trkpt lat="44.03489" lon="5.6541">
        <ele>806.2</ele>
        <time>2012-09-30T07:22:33.584Z</time>
      </trkpt>
      <trkpt lat="44.03483" lon="5.65429">
        <ele>805.1</ele>
        <time>2012-09-30T07:22:35.434Z</time>
      </trkpt>
      <trkpt lat="44.03478" lon="5.65465">
        <ele>803</ele>
        <time>2012-09-30T07:22:38.439Z</time>
      </trkpt>
      <trkpt lat="44.03478" lon="5.65488">
        <ele>801.7</ele>
        <time>2012-09-30T07:22:40.327Z</time>
      </trkpt>
      <trkpt lat="44.03478" lon="5.6552">
        <ele>800.5</ele>
        <time>2012-09-30T07:22:43.024Z</time>
      </trkpt>
      <trkpt lat="44.03475" lon="5.65551">
        <ele>799.6</ele>
        <time>2012-09-30T07:22:45.829Z</time>
      </trkpt>
      <trkpt lat="44.03474" lon="5.65578">
        <ele>798.8</ele>
        <time>2012-09-30T07:22:48.771Z</time>
      </trkpt>
      <trkpt lat="44.03473" lon="5.65593">
        <ele>799.2</ele>
        <time>2012-09-30T07:22:51.127Z</time>
      </trkpt>
      <trkpt lat="44.03472" lon="5.6561">
        <ele>800.2</ele>
        <time>2012-09-30T07:22:54.154Z</time>
      </trkpt>
      <trkpt lat="44.0347" lon="5.65627">
        <ele>801.1</ele>
        <time>2012-09-30T07:22:57.082Z</time>
      </trkpt>
      <trkpt lat="44.03482" lon="5.65652">
        <ele>802.7</ele>
        <time>2012-09-30T07:22:59.518Z</time>
      </trkpt>
      <trkpt lat="44.03482" lon="5.65683">
        <ele>805.7</ele>
        <time>2012-09-30T07:23:02.537Z</time>
      </trkpt>
      <trkpt lat="44.0347" lon="5.65727">
        <ele>811.5</ele>
        <time>2012-09-30T07:23:05.615Z</time>
        <extensions>
          <visugpx:TrkExtension xmlns:visugpx="https://www.visugpx.com/editgpx/">
            <visugpx:node>3</visugpx:node>
            </visugpx:TrkExtension>
        </extensions>
      </trkpt>
      <trkpt lat="44.0347" lon="5.65728">
        <ele>811.6</ele>
      </trkpt>
      <trkpt lat="44.03466" lon="5.65732">
        <ele>812.1</ele>
      </trkpt>
      <trkpt lat="44.03438" lon="5.65745">
        <ele>813.6</ele>
      </trkpt>
      <trkpt lat="44.03396" lon="5.65776">
        <ele>817.7</ele>
      </trkpt>
      <trkpt lat="44.03359" lon="5.65821">
        <ele>822.9</ele>
      </trkpt>
      <trkpt lat="44.03325" lon="5.65885">
        <ele>823.4</ele>
      </trkpt>
      <trkpt lat="44.03291" lon="5.65929">
        <ele>816</ele>
      </trkpt>
      <trkpt lat="44.03286" lon="5.65944">
        <ele>814.7</ele>
        <extensions>
          <visugpx:TrkExtension xmlns:visugpx="https://www.visugpx.com/editgpx/">
            <visugpx:node>4</visugpx:node>
            </visugpx:TrkExtension>
        </extensions>
      </trkpt>
      <trkpt lat="44.03283" lon="5.65952">
        <ele>813.9</ele>
      </trkpt>
      <trkpt lat="44.03267" lon="5.66096">
        <ele>812.6</ele>
      </trkpt>
      <trkpt lat="44.03243" lon="5.66226">
        <ele>821.2</ele>
      </trkpt>
      <trkpt lat="44.03225" lon="5.6626">
        <ele>822.6</ele>
      </trkpt>
      <trkpt lat="44.03186" lon="5.66325">
        <ele>824.4</ele>
      </trkpt>
      <trkpt lat="44.03108" lon="5.66433">
        <ele>825</ele>
      </trkpt>
      <trkpt lat="44.03052" lon="5.66464">
        <ele>821.4</ele>
      </trkpt>
      <trkpt lat="44.03012" lon="5.665">
        <ele>821.2</ele>
      </trkpt>
      <trkpt lat="44.02998" lon="5.66532">
        <ele>822.1</ele>
      </trkpt>
      <trkpt lat="44.02992" lon="5.66533">
        <ele>821.6</ele>
      </trkpt>
      <trkpt lat="44.02933" lon="5.66601">
        <ele>821.9</ele>
      </trkpt>
      <trkpt lat="44.02923" lon="5.66606">
        <ele>821.4</ele>
      </trkpt>
      <trkpt lat="44.02864" lon="5.6661">
        <ele>814.9</ele>
      </trkpt>
      <trkpt lat="44.02835" lon="5.66606">
        <ele>811.3</ele>
      </trkpt>
      <trkpt lat="44.02809" lon="5.66624">
        <ele>807.3</ele>
      </trkpt>
      <trkpt lat="44.02786" lon="5.66636">
        <ele>803.9</ele>
      </trkpt>
      <trkpt lat="44.02773" lon="5.66638">
        <ele>801.7</ele>
      </trkpt>
      <trkpt lat="44.02763" lon="5.66641">
        <ele>800.2</ele>
      </trkpt>
      <trkpt lat="44.02748" lon="5.66663">
        <ele>800.1</ele>
      </trkpt>
      <trkpt lat="44.02727" lon="5.66679">
        <ele>795.6</ele>
      </trkpt>
      <trkpt lat="44.02719" lon="5.667">
        <ele>794.3</ele>
      </trkpt>
      <trkpt lat="44.02709" lon="5.66713">
        <ele>792.6</ele>
      </trkpt>
      <trkpt lat="44.027" lon="5.66732">
        <ele>791.5</ele>
      </trkpt>
      <trkpt lat="44.02689" lon="5.66743">
        <ele>789.9</ele>
      </trkpt>
      <trkpt lat="44.02672" lon="5.66757">
        <ele>787.3</ele>
      </trkpt>
      <trkpt lat="44.02654" lon="5.66778">
        <ele>784.4</ele>
      </trkpt>
      <trkpt lat="44.0263" lon="5.66799">
        <ele>780.5</ele>
      </trkpt>
      <trkpt lat="44.0261" lon="5.66828">
        <ele>779.2</ele>
      </trkpt>
      <trkpt lat="44.0259" lon="5.66851">
        <ele>776.3</ele>
      </trkpt>
      <trkpt lat="44.02581" lon="5.66856">
        <ele>774.8</ele>
      </trkpt>
      <trkpt lat="44.02561" lon="5.66857">
        <ele>771</ele>
      </trkpt>
      <trkpt lat="44.02511" lon="5.66878">
        <ele>762.2</ele>
      </trkpt>
      <trkpt lat="44.02475" lon="5.6688">
        <ele>755.3</ele>
      </trkpt>
      <trkpt lat="44.02386" lon="5.66916">
        <ele>739.5</ele>
      </trkpt>
      <trkpt lat="44.02375" lon="5.66918">
        <ele>737.5</ele>
      </trkpt>
      <trkpt lat="44.02366" lon="5.66924">
        <ele>735.7</ele>
      </trkpt>
      <trkpt lat="44.02335" lon="5.66991">
        <ele>729.4</ele>
      </trkpt>
      <trkpt lat="44.02331" lon="5.66995">
        <ele>728.9</ele>
        <extensions>
          <visugpx:TrkExtension xmlns:visugpx="https://www.visugpx.com/editgpx/">
            <visugpx:node>5</visugpx:node>
            </visugpx:TrkExtension>
        </extensions>
      </trkpt>
      <trkpt lat="44.02322" lon="5.67005">
        <ele>728.2</ele>
      </trkpt>
      <trkpt lat="44.02298" lon="5.67041">
        <ele>726.1</ele>
        <extensions>
          <visugpx:TrkExtension xmlns:visugpx="https://www.visugpx.com/editgpx/">
            <visugpx:node>6</visugpx:node>
            </visugpx:TrkExtension>
        </extensions>
      </trkpt>
      <trkpt lat="44.02297" lon="5.67041">
        <ele>726</ele>
      </trkpt>
      <trkpt lat="44.0229" lon="5.67043">
        <ele>725.3</ele>
        <extensions>
          <visugpx:TrkExtension xmlns:visugpx="https://www.visugpx.com/editgpx/">
            <visugpx:node>7</visugpx:node>
            </visugpx:TrkExtension>
        </extensions>
      </trkpt>
      <trkpt lat="44.02291" lon="5.67054">
        <ele>725.3</ele>
      </trkpt>
      <trkpt lat="44.02291" lon="5.67055">
        <ele>725.3</ele>
        <time>2012-09-30T07:32:55.942Z</time>
      </trkpt>
      <trkpt lat="44.02288" lon="5.67071">
        <ele>724.7</ele>
        <time>2012-09-30T07:32:59.801Z</time>
      </trkpt>
      <trkpt lat="44.02285" lon="5.6709">
        <ele>724.1</ele>
        <time>2012-09-30T07:33:03.147Z</time>
      </trkpt>
      <trkpt lat="44.0228" lon="5.67113">
        <ele>723.3</ele>
        <time>2012-09-30T07:33:06.589Z</time>
      </trkpt>
      <trkpt lat="44.02277" lon="5.6713">
        <ele>722.9</ele>
        <time>2012-09-30T07:33:08.805Z</time>
      </trkpt>
      <trkpt lat="44.0227" lon="5.67154">
        <ele>722.2</ele>
        <time>2012-09-30T07:33:11.886Z</time>
      </trkpt>
      <trkpt lat="44.02264" lon="5.67178">
        <ele>721.4</ele>
        <time>2012-09-30T07:33:14.849Z</time>
      </trkpt>
      <trkpt lat="44.0226" lon="5.67201">
        <ele>720.2</ele>
        <time>2012-09-30T07:33:17.709Z</time>
      </trkpt>
      <trkpt lat="44.02254" lon="5.67223">
        <ele>719.1</ele>
        <time>2012-09-30T07:33:20.547Z</time>
      </trkpt>
      <trkpt lat="44.02247" lon="5.67245">
        <ele>717.9</ele>
        <time>2012-09-30T07:33:23.448Z</time>
      </trkpt>
      <trkpt lat="44.0224" lon="5.67266">
        <ele>716.7</ele>
        <time>2012-09-30T07:33:26.338Z</time>
      </trkpt>
      <trkpt lat="44.02232" lon="5.67287">
        <ele>715.5</ele>
        <time>2012-09-30T07:33:29.267Z</time>
      </trkpt>
      <trkpt lat="44.02226" lon="5.67309">
        <ele>714.7</ele>
        <time>2012-09-30T07:33:32.541Z</time>
      </trkpt>
      <trkpt lat="44.02224" lon="5.67323">
        <ele>714.3</ele>
        <time>2012-09-30T07:33:34.680Z</time>
      </trkpt>
      <trkpt lat="44.02225" lon="5.6734">
        <ele>713.5</ele>
        <time>2012-09-30T07:33:37.295Z</time>
      </trkpt>
      <trkpt lat="44.0223" lon="5.67354">
        <ele>712.5</ele>
        <time>2012-09-30T07:33:39.439Z</time>
      </trkpt>
      <trkpt lat="44.02234" lon="5.67369">
        <ele>711.2</ele>
        <time>2012-09-30T07:33:41.622Z</time>
      </trkpt>
      <trkpt lat="44.02236" lon="5.6739">
        <ele>709.4</ele>
        <time>2012-09-30T07:33:44.650Z</time>
      </trkpt>
      <trkpt lat="44.02236" lon="5.67405">
        <ele>708</ele>
        <time>2012-09-30T07:33:46.538Z</time>
      </trkpt>
      <trkpt lat="44.02237" lon="5.67421">
        <ele>706.6</ele>
        <time>2012-09-30T07:33:48.519Z</time>
      </trkpt>
      <trkpt lat="44.02239" lon="5.67447">
        <ele>704.1</ele>
        <time>2012-09-30T07:33:51.809Z</time>
      </trkpt>
      <trkpt lat="44.02239" lon="5.67471">
        <ele>701.9</ele>
        <time>2012-09-30T07:33:55.354Z</time>
      </trkpt>
      <trkpt lat="44.02239" lon="5.67492">
        <ele>699.9</ele>
        <time>2012-09-30T07:33:59.321Z</time>
      </trkpt>
      <trkpt lat="44.02243" lon="5.67507">
        <ele>698.3</ele>
        <time>2012-09-30T07:34:02.482Z</time>
      </trkpt>
      <trkpt lat="44.0225" lon="5.67516">
        <ele>697.3</ele>
        <time>2012-09-30T07:34:05.424Z</time>
      </trkpt>
      <trkpt lat="44.02262" lon="5.67518">
        <ele>697</ele>
        <time>2012-09-30T07:34:08.820Z</time>
      </trkpt>
      <trkpt lat="44.02272" lon="5.67517">
        <ele>697.1</ele>
        <time>2012-09-30T07:34:11.788Z</time>
      </trkpt>
      <trkpt lat="44.0228" lon="5.67523">
        <ele>696.4</ele>
        <time>2012-09-30T07:34:14.159Z</time>
      </trkpt>
      <trkpt lat="44.02288" lon="5.67536">
        <ele>694.9</ele>
        <time>2012-09-30T07:34:17.255Z</time>
      </trkpt>
      <trkpt lat="44.02293" lon="5.67547">
        <ele>693.6</ele>
        <time>2012-09-30T07:34:19.834Z</time>
      </trkpt>
      <trkpt lat="44.02299" lon="5.67561">
        <ele>692</ele>
        <time>2012-09-30T07:34:22.421Z</time>
      </trkpt>
      <trkpt lat="44.02306" lon="5.67572">
        <ele>690.6</ele>
        <time>2012-09-30T07:34:24.483Z</time>
      </trkpt>
      <trkpt lat="44.02322" lon="5.67582">
        <ele>689.3</ele>
        <time>2012-09-30T07:34:27.742Z</time>
      </trkpt>
      <trkpt lat="44.02339" lon="5.67591">
        <ele>688.2</ele>
        <time>2012-09-30T07:34:31.802Z</time>
      </trkpt>
      <trkpt lat="44.02351" lon="5.67598">
        <ele>687.5</ele>
        <time>2012-09-30T07:34:34.878Z</time>
      </trkpt>
      <trkpt lat="44.02359" lon="5.67613">
        <ele>686.1</ele>
        <time>2012-09-30T07:34:38.352Z</time>
      </trkpt>
      <trkpt lat="44.02368" lon="5.67627">
        <ele>684.9</ele>
        <time>2012-09-30T07:34:41.998Z</time>
      </trkpt>
      <trkpt lat="44.02378" lon="5.67637">
        <ele>684.2</ele>
        <time>2012-09-30T07:34:45.757Z</time>
      </trkpt>
      <trkpt lat="44.0239" lon="5.67638">
        <ele>684.4</ele>
        <time>2012-09-30T07:34:48.639Z</time>
      </trkpt>
      <trkpt lat="44.02399" lon="5.67646">
        <ele>684</ele>
        <time>2012-09-30T07:34:50.553Z</time>
      </trkpt>
      <trkpt lat="44.02399" lon="5.67665">
        <ele>682.5</ele>
        <time>2012-09-30T07:34:52.859Z</time>
      </trkpt>
      <trkpt lat="44.02396" lon="5.67689">
        <ele>680.5</ele>
        <time>2012-09-30T07:34:55.599Z</time>
      </trkpt>
      <trkpt lat="44.02396" lon="5.67715">
        <ele>678.5</ele>
        <time>2012-09-30T07:34:58.383Z</time>
      </trkpt>
      <trkpt lat="44.02397" lon="5.67734">
        <ele>677</ele>
        <time>2012-09-30T07:35:00.395Z</time>
      </trkpt>
      <trkpt lat="44.02395" lon="5.67762">
        <ele>674.4</ele>
        <time>2012-09-30T07:35:03.477Z</time>
      </trkpt>
      <trkpt lat="44.02394" lon="5.67781">
        <ele>672.2</ele>
        <time>2012-09-30T07:35:05.424Z</time>
      </trkpt>
      <trkpt lat="44.02396" lon="5.67798">
        <ele>670.3</ele>
        <time>2012-09-30T07:35:07.221Z</time>
      </trkpt>
      <trkpt lat="44.02398" lon="5.67826">
        <ele>667.1</ele>
        <time>2012-09-30T07:35:10.049Z</time>
      </trkpt>
      <trkpt lat="44.02394" lon="5.67856">
        <ele>664.3</ele>
        <time>2012-09-30T07:35:13.424Z</time>
      </trkpt>
      <trkpt lat="44.02395" lon="5.67883">
        <ele>661.9</ele>
        <time>2012-09-30T07:35:17.058Z</time>
      </trkpt>
      <trkpt lat="44.02407" lon="5.679">
        <ele>660.9</ele>
        <time>2012-09-30T07:35:21.597Z</time>
      </trkpt>
      <trkpt lat="44.02414" lon="5.6791">
        <ele>660.4</ele>
        <time>2012-09-30T07:35:24.171Z</time>
      </trkpt>
      <trkpt lat="44.02423" lon="5.6792">
        <ele>659.9</ele>
        <time>2012-09-30T07:35:26.852Z</time>
      </trkpt>
      <trkpt lat="44.02435" lon="5.67927">
        <ele>659.5</ele>
        <time>2012-09-30T07:35:29.974Z</time>
      </trkpt>
      <trkpt lat="44.02448" lon="5.67931">
        <ele>659.4</ele>
        <time>2012-09-30T07:35:33.379Z</time>
      </trkpt>
      <trkpt lat="44.0246" lon="5.67934">
        <ele>659.4</ele>
        <time>2012-09-30T07:35:36.263Z</time>
      </trkpt>
      <trkpt lat="44.02471" lon="5.67939">
        <ele>659.1</ele>
        <time>2012-09-30T07:35:38.736Z</time>
      </trkpt>
      <trkpt lat="44.02483" lon="5.67945">
        <ele>658.7</ele>
        <time>2012-09-30T07:35:41.571Z</time>
      </trkpt>
      <trkpt lat="44.02492" lon="5.67949">
        <ele>658.4</ele>
        <time>2012-09-30T07:35:43.603Z</time>
      </trkpt>
      <trkpt lat="44.02505" lon="5.67953">
        <ele>658.1</ele>
        <time>2012-09-30T07:35:46.524Z</time>
      </trkpt>
      <trkpt lat="44.02518" lon="5.67957">
        <ele>657.9</ele>
        <time>2012-09-30T07:35:49.456Z</time>
      </trkpt>
      <trkpt lat="44.02531" lon="5.67961">
        <ele>657.6</ele>
        <time>2012-09-30T07:35:52.478Z</time>
      </trkpt>
      <trkpt lat="44.02543" lon="5.67963">
        <ele>657.5</ele>
        <time>2012-09-30T07:35:55.540Z</time>
      </trkpt>
      <trkpt lat="44.02554" lon="5.67966">
        <ele>657.3</ele>
        <time>2012-09-30T07:35:58.476Z</time>
      </trkpt>
      <trkpt lat="44.02565" lon="5.67969">
        <ele>657.1</ele>
        <time>2012-09-30T07:36:01.254Z</time>
      </trkpt>
      <trkpt lat="44.02575" lon="5.67971">
        <ele>657</ele>
        <time>2012-09-30T07:36:04.059Z</time>
      </trkpt>
      <trkpt lat="44.02585" lon="5.6797">
        <ele>657.3</ele>
        <time>2012-09-30T07:36:06.885Z</time>
      </trkpt>
      <trkpt lat="44.02595" lon="5.6797">
        <ele>657.7</ele>
        <time>2012-09-30T07:36:09.708Z</time>
      </trkpt>
      <trkpt lat="44.02605" lon="5.6797">
        <ele>658.2</ele>
        <time>2012-09-30T07:36:12.531Z</time>
      </trkpt>
      <trkpt lat="44.02614" lon="5.67972">
        <ele>658.4</ele>
        <time>2012-09-30T07:36:15.327Z</time>
      </trkpt>
      <trkpt lat="44.02623" lon="5.67976">
        <ele>658.4</ele>
        <time>2012-09-30T07:36:18.098Z</time>
      </trkpt>
      <trkpt lat="44.02632" lon="5.67979">
        <ele>658.5</ele>
        <time>2012-09-30T07:36:20.926Z</time>
      </trkpt>
      <trkpt lat="44.02642" lon="5.67982">
        <ele>658.6</ele>
        <time>2012-09-30T07:36:23.746Z</time>
      </trkpt>
      <trkpt lat="44.02652" lon="5.67982">
        <ele>659.1</ele>
        <time>2012-09-30T07:36:26.522Z</time>
      </trkpt>
      <trkpt lat="44.02662" lon="5.67984">
        <ele>659.3</ele>
        <time>2012-09-30T07:36:29.199Z</time>
      </trkpt>
      <trkpt lat="44.02672" lon="5.67991">
        <ele>659.2</ele>
        <time>2012-09-30T07:36:31.773Z</time>
      </trkpt>
      <trkpt lat="44.02678" lon="5.68001">
        <ele>658.6</ele>
        <time>2012-09-30T07:36:33.698Z</time>
      </trkpt>
      <trkpt lat="44.02689" lon="5.68017">
        <ele>657.9</ele>
        <time>2012-09-30T07:36:36.753Z</time>
      </trkpt>
      <trkpt lat="44.02696" lon="5.68028">
        <ele>657.4</ele>
        <time>2012-09-30T07:36:38.761Z</time>
      </trkpt>
      <trkpt lat="44.02708" lon="5.68043">
        <ele>656.9</ele>
        <time>2012-09-30T07:36:41.701Z</time>
      </trkpt>
      <trkpt lat="44.02719" lon="5.6806">
        <ele>656.1</ele>
        <time>2012-09-30T07:36:44.762Z</time>
      </trkpt>
      <trkpt lat="44.02725" lon="5.68079">
        <ele>654.9</ele>
        <time>2012-09-30T07:36:47.736Z</time>
      </trkpt>
      <trkpt lat="44.02723" lon="5.68098">
        <ele>653.4</ele>
        <time>2012-09-30T07:36:50.504Z</time>
      </trkpt>
      <trkpt lat="44.02724" lon="5.68117">
        <ele>652.3</ele>
        <time>2012-09-30T07:36:53.631Z</time>
      </trkpt>
      <trkpt lat="44.0273" lon="5.68129">
        <ele>651.8</ele>
        <time>2012-09-30T07:36:56.122Z</time>
      </trkpt>
      <trkpt lat="44.02737" lon="5.68143">
        <ele>651.1</ele>
        <time>2012-09-30T07:36:58.893Z</time>
      </trkpt>
      <trkpt lat="44.0275" lon="5.68153">
        <ele>651</ele>
        <time>2012-09-30T07:37:02.009Z</time>
      </trkpt>
      <trkpt lat="44.02763" lon="5.68153">
        <ele>651.5</ele>
        <time>2012-09-30T07:37:04.914Z</time>
      </trkpt>
      <trkpt lat="44.02776" lon="5.68154">
        <ele>651.9</ele>
        <time>2012-09-30T07:37:07.777Z</time>
      </trkpt>
      <trkpt lat="44.02787" lon="5.68158">
        <ele>652</ele>
        <time>2012-09-30T07:37:10.581Z</time>
      </trkpt>
      <trkpt lat="44.02798" lon="5.68162">
        <ele>652.1</ele>
        <time>2012-09-30T07:37:13.359Z</time>
      </trkpt>
      <trkpt lat="44.02808" lon="5.68168">
        <ele>652.2</ele>
        <time>2012-09-30T07:37:16.057Z</time>
      </trkpt>
      <trkpt lat="44.02818" lon="5.68176">
        <ele>653.2</ele>
        <time>2012-09-30T07:37:18.926Z</time>
      </trkpt>
      <trkpt lat="44.02829" lon="5.6818">
        <ele>653.9</ele>
        <time>2012-09-30T07:37:21.818Z</time>
      </trkpt>
      <trkpt lat="44.02839" lon="5.68178">
        <ele>654.2</ele>
        <time>2012-09-30T07:37:24.626Z</time>
      </trkpt>
      <trkpt lat="44.02851" lon="5.6818">
        <ele>655</ele>
        <time>2012-09-30T07:37:28.198Z</time>
      </trkpt>
      <trkpt lat="44.02861" lon="5.68181">
        <ele>655.6</ele>
        <time>2012-09-30T07:37:31.136Z</time>
      </trkpt>
      <trkpt lat="44.02874" lon="5.68174">
        <ele>655.6</ele>
        <time>2012-09-30T07:37:34.223Z</time>
      </trkpt>
      <trkpt lat="44.02884" lon="5.68168">
        <ele>655.6</ele>
        <time>2012-09-30T07:37:36.226Z</time>
      </trkpt>
      <trkpt lat="44.02895" lon="5.68166">
        <ele>656</ele>
        <time>2012-09-30T07:37:38.757Z</time>
      </trkpt>
      <trkpt lat="44.02906" lon="5.68168">
        <ele>656.6</ele>
        <time>2012-09-30T07:37:41.862Z</time>
      </trkpt>
      <trkpt lat="44.02916" lon="5.68171">
        <ele>657.4</ele>
        <time>2012-09-30T07:37:45.906Z</time>
      </trkpt>
      <trkpt lat="44.02927" lon="5.68172">
        <ele>657.7</ele>
        <time>2012-09-30T07:37:51.161Z</time>
      </trkpt>
      <trkpt lat="44.02938" lon="5.68169">
        <ele>657.6</ele>
        <time>2012-09-30T07:37:56.492Z</time>
      </trkpt>
      <trkpt lat="44.02947" lon="5.68165">
        <ele>657.5</ele>
        <time>2012-09-30T07:38:00.820Z</time>
      </trkpt>
      <trkpt lat="44.02956" lon="5.6816">
        <ele>658</ele>
        <time>2012-09-30T07:38:05.060Z</time>
      </trkpt>
      <trkpt lat="44.02964" lon="5.68155">
        <ele>658.5</ele>
        <time>2012-09-30T07:38:09.240Z</time>
      </trkpt>
      <trkpt lat="44.02973" lon="5.6815">
        <ele>658.9</ele>
        <time>2012-09-30T07:38:13.359Z</time>
      </trkpt>
      <trkpt lat="44.02981" lon="5.68145">
        <ele>659.2</ele>
        <time>2012-09-30T07:38:17.412Z</time>
      </trkpt>
      <trkpt lat="44.02991" lon="5.68139">
        <ele>659.4</ele>
        <time>2012-09-30T07:38:22.496Z</time>
      </trkpt>
      <trkpt lat="44.03" lon="5.68134">
        <ele>659.6</ele>
        <time>2012-09-30T07:38:26.726Z</time>
      </trkpt>
      <trkpt lat="44.03008" lon="5.6813">
        <ele>660.2</ele>
        <time>2012-09-30T07:38:31.019Z</time>
      </trkpt>
      <trkpt lat="44.03017" lon="5.68124">
        <ele>661</ele>
        <time>2012-09-30T07:38:35.201Z</time>
      </trkpt>
      <trkpt lat="44.03026" lon="5.68117">
        <ele>661.6</ele>
        <time>2012-09-30T07:38:40.336Z</time>
      </trkpt>
      <trkpt lat="44.03043" lon="5.68127">
        <ele>662.3</ele>
        <time>2012-09-30T07:39:57.778Z</time>
      </trkpt>
      <trkpt lat="44.03052" lon="5.6813">
        <ele>662.8</ele>
        <time>2012-09-30T07:40:00.558Z</time>
      </trkpt>
      <trkpt lat="44.03064" lon="5.68134">
        <ele>663.4</ele>
        <time>2012-09-30T07:40:03.471Z</time>
      </trkpt>
      <trkpt lat="44.03077" lon="5.68132">
        <ele>664.2</ele>
        <time>2012-09-30T07:40:06.459Z</time>
      </trkpt>
      <trkpt lat="44.03088" lon="5.6813">
        <ele>664.9</ele>
        <time>2012-09-30T07:40:09.193Z</time>
      </trkpt>
      <trkpt lat="44.031" lon="5.6813">
        <ele>665.6</ele>
        <time>2012-09-30T07:40:11.837Z</time>
      </trkpt>
      <trkpt lat="44.03112" lon="5.6813">
        <ele>666.4</ele>
        <time>2012-09-30T07:40:14.489Z</time>
      </trkpt>
      <trkpt lat="44.03123" lon="5.68129">
        <ele>667.1</ele>
        <time>2012-09-30T07:40:17.088Z</time>
      </trkpt>
      <trkpt lat="44.03134" lon="5.68129">
        <ele>667.8</ele>
        <time>2012-09-30T07:40:19.671Z</time>
      </trkpt>
      <trkpt lat="44.03144" lon="5.68129">
        <ele>668.4</ele>
        <time>2012-09-30T07:40:22.178Z</time>
      </trkpt>
      <trkpt lat="44.03154" lon="5.68132">
        <ele>669</ele>
        <time>2012-09-30T07:40:24.734Z</time>
      </trkpt>
      <trkpt lat="44.03164" lon="5.68136">
        <ele>669.6</ele>
        <time>2012-09-30T07:40:27.396Z</time>
      </trkpt>
      <trkpt lat="44.03175" lon="5.6814">
        <ele>670</ele>
        <time>2012-09-30T07:40:30.113Z</time>
      </trkpt>
      <trkpt lat="44.03186" lon="5.68144">
        <ele>670.4</ele>
        <time>2012-09-30T07:40:32.990Z</time>
      </trkpt>
      <trkpt lat="44.03198" lon="5.68149">
        <ele>670.7</ele>
        <time>2012-09-30T07:40:35.949Z</time>
      </trkpt>
      <trkpt lat="44.03211" lon="5.68148">
        <ele>671.3</ele>
        <time>2012-09-30T07:40:38.801Z</time>
      </trkpt>
      <trkpt lat="44.03223" lon="5.68144">
        <ele>671.9</ele>
        <time>2012-09-30T07:40:41.501Z</time>
      </trkpt>
      <trkpt lat="44.03234" lon="5.68142">
        <ele>672.5</ele>
        <time>2012-09-30T07:40:44.025Z</time>
      </trkpt>
      <trkpt lat="44.03244" lon="5.68141">
        <ele>673</ele>
        <time>2012-09-30T07:40:46.395Z</time>
      </trkpt>
      <trkpt lat="44.03256" lon="5.6814">
        <ele>673.5</ele>
        <time>2012-09-30T07:40:49.064Z</time>
      </trkpt>
      <trkpt lat="44.03266" lon="5.68138">
        <ele>673.9</ele>
        <time>2012-09-30T07:40:51.545Z</time>
      </trkpt>
      <trkpt lat="44.03276" lon="5.68136">
        <ele>674.3</ele>
        <time>2012-09-30T07:40:54.108Z</time>
      </trkpt>
      <trkpt lat="44.03286" lon="5.68134">
        <ele>674.7</ele>
        <time>2012-09-30T07:40:56.990Z</time>
      </trkpt>
      <trkpt lat="44.03295" lon="5.68131">
        <ele>675.1</ele>
        <time>2012-09-30T07:41:00.151Z</time>
      </trkpt>
      <trkpt lat="44.03306" lon="5.68127">
        <ele>675.6</ele>
        <time>2012-09-30T07:41:04.446Z</time>
      </trkpt>
      <trkpt lat="44.03315" lon="5.68124">
        <ele>676</ele>
        <time>2012-09-30T07:41:08.385Z</time>
      </trkpt>
      <trkpt lat="44.03324" lon="5.68121">
        <ele>676.4</ele>
        <time>2012-09-30T07:41:12.492Z</time>
      </trkpt>
      <trkpt lat="44.03335" lon="5.68118">
        <ele>676.9</ele>
        <time>2012-09-30T07:41:17.021Z</time>
      </trkpt>
      <trkpt lat="44.03346" lon="5.68115">
        <ele>677.7</ele>
        <time>2012-09-30T07:41:22.168Z</time>
      </trkpt>
      <trkpt lat="44.03356" lon="5.6811">
        <ele>678.4</ele>
        <time>2012-09-30T07:41:26.327Z</time>
      </trkpt>
      <trkpt lat="44.03367" lon="5.68106">
        <ele>679</ele>
        <time>2012-09-30T07:41:30.353Z</time>
      </trkpt>
      <trkpt lat="44.03378" lon="5.68102">
        <ele>679.5</ele>
        <time>2012-09-30T07:41:33.939Z</time>
      </trkpt>
      <trkpt lat="44.03388" lon="5.681">
        <ele>679.9</ele>
        <time>2012-09-30T07:41:37.142Z</time>
      </trkpt>
      <trkpt lat="44.03398" lon="5.68096">
        <ele>680.2</ele>
        <time>2012-09-30T07:41:40.067Z</time>
      </trkpt>
      <trkpt lat="44.03408" lon="5.68091">
        <ele>680.3</ele>
        <time>2012-09-30T07:41:43.035Z</time>
      </trkpt>
      <trkpt lat="44.03418" lon="5.68085">
        <ele>680.1</ele>
        <time>2012-09-30T07:41:45.939Z</time>
      </trkpt>
      <trkpt lat="44.03428" lon="5.6808">
        <ele>680.6</ele>
        <time>2012-09-30T07:41:48.980Z</time>
      </trkpt>
      <trkpt lat="44.03438" lon="5.68077">
        <ele>681</ele>
        <time>2012-09-30T07:41:51.938Z</time>
      </trkpt>
      <trkpt lat="44.03449" lon="5.68076">
        <ele>681.1</ele>
        <time>2012-09-30T07:41:55.234Z</time>
      </trkpt>
      <trkpt lat="44.03461" lon="5.68075">
        <ele>681.1</ele>
        <time>2012-09-30T07:41:58.493Z</time>
      </trkpt>
      <trkpt lat="44.03471" lon="5.68074">
        <ele>681.1</ele>
        <time>2012-09-30T07:42:01.181Z</time>
      </trkpt>
      <trkpt lat="44.03482" lon="5.68075">
        <ele>680.7</ele>
        <time>2012-09-30T07:42:04.418Z</time>
      </trkpt>
      <trkpt lat="44.03492" lon="5.68075">
        <ele>680.5</ele>
        <time>2012-09-30T07:42:08.008Z</time>
      </trkpt>
      <trkpt lat="44.03504" lon="5.68075">
        <ele>680.6</ele>
        <time>2012-09-30T07:42:12.143Z</time>
      </trkpt>
      <trkpt lat="44.03513" lon="5.68072">
        <ele>681.5</ele>
        <time>2012-09-30T07:42:15.501Z</time>
      </trkpt>
      <trkpt lat="44.03522" lon="5.68071">
        <ele>682</ele>
        <time>2012-09-30T07:42:18.756Z</time>
      </trkpt>
      <trkpt lat="44.03531" lon="5.6807">
        <ele>682.6</ele>
        <time>2012-09-30T07:42:21.876Z</time>
      </trkpt>
      <trkpt lat="44.03543" lon="5.68068">
        <ele>683.5</ele>
        <time>2012-09-30T07:42:25.802Z</time>
      </trkpt>
      <trkpt lat="44.03554" lon="5.68068">
        <ele>683.9</ele>
        <time>2012-09-30T07:42:29.715Z</time>
      </trkpt>
      <trkpt lat="44.03566" lon="5.68066">
        <ele>684.8</ele>
        <time>2012-09-30T07:42:33.558Z</time>
      </trkpt>
      <trkpt lat="44.03576" lon="5.68063">
        <ele>685.6</ele>
        <time>2012-09-30T07:42:37.252Z</time>
      </trkpt>
      <trkpt lat="44.03587" lon="5.6806">
        <ele>686.3</ele>
        <time>2012-09-30T07:42:41.001Z</time>
      </trkpt>
      <trkpt lat="44.03598" lon="5.68056">
        <ele>686.8</ele>
        <time>2012-09-30T07:42:44.745Z</time>
      </trkpt>
      <trkpt lat="44.03608" lon="5.68054">
        <ele>687</ele>
        <time>2012-09-30T07:42:48.477Z</time>
      </trkpt>
      <trkpt lat="44.03619" lon="5.68056">
        <ele>686.7</ele>
        <time>2012-09-30T07:42:52.132Z</time>
      </trkpt>
      <trkpt lat="44.03629" lon="5.68059">
        <ele>686.2</ele>
        <time>2012-09-30T07:42:55.715Z</time>
      </trkpt>
      <trkpt lat="44.03638" lon="5.68061">
        <ele>685.9</ele>
        <time>2012-09-30T07:42:59.135Z</time>
      </trkpt>
      <trkpt lat="44.03648" lon="5.68063">
        <ele>685.5</ele>
        <time>2012-09-30T07:43:02.719Z</time>
      </trkpt>
      <trkpt lat="44.03658" lon="5.68065">
        <ele>685.2</ele>
        <time>2012-09-30T07:43:06.615Z</time>
      </trkpt>
      <trkpt lat="44.03668" lon="5.68063">
        <ele>685.5</ele>
        <time>2012-09-30T07:43:10.654Z</time>
      </trkpt>
      <trkpt lat="44.03677" lon="5.68058">
        <ele>686.4</ele>
        <time>2012-09-30T07:43:14.748Z</time>
      </trkpt>
      <trkpt lat="44.03688" lon="5.68054">
        <ele>687.3</ele>
        <time>2012-09-30T07:43:19.120Z</time>
      </trkpt>
      <trkpt lat="44.03699" lon="5.6805">
        <ele>688.2</ele>
        <time>2012-09-30T07:43:23.631Z</time>
      </trkpt>
      <trkpt lat="44.0371" lon="5.68048">
        <ele>688.8</ele>
        <time>2012-09-30T07:43:27.992Z</time>
      </trkpt>
      <trkpt lat="44.0372" lon="5.68049">
        <ele>689</ele>
        <time>2012-09-30T07:43:31.725Z</time>
      </trkpt>
      <trkpt lat="44.03731" lon="5.68047">
        <ele>689.7</ele>
        <time>2012-09-30T07:43:35.775Z</time>
      </trkpt>
      <trkpt lat="44.03741" lon="5.68041">
        <ele>690.8</ele>
        <time>2012-09-30T07:43:39.992Z</time>
      </trkpt>
      <trkpt lat="44.0375" lon="5.68035">
        <ele>691.8</ele>
        <time>2012-09-30T07:43:44.261Z</time>
      </trkpt>
      <trkpt lat="44.03761" lon="5.68035">
        <ele>691.4</ele>
        <time>2012-09-30T07:43:48.975Z</time>
      </trkpt>
      <trkpt lat="44.03772" lon="5.68036">
        <ele>690.9</ele>
        <time>2012-09-30T07:43:53.284Z</time>
      </trkpt>
      <trkpt lat="44.03782" lon="5.68036">
        <ele>690.5</ele>
        <time>2012-09-30T07:43:57.449Z</time>
      </trkpt>
      <trkpt lat="44.03792" lon="5.68035">
        <ele>690.2</ele>
        <time>2012-09-30T07:44:01.580Z</time>
      </trkpt>
      <trkpt lat="44.03803" lon="5.68035">
        <ele>689.8</ele>
        <time>2012-09-30T07:44:05.975Z</time>
      </trkpt>
      <trkpt lat="44.03814" lon="5.68037">
        <ele>689.3</ele>
        <time>2012-09-30T07:44:10.733Z</time>
      </trkpt>
      <trkpt lat="44.03822" lon="5.6803">
        <ele>689.2</ele>
        <time>2012-09-30T07:44:15.267Z</time>
      </trkpt>
      <trkpt lat="44.03829" lon="5.68021">
        <ele>689</ele>
        <time>2012-09-30T07:44:19.844Z</time>
      </trkpt>
      <trkpt lat="44.03838" lon="5.68019">
        <ele>688.8</ele>
        <time>2012-09-30T07:44:24.591Z</time>
      </trkpt>
      <trkpt lat="44.03848" lon="5.68019">
        <ele>688.8</ele>
        <time>2012-09-30T07:44:29.027Z</time>
      </trkpt>
      <trkpt lat="44.03857" lon="5.68019">
        <ele>688.9</ele>
        <time>2012-09-30T07:44:33.219Z</time>
      </trkpt>
      <trkpt lat="44.03866" lon="5.68017">
        <ele>688.8</ele>
        <time>2012-09-30T07:44:37.577Z</time>
      </trkpt>
      <trkpt lat="44.03877" lon="5.6801">
        <ele>688.5</ele>
        <time>2012-09-30T07:44:43.178Z</time>
      </trkpt>
      <trkpt lat="44.03888" lon="5.68005">
        <ele>688</ele>
        <time>2012-09-30T07:44:47.475Z</time>
      </trkpt>
      <trkpt lat="44.03899" lon="5.68">
        <ele>687.4</ele>
        <time>2012-09-30T07:44:51.315Z</time>
      </trkpt>
      <trkpt lat="44.0391" lon="5.67998">
        <ele>687.6</ele>
        <time>2012-09-30T07:44:55.159Z</time>
      </trkpt>
      <trkpt lat="44.0392" lon="5.67994">
        <ele>688.3</ele>
        <time>2012-09-30T07:44:59.027Z</time>
      </trkpt>
      <trkpt lat="44.0393" lon="5.6799">
        <ele>689.3</ele>
        <time>2012-09-30T07:45:03.153Z</time>
      </trkpt>
      <trkpt lat="44.0394" lon="5.67987">
        <ele>690.1</ele>
        <time>2012-09-30T07:45:07.488Z</time>
      </trkpt>
      <trkpt lat="44.03952" lon="5.67985">
        <ele>690.6</ele>
        <time>2012-09-30T07:45:12.259Z</time>
      </trkpt>
      <trkpt lat="44.03964" lon="5.67981">
        <ele>691.3</ele>
        <time>2012-09-30T07:45:16.955Z</time>
      </trkpt>
      <trkpt lat="44.03972" lon="5.67977">
        <ele>691.9</ele>
        <time>2012-09-30T07:45:20.420Z</time>
      </trkpt>
      <trkpt lat="44.03983" lon="5.67972">
        <ele>692.4</ele>
        <time>2012-09-30T07:45:24.624Z</time>
      </trkpt>
      <trkpt lat="44.03993" lon="5.67968">
        <ele>692.8</ele>
        <time>2012-09-30T07:45:28.930Z</time>
      </trkpt>
      <trkpt lat="44.04003" lon="5.67965">
        <ele>693.1</ele>
        <time>2012-09-30T07:45:33.454Z</time>
      </trkpt>
      <trkpt lat="44.04025" lon="5.67949">
        <ele>695.4</ele>
        <time>2012-09-30T07:49:30.677Z</time>
      </trkpt>
      <trkpt lat="44.04034" lon="5.67947">
        <ele>696</ele>
        <time>2012-09-30T07:49:35.050Z</time>
      </trkpt>
      <trkpt lat="44.04044" lon="5.67944">
        <ele>696.6</ele>
        <time>2012-09-30T07:49:41.221Z</time>
      </trkpt>
      <trkpt lat="44.04054" lon="5.67946">
        <ele>696.9</ele>
        <time>2012-09-30T07:49:48.554Z</time>
      </trkpt>
      <trkpt lat="44.04063" lon="5.67944">
        <ele>697.5</ele>
        <time>2012-09-30T07:49:55.758Z</time>
      </trkpt>
      <trkpt lat="44.04073" lon="5.67944">
        <ele>697.9</ele>
        <time>2012-09-30T07:50:01.090Z</time>
      </trkpt>
      <trkpt lat="44.04083" lon="5.67945">
        <ele>698.3</ele>
        <time>2012-09-30T07:50:05.326Z</time>
      </trkpt>
      <trkpt lat="44.04092" lon="5.67943">
        <ele>698.5</ele>
        <time>2012-09-30T07:50:09.577Z</time>
      </trkpt>
      <trkpt lat="44.04102" lon="5.6794">
        <ele>698.6</ele>
        <time>2012-09-30T07:50:13.535Z</time>
      </trkpt>
      <trkpt lat="44.04111" lon="5.67939">
        <ele>698.6</ele>
        <time>2012-09-30T07:50:17.611Z</time>
      </trkpt>
      <trkpt lat="44.0412" lon="5.67936">
        <ele>698.5</ele>
        <time>2012-09-30T07:50:21.788Z</time>
      </trkpt>
      <trkpt lat="44.04131" lon="5.67932">
        <ele>698.3</ele>
        <time>2012-09-30T07:50:27.009Z</time>
      </trkpt>
      <trkpt lat="44.04141" lon="5.67927">
        <ele>697.8</ele>
        <time>2012-09-30T07:50:32.286Z</time>
      </trkpt>
      <trkpt lat="44.04151" lon="5.6792">
        <ele>697</ele>
        <time>2012-09-30T07:50:38.026Z</time>
      </trkpt>
      <trkpt lat="44.04159" lon="5.67913">
        <ele>697.4</ele>
        <time>2012-09-30T07:50:43.042Z</time>
      </trkpt>
      <trkpt lat="44.04167" lon="5.67906">
        <ele>699</ele>
        <time>2012-09-30T07:50:47.888Z</time>
      </trkpt>
      <trkpt lat="44.04175" lon="5.67898">
        <ele>701.4</ele>
        <time>2012-09-30T07:50:52.807Z</time>
      </trkpt>
      <trkpt lat="44.04182" lon="5.67891">
        <ele>703.1</ele>
        <time>2012-09-30T07:50:57.426Z</time>
      </trkpt>
      <trkpt lat="44.0419" lon="5.67884">
        <ele>704.6</ele>
        <time>2012-09-30T07:51:01.975Z</time>
      </trkpt>
      <trkpt lat="44.04198" lon="5.67877">
        <ele>705.6</ele>
        <time>2012-09-30T07:51:06.682Z</time>
      </trkpt>
      <trkpt lat="44.04206" lon="5.6787">
        <ele>706.4</ele>
        <time>2012-09-30T07:51:10.987Z</time>
      </trkpt>
      <trkpt lat="44.04215" lon="5.67862">
        <ele>706.8</ele>
        <time>2012-09-30T07:51:15.866Z</time>
      </trkpt>
      <trkpt lat="44.04224" lon="5.67854">
        <ele>706.7</ele>
        <time>2012-09-30T07:51:20.921Z</time>
      </trkpt>
      <trkpt lat="44.04232" lon="5.67846">
        <ele>706.4</ele>
        <time>2012-09-30T07:51:25.193Z</time>
      </trkpt>
      <trkpt lat="44.04239" lon="5.67838">
        <ele>705.8</ele>
        <time>2012-09-30T07:51:29.446Z</time>
      </trkpt>
      <trkpt lat="44.04247" lon="5.67828">
        <ele>706.1</ele>
        <time>2012-09-30T07:51:33.965Z</time>
      </trkpt>
      <trkpt lat="44.04255" lon="5.67819">
        <ele>707.9</ele>
        <time>2012-09-30T07:51:38.622Z</time>
      </trkpt>
      <trkpt lat="44.04262" lon="5.67809">
        <ele>710.1</ele>
        <time>2012-09-30T07:51:44.552Z</time>
      </trkpt>
      <trkpt lat="44.0427" lon="5.678">
        <ele>711.6</ele>
        <time>2012-09-30T07:51:51.866Z</time>
      </trkpt>
      <trkpt lat="44.04279" lon="5.67795">
        <ele>711.8</ele>
        <time>2012-09-30T07:51:59.176Z</time>
      </trkpt>
      <trkpt lat="44.04288" lon="5.67792">
        <ele>711.4</ele>
        <time>2012-09-30T07:52:04.322Z</time>
      </trkpt>
      <trkpt lat="44.04297" lon="5.67786">
        <ele>711.3</ele>
        <time>2012-09-30T07:52:08.825Z</time>
      </trkpt>
      <trkpt lat="44.04305" lon="5.67779">
        <ele>711.2</ele>
        <time>2012-09-30T07:52:13.396Z</time>
      </trkpt>
      <trkpt lat="44.04313" lon="5.6777">
        <ele>711.1</ele>
        <time>2012-09-30T07:52:18.634Z</time>
      </trkpt>
      <trkpt lat="44.04319" lon="5.67761">
        <ele>711.1</ele>
        <time>2012-09-30T07:52:23.978Z</time>
      </trkpt>
      <trkpt lat="44.04326" lon="5.67751">
        <ele>710.6</ele>
        <time>2012-09-30T07:52:30.259Z</time>
      </trkpt>
      <trkpt lat="44.04333" lon="5.67741">
        <ele>711.1</ele>
        <time>2012-09-30T07:52:38.438Z</time>
      </trkpt>
      <trkpt lat="44.04341" lon="5.67734">
        <ele>712</ele>
        <time>2012-09-30T07:52:47.689Z</time>
      </trkpt>
      <trkpt lat="44.04348" lon="5.67726">
        <ele>713</ele>
        <time>2012-09-30T07:52:56.205Z</time>
      </trkpt>
      <trkpt lat="44.04356" lon="5.67717">
        <ele>713.9</ele>
        <time>2012-09-30T07:53:03.861Z</time>
      </trkpt>
      <trkpt lat="44.04363" lon="5.67708">
        <ele>714.6</ele>
        <time>2012-09-30T07:53:11.410Z</time>
      </trkpt>
      <trkpt lat="44.0437" lon="5.677">
        <ele>715</ele>
        <time>2012-09-30T07:53:21.310Z</time>
      </trkpt>
      <trkpt lat="44.04378" lon="5.67693">
        <ele>714.9</ele>
        <time>2012-09-30T07:53:31.808Z</time>
      </trkpt>
      <trkpt lat="44.04386" lon="5.67684">
        <ele>714.9</ele>
        <time>2012-09-30T07:53:40.171Z</time>
      </trkpt>
      <trkpt lat="44.04393" lon="5.67674">
        <ele>714.9</ele>
        <time>2012-09-30T07:53:45.340Z</time>
      </trkpt>
      <trkpt lat="44.044" lon="5.67664">
        <ele>715.1</ele>
        <time>2012-09-30T07:53:50.109Z</time>
      </trkpt>
      <trkpt lat="44.04406" lon="5.67655">
        <ele>716.1</ele>
        <time>2012-09-30T07:53:54.008Z</time>
      </trkpt>
      <trkpt lat="44.04414" lon="5.67648">
        <ele>716.2</ele>
        <time>2012-09-30T07:53:58.268Z</time>
      </trkpt>
      <trkpt lat="44.04423" lon="5.67642">
        <ele>716.8</ele>
        <time>2012-09-30T07:54:03.286Z</time>
      </trkpt>
      <trkpt lat="44.04433" lon="5.67634">
        <ele>717.7</ele>
        <time>2012-09-30T07:54:09.185Z</time>
      </trkpt>
      <trkpt lat="44.04442" lon="5.67628">
        <ele>717.9</ele>
        <time>2012-09-30T07:54:14.801Z</time>
      </trkpt>
      <trkpt lat="44.04451" lon="5.67623">
        <ele>717.7</ele>
        <time>2012-09-30T07:54:19.873Z</time>
      </trkpt>
      <trkpt lat="44.04459" lon="5.67616">
        <ele>717.6</ele>
        <time>2012-09-30T07:54:24.914Z</time>
      </trkpt>
      <trkpt lat="44.04469" lon="5.67607">
        <ele>717</ele>
        <time>2012-09-30T07:54:29.948Z</time>
      </trkpt>
      <trkpt lat="44.04478" lon="5.676">
        <ele>716</ele>
        <time>2012-09-30T07:54:33.729Z</time>
      </trkpt>
      <trkpt lat="44.04487" lon="5.67594">
        <ele>714.6</ele>
        <time>2012-09-30T07:54:37.939Z</time>
      </trkpt>
      <trkpt lat="44.04495" lon="5.67589">
        <ele>713.1</ele>
        <time>2012-09-30T07:54:41.913Z</time>
      </trkpt>
      <trkpt lat="44.04503" lon="5.67584">
        <ele>711.9</ele>
        <time>2012-09-30T07:54:45.990Z</time>
      </trkpt>
      <trkpt lat="44.04514" lon="5.6758">
        <ele>712.4</ele>
        <time>2012-09-30T07:54:51.156Z</time>
      </trkpt>
      <trkpt lat="44.04523" lon="5.6758">
        <ele>711.9</ele>
        <time>2012-09-30T07:54:55.396Z</time>
      </trkpt>
      <trkpt lat="44.04533" lon="5.6758">
        <ele>711.4</ele>
        <time>2012-09-30T07:55:00.336Z</time>
      </trkpt>
      <trkpt lat="44.04544" lon="5.67579">
        <ele>711</ele>
        <time>2012-09-30T07:55:05.339Z</time>
      </trkpt>
      <trkpt lat="44.04559" lon="5.67576">
        <ele>710.9</ele>
        <time>2012-09-30T07:55:12.948Z</time>
      </trkpt>
      <trkpt lat="44.04569" lon="5.67574">
        <ele>710.8</ele>
        <time>2012-09-30T07:55:17.588Z</time>
      </trkpt>
      <trkpt lat="44.04579" lon="5.67572">
        <ele>710.6</ele>
        <time>2012-09-30T07:55:23.138Z</time>
      </trkpt>
      <trkpt lat="44.04589" lon="5.67569">
        <ele>711.1</ele>
        <time>2012-09-30T07:55:28.845Z</time>
      </trkpt>
      <trkpt lat="44.04601" lon="5.67564">
        <ele>712.2</ele>
        <time>2012-09-30T07:55:36.356Z</time>
      </trkpt>
      <trkpt lat="44.0461" lon="5.67565">
        <ele>712.2</ele>
        <time>2012-09-30T07:55:41.356Z</time>
      </trkpt>
      <trkpt lat="44.04619" lon="5.67568">
        <ele>711.9</ele>
        <time>2012-09-30T07:55:46.117Z</time>
      </trkpt>
      <trkpt lat="44.04631" lon="5.67574">
        <ele>711.4</ele>
        <time>2012-09-30T07:55:52.119Z</time>
      </trkpt>
      <trkpt lat="44.04641" lon="5.67577">
        <ele>711.4</ele>
        <time>2012-09-30T07:55:57.603Z</time>
      </trkpt>
      <trkpt lat="44.04651" lon="5.67576">
        <ele>711.9</ele>
        <time>2012-09-30T07:56:03.123Z</time>
      </trkpt>
      <trkpt lat="44.04662" lon="5.67572">
        <ele>712.5</ele>
        <time>2012-09-30T07:56:09.033Z</time>
      </trkpt>
      <trkpt lat="44.04671" lon="5.6757">
        <ele>712.7</ele>
        <time>2012-09-30T07:56:14.076Z</time>
      </trkpt>
      <trkpt lat="44.04681" lon="5.67565">
        <ele>712.9</ele>
        <time>2012-09-30T07:56:20.351Z</time>
      </trkpt>
      <trkpt lat="44.04691" lon="5.6756">
        <ele>712.9</ele>
        <time>2012-09-30T07:56:26.670Z</time>
      </trkpt>
      <trkpt lat="44.04704" lon="5.67556">
        <ele>712.9</ele>
        <time>2012-09-30T07:56:35.360Z</time>
      </trkpt>
      <trkpt lat="44.04713" lon="5.6755">
        <ele>713</ele>
        <time>2012-09-30T07:56:41.819Z</time>
      </trkpt>
      <trkpt lat="44.0472" lon="5.67542">
        <ele>713.2</ele>
        <time>2012-09-30T07:56:46.821Z</time>
      </trkpt>
      <trkpt lat="44.04728" lon="5.67534">
        <ele>713.4</ele>
        <time>2012-09-30T07:56:51.293Z</time>
      </trkpt>
      <trkpt lat="44.04738" lon="5.67532">
        <ele>713.2</ele>
        <time>2012-09-30T07:56:55.494Z</time>
      </trkpt>
      <trkpt lat="44.04747" lon="5.67523">
        <ele>713.3</ele>
        <time>2012-09-30T07:56:59.658Z</time>
      </trkpt>
      <trkpt lat="44.04757" lon="5.67516">
        <ele>713.2</ele>
        <time>2012-09-30T07:57:03.527Z</time>
      </trkpt>
      <trkpt lat="44.04766" lon="5.67509">
        <ele>713.1</ele>
        <time>2012-09-30T07:57:07.237Z</time>
      </trkpt>
      <trkpt lat="44.04774" lon="5.67502">
        <ele>712.8</ele>
        <time>2012-09-30T07:57:10.396Z</time>
      </trkpt>
      <trkpt lat="44.04785" lon="5.67495">
        <ele>713.6</ele>
        <time>2012-09-30T07:57:14.312Z</time>
      </trkpt>
      <trkpt lat="44.04795" lon="5.67492">
        <ele>713.8</ele>
        <time>2012-09-30T07:57:17.582Z</time>
      </trkpt>
      <trkpt lat="44.04806" lon="5.67486">
        <ele>714.5</ele>
        <time>2012-09-30T07:57:21.198Z</time>
      </trkpt>
      <trkpt lat="44.04813" lon="5.67479">
        <ele>715.6</ele>
        <time>2012-09-30T07:57:24.000Z</time>
      </trkpt>
      <trkpt lat="44.0482" lon="5.6747">
        <ele>716.9</ele>
        <time>2012-09-30T07:57:27.012Z</time>
      </trkpt>
      <trkpt lat="44.04828" lon="5.67462">
        <ele>717.8</ele>
        <time>2012-09-30T07:57:30.120Z</time>
      </trkpt>
      <trkpt lat="44.04836" lon="5.67455">
        <ele>718.7</ele>
        <time>2012-09-30T07:57:33.310Z</time>
      </trkpt>
      <trkpt lat="44.04846" lon="5.67447">
        <ele>720.1</ele>
        <time>2012-09-30T07:57:37.293Z</time>
      </trkpt>
      <trkpt lat="44.04856" lon="5.6744">
        <ele>720.9</ele>
        <time>2012-09-30T07:57:41.006Z</time>
      </trkpt>
      <trkpt lat="44.04864" lon="5.67433">
        <ele>721.5</ele>
        <time>2012-09-30T07:57:44.450Z</time>
      </trkpt>
      <trkpt lat="44.04874" lon="5.67428">
        <ele>721.5</ele>
        <time>2012-09-30T07:57:48.142Z</time>
      </trkpt>
      <trkpt lat="44.04883" lon="5.67422">
        <ele>721.5</ele>
        <time>2012-09-30T07:57:51.772Z</time>
      </trkpt>
      <trkpt lat="44.04891" lon="5.67416">
        <ele>721.4</ele>
        <time>2012-09-30T07:57:55.159Z</time>
      </trkpt>
      <trkpt lat="44.04899" lon="5.6741">
        <ele>722.6</ele>
        <time>2012-09-30T07:57:58.564Z</time>
      </trkpt>
      <trkpt lat="44.0491" lon="5.67405">
        <ele>723.3</ele>
        <time>2012-09-30T07:58:03.756Z</time>
      </trkpt>
      <trkpt lat="44.0492" lon="5.67399">
        <ele>724.4</ele>
        <time>2012-09-30T07:58:09.204Z</time>
      </trkpt>
      <trkpt lat="44.04929" lon="5.67392">
        <ele>726.2</ele>
        <time>2012-09-30T07:58:16.278Z</time>
      </trkpt>
      <trkpt lat="44.04938" lon="5.67386">
        <ele>727.4</ele>
        <time>2012-09-30T07:58:23.909Z</time>
      </trkpt>
      <trkpt lat="44.04948" lon="5.67385">
        <ele>727.1</ele>
        <time>2012-09-30T07:58:29.258Z</time>
      </trkpt>
      <trkpt lat="44.04957" lon="5.67381">
        <ele>727.5</ele>
        <time>2012-09-30T07:58:34.410Z</time>
      </trkpt>
      <trkpt lat="44.04966" lon="5.67376">
        <ele>727.9</ele>
        <time>2012-09-30T07:58:40.530Z</time>
      </trkpt>
      <trkpt lat="44.04975" lon="5.67374">
        <ele>727.6</ele>
        <time>2012-09-30T07:58:47.929Z</time>
      </trkpt>
      <trkpt lat="44.04984" lon="5.67371">
        <ele>727.4</ele>
        <time>2012-09-30T07:58:58.016Z</time>
      </trkpt>
      <trkpt lat="44.04994" lon="5.67368">
        <ele>727</ele>
        <time>2012-09-30T07:59:07.383Z</time>
      </trkpt>
      <trkpt lat="44.05004" lon="5.67366">
        <ele>726.7</ele>
        <time>2012-09-30T07:59:13.588Z</time>
      </trkpt>
      <trkpt lat="44.05015" lon="5.67365">
        <ele>726.9</ele>
        <time>2012-09-30T07:59:18.694Z</time>
      </trkpt>
      <trkpt lat="44.05025" lon="5.67365">
        <ele>726.9</ele>
        <time>2012-09-30T07:59:22.747Z</time>
      </trkpt>
      <trkpt lat="44.05034" lon="5.67362">
        <ele>727.1</ele>
        <time>2012-09-30T07:59:26.579Z</time>
      </trkpt>
      <trkpt lat="44.05044" lon="5.67363">
        <ele>727</ele>
        <time>2012-09-30T07:59:30.713Z</time>
      </trkpt>
      <trkpt lat="44.05054" lon="5.6737">
        <ele>726.7</ele>
        <time>2012-09-30T07:59:35.093Z</time>
      </trkpt>
      <trkpt lat="44.05063" lon="5.67377">
        <ele>726.6</ele>
        <time>2012-09-30T07:59:38.997Z</time>
      </trkpt>
      <trkpt lat="44.05073" lon="5.67382">
        <ele>726.7</ele>
        <time>2012-09-30T07:59:42.940Z</time>
      </trkpt>
      <trkpt lat="44.05082" lon="5.67386">
        <ele>727</ele>
        <time>2012-09-30T07:59:46.355Z</time>
      </trkpt>
      <trkpt lat="44.05092" lon="5.67389">
        <ele>727</ele>
        <time>2012-09-30T07:59:50.200Z</time>
      </trkpt>
      <trkpt lat="44.051" lon="5.67386">
        <ele>727</ele>
        <time>2012-09-30T07:59:53.764Z</time>
      </trkpt>
      <trkpt lat="44.0511" lon="5.6738">
        <ele>727.1</ele>
        <time>2012-09-30T07:59:57.618Z</time>
      </trkpt>
      <trkpt lat="44.05119" lon="5.6738">
        <ele>727.1</ele>
        <time>2012-09-30T08:00:00.885Z</time>
      </trkpt>
      <trkpt lat="44.05129" lon="5.67382">
        <ele>727.1</ele>
        <time>2012-09-30T08:00:04.612Z</time>
      </trkpt>
      <trkpt lat="44.05141" lon="5.67385">
        <ele>727.1</ele>
        <time>2012-09-30T08:00:08.650Z</time>
      </trkpt>
      <trkpt lat="44.05152" lon="5.67388">
        <ele>727</ele>
        <time>2012-09-30T08:00:12.890Z</time>
      </trkpt>
      <trkpt lat="44.05163" lon="5.6739">
        <ele>727</ele>
        <time>2012-09-30T08:00:17.083Z</time>
      </trkpt>
      <trkpt lat="44.05174" lon="5.67391">
        <ele>726.7</ele>
        <time>2012-09-30T08:00:21.228Z</time>
      </trkpt>
      <trkpt lat="44.05185" lon="5.67394">
        <ele>726.1</ele>
        <time>2012-09-30T08:00:25.506Z</time>
      </trkpt>
      <trkpt lat="44.05196" lon="5.67394">
        <ele>725.7</ele>
        <time>2012-09-30T08:00:29.611Z</time>
      </trkpt>
      <trkpt lat="44.05205" lon="5.67394">
        <ele>725.4</ele>
        <time>2012-09-30T08:00:33.258Z</time>
      </trkpt>
      <trkpt lat="44.05215" lon="5.67395">
        <ele>724.9</ele>
        <time>2012-09-30T08:00:36.651Z</time>
      </trkpt>
      <trkpt lat="44.05226" lon="5.67395">
        <ele>724.5</ele>
        <time>2012-09-30T08:00:40.112Z</time>
      </trkpt>
      <trkpt lat="44.05235" lon="5.67397">
        <ele>724</ele>
        <time>2012-09-30T08:00:43.013Z</time>
      </trkpt>
      <trkpt lat="44.05244" lon="5.67399">
        <ele>723.5</ele>
        <time>2012-09-30T08:00:46.085Z</time>
      </trkpt>
      <trkpt lat="44.05254" lon="5.67401">
        <ele>723.1</ele>
        <time>2012-09-30T08:00:49.259Z</time>
      </trkpt>
      <trkpt lat="44.05264" lon="5.67401">
        <ele>723</ele>
        <time>2012-09-30T08:00:52.454Z</time>
      </trkpt>
      <trkpt lat="44.05274" lon="5.674">
        <ele>722.9</ele>
        <time>2012-09-30T08:00:55.756Z</time>
      </trkpt>
      <trkpt lat="44.05284" lon="5.67399">
        <ele>722.8</ele>
        <time>2012-09-30T08:00:59.516Z</time>
      </trkpt>
      <trkpt lat="44.05293" lon="5.67398">
        <ele>722.8</ele>
        <time>2012-09-30T08:01:03.328Z</time>
      </trkpt>
      <trkpt lat="44.05303" lon="5.67391">
        <ele>722.9</ele>
        <time>2012-09-30T08:01:07.843Z</time>
      </trkpt>
      <trkpt lat="44.0531" lon="5.67379">
        <ele>723.1</ele>
        <time>2012-09-30T08:01:12.074Z</time>
      </trkpt>
      <trkpt lat="44.05318" lon="5.67367">
        <ele>723.1</ele>
        <time>2012-09-30T08:01:16.011Z</time>
      </trkpt>
      <trkpt lat="44.05325" lon="5.67359">
        <ele>723</ele>
        <time>2012-09-30T08:01:19.152Z</time>
      </trkpt>
      <trkpt lat="44.05333" lon="5.67349">
        <ele>722.8</ele>
        <time>2012-09-30T08:01:22.619Z</time>
      </trkpt>
      <trkpt lat="44.0534" lon="5.67335">
        <ele>722.7</ele>
        <time>2012-09-30T08:01:26.470Z</time>
      </trkpt>
      <trkpt lat="44.05348" lon="5.67326">
        <ele>722.6</ele>
        <time>2012-09-30T08:01:29.563Z</time>
      </trkpt>
      <trkpt lat="44.05359" lon="5.67322">
        <ele>722.2</ele>
        <time>2012-09-30T08:01:33.177Z</time>
      </trkpt>
      <trkpt lat="44.0537" lon="5.67326">
        <ele>721.8</ele>
        <time>2012-09-30T08:01:36.814Z</time>
      </trkpt>
      <trkpt lat="44.05379" lon="5.6733">
        <ele>721.4</ele>
        <time>2012-09-30T08:01:39.538Z</time>
      </trkpt>
      <trkpt lat="44.05387" lon="5.67334">
        <ele>721.1</ele>
        <time>2012-09-30T08:01:42.226Z</time>
      </trkpt>
      <trkpt lat="44.05396" lon="5.67337">
        <ele>720.8</ele>
        <time>2012-09-30T08:01:44.979Z</time>
      </trkpt>
      <trkpt lat="44.05405" lon="5.6734">
        <ele>720.5</ele>
        <time>2012-09-30T08:01:47.764Z</time>
      </trkpt>
      <trkpt lat="44.05414" lon="5.67342">
        <ele>720.3</ele>
        <time>2012-09-30T08:01:50.480Z</time>
      </trkpt>
      <trkpt lat="44.05423" lon="5.67345">
        <ele>720.3</ele>
        <time>2012-09-30T08:01:53.242Z</time>
      </trkpt>
      <trkpt lat="44.05432" lon="5.67348">
        <ele>720.3</ele>
        <time>2012-09-30T08:01:56.046Z</time>
      </trkpt>
      <trkpt lat="44.05441" lon="5.67351">
        <ele>720.3</ele>
        <time>2012-09-30T08:01:58.886Z</time>
      </trkpt>
      <trkpt lat="44.05453" lon="5.67354">
        <ele>720.3</ele>
        <time>2012-09-30T08:02:02.553Z</time>
      </trkpt>
      <trkpt lat="44.05464" lon="5.67358">
        <ele>720.3</ele>
        <time>2012-09-30T08:02:06.242Z</time>
      </trkpt>
      <trkpt lat="44.05476" lon="5.67362">
        <ele>720.2</ele>
        <time>2012-09-30T08:02:09.902Z</time>
      </trkpt>
      <trkpt lat="44.05487" lon="5.67366">
        <ele>720.1</ele>
        <time>2012-09-30T08:02:13.526Z</time>
      </trkpt>
      <trkpt lat="44.05496" lon="5.67369">
        <ele>720</ele>
        <time>2012-09-30T08:02:16.308Z</time>
      </trkpt>
      <trkpt lat="44.05505" lon="5.67372">
        <ele>720.1</ele>
        <time>2012-09-30T08:02:19.111Z</time>
      </trkpt>
      <trkpt lat="44.05514" lon="5.67375">
        <ele>720.3</ele>
        <time>2012-09-30T08:02:21.888Z</time>
      </trkpt>
      <trkpt lat="44.05523" lon="5.67378">
        <ele>720.4</ele>
        <time>2012-09-30T08:02:24.621Z</time>
      </trkpt>
      <trkpt lat="44.05535" lon="5.67381">
        <ele>720.7</ele>
        <time>2012-09-30T08:02:28.199Z</time>
      </trkpt>
      <trkpt lat="44.05546" lon="5.67385">
        <ele>720.9</ele>
        <time>2012-09-30T08:02:31.780Z</time>
      </trkpt>
      <trkpt lat="44.05555" lon="5.67387">
        <ele>721.1</ele>
        <time>2012-09-30T08:02:34.567Z</time>
      </trkpt>
      <trkpt lat="44.05564" lon="5.6739">
        <ele>721.3</ele>
        <time>2012-09-30T08:02:37.361Z</time>
      </trkpt>
      <trkpt lat="44.05575" lon="5.67393">
        <ele>721.5</ele>
        <time>2012-09-30T08:02:40.862Z</time>
      </trkpt>
      <trkpt lat="44.05587" lon="5.67397">
        <ele>721.9</ele>
        <time>2012-09-30T08:02:44.783Z</time>
      </trkpt>
      <trkpt lat="44.05596" lon="5.674">
        <ele>722.3</ele>
        <time>2012-09-30T08:02:48.578Z</time>
      </trkpt>
      <trkpt lat="44.05596" lon="5.67413">
        <ele>722.4</ele>
        <time>2012-09-30T08:02:53.456Z</time>
      </trkpt>
      <trkpt lat="44.05585" lon="5.67432">
        <ele>722.6</ele>
        <time>2012-09-30T08:03:27.946Z</time>
      </trkpt>
      <trkpt lat="44.05581" lon="5.67448">
        <ele>723.1</ele>
        <time>2012-09-30T08:03:32.129Z</time>
      </trkpt>
      <trkpt lat="44.05576" lon="5.67459">
        <ele>723.5</ele>
        <time>2012-09-30T08:03:35.144Z</time>
      </trkpt>
      <trkpt lat="44.05572" lon="5.67471">
        <ele>724</ele>
        <time>2012-09-30T08:03:38.197Z</time>
      </trkpt>
      <trkpt lat="44.05567" lon="5.67482">
        <ele>724.6</ele>
        <time>2012-09-30T08:03:41.156Z</time>
      </trkpt>
      <trkpt lat="44.05563" lon="5.67493">
        <ele>725.2</ele>
        <time>2012-09-30T08:03:44.152Z</time>
      </trkpt>
      <trkpt lat="44.05558" lon="5.67504">
        <ele>726</ele>
        <time>2012-09-30T08:03:47.034Z</time>
      </trkpt>
      <trkpt lat="44.05552" lon="5.67518">
        <ele>727.6</ele>
        <time>2012-09-30T08:03:50.700Z</time>
      </trkpt>
      <trkpt lat="44.05546" lon="5.67532">
        <ele>729.3</ele>
        <time>2012-09-30T08:03:54.513Z</time>
      </trkpt>
      <trkpt lat="44.0554" lon="5.67546">
        <ele>731.1</ele>
        <time>2012-09-30T08:03:58.222Z</time>
      </trkpt>
      <trkpt lat="44.05533" lon="5.67559">
        <ele>732.9</ele>
        <time>2012-09-30T08:04:02.156Z</time>
      </trkpt>
      <trkpt lat="44.05527" lon="5.67568">
        <ele>734.3</ele>
        <time>2012-09-30T08:04:05.215Z</time>
      </trkpt>
      <trkpt lat="44.05518" lon="5.67577">
        <ele>735.9</ele>
        <time>2012-09-30T08:04:09.107Z</time>
      </trkpt>
      <trkpt lat="44.05508" lon="5.6758">
        <ele>737</ele>
        <time>2012-09-30T08:04:13.219Z</time>
      </trkpt>
      <trkpt lat="44.05497" lon="5.67584">
        <ele>738.4</ele>
        <time>2012-09-30T08:04:18.109Z</time>
      </trkpt>
      <trkpt lat="44.05493" lon="5.67596">
        <ele>739</ele>
        <time>2012-09-30T08:04:22.869Z</time>
      </trkpt>
      <trkpt lat="44.05493" lon="5.6761">
        <ele>739.1</ele>
        <time>2012-09-30T08:04:28.070Z</time>
      </trkpt>
      <trkpt lat="44.0549" lon="5.67622">
        <ele>739.6</ele>
        <time>2012-09-30T08:04:33.126Z</time>
      </trkpt>
      <trkpt lat="44.05491" lon="5.67637">
        <ele>739.7</ele>
        <time>2012-09-30T08:04:38.805Z</time>
      </trkpt>
      <trkpt lat="44.05496" lon="5.67649">
        <ele>739.2</ele>
        <time>2012-09-30T08:04:44.353Z</time>
      </trkpt>
      <trkpt lat="44.05505" lon="5.67659">
        <ele>738.6</ele>
        <time>2012-09-30T08:04:49.778Z</time>
      </trkpt>
      <trkpt lat="44.05512" lon="5.67668">
        <ele>738.4</ele>
        <time>2012-09-30T08:04:54.032Z</time>
      </trkpt>
      <trkpt lat="44.05517" lon="5.67678">
        <ele>738.8</ele>
        <time>2012-09-30T08:04:58.181Z</time>
      </trkpt>
      <trkpt lat="44.05524" lon="5.67689">
        <ele>739.1</ele>
        <time>2012-09-30T08:05:03.128Z</time>
      </trkpt>
      <trkpt lat="44.05531" lon="5.67699">
        <ele>739.3</ele>
        <time>2012-09-30T08:05:08.224Z</time>
      </trkpt>
      <trkpt lat="44.05538" lon="5.67709">
        <ele>739.5</ele>
        <time>2012-09-30T08:05:13.373Z</time>
      </trkpt>
      <trkpt lat="44.05544" lon="5.6772">
        <ele>739.9</ele>
        <time>2012-09-30T08:05:19.031Z</time>
      </trkpt>
      <trkpt lat="44.05553" lon="5.67725">
        <ele>739.6</ele>
        <time>2012-09-30T08:05:25.064Z</time>
      </trkpt>
      <trkpt lat="44.05562" lon="5.6772">
        <ele>738.6</ele>
        <time>2012-09-30T08:05:31.043Z</time>
      </trkpt>
      <trkpt lat="44.05571" lon="5.67716">
        <ele>737.8</ele>
        <time>2012-09-30T08:05:36.128Z</time>
      </trkpt>
      <trkpt lat="44.05581" lon="5.67713">
        <ele>736.9</ele>
        <time>2012-09-30T08:05:41.617Z</time>
      </trkpt>
      <trkpt lat="44.0559" lon="5.6771">
        <ele>736.7</ele>
        <time>2012-09-30T08:05:46.170Z</time>
      </trkpt>
      <trkpt lat="44.05599" lon="5.67704">
        <ele>736.4</ele>
        <time>2012-09-30T08:05:50.453Z</time>
      </trkpt>
      <trkpt lat="44.05608" lon="5.67695">
        <ele>735.7</ele>
        <time>2012-09-30T08:05:55.060Z</time>
      </trkpt>
      <trkpt lat="44.05616" lon="5.67689">
        <ele>735.2</ele>
        <time>2012-09-30T08:05:58.411Z</time>
      </trkpt>
      <trkpt lat="44.05624" lon="5.67683">
        <ele>734.6</ele>
        <time>2012-09-30T08:06:01.659Z</time>
      </trkpt>
      <trkpt lat="44.05634" lon="5.67678">
        <ele>734</ele>
        <time>2012-09-30T08:06:05.726Z</time>
      </trkpt>
      <trkpt lat="44.05644" lon="5.67676">
        <ele>733.6</ele>
        <time>2012-09-30T08:06:09.826Z</time>
      </trkpt>
      <trkpt lat="44.05655" lon="5.67677">
        <ele>733.5</ele>
        <time>2012-09-30T08:06:14.381Z</time>
      </trkpt>
      <trkpt lat="44.05665" lon="5.67677">
        <ele>733.4</ele>
        <time>2012-09-30T08:06:19.056Z</time>
      </trkpt>
      <trkpt lat="44.05674" lon="5.67677">
        <ele>734.1</ele>
        <time>2012-09-30T08:06:24.328Z</time>
      </trkpt>
      <trkpt lat="44.05684" lon="5.67677">
        <ele>735.1</ele>
        <time>2012-09-30T08:06:30.460Z</time>
      </trkpt>
      <trkpt lat="44.05692" lon="5.67671">
        <ele>735</ele>
        <time>2012-09-30T08:06:36.553Z</time>
      </trkpt>
      <trkpt lat="44.057" lon="5.67665">
        <ele>735.1</ele>
        <time>2012-09-30T08:06:41.989Z</time>
      </trkpt>
      <trkpt lat="44.05709" lon="5.6766">
        <ele>735.7</ele>
        <time>2012-09-30T08:06:46.771Z</time>
      </trkpt>
      <trkpt lat="44.05719" lon="5.67656">
        <ele>736.3</ele>
        <time>2012-09-30T08:06:51.251Z</time>
      </trkpt>
      <trkpt lat="44.05729" lon="5.67653">
        <ele>736.9</ele>
        <time>2012-09-30T08:06:55.562Z</time>
      </trkpt>
      <trkpt lat="44.05739" lon="5.6765">
        <ele>737.5</ele>
        <time>2012-09-30T08:06:59.913Z</time>
      </trkpt>
      <trkpt lat="44.0575" lon="5.67649">
        <ele>738.3</ele>
        <time>2012-09-30T08:07:04.311Z</time>
      </trkpt>
      <trkpt lat="44.05759" lon="5.67646">
        <ele>738.7</ele>
        <time>2012-09-30T08:07:08.671Z</time>
      </trkpt>
      <trkpt lat="44.05769" lon="5.6765">
        <ele>739.9</ele>
        <time>2012-09-30T08:07:13.568Z</time>
      </trkpt>
      <trkpt lat="44.05779" lon="5.67652">
        <ele>740.8</ele>
        <time>2012-09-30T08:07:18.823Z</time>
      </trkpt>
      <trkpt lat="44.05788" lon="5.6765">
        <ele>741.3</ele>
        <time>2012-09-30T08:07:24.511Z</time>
      </trkpt>
      <trkpt lat="44.05797" lon="5.67647">
        <ele>741.7</ele>
        <time>2012-09-30T08:07:30.634Z</time>
      </trkpt>
      <trkpt lat="44.05807" lon="5.67645">
        <ele>742.2</ele>
        <time>2012-09-30T08:07:37.298Z</time>
      </trkpt>
      <trkpt lat="44.05818" lon="5.67643">
        <ele>742.7</ele>
        <time>2012-09-30T08:07:45.404Z</time>
      </trkpt>
      <trkpt lat="44.05827" lon="5.67644">
        <ele>743.5</ele>
        <time>2012-09-30T08:07:53.819Z</time>
      </trkpt>
      <trkpt lat="44.05836" lon="5.67647">
        <ele>744.6</ele>
        <time>2012-09-30T08:08:03.883Z</time>
      </trkpt>
      <trkpt lat="44.05845" lon="5.67643">
        <ele>744.6</ele>
        <time>2012-09-30T08:08:15.055Z</time>
      </trkpt>
      <trkpt lat="44.05855" lon="5.67645">
        <ele>745.4</ele>
        <time>2012-09-30T08:08:26.557Z</time>
      </trkpt>
      <trkpt lat="44.05864" lon="5.67649">
        <ele>746.6</ele>
        <time>2012-09-30T08:08:38.332Z</time>
      </trkpt>
      <trkpt lat="44.05874" lon="5.67653">
        <ele>747.8</ele>
        <time>2012-09-30T08:08:50.842Z</time>
      </trkpt>
      <trkpt lat="44.05884" lon="5.67656">
        <ele>748.9</ele>
        <time>2012-09-30T08:09:01.707Z</time>
      </trkpt>
      <trkpt lat="44.05893" lon="5.67658">
        <ele>749.9</ele>
        <time>2012-09-30T08:09:11.464Z</time>
      </trkpt>
      <trkpt lat="44.05918" lon="5.6766">
        <ele>752</ele>
        <time>2012-09-30T08:10:03.009Z</time>
      </trkpt>
      <trkpt lat="44.05925" lon="5.67652">
        <ele>751.3</ele>
        <time>2012-09-30T08:10:11.466Z</time>
      </trkpt>
      <trkpt lat="44.05947" lon="5.67645">
        <ele>752.8</ele>
        <time>2012-09-30T08:11:42.896Z</time>
      </trkpt>
      <trkpt lat="44.05957" lon="5.67644">
        <ele>753.9</ele>
        <time>2012-09-30T08:11:51.220Z</time>
      </trkpt>
      <trkpt lat="44.05967" lon="5.67643">
        <ele>755</ele>
        <time>2012-09-30T08:12:01.270Z</time>
      </trkpt>
      <trkpt lat="44.05976" lon="5.67641">
        <ele>755.9</ele>
        <time>2012-09-30T08:12:10.466Z</time>
      </trkpt>
      <trkpt lat="44.05994" lon="5.67649">
        <ele>759.2</ele>
        <time>2012-09-30T08:12:53.845Z</time>
      </trkpt>
      <trkpt lat="44.06003" lon="5.67656">
        <ele>761.1</ele>
        <time>2012-09-30T08:13:04.261Z</time>
      </trkpt>
      <trkpt lat="44.06012" lon="5.67656">
        <ele>762.1</ele>
        <time>2012-09-30T08:13:14.465Z</time>
      </trkpt>
      <trkpt lat="44.06035" lon="5.67659">
        <ele>765.2</ele>
        <time>2012-09-30T08:14:02.291Z</time>
      </trkpt>
      <trkpt lat="44.06044" lon="5.67656">
        <ele>765.9</ele>
        <time>2012-09-30T08:14:11.391Z</time>
      </trkpt>
      <trkpt lat="44.06054" lon="5.67652">
        <ele>766.5</ele>
        <time>2012-09-30T08:14:19.928Z</time>
      </trkpt>
      <trkpt lat="44.06066" lon="5.67647">
        <ele>767.2</ele>
        <time>2012-09-30T08:14:28.732Z</time>
      </trkpt>
      <trkpt lat="44.06076" lon="5.67648">
        <ele>768.5</ele>
        <time>2012-09-30T08:14:34.649Z</time>
      </trkpt>
      <trkpt lat="44.06086" lon="5.67647">
        <ele>769.4</ele>
        <time>2012-09-30T08:14:40.462Z</time>
      </trkpt>
      <trkpt lat="44.06096" lon="5.67646">
        <ele>770.3</ele>
        <time>2012-09-30T08:14:45.782Z</time>
      </trkpt>
      <trkpt lat="44.06106" lon="5.67648">
        <ele>771.6</ele>
        <time>2012-09-30T08:14:51.571Z</time>
      </trkpt>
      <trkpt lat="44.06116" lon="5.67649">
        <ele>772.7</ele>
        <time>2012-09-30T08:14:56.114Z</time>
      </trkpt>
      <trkpt lat="44.06126" lon="5.67649">
        <ele>773.7</ele>
        <time>2012-09-30T08:14:59.961Z</time>
      </trkpt>
      <trkpt lat="44.06135" lon="5.67648">
        <ele>774.5</ele>
        <time>2012-09-30T08:15:04.896Z</time>
      </trkpt>
      <trkpt lat="44.06144" lon="5.67649">
        <ele>775.5</ele>
        <time>2012-09-30T08:15:10.711Z</time>
      </trkpt>
      <trkpt lat="44.06152" lon="5.67657">
        <ele>777.7</ele>
        <time>2012-09-30T08:15:19.487Z</time>
      </trkpt>
      <trkpt lat="44.06159" lon="5.67666">
        <ele>780.1</ele>
        <time>2012-09-30T08:15:29.324Z</time>
      </trkpt>
      <trkpt lat="44.06168" lon="5.67671">
        <ele>782.1</ele>
        <time>2012-09-30T08:15:39.755Z</time>
      </trkpt>
      <trkpt lat="44.06177" lon="5.67673">
        <ele>783</ele>
        <time>2012-09-30T08:15:51.463Z</time>
      </trkpt>
      <trkpt lat="44.06196" lon="5.67672">
        <ele>783.5</ele>
        <time>2012-09-30T08:16:53.629Z</time>
      </trkpt>
      <trkpt lat="44.06207" lon="5.67668">
        <ele>782.8</ele>
        <time>2012-09-30T08:16:59.240Z</time>
      </trkpt>
      <trkpt lat="44.06216" lon="5.67666">
        <ele>782.7</ele>
        <time>2012-09-30T08:17:03.732Z</time>
      </trkpt>
      <trkpt lat="44.06225" lon="5.67662">
        <ele>782.2</ele>
        <time>2012-09-30T08:17:08.165Z</time>
      </trkpt>
      <trkpt lat="44.06234" lon="5.67658">
        <ele>781.8</ele>
        <time>2012-09-30T08:17:12.528Z</time>
      </trkpt>
      <trkpt lat="44.06243" lon="5.67654">
        <ele>781.3</ele>
        <time>2012-09-30T08:17:17.465Z</time>
      </trkpt>
      <trkpt lat="44.06267" lon="5.67654">
        <ele>782.7</ele>
        <time>2012-09-30T08:18:43.902Z</time>
      </trkpt>
      <trkpt lat="44.06276" lon="5.67659">
        <ele>784.3</ele>
        <time>2012-09-30T08:18:49.656Z</time>
      </trkpt>
      <trkpt lat="44.06286" lon="5.67661">
        <ele>785.4</ele>
        <time>2012-09-30T08:18:55.772Z</time>
      </trkpt>
      <trkpt lat="44.06295" lon="5.67658">
        <ele>785.5</ele>
        <time>2012-09-30T08:19:01.224Z</time>
      </trkpt>
      <trkpt lat="44.06306" lon="5.67656">
        <ele>785.8</ele>
        <time>2012-09-30T08:19:07.522Z</time>
      </trkpt>
      <trkpt lat="44.06316" lon="5.67654">
        <ele>786.1</ele>
        <time>2012-09-30T08:19:12.966Z</time>
      </trkpt>
      <trkpt lat="44.06325" lon="5.67651">
        <ele>786.1</ele>
        <time>2012-09-30T08:19:18.821Z</time>
      </trkpt>
      <trkpt lat="44.06335" lon="5.6765">
        <ele>786.6</ele>
        <time>2012-09-30T08:19:24.461Z</time>
      </trkpt>
      <trkpt lat="44.06359" lon="5.67648">
        <ele>788.3</ele>
        <time>2012-09-30T08:20:11.237Z</time>
      </trkpt>
      <trkpt lat="44.06369" lon="5.67648">
        <ele>789.1</ele>
        <time>2012-09-30T08:20:16.141Z</time>
      </trkpt>
      <trkpt lat="44.06378" lon="5.67648">
        <ele>790</ele>
        <time>2012-09-30T08:20:20.776Z</time>
      </trkpt>
      <trkpt lat="44.06387" lon="5.67648">
        <ele>790.8</ele>
        <time>2012-09-30T08:20:25.521Z</time>
      </trkpt>
      <trkpt lat="44.06398" lon="5.67646">
        <ele>791.2</ele>
        <time>2012-09-30T08:20:31.806Z</time>
      </trkpt>
      <trkpt lat="44.06407" lon="5.67646">
        <ele>792</ele>
        <time>2012-09-30T08:20:37.452Z</time>
      </trkpt>
      <trkpt lat="44.06417" lon="5.67649">
        <ele>793.7</ele>
        <time>2012-09-30T08:20:44.892Z</time>
      </trkpt>
      <trkpt lat="44.06426" lon="5.67651">
        <ele>794.5</ele>
        <time>2012-09-30T08:20:52.033Z</time>
      </trkpt>
      <trkpt lat="44.06435" lon="5.67652">
        <ele>795</ele>
        <time>2012-09-30T08:20:59.471Z</time>
      </trkpt>
      <trkpt lat="44.06444" lon="5.6765">
        <ele>794.6</ele>
        <time>2012-09-30T08:21:06.475Z</time>
      </trkpt>
      <trkpt lat="44.06454" lon="5.6765">
        <ele>794.8</ele>
        <time>2012-09-30T08:21:13.863Z</time>
      </trkpt>
      <trkpt lat="44.06464" lon="5.67649">
        <ele>794.7</ele>
        <time>2012-09-30T08:21:22.007Z</time>
      </trkpt>
      <trkpt lat="44.06474" lon="5.6765">
        <ele>795.2</ele>
        <time>2012-09-30T08:21:30.909Z</time>
      </trkpt>
      <trkpt lat="44.06483" lon="5.67652">
        <ele>796.1</ele>
        <time>2012-09-30T08:21:40.030Z</time>
      </trkpt>
      <trkpt lat="44.06493" lon="5.67653">
        <ele>796.6</ele>
        <time>2012-09-30T08:21:48.285Z</time>
      </trkpt>
      <trkpt lat="44.06502" lon="5.67653">
        <ele>796.8</ele>
        <time>2012-09-30T08:21:55.796Z</time>
      </trkpt>
      <trkpt lat="44.06511" lon="5.67652">
        <ele>796.7</ele>
        <time>2012-09-30T08:22:02.444Z</time>
      </trkpt>
      <trkpt lat="44.0652" lon="5.67655">
        <ele>797.9</ele>
        <time>2012-09-30T08:22:07.555Z</time>
      </trkpt>
      <trkpt lat="44.06529" lon="5.67656">
        <ele>798.4</ele>
        <time>2012-09-30T08:22:11.462Z</time>
      </trkpt>
      <trkpt lat="44.06539" lon="5.67656">
        <ele>798.7</ele>
        <time>2012-09-30T08:22:15.722Z</time>
      </trkpt>
      <trkpt lat="44.06549" lon="5.67659">
        <ele>799.8</ele>
        <time>2012-09-30T08:22:19.682Z</time>
      </trkpt>
      <trkpt lat="44.06559" lon="5.67661">
        <ele>800.7</ele>
        <time>2012-09-30T08:22:23.371Z</time>
      </trkpt>
      <trkpt lat="44.06568" lon="5.67663">
        <ele>801.5</ele>
        <time>2012-09-30T08:22:27.057Z</time>
      </trkpt>
      <trkpt lat="44.06578" lon="5.67665">
        <ele>802.4</ele>
        <time>2012-09-30T08:22:30.473Z</time>
      </trkpt>
      <trkpt lat="44.06589" lon="5.67664">
        <ele>802.1</ele>
        <time>2012-09-30T08:22:33.785Z</time>
      </trkpt>
      <trkpt lat="44.06598" lon="5.67662">
        <ele>801.4</ele>
        <time>2012-09-30T08:22:36.241Z</time>
      </trkpt>
      <trkpt lat="44.06611" lon="5.6766">
        <ele>800.7</ele>
        <time>2012-09-30T08:22:39.312Z</time>
      </trkpt>
      <trkpt lat="44.06623" lon="5.67665">
        <ele>802</ele>
        <time>2012-09-30T08:22:42.594Z</time>
      </trkpt>
      <trkpt lat="44.06633" lon="5.67665">
        <ele>801.9</ele>
        <time>2012-09-30T08:22:45.461Z</time>
      </trkpt>
      <trkpt lat="44.06642" lon="5.67672">
        <ele>803.8</ele>
        <time>2012-09-30T08:22:48.404Z</time>
      </trkpt>
      <trkpt lat="44.0665" lon="5.67682">
        <ele>806.4</ele>
        <time>2012-09-30T08:22:51.646Z</time>
      </trkpt>
      <trkpt lat="44.06657" lon="5.67691">
        <ele>808.5</ele>
        <time>2012-09-30T08:22:54.639Z</time>
      </trkpt>
      <trkpt lat="44.06663" lon="5.67702">
        <ele>811.1</ele>
        <time>2012-09-30T08:22:58.196Z</time>
      </trkpt>
      <trkpt lat="44.06668" lon="5.67712">
        <ele>813.2</ele>
        <time>2012-09-30T08:23:01.708Z</time>
      </trkpt>
      <trkpt lat="44.06674" lon="5.67725">
        <ele>815.6</ele>
        <time>2012-09-30T08:23:06.132Z</time>
      </trkpt>
      <trkpt lat="44.06682" lon="5.67735">
        <ele>816.8</ele>
        <time>2012-09-30T08:23:10.606Z</time>
      </trkpt>
      <trkpt lat="44.06691" lon="5.67744">
        <ele>817.5</ele>
        <time>2012-09-30T08:23:14.775Z</time>
      </trkpt>
      <trkpt lat="44.06699" lon="5.67754">
        <ele>818.8</ele>
        <time>2012-09-30T08:23:19.015Z</time>
      </trkpt>
      <trkpt lat="44.06707" lon="5.67761">
        <ele>819.5</ele>
        <time>2012-09-30T08:23:23.133Z</time>
      </trkpt>
      <trkpt lat="44.06718" lon="5.67762">
        <ele>817.9</ele>
        <time>2012-09-30T08:23:27.943Z</time>
      </trkpt>
      <trkpt lat="44.06728" lon="5.67768">
        <ele>817.8</ele>
        <time>2012-09-30T08:23:32.016Z</time>
      </trkpt>
      <trkpt lat="44.06741" lon="5.67774">
        <ele>817.2</ele>
        <time>2012-09-30T08:23:35.106Z</time>
      </trkpt>
      <trkpt lat="44.06751" lon="5.67776">
        <ele>816</ele>
        <time>2012-09-30T08:23:37.200Z</time>
      </trkpt>
      <trkpt lat="44.06766" lon="5.67776">
        <ele>813.2</ele>
        <time>2012-09-30T08:23:40.193Z</time>
      </trkpt>
      <trkpt lat="44.06775" lon="5.67773">
        <ele>810.8</ele>
        <time>2012-09-30T08:23:42.138Z</time>
      </trkpt>
      <trkpt lat="44.06788" lon="5.6777">
        <ele>807.7</ele>
        <time>2012-09-30T08:23:45.002Z</time>
      </trkpt>
      <trkpt lat="44.06798" lon="5.67771">
        <ele>806.1</ele>
        <time>2012-09-30T08:23:48.316Z</time>
      </trkpt>
      <trkpt lat="44.06807" lon="5.67774">
        <ele>805.2</ele>
        <time>2012-09-30T08:23:51.931Z</time>
      </trkpt>
      <trkpt lat="44.06816" lon="5.6778">
        <ele>804.7</ele>
        <time>2012-09-30T08:23:57.464Z</time>
      </trkpt>
      <trkpt lat="44.06834" lon="5.67787">
        <ele>802.7</ele>
        <time>2012-09-30T08:24:42.508Z</time>
      </trkpt>
      <trkpt lat="44.06846" lon="5.67788">
        <ele>803</ele>
        <time>2012-09-30T08:24:54.469Z</time>
      </trkpt>
      <trkpt lat="44.06871" lon="5.67787">
        <ele>803.2</ele>
        <time>2012-09-30T08:25:33.467Z</time>
      </trkpt>
      <trkpt lat="44.06889" lon="5.6779">
        <ele>803.9</ele>
        <time>2012-09-30T08:26:12.275Z</time>
      </trkpt>
      <trkpt lat="44.06898" lon="5.6779">
        <ele>804</ele>
        <time>2012-09-30T08:26:21.473Z</time>
      </trkpt>
      <trkpt lat="44.0692" lon="5.67791">
        <ele>804.9</ele>
        <time>2012-09-30T08:27:02.236Z</time>
      </trkpt>
      <trkpt lat="44.0693" lon="5.67792">
        <ele>806.7</ele>
        <time>2012-09-30T08:27:09.432Z</time>
      </trkpt>
      <trkpt lat="44.0694" lon="5.67793">
        <ele>808.5</ele>
        <time>2012-09-30T08:27:16.455Z</time>
      </trkpt>
      <trkpt lat="44.0695" lon="5.67795">
        <ele>810.5</ele>
        <time>2012-09-30T08:27:23.396Z</time>
      </trkpt>
      <trkpt lat="44.0696" lon="5.67796">
        <ele>812.3</ele>
        <time>2012-09-30T08:27:30.197Z</time>
      </trkpt>
      <trkpt lat="44.06969" lon="5.67798">
        <ele>814.2</ele>
        <time>2012-09-30T08:27:35.800Z</time>
      </trkpt>
      <trkpt lat="44.06979" lon="5.678">
        <ele>816.3</ele>
        <time>2012-09-30T08:27:41.985Z</time>
      </trkpt>
      <trkpt lat="44.06989" lon="5.67803">
        <ele>818.6</ele>
        <time>2012-09-30T08:27:48.977Z</time>
      </trkpt>
      <trkpt lat="44.06998" lon="5.67807">
        <ele>821</ele>
        <time>2012-09-30T08:27:57.703Z</time>
      </trkpt>
      <trkpt lat="44.07003" lon="5.67818">
        <ele>823.7</ele>
        <time>2012-09-30T08:28:05.929Z</time>
      </trkpt>
      <trkpt lat="44.07009" lon="5.67829">
        <ele>826</ele>
        <time>2012-09-30T08:28:16.454Z</time>
      </trkpt>
      <trkpt lat="44.07017" lon="5.67832">
        <ele>826.5</ele>
        <time>2012-09-30T08:28:26.187Z</time>
      </trkpt>
      <trkpt lat="44.07026" lon="5.67836">
        <ele>827.2</ele>
        <time>2012-09-30T08:28:35.023Z</time>
      </trkpt>
      <trkpt lat="44.07035" lon="5.67842">
        <ele>828.4</ele>
        <time>2012-09-30T08:28:42.464Z</time>
      </trkpt>
      <trkpt lat="44.07043" lon="5.67848">
        <ele>829.6</ele>
        <time>2012-09-30T08:28:48.792Z</time>
      </trkpt>
      <trkpt lat="44.07051" lon="5.67853">
        <ele>830.5</ele>
        <time>2012-09-30T08:28:54.933Z</time>
      </trkpt>
      <trkpt lat="44.07061" lon="5.67861">
        <ele>832.2</ele>
        <time>2012-09-30T08:29:02.202Z</time>
      </trkpt>
      <trkpt lat="44.07069" lon="5.67868">
        <ele>833.6</ele>
        <time>2012-09-30T08:29:08.476Z</time>
      </trkpt>
      <trkpt lat="44.07077" lon="5.67876">
        <ele>835.3</ele>
        <time>2012-09-30T08:29:14.475Z</time>
      </trkpt>
      <trkpt lat="44.07085" lon="5.67883">
        <ele>836.6</ele>
        <time>2012-09-30T08:29:20.170Z</time>
      </trkpt>
      <trkpt lat="44.07092" lon="5.67891">
        <ele>837.8</ele>
        <time>2012-09-30T08:29:26.478Z</time>
      </trkpt>
      <trkpt lat="44.07106" lon="5.67915">
        <ele>841.5</ele>
        <time>2012-09-30T08:31:28.255Z</time>
      </trkpt>
      <trkpt lat="44.07116" lon="5.67921">
        <ele>842.2</ele>
        <time>2012-09-30T08:31:33.600Z</time>
      </trkpt>
      <trkpt lat="44.07124" lon="5.67925">
        <ele>842.6</ele>
        <time>2012-09-30T08:31:38.064Z</time>
      </trkpt>
      <trkpt lat="44.07134" lon="5.67929">
        <ele>842.7</ele>
        <time>2012-09-30T08:31:42.999Z</time>
      </trkpt>
      <trkpt lat="44.07143" lon="5.67932">
        <ele>842.6</ele>
        <time>2012-09-30T08:31:47.387Z</time>
      </trkpt>
      <trkpt lat="44.07153" lon="5.67936">
        <ele>842.6</ele>
        <time>2012-09-30T08:31:52.238Z</time>
      </trkpt>
      <trkpt lat="44.07161" lon="5.67941">
        <ele>843.1</ele>
        <time>2012-09-30T08:31:56.303Z</time>
      </trkpt>
      <trkpt lat="44.07172" lon="5.67947">
        <ele>843.4</ele>
        <time>2012-09-30T08:32:01.074Z</time>
      </trkpt>
      <trkpt lat="44.07182" lon="5.67954">
        <ele>844.1</ele>
        <time>2012-09-30T08:32:05.934Z</time>
      </trkpt>
      <trkpt lat="44.07192" lon="5.67961">
        <ele>844.6</ele>
        <time>2012-09-30T08:32:10.512Z</time>
      </trkpt>
      <trkpt lat="44.07201" lon="5.67966">
        <ele>844.7</ele>
        <time>2012-09-30T08:32:14.716Z</time>
      </trkpt>
      <trkpt lat="44.0721" lon="5.67969">
        <ele>844.2</ele>
        <time>2012-09-30T08:32:18.696Z</time>
      </trkpt>
      <trkpt lat="44.07219" lon="5.67971">
        <ele>843.5</ele>
        <time>2012-09-30T08:32:22.753Z</time>
      </trkpt>
      <trkpt lat="44.07229" lon="5.67977">
        <ele>843.4</ele>
        <time>2012-09-30T08:32:27.163Z</time>
      </trkpt>
      <trkpt lat="44.07238" lon="5.67984">
        <ele>843.6</ele>
        <time>2012-09-30T08:32:31.274Z</time>
      </trkpt>
      <trkpt lat="44.07247" lon="5.67993">
        <ele>844.1</ele>
        <time>2012-09-30T08:32:35.138Z</time>
      </trkpt>
      <trkpt lat="44.07256" lon="5.68002">
        <ele>844.8</ele>
        <time>2012-09-30T08:32:38.683Z</time>
      </trkpt>
      <trkpt lat="44.07264" lon="5.68009">
        <ele>845.8</ele>
        <time>2012-09-30T08:32:41.432Z</time>
      </trkpt>
      <trkpt lat="44.07273" lon="5.68017">
        <ele>846.8</ele>
        <time>2012-09-30T08:32:44.701Z</time>
      </trkpt>
      <trkpt lat="44.07284" lon="5.68025">
        <ele>847.6</ele>
        <time>2012-09-30T08:32:48.592Z</time>
      </trkpt>
      <trkpt lat="44.07294" lon="5.68033">
        <ele>848.4</ele>
        <time>2012-09-30T08:32:52.759Z</time>
      </trkpt>
      <trkpt lat="44.07303" lon="5.6804">
        <ele>849.1</ele>
        <time>2012-09-30T08:32:56.791Z</time>
      </trkpt>
      <trkpt lat="44.07312" lon="5.68043">
        <ele>848.7</ele>
        <time>2012-09-30T08:33:00.663Z</time>
      </trkpt>
      <trkpt lat="44.07321" lon="5.68045">
        <ele>848</ele>
        <time>2012-09-30T08:33:04.157Z</time>
      </trkpt>
      <trkpt lat="44.07331" lon="5.68051">
        <ele>848.2</ele>
        <time>2012-09-30T08:33:08.645Z</time>
      </trkpt>
      <trkpt lat="44.07343" lon="5.68058">
        <ele>848.2</ele>
        <time>2012-09-30T08:33:14.930Z</time>
      </trkpt>
      <trkpt lat="44.07351" lon="5.68064">
        <ele>848.3</ele>
        <time>2012-09-30T08:33:20.363Z</time>
      </trkpt>
      <trkpt lat="44.0736" lon="5.6807">
        <ele>848.2</ele>
        <time>2012-09-30T08:33:25.441Z</time>
      </trkpt>
      <trkpt lat="44.07368" lon="5.68076">
        <ele>848.2</ele>
        <time>2012-09-30T08:33:31.210Z</time>
      </trkpt>
      <trkpt lat="44.07377" lon="5.68083">
        <ele>848.1</ele>
        <time>2012-09-30T08:33:37.590Z</time>
      </trkpt>
      <trkpt lat="44.07387" lon="5.68091">
        <ele>848.3</ele>
        <time>2012-09-30T08:33:43.405Z</time>
      </trkpt>
      <trkpt lat="44.07395" lon="5.681">
        <ele>849.1</ele>
        <time>2012-09-30T08:33:48.540Z</time>
      </trkpt>
      <trkpt lat="44.07401" lon="5.6811">
        <ele>850.5</ele>
        <time>2012-09-30T08:33:52.591Z</time>
      </trkpt>
      <trkpt lat="44.07408" lon="5.6812">
        <ele>851.5</ele>
        <time>2012-09-30T08:33:56.429Z</time>
      </trkpt>
      <trkpt lat="44.07416" lon="5.6813">
        <ele>852.3</ele>
        <time>2012-09-30T08:34:00.317Z</time>
      </trkpt>
      <trkpt lat="44.07423" lon="5.68139">
        <ele>853.4</ele>
        <time>2012-09-30T08:34:03.554Z</time>
      </trkpt>
      <trkpt lat="44.07431" lon="5.6815">
        <ele>854.7</ele>
        <time>2012-09-30T08:34:07.670Z</time>
      </trkpt>
      <trkpt lat="44.0744" lon="5.68158">
        <ele>855</ele>
        <time>2012-09-30T08:34:11.203Z</time>
      </trkpt>
      <trkpt lat="44.07449" lon="5.68166">
        <ele>855</ele>
        <time>2012-09-30T08:34:14.799Z</time>
      </trkpt>
      <trkpt lat="44.07457" lon="5.68173">
        <ele>855.4</ele>
        <time>2012-09-30T08:34:18.298Z</time>
      </trkpt>
      <trkpt lat="44.07466" lon="5.68179">
        <ele>855.2</ele>
        <time>2012-09-30T08:34:21.786Z</time>
      </trkpt>
      <trkpt lat="44.07476" lon="5.68185">
        <ele>854.8</ele>
        <time>2012-09-30T08:34:25.143Z</time>
      </trkpt>
      <trkpt lat="44.07485" lon="5.68192">
        <ele>854.7</ele>
        <time>2012-09-30T08:34:27.766Z</time>
      </trkpt>
      <trkpt lat="44.07494" lon="5.68198">
        <ele>854.4</ele>
        <time>2012-09-30T08:34:30.060Z</time>
      </trkpt>
      <trkpt lat="44.07503" lon="5.68204">
        <ele>854</ele>
        <time>2012-09-30T08:34:32.211Z</time>
      </trkpt>
      <trkpt lat="44.07512" lon="5.68209">
        <ele>853.6</ele>
        <time>2012-09-30T08:34:34.369Z</time>
      </trkpt>
      <trkpt lat="44.07521" lon="5.68216">
        <ele>853.5</ele>
        <time>2012-09-30T08:34:36.586Z</time>
      </trkpt>
      <trkpt lat="44.07529" lon="5.68224">
        <ele>853.7</ele>
        <time>2012-09-30T08:34:38.848Z</time>
      </trkpt>
      <trkpt lat="44.0754" lon="5.68233">
        <ele>853.5</ele>
        <time>2012-09-30T08:34:41.855Z</time>
      </trkpt>
      <trkpt lat="44.07555" lon="5.68244">
        <ele>852.6</ele>
        <time>2012-09-30T08:34:45.940Z</time>
      </trkpt>
      <trkpt lat="44.07569" lon="5.68254">
        <ele>852.1</ele>
        <time>2012-09-30T08:34:49.963Z</time>
      </trkpt>
      <trkpt lat="44.07582" lon="5.68264">
        <ele>852.3</ele>
        <time>2012-09-30T08:34:53.988Z</time>
      </trkpt>
      <trkpt lat="44.07595" lon="5.68271">
        <ele>852.5</ele>
        <time>2012-09-30T08:34:58.091Z</time>
      </trkpt>
      <trkpt lat="44.07608" lon="5.68277">
        <ele>852.4</ele>
        <time>2012-09-30T08:35:02.367Z</time>
      </trkpt>
      <trkpt lat="44.07619" lon="5.68285">
        <ele>853</ele>
        <time>2012-09-30T08:35:06.522Z</time>
      </trkpt>
      <trkpt lat="44.07631" lon="5.68292">
        <ele>852.9</ele>
        <time>2012-09-30T08:35:10.489Z</time>
      </trkpt>
      <trkpt lat="44.07642" lon="5.683">
        <ele>853.1</ele>
        <time>2012-09-30T08:35:14.373Z</time>
      </trkpt>
      <trkpt lat="44.07652" lon="5.68307">
        <ele>853.1</ele>
        <time>2012-09-30T08:35:18.023Z</time>
      </trkpt>
      <trkpt lat="44.07661" lon="5.68313">
        <ele>852.8</ele>
        <time>2012-09-30T08:35:21.331Z</time>
      </trkpt>
      <trkpt lat="44.0767" lon="5.68318">
        <ele>852.3</ele>
        <time>2012-09-30T08:35:24.320Z</time>
      </trkpt>
      <trkpt lat="44.07678" lon="5.68324">
        <ele>852.2</ele>
        <time>2012-09-30T08:35:27.173Z</time>
      </trkpt>
      <trkpt lat="44.07687" lon="5.6833">
        <ele>851.8</ele>
        <time>2012-09-30T08:35:30.007Z</time>
      </trkpt>
      <trkpt lat="44.07695" lon="5.68337">
        <ele>851.7</ele>
        <time>2012-09-30T08:35:32.726Z</time>
      </trkpt>
      <trkpt lat="44.07703" lon="5.68344">
        <ele>851.7</ele>
        <time>2012-09-30T08:35:35.428Z</time>
      </trkpt>
      <trkpt lat="44.07711" lon="5.6835">
        <ele>851.4</ele>
        <time>2012-09-30T08:35:38.081Z</time>
      </trkpt>
      <trkpt lat="44.07719" lon="5.68357">
        <ele>851.3</ele>
        <time>2012-09-30T08:35:40.731Z</time>
      </trkpt>
      <trkpt lat="44.07727" lon="5.68364">
        <ele>851.1</ele>
        <time>2012-09-30T08:35:43.480Z</time>
      </trkpt>
      <trkpt lat="44.07736" lon="5.68371">
        <ele>850.6</ele>
        <time>2012-09-30T08:35:46.146Z</time>
      </trkpt>
      <trkpt lat="44.07746" lon="5.68378">
        <ele>849.9</ele>
        <time>2012-09-30T08:35:48.711Z</time>
      </trkpt>
      <trkpt lat="44.07755" lon="5.68386">
        <ele>849.8</ele>
        <time>2012-09-30T08:35:51.076Z</time>
      </trkpt>
      <trkpt lat="44.07764" lon="5.68395">
        <ele>850.1</ele>
        <time>2012-09-30T08:35:53.333Z</time>
      </trkpt>
      <trkpt lat="44.07773" lon="5.68403">
        <ele>849.9</ele>
        <time>2012-09-30T08:35:55.464Z</time>
      </trkpt>
      <trkpt lat="44.07782" lon="5.68411">
        <ele>849.5</ele>
        <time>2012-09-30T08:35:57.414Z</time>
      </trkpt>
      <trkpt lat="44.07791" lon="5.6842">
        <ele>849</ele>
        <time>2012-09-30T08:35:59.352Z</time>
      </trkpt>
      <trkpt lat="44.07801" lon="5.68429">
        <ele>848.1</ele>
        <time>2012-09-30T08:36:01.415Z</time>
      </trkpt>
      <trkpt lat="44.07812" lon="5.68437">
        <ele>846.7</ele>
        <time>2012-09-30T08:36:03.770Z</time>
      </trkpt>
      <trkpt lat="44.07821" lon="5.68443">
        <ele>845.3</ele>
        <time>2012-09-30T08:36:05.454Z</time>
      </trkpt>
      <trkpt lat="44.07834" lon="5.68452">
        <ele>843.1</ele>
        <time>2012-09-30T08:36:08.174Z</time>
      </trkpt>
      <trkpt lat="44.07848" lon="5.68463">
        <ele>842.6</ele>
        <time>2012-09-30T08:36:11.182Z</time>
      </trkpt>
      <trkpt lat="44.07863" lon="5.68478">
        <ele>841.9</ele>
        <time>2012-09-30T08:36:14.564Z</time>
      </trkpt>
      <trkpt lat="44.07876" lon="5.68492">
        <ele>841.2</ele>
        <time>2012-09-30T08:36:17.662Z</time>
      </trkpt>
      <trkpt lat="44.07899" lon="5.68509">
        <ele>839.1</ele>
        <time>2012-09-30T08:36:19.643Z</time>
        <extensions>
          <visugpx:TrkExtension xmlns:visugpx="https://www.visugpx.com/editgpx/">
            <visugpx:node>2</visugpx:node>
            </visugpx:TrkExtension>
        </extensions>
      </trkpt>
      <trkpt lat="44.07907" lon="5.68478">
        <ele>837.9</ele>
      </trkpt>
      <trkpt lat="44.0793" lon="5.68447">
        <ele>836.5</ele>
      </trkpt>
      <trkpt lat="44.07947" lon="5.68404">
        <ele>836.4</ele>
      </trkpt>
      <trkpt lat="44.07961" lon="5.68383">
        <ele>835.9</ele>
      </trkpt>
      <trkpt lat="44.07976" lon="5.68369">
        <ele>835.6</ele>
      </trkpt>
      <trkpt lat="44.07979" lon="5.68359">
        <ele>835.4</ele>
      </trkpt>
      <trkpt lat="44.07982" lon="5.68328">
        <ele>834.9</ele>
      </trkpt>
      <trkpt lat="44.07995" lon="5.68262">
        <ele>834.2</ele>
      </trkpt>
      <trkpt lat="44.08" lon="5.6826">
        <ele>834.1</ele>
      </trkpt>
      <trkpt lat="44.08018" lon="5.68266">
        <ele>834.1</ele>
      </trkpt>
      <trkpt lat="44.08051" lon="5.68272">
        <ele>834</ele>
      </trkpt>
      <trkpt lat="44.08065" lon="5.68282">
        <ele>834.2</ele>
      </trkpt>
      <trkpt lat="44.08073" lon="5.6828">
        <ele>834.1</ele>
      </trkpt>
      <trkpt lat="44.08084" lon="5.68274">
        <ele>833.9</ele>
      </trkpt>
      <trkpt lat="44.08101" lon="5.68274">
        <ele>833.9</ele>
      </trkpt>
      <trkpt lat="44.08138" lon="5.68291">
        <ele>834.8</ele>
      </trkpt>
      <trkpt lat="44.08162" lon="5.68308">
        <ele>835.7</ele>
      </trkpt>
      <trkpt lat="44.08169" lon="5.68317">
        <ele>836.2</ele>
      </trkpt>
      <trkpt lat="44.08174" lon="5.68332">
        <ele>836.9</ele>
      </trkpt>
      <trkpt lat="44.08216" lon="5.6837">
        <ele>836.6</ele>
      </trkpt>
      <trkpt lat="44.08221" lon="5.68368">
        <ele>836.6</ele>
      </trkpt>
      <trkpt lat="44.08276" lon="5.68264">
        <ele>831.6</ele>
      </trkpt>
      <trkpt lat="44.08276" lon="5.68237">
        <ele>829.9</ele>
        <extensions>
          <visugpx:TrkExtension xmlns:visugpx="https://www.visugpx.com/editgpx/">
            <visugpx:node>16</visugpx:node>
            </visugpx:TrkExtension>
        </extensions>
      </trkpt>
      <trkpt lat="44.08351" lon="5.68322">
        <ele>832.1</ele>
      </trkpt>
      <trkpt lat="44.08468" lon="5.68468">
        <ele>835.4</ele>
      </trkpt>
      <trkpt lat="44.08481" lon="5.68487">
        <ele>835.8</ele>
      </trkpt>
      <trkpt lat="44.08482" lon="5.6849">
        <ele>835.9</ele>
        <extensions>
          <visugpx:TrkExtension xmlns:visugpx="https://www.visugpx.com/editgpx/">
            <visugpx:node>9</visugpx:node>
            </visugpx:TrkExtension>
        </extensions>
      </trkpt>
      <trkpt lat="44.08483" lon="5.68491">
        <ele>835.9</ele>
      </trkpt>
      <trkpt lat="44.08512" lon="5.68458">
        <ele>834.9</ele>
      </trkpt>
      <trkpt lat="44.08516" lon="5.68436">
        <ele>834.2</ele>
      </trkpt>
      <trkpt lat="44.08505" lon="5.6836">
        <ele>833.1</ele>
      </trkpt>
      <trkpt lat="44.08497" lon="5.68338">
        <ele>833</ele>
      </trkpt>
      <trkpt lat="44.08495" lon="5.68252">
        <ele>830.8</ele>
      </trkpt>
      <trkpt lat="44.08506" lon="5.68171">
        <ele>828.6</ele>
        <extensions>
          <visugpx:TrkExtension xmlns:visugpx="https://www.visugpx.com/editgpx/">
            <visugpx:node>10</visugpx:node>
            </visugpx:TrkExtension>
        </extensions>
      </trkpt>
      <trkpt lat="44.08508" lon="5.68166">
        <ele>828.7</ele>
        <time>2012-09-30T09:02:37.525Z</time>
        <extensions>
          <visugpx:TrkExtension xmlns:visugpx="https://www.visugpx.com/editgpx/">
            <visugpx:node>2</visugpx:node>
            </visugpx:TrkExtension>
        </extensions>
      </trkpt>
      <trkpt lat="44.08505" lon="5.68152">
        <ele>829.2</ele>
        <time>2012-09-30T09:02:41.229Z</time>
      </trkpt>
      <trkpt lat="44.08501" lon="5.6814">
        <ele>829.4</ele>
        <time>2012-09-30T09:02:44.777Z</time>
      </trkpt>
      <trkpt lat="44.08495" lon="5.68126">
        <ele>829.7</ele>
        <time>2012-09-30T09:02:49.298Z</time>
      </trkpt>
      <trkpt lat="44.08489" lon="5.68112">
        <ele>829.9</ele>
        <time>2012-09-30T09:02:53.548Z</time>
      </trkpt>
      <trkpt lat="44.08486" lon="5.68098">
        <ele>830.2</ele>
        <time>2012-09-30T09:02:58.480Z</time>
      </trkpt>
      <trkpt lat="44.08479" lon="5.68065">
        <ele>832.2</ele>
        <time>2012-09-30T09:03:26.217Z</time>
      </trkpt>
      <trkpt lat="44.08476" lon="5.68052">
        <ele>833.3</ele>
        <time>2012-09-30T09:03:30.526Z</time>
      </trkpt>
      <trkpt lat="44.08471" lon="5.68038">
        <ele>834</ele>
        <time>2012-09-30T09:03:35.559Z</time>
      </trkpt>
      <trkpt lat="44.08466" lon="5.68024">
        <ele>834.7</ele>
        <time>2012-09-30T09:03:40.498Z</time>
      </trkpt>
      <trkpt lat="44.08461" lon="5.68013">
        <ele>834.8</ele>
        <time>2012-09-30T09:03:45.321Z</time>
      </trkpt>
      <trkpt lat="44.08454" lon="5.68">
        <ele>834.7</ele>
        <time>2012-09-30T09:03:52.032Z</time>
      </trkpt>
      <trkpt lat="44.08447" lon="5.67986">
        <ele>835.2</ele>
        <time>2012-09-30T09:03:58.866Z</time>
      </trkpt>
      <trkpt lat="44.08437" lon="5.67968">
        <ele>835.8</ele>
        <time>2012-09-30T09:04:06.844Z</time>
      </trkpt>
      <trkpt lat="44.08438" lon="5.67954">
        <ele>837.8</ele>
        <time>2012-09-30T09:04:11.465Z</time>
      </trkpt>
      <trkpt lat="44.08432" lon="5.67937">
        <ele>838.9</ele>
        <time>2012-09-30T09:04:18.491Z</time>
      </trkpt>
      <trkpt lat="44.08421" lon="5.67927">
        <ele>838.4</ele>
        <time>2012-09-30T09:04:26.484Z</time>
      </trkpt>
      <trkpt lat="44.08413" lon="5.679">
        <ele>841.4</ele>
        <time>2012-09-30T09:05:33.949Z</time>
      </trkpt>
      <trkpt lat="44.08408" lon="5.67887">
        <ele>843</ele>
        <time>2012-09-30T09:05:44.032Z</time>
      </trkpt>
      <trkpt lat="44.08402" lon="5.67877">
        <ele>843.8</ele>
        <time>2012-09-30T09:05:54.320Z</time>
      </trkpt>
      <trkpt lat="44.08393" lon="5.67862">
        <ele>844.9</ele>
        <time>2012-09-30T09:06:11.628Z</time>
      </trkpt>
      <trkpt lat="44.08387" lon="5.67854">
        <ele>845.2</ele>
        <time>2012-09-30T09:06:22.962Z</time>
      </trkpt>
      <trkpt lat="44.08381" lon="5.67843">
        <ele>846</ele>
        <time>2012-09-30T09:06:32.607Z</time>
      </trkpt>
      <trkpt lat="44.08375" lon="5.67833">
        <ele>846.5</ele>
        <time>2012-09-30T09:06:41.903Z</time>
      </trkpt>
      <trkpt lat="44.08368" lon="5.67823">
        <ele>846.8</ele>
        <time>2012-09-30T09:06:51.661Z</time>
      </trkpt>
      <trkpt lat="44.08361" lon="5.67816">
        <ele>846.5</ele>
        <time>2012-09-30T09:06:59.957Z</time>
      </trkpt>
      <trkpt lat="44.08352" lon="5.67807">
        <ele>846</ele>
        <time>2012-09-30T09:07:08.568Z</time>
      </trkpt>
      <trkpt lat="44.08343" lon="5.67794">
        <ele>846.1</ele>
        <time>2012-09-30T09:07:18.327Z</time>
      </trkpt>
      <trkpt lat="44.08338" lon="5.67782">
        <ele>846.7</ele>
        <time>2012-09-30T09:07:26.072Z</time>
      </trkpt>
      <trkpt lat="44.08334" lon="5.67769">
        <ele>847.6</ele>
        <time>2012-09-30T09:07:33.582Z</time>
      </trkpt>
      <trkpt lat="44.08331" lon="5.67756">
        <ele>848.8</ele>
        <time>2012-09-30T09:07:41.704Z</time>
      </trkpt>
      <trkpt lat="44.08329" lon="5.67743">
        <ele>849.7</ele>
        <time>2012-09-30T09:07:49.500Z</time>
      </trkpt>
      <trkpt lat="44.08326" lon="5.67722">
        <ele>850.6</ele>
        <time>2012-09-30T09:08:04.210Z</time>
      </trkpt>
      <trkpt lat="44.08323" lon="5.6771">
        <ele>850.9</ele>
        <time>2012-09-30T09:08:12.919Z</time>
      </trkpt>
      <trkpt lat="44.08319" lon="5.67695">
        <ele>851.2</ele>
        <time>2012-09-30T09:08:22.523Z</time>
      </trkpt>
      <trkpt lat="44.08316" lon="5.67682">
        <ele>851.6</ele>
        <time>2012-09-30T09:08:31.156Z</time>
      </trkpt>
      <trkpt lat="44.08315" lon="5.67666">
        <ele>852.5</ele>
        <time>2012-09-30T09:08:41.147Z</time>
      </trkpt>
      <trkpt lat="44.08315" lon="5.67653">
        <ele>852.4</ele>
        <time>2012-09-30T09:08:50.452Z</time>
      </trkpt>
      <trkpt lat="44.08318" lon="5.6764">
        <ele>853</ele>
        <time>2012-09-30T09:08:58.758Z</time>
      </trkpt>
      <trkpt lat="44.08321" lon="5.67627">
        <ele>853.6</ele>
        <time>2012-09-30T09:09:06.082Z</time>
      </trkpt>
      <trkpt lat="44.08323" lon="5.67614">
        <ele>853.9</ele>
        <time>2012-09-30T09:09:12.579Z</time>
      </trkpt>
      <trkpt lat="44.08326" lon="5.676">
        <ele>854.5</ele>
        <time>2012-09-30T09:09:20.110Z</time>
      </trkpt>
      <trkpt lat="44.08329" lon="5.67587">
        <ele>855.1</ele>
        <time>2012-09-30T09:09:27.732Z</time>
      </trkpt>
      <trkpt lat="44.08332" lon="5.67576">
        <ele>856</ele>
        <time>2012-09-30T09:09:34.941Z</time>
      </trkpt>
      <trkpt lat="44.08336" lon="5.67564">
        <ele>857.5</ele>
        <time>2012-09-30T09:09:42.731Z</time>
      </trkpt>
      <trkpt lat="44.0834" lon="5.67551">
        <ele>859.2</ele>
        <time>2012-09-30T09:09:52.102Z</time>
      </trkpt>
      <trkpt lat="44.08341" lon="5.67537">
        <ele>860.1</ele>
        <time>2012-09-30T09:10:03.098Z</time>
      </trkpt>
      <trkpt lat="44.08339" lon="5.67519">
        <ele>860.2</ele>
        <time>2012-09-30T09:10:19.193Z</time>
      </trkpt>
      <trkpt lat="44.08339" lon="5.67503">
        <ele>860.9</ele>
        <time>2012-09-30T09:10:30.863Z</time>
      </trkpt>
      <trkpt lat="44.08336" lon="5.67491">
        <ele>861.4</ele>
        <time>2012-09-30T09:10:41.685Z</time>
      </trkpt>
      <trkpt lat="44.08333" lon="5.67478">
        <ele>862.6</ele>
        <time>2012-09-30T09:10:54.544Z</time>
      </trkpt>
      <trkpt lat="44.08331" lon="5.67465">
        <ele>864.5</ele>
        <time>2012-09-30T09:11:07.175Z</time>
      </trkpt>
      <trkpt lat="44.08328" lon="5.67453">
        <ele>865.9</ele>
        <time>2012-09-30T09:11:17.624Z</time>
      </trkpt>
      <trkpt lat="44.08325" lon="5.67441">
        <ele>867.3</ele>
        <time>2012-09-30T09:11:28.543Z</time>
      </trkpt>
      <trkpt lat="44.08321" lon="5.67429">
        <ele>868.5</ele>
        <time>2012-09-30T09:11:39.422Z</time>
      </trkpt>
      <trkpt lat="44.0832" lon="5.67416">
        <ele>870.4</ele>
        <time>2012-09-30T09:11:50.108Z</time>
      </trkpt>
      <trkpt lat="44.08319" lon="5.67403">
        <ele>872.3</ele>
        <time>2012-09-30T09:12:01.076Z</time>
      </trkpt>
      <trkpt lat="44.08323" lon="5.67391">
        <ele>874.9</ele>
        <time>2012-09-30T09:12:12.487Z</time>
      </trkpt>
      <trkpt lat="44.08324" lon="5.67377">
        <ele>877.2</ele>
        <time>2012-09-30T09:12:24.879Z</time>
      </trkpt>
      <trkpt lat="44.08328" lon="5.67365">
        <ele>879.7</ele>
        <time>2012-09-30T09:12:36.587Z</time>
      </trkpt>
      <trkpt lat="44.08331" lon="5.67353">
        <ele>881.9</ele>
        <time>2012-09-30T09:12:49.179Z</time>
      </trkpt>
      <trkpt lat="44.08336" lon="5.67341">
        <ele>884.6</ele>
        <time>2012-09-30T09:13:04.404Z</time>
      </trkpt>
      <trkpt lat="44.0834" lon="5.67329">
        <ele>887.8</ele>
        <time>2012-09-30T09:13:17.483Z</time>
      </trkpt>
      <trkpt lat="44.08351" lon="5.67305">
        <ele>896.2</ele>
        <time>2012-09-30T09:14:02.399Z</time>
      </trkpt>
      <trkpt lat="44.08356" lon="5.67294">
        <ele>899.7</ele>
        <time>2012-09-30T09:14:10.504Z</time>
      </trkpt>
      <trkpt lat="44.08367" lon="5.67263">
        <ele>907.9</ele>
        <time>2012-09-30T09:15:16.409Z</time>
      </trkpt>
      <trkpt lat="44.08372" lon="5.67251">
        <ele>910.7</ele>
        <time>2012-09-30T09:15:26.106Z</time>
      </trkpt>
      <trkpt lat="44.08374" lon="5.67238">
        <ele>913.4</ele>
        <time>2012-09-30T09:15:35.637Z</time>
      </trkpt>
      <trkpt lat="44.08376" lon="5.67224">
        <ele>916.3</ele>
        <time>2012-09-30T09:15:44.487Z</time>
      </trkpt>
      <trkpt lat="44.08378" lon="5.67211">
        <ele>918.9</ele>
        <time>2012-09-30T09:16:05.486Z</time>
      </trkpt>
      <trkpt lat="44.0838" lon="5.67187">
        <ele>923.5</ele>
        <time>2012-09-30T09:16:36.905Z</time>
      </trkpt>
      <trkpt lat="44.08383" lon="5.67174">
        <ele>925.8</ele>
        <time>2012-09-30T09:16:45.481Z</time>
      </trkpt>
      <trkpt lat="44.08391" lon="5.67143">
        <ele>933.5</ele>
        <time>2012-09-30T09:17:53.862Z</time>
      </trkpt>
      <trkpt lat="44.08391" lon="5.6713">
        <ele>937.3</ele>
        <time>2012-09-30T09:18:03.197Z</time>
      </trkpt>
      <trkpt lat="44.08393" lon="5.67118">
        <ele>940.6</ele>
        <time>2012-09-30T09:18:12.744Z</time>
      </trkpt>
      <trkpt lat="44.08396" lon="5.67105">
        <ele>944.1</ele>
        <time>2012-09-30T09:18:22.486Z</time>
      </trkpt>
      <trkpt lat="44.08408" lon="5.67081">
        <ele>949.6</ele>
        <time>2012-09-30T09:20:06.337Z</time>
      </trkpt>
      <trkpt lat="44.08415" lon="5.67072">
        <ele>950.9</ele>
        <time>2012-09-30T09:20:16.677Z</time>
      </trkpt>
      <trkpt lat="44.0842" lon="5.67061">
        <ele>953.1</ele>
        <time>2012-09-30T09:20:26.840Z</time>
      </trkpt>
      <trkpt lat="44.08428" lon="5.67053">
        <ele>954.3</ele>
        <time>2012-09-30T09:20:37.247Z</time>
      </trkpt>
      <trkpt lat="44.08433" lon="5.67043">
        <ele>956.1</ele>
        <time>2012-09-30T09:20:48.569Z</time>
      </trkpt>
      <trkpt lat="44.08438" lon="5.67032">
        <ele>958</ele>
        <time>2012-09-30T09:21:00.615Z</time>
        <extensions>
          <visugpx:TrkExtension xmlns:visugpx="https://www.visugpx.com/editgpx/">
            <visugpx:node>2</visugpx:node>
            </visugpx:TrkExtension>
        </extensions>
      </trkpt>
      <trkpt lat="44.08437" lon="5.67036">
        <ele>957.3</ele>
        <extensions>
          <visugpx:TrkExtension xmlns:visugpx="https://www.visugpx.com/editgpx/">
            <visugpx:node>14</visugpx:node>
            </visugpx:TrkExtension>
        </extensions>
      </trkpt>
      <trkpt lat="44.08479" lon="5.66979">
        <ele>962.7</ele>
      </trkpt>
      <trkpt lat="44.08536" lon="5.66949">
        <ele>963</ele>
      </trkpt>
      <trkpt lat="44.08561" lon="5.66999">
        <ele>961.1</ele>
      </trkpt>
      <trkpt lat="44.08595" lon="5.67042">
        <ele>980.4</ele>
      </trkpt>
      <trkpt lat="44.08617" lon="5.67038">
        <ele>984</ele>
      </trkpt>
      <trkpt lat="44.08658" lon="5.6703">
        <ele>991.3</ele>
      </trkpt>
      <trkpt lat="44.08685" lon="5.67028">
        <ele>997</ele>
      </trkpt>
      <trkpt lat="44.08688" lon="5.67037">
        <ele>1000.2</ele>
      </trkpt>
      <trkpt lat="44.08671" lon="5.67163">
        <ele>1000.8</ele>
      </trkpt>
      <trkpt lat="44.08662" lon="5.67182">
        <ele>1000.6</ele>
      </trkpt>
      <trkpt lat="44.08646" lon="5.67224">
        <ele>1000.6</ele>
      </trkpt>
      <trkpt lat="44.08635" lon="5.67344">
        <ele>1004.2</ele>
      </trkpt>
      <trkpt lat="44.08639" lon="5.67375">
        <ele>1002.9</ele>
      </trkpt>
      <trkpt lat="44.08708" lon="5.67476">
        <ele>1019.8</ele>
      </trkpt>
      <trkpt lat="44.08824" lon="5.67544">
        <ele>1046.6</ele>
      </trkpt>
      <trkpt lat="44.08854" lon="5.67555">
        <ele>1050.4</ele>
      </trkpt>
      <trkpt lat="44.08873" lon="5.67554">
        <ele>1053.7</ele>
      </trkpt>
      <trkpt lat="44.08888" lon="5.67568">
        <ele>1052.7</ele>
      </trkpt>
      <trkpt lat="44.08894" lon="5.67601">
        <ele>1045</ele>
      </trkpt>
      <trkpt lat="44.08905" lon="5.67681">
        <ele>1026.1</ele>
      </trkpt>
      <trkpt lat="44.08963" lon="5.6767">
        <ele>1041.9</ele>
      </trkpt>
      <trkpt lat="44.09045" lon="5.67648">
        <ele>1065.8</ele>
      </trkpt>
      <trkpt lat="44.09058" lon="5.67644">
        <ele>1069.9</ele>
      </trkpt>
      <trkpt lat="44.09104" lon="5.67582">
        <ele>1092.9</ele>
      </trkpt>
      <trkpt lat="44.09128" lon="5.67532">
        <ele>1104.8</ele>
      </trkpt>
      <trkpt lat="44.09147" lon="5.67531">
        <ele>1108.4</ele>
      </trkpt>
      <trkpt lat="44.0919" lon="5.67547">
        <ele>1112.1</ele>
      </trkpt>
      <trkpt lat="44.09195" lon="5.67564">
        <ele>1111.2</ele>
      </trkpt>
      <trkpt lat="44.09264" lon="5.67596">
        <ele>1113.6</ele>
      </trkpt>
      <trkpt lat="44.09295" lon="5.67611">
        <ele>1113.8</ele>
      </trkpt>
      <trkpt lat="44.09342" lon="5.67623">
        <ele>1117.2</ele>
      </trkpt>
      <trkpt lat="44.09353" lon="5.6763">
        <ele>1117.9</ele>
      </trkpt>
      <trkpt lat="44.0938" lon="5.6767">
        <ele>1119.2</ele>
      </trkpt>
      <trkpt lat="44.09424" lon="5.67673">
        <ele>1126</ele>
      </trkpt>
      <trkpt lat="44.09462" lon="5.6769">
        <ele>1129.1</ele>
      </trkpt>
      <trkpt lat="44.09473" lon="5.677">
        <ele>1129.7</ele>
      </trkpt>
      <trkpt lat="44.09492" lon="5.67726">
        <ele>1130.5</ele>
      </trkpt>
      <trkpt lat="44.09514" lon="5.67725">
        <ele>1133.6</ele>
      </trkpt>
      <trkpt lat="44.09558" lon="5.67723">
        <ele>1138.6</ele>
      </trkpt>
      <trkpt lat="44.09569" lon="5.67718">
        <ele>1139.9</ele>
      </trkpt>
      <trkpt lat="44.09581" lon="5.67718">
        <ele>1141.1</ele>
      </trkpt>
      <trkpt lat="44.09622" lon="5.67707">
        <ele>1143.4</ele>
      </trkpt>
      <trkpt lat="44.09632" lon="5.67712">
        <ele>1143.8</ele>
      </trkpt>
      <trkpt lat="44.0966" lon="5.67695">
        <ele>1145</ele>
      </trkpt>
      <trkpt lat="44.0967" lon="5.6769">
        <ele>1145.4</ele>
      </trkpt>
      <trkpt lat="44.0986" lon="5.67649">
        <ele>1149.3</ele>
      </trkpt>
      <trkpt lat="44.09925" lon="5.67647">
        <ele>1149.5</ele>
      </trkpt>
      <trkpt lat="44.09994" lon="5.67668">
        <ele>1155.6</ele>
      </trkpt>
      <trkpt lat="44.10003" lon="5.67675">
        <ele>1156.3</ele>
      </trkpt>
      <trkpt lat="44.10105" lon="5.67717">
        <ele>1170.7</ele>
      </trkpt>
      <trkpt lat="44.10118" lon="5.67717">
        <ele>1172.2</ele>
      </trkpt>
      <trkpt lat="44.10135" lon="5.67701">
        <ele>1173.7</ele>
      </trkpt>
      <trkpt lat="44.10154" lon="5.67688">
        <ele>1175.4</ele>
      </trkpt>
      <trkpt lat="44.10264" lon="5.67663">
        <ele>1174.6</ele>
      </trkpt>
      <trkpt lat="44.10358" lon="5.67632">
        <ele>1164.3</ele>
      </trkpt>
      <trkpt lat="44.10449" lon="5.67583">
        <ele>1167.6</ele>
      </trkpt>
      <trkpt lat="44.10483" lon="5.67568">
        <ele>1175.1</ele>
      </trkpt>
      <trkpt lat="44.10527" lon="5.67578">
        <ele>1171.9</ele>
      </trkpt>
      <trkpt lat="44.1054" lon="5.6758">
        <ele>1172.3</ele>
      </trkpt>
      <trkpt lat="44.10652" lon="5.67605">
        <ele>1171.8</ele>
      </trkpt>
      <trkpt lat="44.1066" lon="5.67615">
        <ele>1170.9</ele>
      </trkpt>
      <trkpt lat="44.10778" lon="5.67642">
        <ele>1167</ele>
      </trkpt>
      <trkpt lat="44.10789" lon="5.67642">
        <ele>1166.7</ele>
      </trkpt>
      <trkpt lat="44.10819" lon="5.67626">
        <ele>1169.1</ele>
      </trkpt>
      <trkpt lat="44.10932" lon="5.67517">
        <ele>1165.8</ele>
      </trkpt>
      <trkpt lat="44.10974" lon="5.67506">
        <ele>1156.6</ele>
      </trkpt>
      <trkpt lat="44.11011" lon="5.67527">
        <ele>1147.5</ele>
      </trkpt>
      <trkpt lat="44.11059" lon="5.67546">
        <ele>1139.1</ele>
      </trkpt>
      <trkpt lat="44.11061" lon="5.6756">
        <ele>1137.6</ele>
      </trkpt>
      <trkpt lat="44.11117" lon="5.67562">
        <ele>1134.6</ele>
      </trkpt>
      <trkpt lat="44.11137" lon="5.67587">
        <ele>1133.4</ele>
      </trkpt>
      <trkpt lat="44.11147" lon="5.67595">
        <ele>1132.8</ele>
      </trkpt>
      <trkpt lat="44.11172" lon="5.67603">
        <ele>1133.4</ele>
      </trkpt>
      <trkpt lat="44.11187" lon="5.67645">
        <ele>1131.2</ele>
      </trkpt>
      <trkpt lat="44.11331" lon="5.67722">
        <ele>1144.1</ele>
      </trkpt>
      <trkpt lat="44.11393" lon="5.6776">
        <ele>1147.7</ele>
      </trkpt>
      <trkpt lat="44.11491" lon="5.67786">
        <ele>1154.9</ele>
      </trkpt>
      <trkpt lat="44.11501" lon="5.67793">
        <ele>1155.5</ele>
      </trkpt>
      <trkpt lat="44.11571" lon="5.6784">
        <ele>1160.9</ele>
      </trkpt>
      <trkpt lat="44.1159" lon="5.67856">
        <ele>1162</ele>
      </trkpt>
      <trkpt lat="44.11643" lon="5.67871">
        <ele>1168.7</ele>
      </trkpt>
      <trkpt lat="44.11674" lon="5.67885">
        <ele>1172.3</ele>
      </trkpt>
      <trkpt lat="44.11719" lon="5.67898">
        <ele>1176.8</ele>
      </trkpt>
      <trkpt lat="44.11724" lon="5.67899">
        <ele>1177.3</ele>
      </trkpt>
      <trkpt lat="44.1174" lon="5.67904">
        <ele>1179</ele>
      </trkpt>
      <trkpt lat="44.1175" lon="5.67898">
        <ele>1180.2</ele>
      </trkpt>
      <trkpt lat="44.11782" lon="5.67924">
        <ele>1182.5</ele>
      </trkpt>
      <trkpt lat="44.11813" lon="5.67937">
        <ele>1184.9</ele>
      </trkpt>
      <trkpt lat="44.11841" lon="5.67939">
        <ele>1187.7</ele>
      </trkpt>
      <trkpt lat="44.11925" lon="5.67981">
        <ele>1190.2</ele>
      </trkpt>
      <trkpt lat="44.11944" lon="5.67996">
        <ele>1190</ele>
      </trkpt>
      <trkpt lat="44.11974" lon="5.68029">
        <ele>1185.9</ele>
      </trkpt>
      <trkpt lat="44.1201" lon="5.68051">
        <ele>1184.5</ele>
      </trkpt>
      <trkpt lat="44.1205" lon="5.68065">
        <ele>1186.5</ele>
      </trkpt>
      <trkpt lat="44.12081" lon="5.68066">
        <ele>1189.2</ele>
      </trkpt>
      <trkpt lat="44.12094" lon="5.68079">
        <ele>1191.3</ele>
      </trkpt>
      <trkpt lat="44.12104" lon="5.68107">
        <ele>1193.3</ele>
      </trkpt>
      <trkpt lat="44.1213" lon="5.68111">
        <ele>1197.6</ele>
      </trkpt>
      <trkpt lat="44.1214" lon="5.68117">
        <ele>1199.5</ele>
      </trkpt>
      <trkpt lat="44.12151" lon="5.68132">
        <ele>1202.1</ele>
      </trkpt>
      <trkpt lat="44.12153" lon="5.68196">
        <ele>1205</ele>
      </trkpt>
      <trkpt lat="44.12159" lon="5.68226">
        <ele>1206.9</ele>
      </trkpt>
      <trkpt lat="44.12177" lon="5.68261">
        <ele>1210.5</ele>
      </trkpt>
      <trkpt lat="44.12193" lon="5.68258">
        <ele>1213</ele>
      </trkpt>
      <trkpt lat="44.12213" lon="5.68266">
        <ele>1216.1</ele>
      </trkpt>
      <trkpt lat="44.12232" lon="5.68245">
        <ele>1219.1</ele>
      </trkpt>
      <trkpt lat="44.1228" lon="5.6824">
        <ele>1224.4</ele>
      </trkpt>
      <trkpt lat="44.12344" lon="5.68268">
        <ele>1231.2</ele>
      </trkpt>
      <trkpt lat="44.12455" lon="5.68325">
        <ele>1235.8</ele>
      </trkpt>
      <trkpt lat="44.12509" lon="5.68302">
        <ele>1226.1</ele>
      </trkpt>
      <trkpt lat="44.12537" lon="5.68272">
        <ele>1222.6</ele>
      </trkpt>
      <trkpt lat="44.12575" lon="5.68255">
        <ele>1224.2</ele>
      </trkpt>
      <trkpt lat="44.12603" lon="5.68232">
        <ele>1224.2</ele>
      </trkpt>
      <trkpt lat="44.12717" lon="5.68196">
        <ele>1233.4</ele>
      </trkpt>
      <trkpt lat="44.12794" lon="5.68141">
        <ele>1231.6</ele>
      </trkpt>
      <trkpt lat="44.1287" lon="5.68135">
        <ele>1237.4</ele>
      </trkpt>
      <trkpt lat="44.12983" lon="5.68107">
        <ele>1233.8</ele>
      </trkpt>
      <trkpt lat="44.13031" lon="5.68076">
        <ele>1232.7</ele>
      </trkpt>
      <trkpt lat="44.13042" lon="5.68074">
        <ele>1232</ele>
      </trkpt>
      <trkpt lat="44.13063" lon="5.68092">
        <ele>1230</ele>
      </trkpt>
      <trkpt lat="44.13064" lon="5.68098">
        <ele>1228.9</ele>
      </trkpt>
      <trkpt lat="44.13066" lon="5.68104">
        <ele>1229.1</ele>
      </trkpt>
      <trkpt lat="44.13072" lon="5.68116">
        <ele>1228.1</ele>
      </trkpt>
      <trkpt lat="44.1314" lon="5.68211">
        <ele>1234.1</ele>
      </trkpt>
      <trkpt lat="44.1314" lon="5.68263">
        <ele>1235.5</ele>
      </trkpt>
      <trkpt lat="44.13124" lon="5.68303">
        <ele>1235.6</ele>
      </trkpt>
      <trkpt lat="44.13116" lon="5.68313">
        <ele>1235.4</ele>
      </trkpt>
      <trkpt lat="44.13061" lon="5.68392">
        <ele>1240.3</ele>
      </trkpt>
      <trkpt lat="44.13058" lon="5.68398">
        <ele>1240.7</ele>
      </trkpt>
      <trkpt lat="44.13076" lon="5.68473">
        <ele>1248.2</ele>
      </trkpt>
      <trkpt lat="44.13085" lon="5.6851">
        <ele>1249.4</ele>
      </trkpt>
      <trkpt lat="44.13083" lon="5.68556">
        <ele>1247.3</ele>
      </trkpt>
      <trkpt lat="44.13035" lon="5.68646">
        <ele>1236.3</ele>
      </trkpt>
      <trkpt lat="44.13014" lon="5.68671">
        <ele>1233.1</ele>
      </trkpt>
      <trkpt lat="44.12901" lon="5.6875">
        <ele>1212.3</ele>
      </trkpt>
      <trkpt lat="44.12865" lon="5.68789">
        <ele>1207.2</ele>
      </trkpt>
      <trkpt lat="44.1288" lon="5.68818">
        <ele>1207.4</ele>
      </trkpt>
      <trkpt lat="44.12898" lon="5.68835">
        <ele>1207.9</ele>
      </trkpt>
      <trkpt lat="44.12974" lon="5.68815">
        <ele>1208</ele>
      </trkpt>
      <trkpt lat="44.13003" lon="5.68804">
        <ele>1207.8</ele>
      </trkpt>
      <trkpt lat="44.13118" lon="5.68728">
        <ele>1209.8</ele>
      </trkpt>
      <trkpt lat="44.13109" lon="5.68752">
        <ele>1205</ele>
      </trkpt>
      <trkpt lat="44.13061" lon="5.68785">
        <ele>1204.3</ele>
      </trkpt>
      <trkpt lat="44.13031" lon="5.6886">
        <ele>1199.9</ele>
      </trkpt>
      <trkpt lat="44.12933" lon="5.69151">
        <ele>1190.6</ele>
      </trkpt>
      <trkpt lat="44.12892" lon="5.69261">
        <ele>1182.6</ele>
      </trkpt>
      <trkpt lat="44.12856" lon="5.69335">
        <ele>1182.9</ele>
      </trkpt>
      <trkpt lat="44.12827" lon="5.69523">
        <ele>1165.7</ele>
      </trkpt>
      <trkpt lat="44.12813" lon="5.69617">
        <ele>1143.7</ele>
      </trkpt>
      <trkpt lat="44.12736" lon="5.69687">
        <ele>1129.3</ele>
      </trkpt>
      <trkpt lat="44.12643" lon="5.69714">
        <ele>1121.3</ele>
      </trkpt>
      <trkpt lat="44.12566" lon="5.69724">
        <ele>1117</ele>
      </trkpt>
      <trkpt lat="44.12517" lon="5.69704">
        <ele>1114.5</ele>
      </trkpt>
      <trkpt lat="44.12441" lon="5.69728">
        <ele>1109.7</ele>
      </trkpt>
      <trkpt lat="44.12396" lon="5.69762">
        <ele>1103</ele>
      </trkpt>
      <trkpt lat="44.12314" lon="5.69783">
        <ele>1105.5</ele>
      </trkpt>
      <trkpt lat="44.12291" lon="5.69794">
        <ele>1108.4</ele>
      </trkpt>
      <trkpt lat="44.12246" lon="5.69845">
        <ele>1104.1</ele>
      </trkpt>
      <trkpt lat="44.12207" lon="5.69941">
        <ele>1112.6</ele>
      </trkpt>
      <trkpt lat="44.12196" lon="5.70007">
        <ele>1103</ele>
      </trkpt>
      <trkpt lat="44.12187" lon="5.70031">
        <ele>1099.8</ele>
      </trkpt>
      <trkpt lat="44.12156" lon="5.70081">
        <ele>1092.2</ele>
      </trkpt>
      <trkpt lat="44.12118" lon="5.70144">
        <ele>1085.9</ele>
      </trkpt>
      <trkpt lat="44.12102" lon="5.70185">
        <ele>1076.3</ele>
      </trkpt>
      <trkpt lat="44.12075" lon="5.70215">
        <ele>1068.5</ele>
      </trkpt>
      <trkpt lat="44.12052" lon="5.70228">
        <ele>1063.2</ele>
      </trkpt>
      <trkpt lat="44.1202" lon="5.70249">
        <ele>1054.1</ele>
      </trkpt>
      <trkpt lat="44.12008" lon="5.70252">
        <ele>1053.6</ele>
      </trkpt>
      <trkpt lat="44.12011" lon="5.70274">
        <ele>1057.5</ele>
      </trkpt>
      <trkpt lat="44.12029" lon="5.70266">
        <ele>1057.2</ele>
      </trkpt>
      <trkpt lat="44.12058" lon="5.70267">
        <ele>1059.2</ele>
      </trkpt>
      <trkpt lat="44.12077" lon="5.70272">
        <ele>1061.6</ele>
      </trkpt>
      <trkpt lat="44.12123" lon="5.70297">
        <ele>1071.4</ele>
      </trkpt>
      <trkpt lat="44.12206" lon="5.70309">
        <ele>1081.5</ele>
      </trkpt>
      <trkpt lat="44.12227" lon="5.70317">
        <ele>1084.8</ele>
      </trkpt>
      <trkpt lat="44.12265" lon="5.70307">
        <ele>1089.3</ele>
      </trkpt>
      <trkpt lat="44.12295" lon="5.70312">
        <ele>1095.6</ele>
      </trkpt>
      <trkpt lat="44.12341" lon="5.70314">
        <ele>1104.5</ele>
      </trkpt>
      <trkpt lat="44.12358" lon="5.70316">
        <ele>1107.3</ele>
      </trkpt>
      <trkpt lat="44.12412" lon="5.70334">
        <ele>1112.6</ele>
      </trkpt>
      <trkpt lat="44.12446" lon="5.7035">
        <ele>1124.4</ele>
      </trkpt>
      <trkpt lat="44.12546" lon="5.70333">
        <ele>1129.9</ele>
      </trkpt>
      <trkpt lat="44.12603" lon="5.70327">
        <ele>1136.6</ele>
      </trkpt>
      <trkpt lat="44.12755" lon="5.70387">
        <ele>1160.2</ele>
      </trkpt>
      <trkpt lat="44.12783" lon="5.70397">
        <ele>1162</ele>
      </trkpt>
      <trkpt lat="44.12845" lon="5.70413">
        <ele>1162.6</ele>
      </trkpt>
      <trkpt lat="44.12907" lon="5.70429">
        <ele>1172.6</ele>
      </trkpt>
      <trkpt lat="44.12925" lon="5.70441">
        <ele>1177.9</ele>
      </trkpt>
      <trkpt lat="44.12989" lon="5.7045">
        <ele>1186.7</ele>
      </trkpt>
      <trkpt lat="44.1307" lon="5.70448">
        <ele>1198.5</ele>
      </trkpt>
      <trkpt lat="44.13129" lon="5.70484">
        <ele>1209.3</ele>
      </trkpt>
      <trkpt lat="44.13407" lon="5.70524">
        <ele>1251.9</ele>
      </trkpt>
      <trkpt lat="44.13457" lon="5.70534">
        <ele>1260.3</ele>
      </trkpt>
      <trkpt lat="44.13487" lon="5.70541">
        <ele>1265.2</ele>
      </trkpt>
      <trkpt lat="44.13566" lon="5.70558">
        <ele>1279</ele>
      </trkpt>
      <trkpt lat="44.1362" lon="5.70541">
        <ele>1286.5</ele>
      </trkpt>
      <trkpt lat="44.13692" lon="5.7055">
        <ele>1294.1</ele>
      </trkpt>
      <trkpt lat="44.13699" lon="5.70552">
        <ele>1294.4</ele>
      </trkpt>
      <trkpt lat="44.13707" lon="5.70556">
        <ele>1294.8</ele>
      </trkpt>
      <trkpt lat="44.13707" lon="5.70545">
        <ele>1294.5</ele>
        <time>2021-09-01T11:03:46Z</time>
      </trkpt>
      <trkpt lat="44.13723" lon="5.70553">
        <ele>1295.3</ele>
        <time>2021-09-01T11:03:53Z</time>
      </trkpt>
      <trkpt lat="44.13725" lon="5.7055">
        <ele>1295.3</ele>
        <time>2021-09-01T11:03:55Z</time>
      </trkpt>
      <trkpt lat="44.13731" lon="5.70544">
        <ele>1295.4</ele>
        <time>2021-09-01T11:04:20Z</time>
      </trkpt>
      <trkpt lat="44.13747" lon="5.70538">
        <ele>1295.8</ele>
        <time>2021-09-01T11:04:25Z</time>
      </trkpt>
      <trkpt lat="44.13752" lon="5.70537">
        <ele>1295.8</ele>
        <time>2021-09-01T11:04:30Z</time>
      </trkpt>
      <trkpt lat="44.13758" lon="5.70536">
        <ele>1295.6</ele>
        <time>2021-09-01T11:04:33Z</time>
      </trkpt>
      <trkpt lat="44.13789" lon="5.70527">
        <ele>1294.8</ele>
        <time>2021-09-01T11:04:43Z</time>
      </trkpt>
      <trkpt lat="44.13802" lon="5.70522">
        <ele>1294.8</ele>
        <time>2021-09-01T11:04:47Z</time>
      </trkpt>
      <trkpt lat="44.13816" lon="5.70513">
        <ele>1295.4</ele>
        <time>2021-09-01T11:04:53Z</time>
      </trkpt>
      <trkpt lat="44.13819" lon="5.70513">
        <ele>1295.4</ele>
        <time>2021-09-01T11:04:54Z</time>
      </trkpt>
      <trkpt lat="44.1383" lon="5.70504">
        <ele>1296.5</ele>
        <time>2021-09-01T11:04:58Z</time>
      </trkpt>
      <trkpt lat="44.13852" lon="5.70492">
        <ele>1298.8</ele>
        <time>2021-09-01T11:05:05Z</time>
      </trkpt>
      <trkpt lat="44.13875" lon="5.70479">
        <ele>1302.2</ele>
        <time>2021-09-01T11:05:14Z</time>
      </trkpt>
      <trkpt lat="44.13879" lon="5.70475">
        <ele>1303.1</ele>
        <time>2021-09-01T11:05:16Z</time>
      </trkpt>
      <trkpt lat="44.13892" lon="5.70466">
        <ele>1305.7</ele>
        <time>2021-09-01T11:05:21Z</time>
      </trkpt>
      <trkpt lat="44.13895" lon="5.70465">
        <ele>1306.1</ele>
        <time>2021-09-01T11:05:22Z</time>
      </trkpt>
      <trkpt lat="44.13902" lon="5.7046">
        <ele>1307.7</ele>
        <time>2021-09-01T11:05:25Z</time>
      </trkpt>
      <trkpt lat="44.13904" lon="5.70458">
        <ele>1308.2</ele>
        <time>2021-09-01T11:05:27Z</time>
      </trkpt>
      <trkpt lat="44.13912" lon="5.70452">
        <ele>1310.2</ele>
        <time>2021-09-01T11:05:32Z</time>
      </trkpt>
      <trkpt lat="44.13924" lon="5.70443">
        <ele>1311.8</ele>
        <time>2021-09-01T11:05:36Z</time>
      </trkpt>
      <trkpt lat="44.13935" lon="5.70436">
        <ele>1312.4</ele>
        <time>2021-09-01T11:05:40Z</time>
      </trkpt>
      <trkpt lat="44.13939" lon="5.70431">
        <ele>1313.5</ele>
        <time>2021-09-01T11:05:42Z</time>
      </trkpt>
      <trkpt lat="44.13947" lon="5.70423">
        <ele>1315.2</ele>
        <time>2021-09-01T11:05:45Z</time>
      </trkpt>
      <trkpt lat="44.13967" lon="5.70401">
        <ele>1318.3</ele>
        <time>2021-09-01T11:05:53Z</time>
      </trkpt>
      <trkpt lat="44.13971" lon="5.70398">
        <ele>1318.7</ele>
        <time>2021-09-01T11:05:54Z</time>
      </trkpt>
      <trkpt lat="44.13993" lon="5.70377">
        <ele>1322.4</ele>
        <time>2021-09-01T11:06:01Z</time>
      </trkpt>
      <trkpt lat="44.13995" lon="5.70371">
        <ele>1323.7</ele>
        <time>2021-09-01T11:06:03Z</time>
      </trkpt>
      <trkpt lat="44.14017" lon="5.70344">
        <ele>1328.1</ele>
        <time>2021-09-01T11:06:12Z</time>
      </trkpt>
      <trkpt lat="44.14025" lon="5.70333">
        <ele>1330.2</ele>
        <time>2021-09-01T11:06:16Z</time>
      </trkpt>
      <trkpt lat="44.14034" lon="5.70325">
        <ele>1329.9</ele>
        <time>2021-09-01T11:06:19Z</time>
      </trkpt>
      <trkpt lat="44.14039" lon="5.70316">
        <ele>1330.2</ele>
        <time>2021-09-01T11:06:23Z</time>
      </trkpt>
      <trkpt lat="44.1406" lon="5.70301">
        <ele>1331.6</ele>
        <time>2021-09-01T11:06:31Z</time>
      </trkpt>
      <trkpt lat="44.14069" lon="5.70296">
        <ele>1332.6</ele>
        <time>2021-09-01T11:06:34Z</time>
      </trkpt>
      <trkpt lat="44.14084" lon="5.70284">
        <ele>1335.3</ele>
        <time>2021-09-01T11:06:38Z</time>
      </trkpt>
      <trkpt lat="44.14097" lon="5.70269">
        <ele>1335.8</ele>
        <time>2021-09-01T11:06:42Z</time>
      </trkpt>
      <trkpt lat="44.141" lon="5.7026">
        <ele>1337.4</ele>
        <time>2021-09-01T11:06:45Z</time>
      </trkpt>
      <trkpt lat="44.14106" lon="5.70242">
        <ele>1339.5</ele>
        <time>2021-09-01T11:06:52Z</time>
      </trkpt>
      <trkpt lat="44.14112" lon="5.70226">
        <ele>1340.2</ele>
        <time>2021-09-01T11:06:56Z</time>
      </trkpt>
      <trkpt lat="44.14125" lon="5.70198">
        <ele>1342.7</ele>
        <time>2021-09-01T11:07:03Z</time>
      </trkpt>
      <trkpt lat="44.14135" lon="5.70181">
        <ele>1345.4</ele>
        <time>2021-09-01T11:07:08Z</time>
      </trkpt>
      <trkpt lat="44.14144" lon="5.70166">
        <ele>1348.5</ele>
        <time>2021-09-01T11:07:13Z</time>
      </trkpt>
      <trkpt lat="44.1415" lon="5.70158">
        <ele>1348.8</ele>
        <time>2021-09-01T11:07:16Z</time>
      </trkpt>
      <trkpt lat="44.1417" lon="5.70137">
        <ele>1349.1</ele>
        <time>2021-09-01T11:07:25Z</time>
      </trkpt>
      <trkpt lat="44.14182" lon="5.70127">
        <ele>1346.4</ele>
        <time>2021-09-01T11:07:30Z</time>
      </trkpt>
      <trkpt lat="44.14198" lon="5.70116">
        <ele>1343.6</ele>
        <time>2021-09-01T11:07:36Z</time>
      </trkpt>
      <trkpt lat="44.14206" lon="5.70109">
        <ele>1342.7</ele>
        <time>2021-09-01T11:07:38Z</time>
      </trkpt>
      <trkpt lat="44.14229" lon="5.70075">
        <ele>1341.3</ele>
        <time>2021-09-01T11:07:48Z</time>
      </trkpt>
      <trkpt lat="44.14237" lon="5.70064">
        <ele>1339.1</ele>
        <time>2021-09-01T11:07:54Z</time>
      </trkpt>
      <trkpt lat="44.14238" lon="5.70062">
        <ele>1338.7</ele>
        <time>2021-09-01T11:08:04Z</time>
      </trkpt>
      <trkpt lat="44.14242" lon="5.70056">
        <ele>1337.7</ele>
        <time>2021-09-01T11:08:07Z</time>
      </trkpt>
      <trkpt lat="44.14245" lon="5.7005">
        <ele>1336.7</ele>
        <time>2021-09-01T11:08:09Z</time>
      </trkpt>
      <trkpt lat="44.14257" lon="5.70046">
        <ele>1336.1</ele>
        <time>2021-09-01T11:08:14Z</time>
      </trkpt>
      <trkpt lat="44.1426" lon="5.70045">
        <ele>1336</ele>
        <time>2021-09-01T11:08:15Z</time>
      </trkpt>
      <trkpt lat="44.14266" lon="5.70039">
        <ele>1335.5</ele>
        <time>2021-09-01T11:08:18Z</time>
      </trkpt>
      <trkpt lat="44.14277" lon="5.70032">
        <ele>1335.3</ele>
        <time>2021-09-01T11:08:23Z</time>
      </trkpt>
      <trkpt lat="44.14299" lon="5.70024">
        <ele>1335.9</ele>
        <time>2021-09-01T11:08:31Z</time>
      </trkpt>
      <trkpt lat="44.14303" lon="5.70027">
        <ele>1336.2</ele>
        <time>2021-09-01T11:08:33Z</time>
      </trkpt>
      <trkpt lat="44.14314" lon="5.70029">
        <ele>1336.7</ele>
        <time>2021-09-01T11:08:39Z</time>
      </trkpt>
      <trkpt lat="44.14323" lon="5.70024">
        <ele>1337.3</ele>
        <time>2021-09-01T11:08:43Z</time>
      </trkpt>
      <trkpt lat="44.14339" lon="5.70025">
        <ele>1338.6</ele>
        <time>2021-09-01T11:08:50Z</time>
      </trkpt>
      <trkpt lat="44.14353" lon="5.70019">
        <ele>1341.2</ele>
        <time>2021-09-01T11:08:56Z</time>
      </trkpt>
      <trkpt lat="44.14358" lon="5.70013">
        <ele>1342.7</ele>
        <time>2021-09-01T11:09:00Z</time>
      </trkpt>
      <trkpt lat="44.1436" lon="5.7001">
        <ele>1343.3</ele>
        <time>2021-09-01T11:09:01Z</time>
      </trkpt>
      <trkpt lat="44.14364" lon="5.70004">
        <ele>1344.8</ele>
        <time>2021-09-01T11:09:04Z</time>
      </trkpt>
      <trkpt lat="44.14367" lon="5.69997">
        <ele>1346.1</ele>
        <time>2021-09-01T11:09:07Z</time>
      </trkpt>
      <trkpt lat="44.14369" lon="5.69991">
        <ele>1347.1</ele>
        <time>2021-09-01T11:09:09Z</time>
      </trkpt>
      <trkpt lat="44.14372" lon="5.69982">
        <ele>1348.5</ele>
        <time>2021-09-01T11:09:13Z</time>
      </trkpt>
      <trkpt lat="44.14374" lon="5.69979">
        <ele>1349.2</ele>
        <time>2021-09-01T11:09:14Z</time>
      </trkpt>
      <trkpt lat="44.14379" lon="5.69964">
        <ele>1351.6</ele>
        <time>2021-09-01T11:09:19Z</time>
      </trkpt>
      <trkpt lat="44.14379" lon="5.6996">
        <ele>1352</ele>
        <time>2021-09-01T11:09:20Z</time>
      </trkpt>
      <trkpt lat="44.14385" lon="5.69958">
        <ele>1353.5</ele>
        <time>2021-09-01T11:09:23Z</time>
      </trkpt>
      <trkpt lat="44.14386" lon="5.69956">
        <ele>1353.9</ele>
        <time>2021-09-01T11:09:24Z</time>
      </trkpt>
      <trkpt lat="44.14388" lon="5.69948">
        <ele>1355.1</ele>
        <time>2021-09-01T11:09:27Z</time>
      </trkpt>
      <trkpt lat="44.14392" lon="5.69938">
        <ele>1357</ele>
        <time>2021-09-01T11:09:32Z</time>
      </trkpt>
      <trkpt lat="44.14397" lon="5.69936">
        <ele>1358.4</ele>
        <time>2021-09-01T11:09:35Z</time>
      </trkpt>
      <trkpt lat="44.14399" lon="5.69936">
        <ele>1358.8</ele>
        <time>2021-09-01T11:09:40Z</time>
      </trkpt>
      <trkpt lat="44.14398" lon="5.69936">
        <ele>1358.6</ele>
        <time>2021-09-01T11:10:09Z</time>
      </trkpt>
      <trkpt lat="44.14406" lon="5.69932">
        <ele>1360.9</ele>
        <time>2021-09-01T11:10:20Z</time>
      </trkpt>
      <trkpt lat="44.14411" lon="5.69923">
        <ele>1363</ele>
        <time>2021-09-01T11:10:27Z</time>
      </trkpt>
      <trkpt lat="44.14411" lon="5.69922">
        <ele>1363.1</ele>
        <time>2021-09-01T11:10:32Z</time>
      </trkpt>
      <trkpt lat="44.14413" lon="5.6992">
        <ele>1363.8</ele>
        <time>2021-09-01T11:11:15Z</time>
      </trkpt>
      <trkpt lat="44.1442" lon="5.69921">
        <ele>1365.2</ele>
        <time>2021-09-01T11:11:27Z</time>
      </trkpt>
      <trkpt lat="44.14424" lon="5.69919">
        <ele>1366.2</ele>
        <time>2021-09-01T11:11:33Z</time>
      </trkpt>
      <trkpt lat="44.14427" lon="5.69905">
        <ele>1368</ele>
        <time>2021-09-01T11:11:45Z</time>
      </trkpt>
      <trkpt lat="44.14422" lon="5.69884">
        <ele>1368.8</ele>
        <time>2021-09-01T11:12:11Z</time>
      </trkpt>
      <trkpt lat="44.1442" lon="5.6988">
        <ele>1368.9</ele>
        <time>2021-09-01T11:12:12Z</time>
      </trkpt>
      <trkpt lat="44.14417" lon="5.69863">
        <ele>1370.2</ele>
        <time>2021-09-01T11:12:17Z</time>
      </trkpt>
      <trkpt lat="44.14409" lon="5.6985">
        <ele>1369.7</ele>
        <time>2021-09-01T11:12:21Z</time>
      </trkpt>
      <trkpt lat="44.14399" lon="5.69831">
        <ele>1369.3</ele>
        <time>2021-09-01T11:12:30Z</time>
      </trkpt>
      <trkpt lat="44.14398" lon="5.69827">
        <ele>1369.3</ele>
        <time>2021-09-01T11:12:31Z</time>
      </trkpt>
      <trkpt lat="44.14395" lon="5.69814">
        <ele>1369.3</ele>
        <time>2021-09-01T11:12:35Z</time>
      </trkpt>
      <trkpt lat="44.14393" lon="5.69802">
        <ele>1369.5</ele>
        <time>2021-09-01T11:12:39Z</time>
      </trkpt>
      <trkpt lat="44.14391" lon="5.69799">
        <ele>1369.2</ele>
        <time>2021-09-01T11:12:40Z</time>
      </trkpt>
      <trkpt lat="44.14378" lon="5.69766">
        <ele>1368.3</ele>
        <time>2021-09-01T11:12:50Z</time>
      </trkpt>
      <trkpt lat="44.14377" lon="5.69761">
        <ele>1368.3</ele>
        <time>2021-09-01T11:12:51Z</time>
      </trkpt>
      <trkpt lat="44.14379" lon="5.69743">
        <ele>1369.6</ele>
        <time>2021-09-01T11:12:56Z</time>
      </trkpt>
      <trkpt lat="44.14381" lon="5.69737">
        <ele>1370.3</ele>
        <time>2021-09-01T11:12:58Z</time>
      </trkpt>
      <trkpt lat="44.14385" lon="5.69722">
        <ele>1371.6</ele>
        <time>2021-09-01T11:13:03Z</time>
      </trkpt>
      <trkpt lat="44.14385" lon="5.69707">
        <ele>1372.2</ele>
        <time>2021-09-01T11:13:07Z</time>
      </trkpt>
      <trkpt lat="44.14385" lon="5.69687">
        <ele>1373</ele>
        <time>2021-09-01T11:13:14Z</time>
      </trkpt>
      <trkpt lat="44.14381" lon="5.69682">
        <ele>1372.6</ele>
        <time>2021-09-01T11:13:16Z</time>
      </trkpt>
      <trkpt lat="44.1438" lon="5.69679">
        <ele>1372.6</ele>
        <time>2021-09-01T11:13:44Z</time>
      </trkpt>
      <trkpt lat="44.14381" lon="5.69678">
        <ele>1372.8</ele>
        <time>2021-09-01T11:14:03Z</time>
      </trkpt>
      <trkpt lat="44.1438" lon="5.69679">
        <ele>1372.6</ele>
        <time>2021-09-01T11:14:49Z</time>
      </trkpt>
      <trkpt lat="44.14381" lon="5.69679">
        <ele>1372.8</ele>
        <time>2021-09-01T11:15:33Z</time>
      </trkpt>
      <trkpt lat="44.14382" lon="5.69679">
        <ele>1372.9</ele>
        <time>2021-09-01T11:17:33Z</time>
      </trkpt>
      <trkpt lat="44.1438" lon="5.69679">
        <ele>1372.6</ele>
        <time>2021-09-01T11:18:08Z</time>
      </trkpt>
      <trkpt lat="44.14378" lon="5.69678">
        <ele>1372.4</ele>
        <time>2021-09-01T11:18:09Z</time>
      </trkpt>
      <trkpt lat="44.14371" lon="5.69667">
        <ele>1372</ele>
        <time>2021-09-01T11:18:12Z</time>
      </trkpt>
      <trkpt lat="44.14366" lon="5.69653">
        <ele>1371.8</ele>
        <time>2021-09-01T11:18:15Z</time>
      </trkpt>
      <trkpt lat="44.14356" lon="5.69639">
        <ele>1371.4</ele>
        <time>2021-09-01T11:18:19Z</time>
      </trkpt>
      <trkpt lat="44.14351" lon="5.69627">
        <ele>1371.7</ele>
        <time>2021-09-01T11:18:22Z</time>
      </trkpt>
      <trkpt lat="44.14345" lon="5.69612">
        <ele>1372.2</ele>
        <time>2021-09-01T11:18:25Z</time>
      </trkpt>
      <trkpt lat="44.14346" lon="5.69608">
        <ele>1372.5</ele>
        <time>2021-09-01T11:18:26Z</time>
      </trkpt>
      <trkpt lat="44.14344" lon="5.69602">
        <ele>1372.8</ele>
        <time>2021-09-01T11:18:29Z</time>
      </trkpt>
      <trkpt lat="44.14334" lon="5.69594">
        <ele>1373.1</ele>
        <time>2021-09-01T11:18:34Z</time>
      </trkpt>
      <trkpt lat="44.14333" lon="5.69587">
        <ele>1373.7</ele>
        <time>2021-09-01T11:18:38Z</time>
      </trkpt>
      <trkpt lat="44.14331" lon="5.6958">
        <ele>1373.9</ele>
        <time>2021-09-01T11:18:46Z</time>
      </trkpt>
      <trkpt lat="44.14331" lon="5.69577">
        <ele>1374</ele>
        <time>2021-09-01T11:19:23Z</time>
      </trkpt>
      <trkpt lat="44.14332" lon="5.69573">
        <ele>1374.3</ele>
        <time>2021-09-01T11:19:25Z</time>
      </trkpt>
      <trkpt lat="44.14337" lon="5.69567">
        <ele>1374.6</ele>
        <time>2021-09-01T11:19:29Z</time>
      </trkpt>
      <trkpt lat="44.1434" lon="5.69563">
        <ele>1374.6</ele>
        <time>2021-09-01T11:19:31Z</time>
      </trkpt>
      <trkpt lat="44.1434" lon="5.69548">
        <ele>1375</ele>
        <time>2021-09-01T11:19:37Z</time>
      </trkpt>
      <trkpt lat="44.14336" lon="5.69538">
        <ele>1375.8</ele>
        <time>2021-09-01T11:19:41Z</time>
      </trkpt>
      <trkpt lat="44.14336" lon="5.69532">
        <ele>1376</ele>
        <time>2021-09-01T11:20:03Z</time>
      </trkpt>
      <trkpt lat="44.14336" lon="5.69533">
        <ele>1376</ele>
        <time>2021-09-01T11:20:53Z</time>
      </trkpt>
      <trkpt lat="44.14332" lon="5.69531">
        <ele>1376.3</ele>
        <time>2021-09-01T11:21:23Z</time>
      </trkpt>
      <trkpt lat="44.14329" lon="5.6953">
        <ele>1376</ele>
        <time>2021-09-01T11:21:24Z</time>
      </trkpt>
      <trkpt lat="44.14324" lon="5.69527">
        <ele>1375.4</ele>
        <time>2021-09-01T11:21:26Z</time>
      </trkpt>
      <trkpt lat="44.14313" lon="5.69526">
        <ele>1374</ele>
        <time>2021-09-01T11:21:31Z</time>
      </trkpt>
      <trkpt lat="44.14312" lon="5.69525">
        <ele>1373.9</ele>
        <time>2021-09-01T11:21:32Z</time>
      </trkpt>
      <trkpt lat="44.14307" lon="5.69518">
        <ele>1373.5</ele>
        <time>2021-09-01T11:21:37Z</time>
      </trkpt>
      <trkpt lat="44.14303" lon="5.69506">
        <ele>1373.4</ele>
        <time>2021-09-01T11:21:42Z</time>
      </trkpt>
      <trkpt lat="44.14299" lon="5.69482">
        <ele>1372.6</ele>
        <time>2021-09-01T11:21:49Z</time>
      </trkpt>
      <trkpt lat="44.14298" lon="5.69478">
        <ele>1372.4</ele>
        <time>2021-09-01T11:21:50Z</time>
      </trkpt>
      <trkpt lat="44.14288" lon="5.69433">
        <ele>1369.9</ele>
        <time>2021-09-01T11:22:00Z</time>
      </trkpt>
      <trkpt lat="44.14288" lon="5.69429">
        <ele>1369.8</ele>
        <time>2021-09-01T11:22:01Z</time>
      </trkpt>
      <trkpt lat="44.14282" lon="5.6942">
        <ele>1368.7</ele>
        <time>2021-09-01T11:22:04Z</time>
      </trkpt>
      <trkpt lat="44.14278" lon="5.69412">
        <ele>1367.7</ele>
        <time>2021-09-01T11:22:06Z</time>
      </trkpt>
      <trkpt lat="44.14279" lon="5.69396">
        <ele>1366.8</ele>
        <time>2021-09-01T11:22:09Z</time>
      </trkpt>
      <trkpt lat="44.14278" lon="5.69368">
        <ele>1364.7</ele>
        <time>2021-09-01T11:22:15Z</time>
      </trkpt>
      <trkpt lat="44.14277" lon="5.69321">
        <ele>1362.3</ele>
        <time>2021-09-01T11:22:26Z</time>
      </trkpt>
      <trkpt lat="44.14272" lon="5.69298">
        <ele>1361.4</ele>
        <time>2021-09-01T11:22:30Z</time>
      </trkpt>
      <trkpt lat="44.14272" lon="5.69283">
        <ele>1361.4</ele>
        <time>2021-09-01T11:22:33Z</time>
      </trkpt>
      <trkpt lat="44.14285" lon="5.69266">
        <ele>1364.6</ele>
        <time>2021-09-01T11:22:39Z</time>
      </trkpt>
      <trkpt lat="44.14286" lon="5.69263">
        <ele>1364.9</ele>
        <time>2021-09-01T11:22:40Z</time>
      </trkpt>
      <trkpt lat="44.14305" lon="5.69256">
        <ele>1369.7</ele>
        <time>2021-09-01T11:22:47Z</time>
      </trkpt>
      <trkpt lat="44.14317" lon="5.69248">
        <ele>1373.2</ele>
        <time>2021-09-01T11:22:52Z</time>
      </trkpt>
      <trkpt lat="44.1433" lon="5.69231">
        <ele>1378.7</ele>
        <time>2021-09-01T11:23:00Z</time>
      </trkpt>
      <trkpt lat="44.14332" lon="5.69228">
        <ele>1379.6</ele>
        <time>2021-09-01T11:23:01Z</time>
      </trkpt>
      <trkpt lat="44.14334" lon="5.69223">
        <ele>1380.7</ele>
        <time>2021-09-01T11:23:04Z</time>
      </trkpt>
      <trkpt lat="44.14338" lon="5.69218">
        <ele>1382</ele>
        <time>2021-09-01T11:23:08Z</time>
      </trkpt>
      <trkpt lat="44.1434" lon="5.69211">
        <ele>1383.3</ele>
        <time>2021-09-01T11:23:11Z</time>
      </trkpt>
      <trkpt lat="44.14342" lon="5.69206">
        <ele>1384.3</ele>
        <time>2021-09-01T11:23:13Z</time>
      </trkpt>
      <trkpt lat="44.14354" lon="5.69206">
        <ele>1386.3</ele>
        <time>2021-09-01T11:23:19Z</time>
      </trkpt>
      <trkpt lat="44.14358" lon="5.69207">
        <ele>1386.8</ele>
        <time>2021-09-01T11:23:21Z</time>
      </trkpt>
      <trkpt lat="44.14368" lon="5.69201">
        <ele>1389.4</ele>
        <time>2021-09-01T11:23:26Z</time>
      </trkpt>
      <trkpt lat="44.14369" lon="5.69198">
        <ele>1390.1</ele>
        <time>2021-09-01T11:23:28Z</time>
      </trkpt>
      <trkpt lat="44.14369" lon="5.69199">
        <ele>1389.9</ele>
        <time>2021-09-01T11:23:51Z</time>
      </trkpt>
      <trkpt lat="44.14369" lon="5.692">
        <ele>1389.8</ele>
        <time>2021-09-01T11:25:03Z</time>
      </trkpt>
      <trkpt lat="44.14372" lon="5.69192">
        <ele>1391.5</ele>
        <time>2021-09-01T11:25:14Z</time>
      </trkpt>
      <trkpt lat="44.14373" lon="5.6919">
        <ele>1392</ele>
        <time>2021-09-01T11:25:15Z</time>
      </trkpt>
      <trkpt lat="44.14378" lon="5.69184">
        <ele>1393.8</ele>
        <time>2021-09-01T11:25:18Z</time>
      </trkpt>
      <trkpt lat="44.1438" lon="5.69182">
        <ele>1394.5</ele>
        <time>2021-09-01T11:25:19Z</time>
      </trkpt>
      <trkpt lat="44.14381" lon="5.69172">
        <ele>1396.3</ele>
        <time>2021-09-01T11:25:23Z</time>
      </trkpt>
      <trkpt lat="44.14382" lon="5.69167">
        <ele>1397.3</ele>
        <time>2021-09-01T11:25:25Z</time>
      </trkpt>
      <trkpt lat="44.14386" lon="5.69153">
        <ele>1400.4</ele>
        <time>2021-09-01T11:25:31Z</time>
      </trkpt>
      <trkpt lat="44.14387" lon="5.69149">
        <ele>1401.3</ele>
        <time>2021-09-01T11:25:33Z</time>
      </trkpt>
      <trkpt lat="44.14391" lon="5.69136">
        <ele>1404.2</ele>
        <time>2021-09-01T11:25:37Z</time>
      </trkpt>
      <trkpt lat="44.14391" lon="5.69132">
        <ele>1404.9</ele>
        <time>2021-09-01T11:25:38Z</time>
      </trkpt>
      <trkpt lat="44.14398" lon="5.69115">
        <ele>1408.9</ele>
        <time>2021-09-01T11:25:43Z</time>
      </trkpt>
      <trkpt lat="44.14409" lon="5.69098">
        <ele>1413.5</ele>
        <time>2021-09-01T11:25:52Z</time>
      </trkpt>
      <trkpt lat="44.14416" lon="5.69093">
        <ele>1415.4</ele>
        <time>2021-09-01T11:25:56Z</time>
      </trkpt>
      <trkpt lat="44.14421" lon="5.69081">
        <ele>1417.6</ele>
        <time>2021-09-01T11:26:01Z</time>
      </trkpt>
      <trkpt lat="44.14421" lon="5.69078">
        <ele>1418</ele>
        <time>2021-09-01T11:26:02Z</time>
      </trkpt>
      <trkpt lat="44.14425" lon="5.69068">
        <ele>1419.6</ele>
        <time>2021-09-01T11:26:07Z</time>
      </trkpt>
      <trkpt lat="44.14427" lon="5.69064">
        <ele>1420.3</ele>
        <time>2021-09-01T11:26:09Z</time>
      </trkpt>
      <trkpt lat="44.14427" lon="5.69055">
        <ele>1421.5</ele>
        <time>2021-09-01T11:26:13Z</time>
      </trkpt>
      <trkpt lat="44.14422" lon="5.69048">
        <ele>1422.1</ele>
        <time>2021-09-01T11:26:16Z</time>
      </trkpt>
      <trkpt lat="44.14427" lon="5.6902">
        <ele>1426.4</ele>
        <time>2021-09-01T11:26:25Z</time>
      </trkpt>
      <trkpt lat="44.14431" lon="5.69016">
        <ele>1427.3</ele>
        <time>2021-09-01T11:26:27Z</time>
      </trkpt>
      <trkpt lat="44.14436" lon="5.69004">
        <ele>1429.5</ele>
        <time>2021-09-01T11:26:31Z</time>
      </trkpt>
      <trkpt lat="44.14441" lon="5.68994">
        <ele>1431.4</ele>
        <time>2021-09-01T11:26:34Z</time>
      </trkpt>
      <trkpt lat="44.14442" lon="5.68991">
        <ele>1431.9</ele>
        <time>2021-09-01T11:26:35Z</time>
      </trkpt>
      <trkpt lat="44.14445" lon="5.68977">
        <ele>1434</ele>
        <time>2021-09-01T11:26:39Z</time>
      </trkpt>
      <trkpt lat="44.14446" lon="5.6896">
        <ele>1436.3</ele>
        <time>2021-09-01T11:26:43Z</time>
      </trkpt>
      <trkpt lat="44.14446" lon="5.68932">
        <ele>1439.8</ele>
        <time>2021-09-01T11:26:49Z</time>
      </trkpt>
      <trkpt lat="44.14446" lon="5.68925">
        <ele>1440.7</ele>
        <time>2021-09-01T11:26:51Z</time>
      </trkpt>
      <trkpt lat="44.14448" lon="5.68913">
        <ele>1442.2</ele>
        <time>2021-09-01T11:26:54Z</time>
      </trkpt>
      <trkpt lat="44.1445" lon="5.68891">
        <ele>1444.5</ele>
        <time>2021-09-01T11:26:59Z</time>
      </trkpt>
      <trkpt lat="44.14453" lon="5.68875">
        <ele>1446.2</ele>
        <time>2021-09-01T11:27:04Z</time>
      </trkpt>
      <trkpt lat="44.14455" lon="5.68867">
        <ele>1447.1</ele>
        <time>2021-09-01T11:27:07Z</time>
      </trkpt>
      <trkpt lat="44.1446" lon="5.68849">
        <ele>1449.1</ele>
        <time>2021-09-01T11:27:12Z</time>
      </trkpt>
      <trkpt lat="44.1446" lon="5.68833">
        <ele>1450.6</ele>
        <time>2021-09-01T11:27:16Z</time>
      </trkpt>
      <trkpt lat="44.14462" lon="5.6882">
        <ele>1451.4</ele>
        <time>2021-09-01T11:27:20Z</time>
      </trkpt>
      <trkpt lat="44.14461" lon="5.68813">
        <ele>1451.7</ele>
        <time>2021-09-01T11:27:22Z</time>
      </trkpt>
      <trkpt lat="44.14454" lon="5.68793">
        <ele>1452.4</ele>
        <time>2021-09-01T11:27:28Z</time>
      </trkpt>
      <trkpt lat="44.1445" lon="5.68778">
        <ele>1452.9</ele>
        <time>2021-09-01T11:27:32Z</time>
      </trkpt>
      <trkpt lat="44.14449" lon="5.68759">
        <ele>1453.7</ele>
        <time>2021-09-01T11:27:37Z</time>
      </trkpt>
      <trkpt lat="44.14454" lon="5.68745">
        <ele>1454.5</ele>
        <time>2021-09-01T11:27:42Z</time>
      </trkpt>
      <trkpt lat="44.14456" lon="5.68736">
        <ele>1454.6</ele>
        <time>2021-09-01T11:27:45Z</time>
      </trkpt>
      <trkpt lat="44.14458" lon="5.68717">
        <ele>1454.6</ele>
        <time>2021-09-01T11:27:51Z</time>
      </trkpt>
      <trkpt lat="44.14462" lon="5.68696">
        <ele>1454.9</ele>
        <time>2021-09-01T11:27:57Z</time>
      </trkpt>
      <trkpt lat="44.14463" lon="5.68686">
        <ele>1454.9</ele>
        <time>2021-09-01T11:28:00Z</time>
      </trkpt>
      <trkpt lat="44.14463" lon="5.68681">
        <ele>1454.9</ele>
        <time>2021-09-01T11:28:02Z</time>
      </trkpt>
      <trkpt lat="44.14466" lon="5.68664">
        <ele>1455.2</ele>
        <time>2021-09-01T11:28:07Z</time>
      </trkpt>
      <trkpt lat="44.14468" lon="5.68661">
        <ele>1455.4</ele>
        <time>2021-09-01T11:28:08Z</time>
      </trkpt>
      <trkpt lat="44.14474" lon="5.68647">
        <ele>1455.8</ele>
        <time>2021-09-01T11:28:12Z</time>
      </trkpt>
      <trkpt lat="44.14479" lon="5.68633">
        <ele>1456.2</ele>
        <time>2021-09-01T11:28:16Z</time>
      </trkpt>
      <trkpt lat="44.14481" lon="5.68621">
        <ele>1456.1</ele>
        <time>2021-09-01T11:28:20Z</time>
      </trkpt>
      <trkpt lat="44.14482" lon="5.68614">
        <ele>1456</ele>
        <time>2021-09-01T11:28:22Z</time>
      </trkpt>
      <trkpt lat="44.14485" lon="5.68605">
        <ele>1456.3</ele>
        <time>2021-09-01T11:28:25Z</time>
      </trkpt>
      <trkpt lat="44.14489" lon="5.68593">
        <ele>1456.8</ele>
        <time>2021-09-01T11:28:29Z</time>
      </trkpt>
      <trkpt lat="44.1449" lon="5.6859">
        <ele>1456.9</ele>
        <time>2021-09-01T11:28:30Z</time>
      </trkpt>
      <trkpt lat="44.14488" lon="5.68578">
        <ele>1456.2</ele>
        <time>2021-09-01T11:28:33Z</time>
      </trkpt>
      <trkpt lat="44.14485" lon="5.68556">
        <ele>1455.3</ele>
        <time>2021-09-01T11:28:38Z</time>
      </trkpt>
      <trkpt lat="44.14473" lon="5.6853">
        <ele>1451.8</ele>
        <time>2021-09-01T11:28:43Z</time>
      </trkpt>
      <trkpt lat="44.1447" lon="5.68515">
        <ele>1450.7</ele>
        <time>2021-09-01T11:28:46Z</time>
      </trkpt>
      <trkpt lat="44.14473" lon="5.68496">
        <ele>1451.3</ele>
        <time>2021-09-01T11:28:51Z</time>
      </trkpt>
      <trkpt lat="44.14473" lon="5.68482">
        <ele>1451.4</ele>
        <time>2021-09-01T11:28:54Z</time>
      </trkpt>
      <trkpt lat="44.14475" lon="5.68457">
        <ele>1452.3</ele>
        <time>2021-09-01T11:28:59Z</time>
      </trkpt>
      <trkpt lat="44.14476" lon="5.68451">
        <ele>1452.7</ele>
        <time>2021-09-01T11:29:01Z</time>
      </trkpt>
      <trkpt lat="44.14471" lon="5.68429">
        <ele>1451.5</ele>
        <time>2021-09-01T11:29:07Z</time>
      </trkpt>
      <trkpt lat="44.14466" lon="5.68408">
        <ele>1450.6</ele>
        <time>2021-09-01T11:29:12Z</time>
      </trkpt>
      <trkpt lat="44.14469" lon="5.68394">
        <ele>1452.2</ele>
        <time>2021-09-01T11:29:15Z</time>
      </trkpt>
      <trkpt lat="44.1447" lon="5.68378">
        <ele>1453.3</ele>
        <time>2021-09-01T11:29:19Z</time>
      </trkpt>
      <trkpt lat="44.14471" lon="5.68365">
        <ele>1454.3</ele>
        <time>2021-09-01T11:29:23Z</time>
      </trkpt>
      <trkpt lat="44.1448" lon="5.68348">
        <ele>1458</ele>
        <time>2021-09-01T11:29:28Z</time>
      </trkpt>
      <trkpt lat="44.14483" lon="5.68331">
        <ele>1459.8</ele>
        <time>2021-09-01T11:29:32Z</time>
      </trkpt>
      <trkpt lat="44.14485" lon="5.68295">
        <ele>1462.6</ele>
        <time>2021-09-01T11:29:40Z</time>
      </trkpt>
      <trkpt lat="44.14484" lon="5.68274">
        <ele>1463.6</ele>
        <time>2021-09-01T11:29:45Z</time>
      </trkpt>
      <trkpt lat="44.14486" lon="5.68236">
        <ele>1467.1</ele>
        <time>2021-09-01T11:29:54Z</time>
      </trkpt>
      <trkpt lat="44.14487" lon="5.68233">
        <ele>1467.7</ele>
        <time>2021-09-01T11:29:55Z</time>
      </trkpt>
      <trkpt lat="44.14488" lon="5.6822">
        <ele>1469.4</ele>
        <time>2021-09-01T11:29:58Z</time>
      </trkpt>
      <trkpt lat="44.14488" lon="5.68205">
        <ele>1471</ele>
        <time>2021-09-01T11:30:02Z</time>
      </trkpt>
      <trkpt lat="44.14491" lon="5.68185">
        <ele>1474</ele>
        <time>2021-09-01T11:30:08Z</time>
      </trkpt>
      <trkpt lat="44.14495" lon="5.68169">
        <ele>1477.1</ele>
        <time>2021-09-01T11:30:14Z</time>
      </trkpt>
      <trkpt lat="44.1451" lon="5.68161">
        <ele>1481</ele>
        <time>2021-09-01T11:30:23Z</time>
      </trkpt>
      <trkpt lat="44.14512" lon="5.6816">
        <ele>1481.4</ele>
        <time>2021-09-01T11:30:24Z</time>
      </trkpt>
      <trkpt lat="44.14516" lon="5.68154">
        <ele>1482.9</ele>
        <time>2021-09-01T11:30:28Z</time>
      </trkpt>
      <trkpt lat="44.14517" lon="5.68152">
        <ele>1483.3</ele>
        <time>2021-09-01T11:30:29Z</time>
      </trkpt>
      <trkpt lat="44.14529" lon="5.68143">
        <ele>1486.5</ele>
        <time>2021-09-01T11:30:37Z</time>
      </trkpt>
      <trkpt lat="44.14535" lon="5.68139">
        <ele>1488.1</ele>
        <time>2021-09-01T11:30:40Z</time>
      </trkpt>
      <trkpt lat="44.14536" lon="5.68134">
        <ele>1489.2</ele>
        <time>2021-09-01T11:30:42Z</time>
      </trkpt>
      <trkpt lat="44.14538" lon="5.6812">
        <ele>1492</ele>
        <time>2021-09-01T11:30:47Z</time>
      </trkpt>
      <trkpt lat="44.14542" lon="5.68106">
        <ele>1495.4</ele>
        <time>2021-09-01T11:30:53Z</time>
      </trkpt>
      <trkpt lat="44.14539" lon="5.68092">
        <ele>1497.3</ele>
        <time>2021-09-01T11:30:58Z</time>
      </trkpt>
      <trkpt lat="44.14538" lon="5.68074">
        <ele>1499.8</ele>
        <time>2021-09-01T11:31:05Z</time>
      </trkpt>
      <trkpt lat="44.14534" lon="5.68059">
        <ele>1500.7</ele>
        <time>2021-09-01T11:31:12Z</time>
      </trkpt>
      <trkpt lat="44.14534" lon="5.68057">
        <ele>1500.9</ele>
        <time>2021-09-01T11:31:13Z</time>
      </trkpt>
      <trkpt lat="44.14539" lon="5.68045">
        <ele>1503.5</ele>
        <time>2021-09-01T11:31:18Z</time>
      </trkpt>
      <trkpt lat="44.14548" lon="5.68034">
        <ele>1506.9</ele>
        <time>2021-09-01T11:31:24Z</time>
      </trkpt>
      <trkpt lat="44.14553" lon="5.68024">
        <ele>1509.2</ele>
        <time>2021-09-01T11:31:29Z</time>
      </trkpt>
      <trkpt lat="44.1456" lon="5.68012">
        <ele>1512.2</ele>
        <time>2021-09-01T11:31:35Z</time>
      </trkpt>
      <trkpt lat="44.14571" lon="5.67988">
        <ele>1516.5</ele>
        <time>2021-09-01T11:31:46Z</time>
      </trkpt>
      <trkpt lat="44.14572" lon="5.67972">
        <ele>1517.2</ele>
        <time>2021-09-01T11:31:52Z</time>
      </trkpt>
      <trkpt lat="44.14574" lon="5.67957">
        <ele>1518.1</ele>
        <time>2021-09-01T11:31:57Z</time>
      </trkpt>
      <trkpt lat="44.14577" lon="5.67951">
        <ele>1518.9</ele>
        <time>2021-09-01T11:31:59Z</time>
      </trkpt>
      <trkpt lat="44.1458" lon="5.67944">
        <ele>1519.7</ele>
        <time>2021-09-01T11:32:01Z</time>
      </trkpt>
      <trkpt lat="44.14582" lon="5.67928">
        <ele>1520.5</ele>
        <time>2021-09-01T11:32:05Z</time>
      </trkpt>
      <trkpt lat="44.14582" lon="5.67909">
        <ele>1520.4</ele>
        <time>2021-09-01T11:32:09Z</time>
      </trkpt>
      <trkpt lat="44.14591" lon="5.6789">
        <ele>1520.4</ele>
        <time>2021-09-01T11:32:13Z</time>
      </trkpt>
      <trkpt lat="44.14602" lon="5.67877">
        <ele>1520.9</ele>
        <time>2021-09-01T11:32:17Z</time>
      </trkpt>
      <trkpt lat="44.14621" lon="5.67878">
        <ele>1522.7</ele>
        <time>2021-09-01T11:32:26Z</time>
      </trkpt>
      <trkpt lat="44.14621" lon="5.67875">
        <ele>1522.6</ele>
        <time>2021-09-01T11:32:33Z</time>
      </trkpt>
      <trkpt lat="44.14614" lon="5.67869">
        <ele>1521.7</ele>
        <time>2021-09-01T11:32:38Z</time>
      </trkpt>
      <trkpt lat="44.14613" lon="5.67867">
        <ele>1521.5</ele>
        <time>2021-09-01T11:32:39Z</time>
      </trkpt>
      <trkpt lat="44.14614" lon="5.6784">
        <ele>1520.6</ele>
        <time>2021-09-01T11:32:46Z</time>
      </trkpt>
      <trkpt lat="44.14613" lon="5.67834">
        <ele>1520.2</ele>
        <time>2021-09-01T11:32:47Z</time>
      </trkpt>
      <trkpt lat="44.14607" lon="5.6781">
        <ele>1516.9</ele>
        <time>2021-09-01T11:32:51Z</time>
      </trkpt>
      <trkpt lat="44.14608" lon="5.67798">
        <ele>1515.6</ele>
        <time>2021-09-01T11:32:53Z</time>
      </trkpt>
      <trkpt lat="44.14619" lon="5.67775">
        <ele>1514</ele>
        <time>2021-09-01T11:32:57Z</time>
      </trkpt>
      <trkpt lat="44.14623" lon="5.67771">
        <ele>1513.8</ele>
        <time>2021-09-01T11:32:58Z</time>
      </trkpt>
      <trkpt lat="44.1463" lon="5.6776">
        <ele>1513.1</ele>
        <time>2021-09-01T11:33:00Z</time>
      </trkpt>
      <trkpt lat="44.14641" lon="5.67736">
        <ele>1510.7</ele>
        <time>2021-09-01T11:33:04Z</time>
      </trkpt>
      <trkpt lat="44.1465" lon="5.67725">
        <ele>1509.8</ele>
        <time>2021-09-01T11:33:06Z</time>
      </trkpt>
      <trkpt lat="44.14661" lon="5.67707">
        <ele>1507.9</ele>
        <time>2021-09-01T11:33:09Z</time>
      </trkpt>
      <trkpt lat="44.14664" lon="5.67701">
        <ele>1507.2</ele>
        <time>2021-09-01T11:33:10Z</time>
      </trkpt>
      <trkpt lat="44.1467" lon="5.67678">
        <ele>1504</ele>
        <time>2021-09-01T11:33:14Z</time>
      </trkpt>
      <trkpt lat="44.1467" lon="5.67672">
        <ele>1503.1</ele>
        <time>2021-09-01T11:33:15Z</time>
      </trkpt>
      <trkpt lat="44.14669" lon="5.67643">
        <ele>1497.1</ele>
        <time>2021-09-01T11:33:20Z</time>
      </trkpt>
      <trkpt lat="44.1467" lon="5.67637">
        <ele>1495.8</ele>
        <time>2021-09-01T11:33:21Z</time>
      </trkpt>
      <trkpt lat="44.14676" lon="5.67618">
        <ele>1492.2</ele>
        <time>2021-09-01T11:33:24Z</time>
      </trkpt>
      <trkpt lat="44.14679" lon="5.67614">
        <ele>1491.6</ele>
        <time>2021-09-01T11:33:25Z</time>
      </trkpt>
      <trkpt lat="44.14682" lon="5.67602">
        <ele>1489.3</ele>
        <time>2021-09-01T11:33:28Z</time>
      </trkpt>
      <trkpt lat="44.14675" lon="5.67589">
        <ele>1485.9</ele>
        <time>2021-09-01T11:33:32Z</time>
      </trkpt>
      <trkpt lat="44.14675" lon="5.67584">
        <ele>1484.8</ele>
        <time>2021-09-01T11:33:34Z</time>
      </trkpt>
      <trkpt lat="44.14681" lon="5.67574">
        <ele>1483.1</ele>
        <time>2021-09-01T11:33:37Z</time>
      </trkpt>
      <trkpt lat="44.14688" lon="5.67564">
        <ele>1481.3</ele>
        <time>2021-09-01T11:33:39Z</time>
      </trkpt>
      <trkpt lat="44.14704" lon="5.67551">
        <ele>1479.6</ele>
        <time>2021-09-01T11:33:43Z</time>
      </trkpt>
      <trkpt lat="44.14709" lon="5.67546">
        <ele>1478.8</ele>
        <time>2021-09-01T11:33:45Z</time>
      </trkpt>
      <trkpt lat="44.14708" lon="5.67517">
        <ele>1472</ele>
        <time>2021-09-01T11:33:50Z</time>
      </trkpt>
      <trkpt lat="44.14705" lon="5.67504">
        <ele>1468.7</ele>
        <time>2021-09-01T11:33:52Z</time>
      </trkpt>
      <trkpt lat="44.14705" lon="5.67486">
        <ele>1464.1</ele>
        <time>2021-09-01T11:33:55Z</time>
      </trkpt>
      <trkpt lat="44.14707" lon="5.67473">
        <ele>1460.8</ele>
        <time>2021-09-01T11:33:57Z</time>
      </trkpt>
      <trkpt lat="44.14705" lon="5.67457">
        <ele>1456.5</ele>
        <time>2021-09-01T11:34:00Z</time>
      </trkpt>
      <trkpt lat="44.14698" lon="5.67452">
        <ele>1454.9</ele>
        <time>2021-09-01T11:34:02Z</time>
      </trkpt>
      <trkpt lat="44.14696" lon="5.67445">
        <ele>1453</ele>
        <time>2021-09-01T11:34:05Z</time>
      </trkpt>
      <trkpt lat="44.14697" lon="5.67443">
        <ele>1452.5</ele>
        <time>2021-09-01T11:34:06Z</time>
      </trkpt>
      <trkpt lat="44.14703" lon="5.67425">
        <ele>1448</ele>
        <time>2021-09-01T11:34:11Z</time>
      </trkpt>
      <trkpt lat="44.14706" lon="5.67413">
        <ele>1445</ele>
        <time>2021-09-01T11:34:13Z</time>
      </trkpt>
      <trkpt lat="44.14707" lon="5.67394">
        <ele>1439.9</ele>
        <time>2021-09-01T11:34:16Z</time>
      </trkpt>
      <trkpt lat="44.14709" lon="5.67381">
        <ele>1436.4</ele>
        <time>2021-09-01T11:34:18Z</time>
      </trkpt>
      <trkpt lat="44.14712" lon="5.67368">
        <ele>1432.9</ele>
        <time>2021-09-01T11:34:20Z</time>
      </trkpt>
      <trkpt lat="44.14717" lon="5.67334">
        <ele>1423.8</ele>
        <time>2021-09-01T11:34:25Z</time>
      </trkpt>
      <trkpt lat="44.14721" lon="5.67323">
        <ele>1421.1</ele>
        <time>2021-09-01T11:34:27Z</time>
      </trkpt>
      <trkpt lat="44.14736" lon="5.67296">
        <ele>1414.5</ele>
        <time>2021-09-01T11:34:31Z</time>
      </trkpt>
      <trkpt lat="44.14744" lon="5.67282">
        <ele>1411</ele>
        <time>2021-09-01T11:34:33Z</time>
      </trkpt>
      <trkpt lat="44.14752" lon="5.67262">
        <ele>1406</ele>
        <time>2021-09-01T11:34:36Z</time>
      </trkpt>
      <trkpt lat="44.14756" lon="5.67254">
        <ele>1403.9</ele>
        <time>2021-09-01T11:34:37Z</time>
      </trkpt>
      <trkpt lat="44.14769" lon="5.67229">
        <ele>1398.6</ele>
        <time>2021-09-01T11:34:40Z</time>
      </trkpt>
      <trkpt lat="44.14775" lon="5.67222">
        <ele>1397.4</ele>
        <time>2021-09-01T11:34:41Z</time>
      </trkpt>
      <trkpt lat="44.14792" lon="5.67198">
        <ele>1393.5</ele>
        <time>2021-09-01T11:34:45Z</time>
      </trkpt>
      <trkpt lat="44.14792" lon="5.67196">
        <ele>1393.1</ele>
        <time>2021-09-01T11:34:48Z</time>
      </trkpt>
      <trkpt lat="44.14793" lon="5.67188">
        <ele>1391.8</ele>
        <time>2021-09-01T11:35:23Z</time>
      </trkpt>
      <trkpt lat="44.148" lon="5.67154">
        <ele>1387.1</ele>
        <time>2021-09-01T11:35:29Z</time>
      </trkpt>
      <trkpt lat="44.14804" lon="5.67146">
        <ele>1386.5</ele>
        <time>2021-09-01T11:35:31Z</time>
      </trkpt>
      <trkpt lat="44.14808" lon="5.67132">
        <ele>1385.4</ele>
        <time>2021-09-01T11:35:34Z</time>
      </trkpt>
      <trkpt lat="44.14807" lon="5.67117">
        <ele>1383.6</ele>
        <time>2021-09-01T11:35:38Z</time>
      </trkpt>
      <trkpt lat="44.14802" lon="5.67103">
        <ele>1381.4</ele>
        <time>2021-09-01T11:35:41Z</time>
      </trkpt>
      <trkpt lat="44.14796" lon="5.67083">
        <ele>1378.2</ele>
        <time>2021-09-01T11:35:44Z</time>
      </trkpt>
      <trkpt lat="44.14794" lon="5.67068">
        <ele>1377</ele>
        <time>2021-09-01T11:35:46Z</time>
      </trkpt>
      <trkpt lat="44.14789" lon="5.6703">
        <ele>1373.8</ele>
        <time>2021-09-01T11:35:51Z</time>
      </trkpt>
      <trkpt lat="44.14789" lon="5.67023">
        <ele>1373.4</ele>
        <time>2021-09-01T11:35:52Z</time>
      </trkpt>
      <trkpt lat="44.14798" lon="5.6699">
        <ele>1373</ele>
        <time>2021-09-01T11:35:59Z</time>
      </trkpt>
      <trkpt lat="44.14798" lon="5.66985">
        <ele>1372.6</ele>
        <time>2021-09-01T11:36:00Z</time>
      </trkpt>
      <trkpt lat="44.14806" lon="5.66957">
        <ele>1371.8</ele>
        <time>2021-09-01T11:36:05Z</time>
      </trkpt>
      <trkpt lat="44.14811" lon="5.66939">
        <ele>1371.2</ele>
        <time>2021-09-01T11:36:08Z</time>
      </trkpt>
      <trkpt lat="44.14821" lon="5.66913">
        <ele>1370.4</ele>
        <time>2021-09-01T11:36:12Z</time>
      </trkpt>
      <trkpt lat="44.14826" lon="5.66888">
        <ele>1367.6</ele>
        <time>2021-09-01T11:36:15Z</time>
      </trkpt>
      <trkpt lat="44.14836" lon="5.66866">
        <ele>1366.1</ele>
        <time>2021-09-01T11:36:18Z</time>
      </trkpt>
      <trkpt lat="44.1484" lon="5.66858">
        <ele>1365.5</ele>
        <time>2021-09-01T11:36:19Z</time>
      </trkpt>
      <trkpt lat="44.14846" lon="5.66838">
        <ele>1363.5</ele>
        <time>2021-09-01T11:36:21Z</time>
      </trkpt>
      <trkpt lat="44.1486" lon="5.66783">
        <ele>1357.4</ele>
        <time>2021-09-01T11:36:28Z</time>
      </trkpt>
      <trkpt lat="44.14859" lon="5.66749">
        <ele>1352.2</ele>
        <time>2021-09-01T11:36:31Z</time>
      </trkpt>
      <trkpt lat="44.1486" lon="5.66709">
        <ele>1348.2</ele>
        <time>2021-09-01T11:36:34Z</time>
      </trkpt>
      <trkpt lat="44.1486" lon="5.66697">
        <ele>1347</ele>
        <time>2021-09-01T11:36:35Z</time>
      </trkpt>
      <trkpt lat="44.14851" lon="5.66656">
        <ele>1342</ele>
        <time>2021-09-01T11:36:39Z</time>
      </trkpt>
      <trkpt lat="44.14843" lon="5.66637">
        <ele>1340</ele>
        <time>2021-09-01T11:36:41Z</time>
      </trkpt>
      <trkpt lat="44.14833" lon="5.66602">
        <ele>1336.8</ele>
        <time>2021-09-01T11:36:44Z</time>
      </trkpt>
      <trkpt lat="44.14828" lon="5.66589">
        <ele>1335.3</ele>
        <time>2021-09-01T11:36:45Z</time>
      </trkpt>
      <trkpt lat="44.14817" lon="5.66542">
        <ele>1331.1</ele>
        <time>2021-09-01T11:36:49Z</time>
      </trkpt>
      <trkpt lat="44.1481" lon="5.66497">
        <ele>1327.6</ele>
        <time>2021-09-01T11:36:53Z</time>
      </trkpt>
      <trkpt lat="44.14809" lon="5.66453">
        <ele>1323.8</ele>
        <time>2021-09-01T11:36:57Z</time>
      </trkpt>
      <trkpt lat="44.14807" lon="5.66392">
        <ele>1318.1</ele>
        <time>2021-09-01T11:37:02Z</time>
      </trkpt>
      <trkpt lat="44.14812" lon="5.66309">
        <ele>1310.5</ele>
        <time>2021-09-01T11:37:09Z</time>
      </trkpt>
      <trkpt lat="44.14809" lon="5.66291">
        <ele>1308.4</ele>
        <time>2021-09-01T11:37:11Z</time>
      </trkpt>
      <trkpt lat="44.14806" lon="5.66281">
        <ele>1307</ele>
        <time>2021-09-01T11:37:12Z</time>
      </trkpt>
      <trkpt lat="44.148" lon="5.66249">
        <ele>1303.4</ele>
        <time>2021-09-01T11:37:15Z</time>
      </trkpt>
      <trkpt lat="44.14799" lon="5.66238">
        <ele>1303.5</ele>
        <time>2021-09-01T11:37:16Z</time>
      </trkpt>
      <trkpt lat="44.14802" lon="5.66198">
        <ele>1304.6</ele>
        <time>2021-09-01T11:37:20Z</time>
      </trkpt>
      <trkpt lat="44.14803" lon="5.66189">
        <ele>1304.8</ele>
        <time>2021-09-01T11:37:21Z</time>
      </trkpt>
      <trkpt lat="44.14801" lon="5.66179">
        <ele>1304.8</ele>
        <extensions>
          <visugpx:TrkExtension xmlns:visugpx="https://www.visugpx.com/editgpx/">
            <visugpx:node>1</visugpx:node>
            </visugpx:TrkExtension>
        </extensions>
      </trkpt>
      <trkpt lat="44.14815" lon="5.66162">
        <ele>1306.4</ele>
      </trkpt>
      <trkpt lat="44.14835" lon="5.66161">
        <ele>1307.5</ele>
      </trkpt>
      <trkpt lat="44.14837" lon="5.66154">
        <ele>1308.1</ele>
      </trkpt>
      <trkpt lat="44.14838" lon="5.66141">
        <ele>1309.3</ele>
      </trkpt>
      <trkpt lat="44.14841" lon="5.66133">
        <ele>1309.8</ele>
      </trkpt>
      <trkpt lat="44.14845" lon="5.66125">
        <ele>1310.1</ele>
      </trkpt>
      <trkpt lat="44.14853" lon="5.6612">
        <ele>1309.5</ele>
      </trkpt>
      <trkpt lat="44.14862" lon="5.66121">
        <ele>1308.3</ele>
      </trkpt>
      <trkpt lat="44.14868" lon="5.66127">
        <ele>1307.2</ele>
      </trkpt>
      <trkpt lat="44.14892" lon="5.66158">
        <ele>1303.7</ele>
      </trkpt>
      <trkpt lat="44.149" lon="5.66165">
        <ele>1303</ele>
      </trkpt>
      <trkpt lat="44.14907" lon="5.66164">
        <ele>1302.6</ele>
      </trkpt>
      <trkpt lat="44.14912" lon="5.66157">
        <ele>1302.2</ele>
      </trkpt>
      <trkpt lat="44.14915" lon="5.66134">
        <ele>1301.8</ele>
      </trkpt>
      <trkpt lat="44.14922" lon="5.66117">
        <ele>1298.2</ele>
      </trkpt>
      <trkpt lat="44.14939" lon="5.66091">
        <ele>1287.3</ele>
      </trkpt>
      <trkpt lat="44.14958" lon="5.66069">
        <ele>1276.1</ele>
      </trkpt>
      <trkpt lat="44.14989" lon="5.66002">
        <ele>1260</ele>
      </trkpt>
      <trkpt lat="44.15003" lon="5.65979">
        <ele>1253.6</ele>
      </trkpt>
      <trkpt lat="44.15021" lon="5.65955">
        <ele>1244.6</ele>
      </trkpt>
      <trkpt lat="44.15029" lon="5.65924">
        <ele>1242.7</ele>
      </trkpt>
      <trkpt lat="44.15044" lon="5.65894">
        <ele>1237</ele>
      </trkpt>
      <trkpt lat="44.1505" lon="5.65887">
        <ele>1234</ele>
      </trkpt>
      <trkpt lat="44.15056" lon="5.65884">
        <ele>1230.5</ele>
      </trkpt>
      <trkpt lat="44.15062" lon="5.65884">
        <ele>1226.4</ele>
      </trkpt>
      <trkpt lat="44.15088" lon="5.65889">
        <ele>1208.4</ele>
      </trkpt>
      <trkpt lat="44.15103" lon="5.65895">
        <ele>1198</ele>
      </trkpt>
      <trkpt lat="44.15114" lon="5.65893">
        <ele>1191.5</ele>
      </trkpt>
      <trkpt lat="44.1513" lon="5.65876">
        <ele>1184</ele>
      </trkpt>
      <trkpt lat="44.15144" lon="5.65866">
        <ele>1176.6</ele>
      </trkpt>
      <trkpt lat="44.15166" lon="5.65854">
        <ele>1164.4</ele>
      </trkpt>
      <trkpt lat="44.1519" lon="5.65838">
        <ele>1154.8</ele>
      </trkpt>
      <trkpt lat="44.15243" lon="5.65794">
        <ele>1136.6</ele>
      </trkpt>
      <trkpt lat="44.1525" lon="5.65791">
        <ele>1133.6</ele>
      </trkpt>
      <trkpt lat="44.15258" lon="5.65789">
        <ele>1130.1</ele>
      </trkpt>
      <trkpt lat="44.15277" lon="5.65796">
        <ele>1119.8</ele>
      </trkpt>
      <trkpt lat="44.15284" lon="5.65794">
        <ele>1116.8</ele>
      </trkpt>
      <trkpt lat="44.15301" lon="5.65782">
        <ele>1110.5</ele>
      </trkpt>
      <trkpt lat="44.15308" lon="5.65782">
        <ele>1107.1</ele>
      </trkpt>
      <trkpt lat="44.15318" lon="5.65791">
        <ele>1101</ele>
      </trkpt>
      <trkpt lat="44.15327" lon="5.65817">
        <ele>1093.1</ele>
      </trkpt>
      <trkpt lat="44.15333" lon="5.65822">
        <ele>1089.7</ele>
      </trkpt>
      <trkpt lat="44.15338" lon="5.65823">
        <ele>1086.8</ele>
      </trkpt>
      <trkpt lat="44.15347" lon="5.6582">
        <ele>1082.3</ele>
      </trkpt>
      <trkpt lat="44.15355" lon="5.6582">
        <ele>1077.9</ele>
      </trkpt>
      <trkpt lat="44.15359" lon="5.65826">
        <ele>1075</ele>
      </trkpt>
      <trkpt lat="44.15368" lon="5.65851">
        <ele>1065.5</ele>
      </trkpt>
      <trkpt lat="44.15376" lon="5.65861">
        <ele>1059.2</ele>
      </trkpt>
      <trkpt lat="44.15394" lon="5.65874">
        <ele>1047</ele>
      </trkpt>
      <trkpt lat="44.154" lon="5.65881">
        <ele>1042.5</ele>
      </trkpt>
      <trkpt lat="44.15402" lon="5.65891">
        <ele>1039.5</ele>
      </trkpt>
      <trkpt lat="44.15402" lon="5.65907">
        <ele>1036.3</ele>
      </trkpt>
      <trkpt lat="44.15404" lon="5.65913">
        <ele>1034.1</ele>
      </trkpt>
      <trkpt lat="44.15409" lon="5.65918">
        <ele>1030.6</ele>
      </trkpt>
      <trkpt lat="44.15415" lon="5.65918">
        <ele>1027.6</ele>
      </trkpt>
      <trkpt lat="44.15437" lon="5.65898">
        <ele>1021.7</ele>
      </trkpt>
      <trkpt lat="44.15443" lon="5.65889">
        <ele>1020.4</ele>
      </trkpt>
      <trkpt lat="44.15447" lon="5.6587">
        <ele>1021.3</ele>
      </trkpt>
      <trkpt lat="44.15454" lon="5.65859">
        <ele>1019.4</ele>
      </trkpt>
      <trkpt lat="44.15467" lon="5.65848">
        <ele>1014.2</ele>
      </trkpt>
      <trkpt lat="44.1548" lon="5.65831">
        <ele>1009.1</ele>
      </trkpt>
      <trkpt lat="44.15516" lon="5.65808">
        <ele>992.7</ele>
      </trkpt>
      <trkpt lat="44.15538" lon="5.65777">
        <ele>985.3</ele>
      </trkpt>
      <trkpt lat="44.15551" lon="5.65762">
        <ele>980.7</ele>
      </trkpt>
      <trkpt lat="44.15566" lon="5.65749">
        <ele>975</ele>
      </trkpt>
      <trkpt lat="44.15589" lon="5.65736">
        <ele>967</ele>
      </trkpt>
      <trkpt lat="44.15597" lon="5.65733">
        <ele>964.1</ele>
      </trkpt>
      <trkpt lat="44.15622" lon="5.65729">
        <ele>953.5</ele>
      </trkpt>
      <trkpt lat="44.15643" lon="5.65724">
        <ele>944.8</ele>
      </trkpt>
      <trkpt lat="44.15665" lon="5.65713">
        <ele>936.1</ele>
      </trkpt>
      <trkpt lat="44.15696" lon="5.65693">
        <ele>929.4</ele>
      </trkpt>
      <trkpt lat="44.15751" lon="5.65667">
        <ele>913.8</ele>
      </trkpt>
      <trkpt lat="44.15768" lon="5.65668">
        <ele>910.3</ele>
      </trkpt>
      <trkpt lat="44.15774" lon="5.65666">
        <ele>909</ele>
      </trkpt>
      <trkpt lat="44.1578" lon="5.6566">
        <ele>906.9</ele>
      </trkpt>
      <trkpt lat="44.1579" lon="5.65643">
        <ele>902.3</ele>
      </trkpt>
      <trkpt lat="44.15796" lon="5.65636">
        <ele>900</ele>
      </trkpt>
      <trkpt lat="44.15847" lon="5.65603">
        <ele>884.9</ele>
      </trkpt>
      <trkpt lat="44.15896" lon="5.65559">
        <ele>872.2</ele>
      </trkpt>
      <trkpt lat="44.1591" lon="5.65555">
        <ele>869.4</ele>
      </trkpt>
      <trkpt lat="44.15929" lon="5.65553">
        <ele>866.6</ele>
      </trkpt>
      <trkpt lat="44.15976" lon="5.65541">
        <ele>859.3</ele>
      </trkpt>
      <trkpt lat="44.15991" lon="5.65534">
        <ele>856.2</ele>
      </trkpt>
      <trkpt lat="44.16012" lon="5.65517">
        <ele>850.5</ele>
      </trkpt>
      <trkpt lat="44.1603" lon="5.65507">
        <ele>846.5</ele>
      </trkpt>
      <trkpt lat="44.16046" lon="5.65483">
        <ele>842.1</ele>
      </trkpt>
      <trkpt lat="44.16059" lon="5.65471">
        <ele>839.6</ele>
      </trkpt>
      <trkpt lat="44.16092" lon="5.65453">
        <ele>834.1</ele>
      </trkpt>
      <trkpt lat="44.16099" lon="5.65467">
        <ele>834.6</ele>
        <extensions>
          <visugpx:TrkExtension xmlns:visugpx="https://www.visugpx.com/editgpx/">
            <visugpx:node>2</visugpx:node>
            </visugpx:TrkExtension>
        </extensions>
      </trkpt>
      <trkpt lat="44.16104" lon="5.65476">
        <ele>834.9</ele>
      </trkpt>
      <trkpt lat="44.16104" lon="5.65544">
        <ele>842.2</ele>
      </trkpt>
      <trkpt lat="44.16135" lon="5.65686">
        <ele>842.6</ele>
      </trkpt>
      <trkpt lat="44.16135" lon="5.65688">
        <ele>842.5</ele>
      </trkpt>
      <trkpt lat="44.1612" lon="5.65764">
        <ele>839</ele>
      </trkpt>
      <trkpt lat="44.1611" lon="5.65815">
        <ele>838.3</ele>
      </trkpt>
      <trkpt lat="44.16106" lon="5.65872">
        <ele>839.6</ele>
      </trkpt>
      <trkpt lat="44.16044" lon="5.65958">
        <ele>854.5</ele>
      </trkpt>
      <trkpt lat="44.16037" lon="5.65976">
        <ele>857.8</ele>
      </trkpt>
      <trkpt lat="44.16057" lon="5.66173">
        <ele>861.5</ele>
      </trkpt>
      <trkpt lat="44.16048" lon="5.66225">
        <ele>866</ele>
      </trkpt>
      <trkpt lat="44.16071" lon="5.66313">
        <ele>860.4</ele>
      </trkpt>
      <trkpt lat="44.16068" lon="5.66345">
        <ele>859.8</ele>
      </trkpt>
      <trkpt lat="44.16049" lon="5.66427">
        <ele>858.1</ele>
      </trkpt>
      <trkpt lat="44.16066" lon="5.66475">
        <ele>862.3</ele>
      </trkpt>
      <trkpt lat="44.16059" lon="5.66632">
        <ele>870.1</ele>
      </trkpt>
      <trkpt lat="44.1606" lon="5.66641">
        <ele>869.1</ele>
      </trkpt>
      <trkpt lat="44.16059" lon="5.6666">
        <ele>867.3</ele>
      </trkpt>
      <trkpt lat="44.16057" lon="5.66671">
        <ele>866.7</ele>
      </trkpt>
      <trkpt lat="44.1605" lon="5.66692">
        <ele>866.8</ele>
      </trkpt>
      <trkpt lat="44.16037" lon="5.66735">
        <ele>867</ele>
      </trkpt>
      <trkpt lat="44.16048" lon="5.66777">
        <ele>870.9</ele>
      </trkpt>
      <trkpt lat="44.16107" lon="5.66905">
        <ele>888</ele>
      </trkpt>
      <trkpt lat="44.16121" lon="5.66956">
        <ele>894.3</ele>
      </trkpt>
      <trkpt lat="44.16146" lon="5.67005">
        <ele>895.5</ele>
      </trkpt>
      <trkpt lat="44.16154" lon="5.67046">
        <ele>889.8</ele>
      </trkpt>
      <trkpt lat="44.16157" lon="5.67099">
        <ele>886</ele>
      </trkpt>
      <trkpt lat="44.16165" lon="5.67142">
        <ele>886.3</ele>
      </trkpt>
      <trkpt lat="44.16159" lon="5.67245">
        <ele>896.6</ele>
      </trkpt>
      <trkpt lat="44.16167" lon="5.67296">
        <ele>893.7</ele>
      </trkpt>
      <trkpt lat="44.16151" lon="5.67395">
        <ele>892</ele>
      </trkpt>
      <trkpt lat="44.16147" lon="5.67506">
        <ele>902.8</ele>
      </trkpt>
      <trkpt lat="44.1609" lon="5.67712">
        <ele>911</ele>
      </trkpt>
      <trkpt lat="44.16085" lon="5.67856">
        <ele>920.3</ele>
      </trkpt>
      <trkpt lat="44.1606" lon="5.67946">
        <ele>928.3</ele>
      </trkpt>
      <trkpt lat="44.15999" lon="5.68053">
        <ele>947.3</ele>
      </trkpt>
      <trkpt lat="44.15936" lon="5.68217">
        <ele>958.1</ele>
      </trkpt>
      <trkpt lat="44.1583" lon="5.68547">
        <ele>963.9</ele>
      </trkpt>
      <trkpt lat="44.15804" lon="5.68639">
        <ele>953.1</ele>
      </trkpt>
      <trkpt lat="44.15741" lon="5.68869">
        <ele>943.6</ele>
      </trkpt>
      <trkpt lat="44.15744" lon="5.68901">
        <ele>944</ele>
      </trkpt>
      <trkpt lat="44.15761" lon="5.68973">
        <ele>941.1</ele>
      </trkpt>
      <trkpt lat="44.15749" lon="5.69022">
        <ele>932.2</ele>
      </trkpt>
      <trkpt lat="44.15733" lon="5.69095">
        <ele>928.6</ele>
      </trkpt>
      <trkpt lat="44.15692" lon="5.69175">
        <ele>917</ele>
      </trkpt>
      <trkpt lat="44.15641" lon="5.69355">
        <ele>908.7</ele>
      </trkpt>
      <trkpt lat="44.15638" lon="5.69443">
        <ele>911.5</ele>
      </trkpt>
      <trkpt lat="44.15686" lon="5.69594">
        <ele>931.3</ele>
      </trkpt>
      <trkpt lat="44.15743" lon="5.69684">
        <ele>937.7</ele>
      </trkpt>
      <trkpt lat="44.15797" lon="5.69749">
        <ele>929</ele>
      </trkpt>
      <trkpt lat="44.15906" lon="5.69847">
        <ele>869.6</ele>
      </trkpt>
      <trkpt lat="44.15943" lon="5.69855">
        <ele>864.1</ele>
      </trkpt>
      <trkpt lat="44.1603" lon="5.69875">
        <ele>856.4</ele>
      </trkpt>
      <trkpt lat="44.16066" lon="5.69888">
        <ele>849.9</ele>
      </trkpt>
      <trkpt lat="44.16145" lon="5.69872">
        <ele>850.9</ele>
      </trkpt>
      <trkpt lat="44.16234" lon="5.69928">
        <ele>821</ele>
      </trkpt>
      <trkpt lat="44.16303" lon="5.69979">
        <ele>798.9</ele>
      </trkpt>
      <trkpt lat="44.1633" lon="5.69991">
        <ele>793.8</ele>
      </trkpt>
      <trkpt lat="44.16473" lon="5.69975">
        <ele>783.9</ele>
      </trkpt>
      <trkpt lat="44.16508" lon="5.69965">
        <ele>779.8</ele>
      </trkpt>
      <trkpt lat="44.16544" lon="5.69908">
        <ele>779</ele>
      </trkpt>
      <trkpt lat="44.16558" lon="5.69909">
        <ele>775.1</ele>
      </trkpt>
      <trkpt lat="44.16587" lon="5.69964">
        <ele>763.6</ele>
      </trkpt>
      <trkpt lat="44.16614" lon="5.69968">
        <ele>759.1</ele>
      </trkpt>
      <trkpt lat="44.16638" lon="5.69957">
        <ele>756.4</ele>
      </trkpt>
      <trkpt lat="44.16706" lon="5.69919">
        <ele>750.6</ele>
      </trkpt>
      <trkpt lat="44.16736" lon="5.69917">
        <ele>746.2</ele>
      </trkpt>
      <trkpt lat="44.1678" lon="5.69926">
        <ele>739</ele>
      </trkpt>
      <trkpt lat="44.16788" lon="5.69926">
        <ele>737.9</ele>
      </trkpt>
      <trkpt lat="44.16801" lon="5.69946">
        <ele>734.5</ele>
      </trkpt>
      <trkpt lat="44.16815" lon="5.6996">
        <ele>731.5</ele>
      </trkpt>
      <trkpt lat="44.16821" lon="5.69975">
        <ele>729.6</ele>
      </trkpt>
      <trkpt lat="44.16818" lon="5.70002">
        <ele>728</ele>
      </trkpt>
      <trkpt lat="44.16808" lon="5.7002">
        <ele>727.9</ele>
      </trkpt>
      <trkpt lat="44.16804" lon="5.70027">
        <ele>727.8</ele>
      </trkpt>
      <trkpt lat="44.16793" lon="5.70048">
        <ele>727.2</ele>
      </trkpt>
      <trkpt lat="44.16786" lon="5.70058">
        <ele>727.1</ele>
      </trkpt>
      <trkpt lat="44.16771" lon="5.70082">
        <ele>726.1</ele>
      </trkpt>
      <trkpt lat="44.16763" lon="5.70094">
        <ele>726</ele>
      </trkpt>
      <trkpt lat="44.16718" lon="5.70137">
        <ele>729</ele>
      </trkpt>
      <trkpt lat="44.16659" lon="5.70168">
        <ele>737.7</ele>
      </trkpt>
      <trkpt lat="44.16611" lon="5.7026">
        <ele>738.4</ele>
      </trkpt>
      <trkpt lat="44.16582" lon="5.70292">
        <ele>737.9</ele>
      </trkpt>
      <trkpt lat="44.16488" lon="5.70309">
        <ele>732</ele>
      </trkpt>
      <trkpt lat="44.16468" lon="5.70322">
        <ele>730.5</ele>
      </trkpt>
      <trkpt lat="44.16454" lon="5.70329">
        <ele>729.8</ele>
      </trkpt>
      <trkpt lat="44.16351" lon="5.70359">
        <ele>727.5</ele>
      </trkpt>
      <trkpt lat="44.16325" lon="5.70368">
        <ele>726.7</ele>
      </trkpt>
      <trkpt lat="44.16269" lon="5.70364">
        <ele>726.9</ele>
      </trkpt>
      <trkpt lat="44.16191" lon="5.70387">
        <ele>729.8</ele>
      </trkpt>
      <trkpt lat="44.16088" lon="5.70441">
        <ele>734.6</ele>
      </trkpt>
      <trkpt lat="44.15997" lon="5.70486">
        <ele>736</ele>
      </trkpt>
      <trkpt lat="44.15949" lon="5.70484">
        <ele>738</ele>
      </trkpt>
      <trkpt lat="44.1588" lon="5.70465">
        <ele>741.9</ele>
      </trkpt>
      <trkpt lat="44.15858" lon="5.70455">
        <ele>743.7</ele>
      </trkpt>
      <trkpt lat="44.15773" lon="5.70432">
        <ele>746</ele>
      </trkpt>
      <trkpt lat="44.15703" lon="5.70434">
        <ele>746.7</ele>
      </trkpt>
      <trkpt lat="44.15661" lon="5.70412">
        <ele>748.1</ele>
      </trkpt>
      <trkpt lat="44.15651" lon="5.70396">
        <ele>750.5</ele>
      </trkpt>
      <trkpt lat="44.15572" lon="5.7036">
        <ele>754.9</ele>
      </trkpt>
      <trkpt lat="44.1555" lon="5.70338">
        <ele>756.4</ele>
      </trkpt>
      <trkpt lat="44.15514" lon="5.70327">
        <ele>759.3</ele>
      </trkpt>
      <trkpt lat="44.15494" lon="5.70294">
        <ele>764.3</ele>
      </trkpt>
      <trkpt lat="44.15462" lon="5.70299">
        <ele>776.8</ele>
      </trkpt>
      <trkpt lat="44.15455" lon="5.70314">
        <ele>777.8</ele>
      </trkpt>
      <trkpt lat="44.15434" lon="5.70352">
        <ele>781.4</ele>
      </trkpt>
      <trkpt lat="44.15432" lon="5.70369">
        <ele>780.6</ele>
      </trkpt>
      <trkpt lat="44.15445" lon="5.70397">
        <ele>774.9</ele>
      </trkpt>
      <trkpt lat="44.15449" lon="5.704">
        <ele>773.7</ele>
      </trkpt>
      <trkpt lat="44.15445" lon="5.70397">
        <ele>774.9</ele>
      </trkpt>
      <trkpt lat="44.15408" lon="5.70399">
        <ele>787.1</ele>
      </trkpt>
      <trkpt lat="44.15396" lon="5.70412">
        <ele>793.5</ele>
      </trkpt>
      <trkpt lat="44.15366" lon="5.70464">
        <ele>811.7</ele>
      </trkpt>
      <trkpt lat="44.15355" lon="5.70466">
        <ele>818.6</ele>
      </trkpt>
      <trkpt lat="44.15335" lon="5.70482">
        <ele>831.2</ele>
      </trkpt>
      <trkpt lat="44.1533" lon="5.70508">
        <ele>833</ele>
      </trkpt>
      <trkpt lat="44.15326" lon="5.70592">
        <ele>817.8</ele>
      </trkpt>
      <trkpt lat="44.15292" lon="5.70604">
        <ele>839.2</ele>
      </trkpt>
      <trkpt lat="44.15251" lon="5.70628">
        <ele>855.6</ele>
      </trkpt>
      <trkpt lat="44.15242" lon="5.7068">
        <ele>839.1</ele>
      </trkpt>
      <trkpt lat="44.15207" lon="5.70732">
        <ele>837.1</ele>
      </trkpt>
      <trkpt lat="44.15191" lon="5.70724">
        <ele>842.2</ele>
      </trkpt>
      <trkpt lat="44.15161" lon="5.70747">
        <ele>844.3</ele>
      </trkpt>
      <trkpt lat="44.1515" lon="5.70747">
        <ele>850.9</ele>
      </trkpt>
      <trkpt lat="44.15132" lon="5.70738">
        <ele>863.7</ele>
      </trkpt>
      <trkpt lat="44.151" lon="5.70744">
        <ele>881.7</ele>
      </trkpt>
      <trkpt lat="44.15096" lon="5.70763">
        <ele>881.4</ele>
      </trkpt>
      <trkpt lat="44.15107" lon="5.70811">
        <ele>869.5</ele>
      </trkpt>
      <trkpt lat="44.15104" lon="5.70837">
        <ele>867.6</ele>
      </trkpt>
      <trkpt lat="44.15083" lon="5.70875">
        <ele>867.1</ele>
      </trkpt>
      <trkpt lat="44.1505" lon="5.70905">
        <ele>864.3</ele>
      </trkpt>
      <trkpt lat="44.14937" lon="5.70932">
        <ele>881.5</ele>
      </trkpt>
      <trkpt lat="44.14901" lon="5.7094">
        <ele>891.8</ele>
      </trkpt>
      <trkpt lat="44.14883" lon="5.7099">
        <ele>889.9</ele>
      </trkpt>
      <trkpt lat="44.14865" lon="5.71002">
        <ele>893.5</ele>
      </trkpt>
      <trkpt lat="44.14842" lon="5.71049">
        <ele>893.4</ele>
      </trkpt>
      <trkpt lat="44.14839" lon="5.71087">
        <ele>888.7</ele>
      </trkpt>
      <trkpt lat="44.14807" lon="5.71124">
        <ele>899.2</ele>
      </trkpt>
      <trkpt lat="44.14788" lon="5.71158">
        <ele>906.6</ele>
      </trkpt>
      <trkpt lat="44.14782" lon="5.71186">
        <ele>911.6</ele>
      </trkpt>
      <trkpt lat="44.14789" lon="5.71233">
        <ele>916.2</ele>
      </trkpt>
      <trkpt lat="44.1478" lon="5.71262">
        <ele>922</ele>
      </trkpt>
      <trkpt lat="44.14751" lon="5.71331">
        <ele>932.7</ele>
      </trkpt>
      <trkpt lat="44.14728" lon="5.71362">
        <ele>942.4</ele>
      </trkpt>
      <trkpt lat="44.14734" lon="5.71442">
        <ele>944.2</ele>
      </trkpt>
      <trkpt lat="44.14732" lon="5.71476">
        <ele>948.4</ele>
      </trkpt>
      <trkpt lat="44.14755" lon="5.71488">
        <ele>940.5</ele>
      </trkpt>
      <trkpt lat="44.14759" lon="5.71423">
        <ele>933.4</ele>
      </trkpt>
      <trkpt lat="44.14773" lon="5.71376">
        <ele>927.6</ele>
      </trkpt>
      <trkpt lat="44.14782" lon="5.71375">
        <ele>925</ele>
      </trkpt>
      <trkpt lat="44.14788" lon="5.71429">
        <ele>926.9</ele>
      </trkpt>
      <trkpt lat="44.14779" lon="5.71493">
        <ele>934.7</ele>
      </trkpt>
      <trkpt lat="44.14774" lon="5.71626">
        <ele>949.7</ele>
      </trkpt>
      <trkpt lat="44.1479" lon="5.7171">
        <ele>950.7</ele>
      </trkpt>
      <trkpt lat="44.14835" lon="5.71764">
        <ele>940.8</ele>
      </trkpt>
      <trkpt lat="44.14896" lon="5.71913">
        <ele>954.8</ele>
      </trkpt>
      <trkpt lat="44.14927" lon="5.71935">
        <ele>959.2</ele>
      </trkpt>
      <trkpt lat="44.14949" lon="5.71997">
        <ele>967.2</ele>
      </trkpt>
      <trkpt lat="44.14951" lon="5.72012">
        <ele>968.9</ele>
      </trkpt>
      <trkpt lat="44.14936" lon="5.72036">
        <ele>973.1</ele>
      </trkpt>
      <trkpt lat="44.14926" lon="5.72051">
        <ele>976.1</ele>
      </trkpt>
      <trkpt lat="44.14873" lon="5.7218">
        <ele>991.4</ele>
      </trkpt>
      <trkpt lat="44.14862" lon="5.72216">
        <ele>990.1</ele>
      </trkpt>
      <trkpt lat="44.1483" lon="5.72287">
        <ele>991.3</ele>
      </trkpt>
      <trkpt lat="44.14835" lon="5.72313">
        <ele>991.4</ele>
      </trkpt>
      <trkpt lat="44.14769" lon="5.72416">
        <ele>1006.7</ele>
      </trkpt>
      <trkpt lat="44.14752" lon="5.72419">
        <ele>1008.8</ele>
      </trkpt>
      <trkpt lat="44.14732" lon="5.72384">
        <ele>1008.3</ele>
      </trkpt>
      <trkpt lat="44.14717" lon="5.72384">
        <ele>1010.6</ele>
      </trkpt>
      <trkpt lat="44.14704" lon="5.72399">
        <ele>1014.8</ele>
      </trkpt>
      <trkpt lat="44.14649" lon="5.72482">
        <ele>1028.9</ele>
      </trkpt>
      <trkpt lat="44.14522" lon="5.72646">
        <ele>1034.9</ele>
      </trkpt>
      <trkpt lat="44.14465" lon="5.72673">
        <ele>1034.1</ele>
      </trkpt>
      <trkpt lat="44.14459" lon="5.7269">
        <ele>1032</ele>
      </trkpt>
      <trkpt lat="44.14475" lon="5.72773">
        <ele>1018.2</ele>
      </trkpt>
      <trkpt lat="44.14472" lon="5.7291">
        <ele>1002.9</ele>
      </trkpt>
      <trkpt lat="44.14481" lon="5.72977">
        <ele>1013.6</ele>
      </trkpt>
      <trkpt lat="44.14504" lon="5.7304">
        <ele>986.5</ele>
      </trkpt>
      <trkpt lat="44.14519" lon="5.73097">
        <ele>981.8</ele>
      </trkpt>
      <trkpt lat="44.14509" lon="5.73126">
        <ele>974.1</ele>
      </trkpt>
      <trkpt lat="44.14494" lon="5.73115">
        <ele>972.8</ele>
      </trkpt>
      <trkpt lat="44.14422" lon="5.73048">
        <ele>977.1</ele>
      </trkpt>
      <trkpt lat="44.14409" lon="5.73013">
        <ele>981.9</ele>
      </trkpt>
      <trkpt lat="44.14404" lon="5.7295">
        <ele>996.5</ele>
      </trkpt>
      <trkpt lat="44.14388" lon="5.72946">
        <ele>998.7</ele>
      </trkpt>
      <trkpt lat="44.14373" lon="5.72968">
        <ele>994.2</ele>
      </trkpt>
      <trkpt lat="44.14331" lon="5.73012">
        <ele>988.2</ele>
      </trkpt>
      <trkpt lat="44.14309" lon="5.73054">
        <ele>987.8</ele>
      </trkpt>
      <trkpt lat="44.14307" lon="5.73121">
        <ele>979.3</ele>
      </trkpt>
      <trkpt lat="44.14292" lon="5.73152">
        <ele>977.9</ele>
      </trkpt>
      <trkpt lat="44.14232" lon="5.73186">
        <ele>990.2</ele>
      </trkpt>
      <trkpt lat="44.1422" lon="5.73198">
        <ele>994.8</ele>
      </trkpt>
      <trkpt lat="44.14233" lon="5.73253">
        <ele>994.9</ele>
      </trkpt>
      <trkpt lat="44.14295" lon="5.73307">
        <ele>990.7</ele>
      </trkpt>
      <trkpt lat="44.14315" lon="5.73364">
        <ele>994.8</ele>
      </trkpt>
      <trkpt lat="44.14309" lon="5.73391">
        <ele>998.2</ele>
      </trkpt>
      <trkpt lat="44.14262" lon="5.73483">
        <ele>991.1</ele>
      </trkpt>
      <trkpt lat="44.14244" lon="5.73519">
        <ele>988</ele>
      </trkpt>
      <trkpt lat="44.14229" lon="5.73602">
        <ele>985.8</ele>
      </trkpt>
      <trkpt lat="44.14228" lon="5.73647">
        <ele>987.4</ele>
      </trkpt>
      <trkpt lat="44.14224" lon="5.73671">
        <ele>989.2</ele>
      </trkpt>
      <trkpt lat="44.14232" lon="5.7375">
        <ele>991.9</ele>
      </trkpt>
      <trkpt lat="44.14243" lon="5.73807">
        <ele>989.9</ele>
      </trkpt>
      <trkpt lat="44.14226" lon="5.73893">
        <ele>989.1</ele>
      </trkpt>
      <trkpt lat="44.14219" lon="5.73899">
        <ele>989.3</ele>
      </trkpt>
      <trkpt lat="44.14245" lon="5.73916">
        <ele>986.4</ele>
      </trkpt>
      <trkpt lat="44.14257" lon="5.73916">
        <ele>985.4</ele>
      </trkpt>
      <trkpt lat="44.14297" lon="5.73921">
        <ele>982.2</ele>
      </trkpt>
      <trkpt lat="44.14325" lon="5.7394">
        <ele>980.5</ele>
      </trkpt>
      <trkpt lat="44.14357" lon="5.7398">
        <ele>979.7</ele>
      </trkpt>
      <trkpt lat="44.14369" lon="5.74001">
        <ele>979.5</ele>
      </trkpt>
      <trkpt lat="44.14398" lon="5.74034">
        <ele>979.5</ele>
      </trkpt>
      <trkpt lat="44.14396" lon="5.74048">
        <ele>980.5</ele>
      </trkpt>
      <trkpt lat="44.14361" lon="5.74102">
        <ele>985.2</ele>
      </trkpt>
      <trkpt lat="44.14356" lon="5.74152">
        <ele>988.5</ele>
      </trkpt>
      <trkpt lat="44.14349" lon="5.74182">
        <ele>991.4</ele>
      </trkpt>
      <trkpt lat="44.14347" lon="5.74215">
        <ele>995.2</ele>
      </trkpt>
      <trkpt lat="44.14355" lon="5.7423">
        <ele>996.5</ele>
      </trkpt>
      <trkpt lat="44.14367" lon="5.74286">
        <ele>1001.9</ele>
      </trkpt>
      <trkpt lat="44.14369" lon="5.743">
        <ele>1003.3</ele>
      </trkpt>
      <trkpt lat="44.14373" lon="5.74326">
        <ele>1005.5</ele>
      </trkpt>
      <trkpt lat="44.1436" lon="5.74352">
        <ele>1009.7</ele>
      </trkpt>
      <trkpt lat="44.14361" lon="5.74448">
        <ele>1016.7</ele>
      </trkpt>
      <trkpt lat="44.14363" lon="5.74506">
        <ele>1020</ele>
      </trkpt>
      <trkpt lat="44.14375" lon="5.74608">
        <ele>1021.4</ele>
      </trkpt>
      <trkpt lat="44.14369" lon="5.74736">
        <ele>1026.4</ele>
      </trkpt>
      <trkpt lat="44.14401" lon="5.74836">
        <ele>1026.7</ele>
      </trkpt>
      <trkpt lat="44.14429" lon="5.74891">
        <ele>1025.5</ele>
      </trkpt>
      <trkpt lat="44.14441" lon="5.74943">
        <ele>1026.6</ele>
      </trkpt>
      <trkpt lat="44.14441" lon="5.75">
        <ele>1028</ele>
      </trkpt>
      <trkpt lat="44.14437" lon="5.75038">
        <ele>1030.2</ele>
      </trkpt>
      <trkpt lat="44.14447" lon="5.75076">
        <ele>1031</ele>
      </trkpt>
      <trkpt lat="44.14458" lon="5.75086">
        <ele>1030.2</ele>
      </trkpt>
      <trkpt lat="44.14488" lon="5.75196">
        <ele>1033.2</ele>
      </trkpt>
      <trkpt lat="44.14491" lon="5.75236">
        <ele>1033.9</ele>
      </trkpt>
      <trkpt lat="44.14483" lon="5.75337">
        <ele>1034.7</ele>
      </trkpt>
      <trkpt lat="44.14476" lon="5.75347">
        <ele>1035.9</ele>
      </trkpt>
      <trkpt lat="44.14436" lon="5.7537">
        <ele>1039.8</ele>
      </trkpt>
      <trkpt lat="44.14414" lon="5.75389">
        <ele>1041.7</ele>
      </trkpt>
      <trkpt lat="44.1433" lon="5.7539">
        <ele>1052</ele>
      </trkpt>
      <trkpt lat="44.14287" lon="5.75394">
        <ele>1056.3</ele>
      </trkpt>
      <trkpt lat="44.14226" lon="5.7545">
        <ele>1064.9</ele>
      </trkpt>
      <trkpt lat="44.1421" lon="5.75468">
        <ele>1068.2</ele>
      </trkpt>
      <trkpt lat="44.14206" lon="5.75479">
        <ele>1069.3</ele>
      </trkpt>
      <trkpt lat="44.142" lon="5.75522">
        <ele>1069.4</ele>
      </trkpt>
      <trkpt lat="44.14199" lon="5.75525">
        <ele>1069.3</ele>
      </trkpt>
      <trkpt lat="44.14182" lon="5.75579">
        <ele>1068</ele>
      </trkpt>
      <trkpt lat="44.14151" lon="5.75672">
        <ele>1066.9</ele>
      </trkpt>
      <trkpt lat="44.14102" lon="5.75778">
        <ele>1069.3</ele>
      </trkpt>
      <trkpt lat="44.14096" lon="5.75816">
        <ele>1064.5</ele>
      </trkpt>
      <trkpt lat="44.14017" lon="5.75987">
        <ele>1053.7</ele>
      </trkpt>
      <trkpt lat="44.13996" lon="5.76022">
        <ele>1050.4</ele>
      </trkpt>
      <trkpt lat="44.13965" lon="5.7607">
        <ele>1047.9</ele>
      </trkpt>
      <trkpt lat="44.13947" lon="5.7611">
        <ele>1047.6</ele>
      </trkpt>
      <trkpt lat="44.13908" lon="5.76211">
        <ele>1056.3</ele>
      </trkpt>
      <trkpt lat="44.13909" lon="5.7627">
        <ele>1053.8</ele>
      </trkpt>
      <trkpt lat="44.13894" lon="5.76415">
        <ele>1039.9</ele>
      </trkpt>
      <trkpt lat="44.13883" lon="5.76449">
        <ele>1038.1</ele>
      </trkpt>
      <trkpt lat="44.13851" lon="5.76542">
        <ele>1039.9</ele>
      </trkpt>
      <trkpt lat="44.1383" lon="5.76586">
        <ele>1047.2</ele>
      </trkpt>
      <trkpt lat="44.13833" lon="5.76607">
        <ele>1047</ele>
      </trkpt>
      <trkpt lat="44.13846" lon="5.76693">
        <ele>1040.1</ele>
      </trkpt>
      <trkpt lat="44.13849" lon="5.76744">
        <ele>1032.5</ele>
      </trkpt>
      <trkpt lat="44.13849" lon="5.76803">
        <ele>1018.8</ele>
      </trkpt>
      <trkpt lat="44.13856" lon="5.76831">
        <ele>1013.4</ele>
      </trkpt>
      <trkpt lat="44.13882" lon="5.76837">
        <ele>1017.9</ele>
      </trkpt>
      <trkpt lat="44.13892" lon="5.76831">
        <ele>1020.9</ele>
      </trkpt>
      <trkpt lat="44.13917" lon="5.76782">
        <ele>1028.5</ele>
      </trkpt>
      <trkpt lat="44.13924" lon="5.76772">
        <ele>1028.6</ele>
      </trkpt>
      <trkpt lat="44.1399" lon="5.76729">
        <ele>1020</ele>
      </trkpt>
      <trkpt lat="44.1405" lon="5.76703">
        <ele>1016.1</ele>
      </trkpt>
      <trkpt lat="44.14122" lon="5.76678">
        <ele>1008.4</ele>
      </trkpt>
      <trkpt lat="44.14137" lon="5.76668">
        <ele>1005.4</ele>
      </trkpt>
      <trkpt lat="44.14156" lon="5.76661">
        <ele>1004.3</ele>
      </trkpt>
      <trkpt lat="44.14158" lon="5.76666">
        <ele>1004.3</ele>
      </trkpt>
      <trkpt lat="44.14135" lon="5.76703">
        <ele>1013.8</ele>
      </trkpt>
      <trkpt lat="44.14122" lon="5.76759">
        <ele>1028.3</ele>
      </trkpt>
      <trkpt lat="44.14124" lon="5.76761">
        <ele>1028.5</ele>
      </trkpt>
      <trkpt lat="44.14143" lon="5.76739">
        <ele>1021.7</ele>
      </trkpt>
      <trkpt lat="44.14148" lon="5.76734">
        <ele>1020.1</ele>
      </trkpt>
      <trkpt lat="44.14155" lon="5.76736">
        <ele>1020</ele>
      </trkpt>
      <trkpt lat="44.14156" lon="5.7674">
        <ele>1020.8</ele>
      </trkpt>
      <trkpt lat="44.14149" lon="5.76764">
        <ele>1026.9</ele>
      </trkpt>
      <trkpt lat="44.14154" lon="5.76774">
        <ele>1028.8</ele>
      </trkpt>
      <trkpt lat="44.14177" lon="5.76804">
        <ele>1026.2</ele>
      </trkpt>
      <trkpt lat="44.14179" lon="5.7681">
        <ele>1025.7</ele>
      </trkpt>
      <trkpt lat="44.14175" lon="5.76853">
        <ele>1035.5</ele>
      </trkpt>
      <trkpt lat="44.14164" lon="5.76889">
        <ele>1046.3</ele>
      </trkpt>
      <trkpt lat="44.14162" lon="5.76909">
        <ele>1048</ele>
      </trkpt>
      <trkpt lat="44.14166" lon="5.76913">
        <ele>1047.8</ele>
      </trkpt>
      <trkpt lat="44.14168" lon="5.76911">
        <ele>1046.3</ele>
      </trkpt>
      <trkpt lat="44.14191" lon="5.7687">
        <ele>1021.4</ele>
      </trkpt>
      <trkpt lat="44.14197" lon="5.76862">
        <ele>1015.2</ele>
      </trkpt>
      <trkpt lat="44.14205" lon="5.76886">
        <ele>1009.2</ele>
      </trkpt>
      <trkpt lat="44.14203" lon="5.76909">
        <ele>1012.6</ele>
      </trkpt>
      <trkpt lat="44.14207" lon="5.76918">
        <ele>1009.2</ele>
      </trkpt>
      <trkpt lat="44.14212" lon="5.76914">
        <ele>1004.3</ele>
      </trkpt>
      <trkpt lat="44.14219" lon="5.76895">
        <ele>996.4</ele>
      </trkpt>
      <trkpt lat="44.14221" lon="5.76894">
        <ele>994.4</ele>
      </trkpt>
      <trkpt lat="44.14233" lon="5.7692">
        <ele>984.2</ele>
      </trkpt>
      <trkpt lat="44.14234" lon="5.76922">
        <ele>983.2</ele>
      </trkpt>
      <trkpt lat="44.14242" lon="5.76913">
        <ele>975.5</ele>
      </trkpt>
      <trkpt lat="44.14251" lon="5.76854">
        <ele>963.3</ele>
      </trkpt>
      <trkpt lat="44.14265" lon="5.76811">
        <ele>951.1</ele>
      </trkpt>
      <trkpt lat="44.14273" lon="5.76801">
        <ele>945.4</ele>
      </trkpt>
      <trkpt lat="44.14275" lon="5.76803">
        <ele>943.5</ele>
      </trkpt>
      <trkpt lat="44.14275" lon="5.7683">
        <ele>940</ele>
      </trkpt>
      <trkpt lat="44.14295" lon="5.76868">
        <ele>919.4</ele>
      </trkpt>
      <trkpt lat="44.14346" lon="5.76906">
        <ele>870.6</ele>
      </trkpt>
      <trkpt lat="44.1435" lon="5.76911">
        <ele>868.2</ele>
      </trkpt>
      <trkpt lat="44.14357" lon="5.7691">
        <ele>865.6</ele>
      </trkpt>
      <trkpt lat="44.14362" lon="5.7691">
        <ele>863.7</ele>
      </trkpt>
      <trkpt lat="44.14388" lon="5.76917">
        <ele>851.6</ele>
      </trkpt>
      <trkpt lat="44.14392" lon="5.76913">
        <ele>851.1</ele>
      </trkpt>
      <trkpt lat="44.14409" lon="5.76896">
        <ele>849.7</ele>
      </trkpt>
      <trkpt lat="44.14435" lon="5.76883">
        <ele>850.5</ele>
      </trkpt>
      <trkpt lat="44.14478" lon="5.76846">
        <ele>861.9</ele>
      </trkpt>
      <trkpt lat="44.14511" lon="5.7684">
        <ele>863.1</ele>
      </trkpt>
      <trkpt lat="44.14521" lon="5.76845">
        <ele>860.9</ele>
      </trkpt>
      <trkpt lat="44.14554" lon="5.76846">
        <ele>859.5</ele>
      </trkpt>
      <trkpt lat="44.14578" lon="5.76832">
        <ele>862.9</ele>
      </trkpt>
      <trkpt lat="44.14661" lon="5.76815">
        <ele>866.7</ele>
      </trkpt>
      <trkpt lat="44.147" lon="5.7682">
        <ele>862.9</ele>
      </trkpt>
      <trkpt lat="44.14728" lon="5.76816">
        <ele>861.9</ele>
      </trkpt>
      <trkpt lat="44.14746" lon="5.76804">
        <ele>863.7</ele>
      </trkpt>
      <trkpt lat="44.148" lon="5.76744">
        <ele>868.2</ele>
      </trkpt>
      <trkpt lat="44.14802" lon="5.76744">
        <ele>867.8</ele>
      </trkpt>
      <trkpt lat="44.14842" lon="5.76732">
        <ele>863.1</ele>
      </trkpt>
      <trkpt lat="44.14873" lon="5.76736">
        <ele>856</ele>
      </trkpt>
      <trkpt lat="44.14901" lon="5.76732">
        <ele>851.8</ele>
      </trkpt>
      <trkpt lat="44.14925" lon="5.76752">
        <ele>841.4</ele>
      </trkpt>
      <trkpt lat="44.14977" lon="5.76755">
        <ele>834.4</ele>
      </trkpt>
      <trkpt lat="44.15019" lon="5.76738">
        <ele>833.6</ele>
      </trkpt>
      <trkpt lat="44.15036" lon="5.76734">
        <ele>832.7</ele>
      </trkpt>
      <trkpt lat="44.1507" lon="5.76716">
        <ele>834.1</ele>
      </trkpt>
      <trkpt lat="44.15084" lon="5.76705">
        <ele>835.8</ele>
      </trkpt>
      <trkpt lat="44.15111" lon="5.76662">
        <ele>840.5</ele>
      </trkpt>
      <trkpt lat="44.15114" lon="5.76648">
        <ele>843.2</ele>
      </trkpt>
      <trkpt lat="44.15118" lon="5.76625">
        <ele>847.6</ele>
      </trkpt>
      <trkpt lat="44.15131" lon="5.76614">
        <ele>845.8</ele>
      </trkpt>
      <trkpt lat="44.15189" lon="5.76582">
        <ele>832.1</ele>
      </trkpt>
      <trkpt lat="44.15194" lon="5.76578">
        <ele>831.6</ele>
      </trkpt>
      <trkpt lat="44.15233" lon="5.76537">
        <ele>831.1</ele>
      </trkpt>
      <trkpt lat="44.15262" lon="5.76529">
        <ele>825.4</ele>
      </trkpt>
      <trkpt lat="44.15308" lon="5.76524">
        <ele>815.7</ele>
      </trkpt>
      <trkpt lat="44.15338" lon="5.76497">
        <ele>814.8</ele>
      </trkpt>
      <trkpt lat="44.15419" lon="5.76484">
        <ele>800.8</ele>
      </trkpt>
      <trkpt lat="44.15441" lon="5.76487">
        <ele>795.8</ele>
      </trkpt>
      <trkpt lat="44.15445" lon="5.76489">
        <ele>794.6</ele>
      </trkpt>
      <trkpt lat="44.15458" lon="5.76496">
        <ele>790.5</ele>
      </trkpt>
      <trkpt lat="44.15475" lon="5.765">
        <ele>786.1</ele>
      </trkpt>
      <trkpt lat="44.15535" lon="5.76485">
        <ele>782.3</ele>
      </trkpt>
      <trkpt lat="44.15546" lon="5.76486">
        <ele>781.4</ele>
      </trkpt>
      <trkpt lat="44.15574" lon="5.76492">
        <ele>778.3</ele>
      </trkpt>
      <trkpt lat="44.15598" lon="5.76486">
        <ele>777.1</ele>
      </trkpt>
      <trkpt lat="44.15691" lon="5.76423">
        <ele>775.3</ele>
      </trkpt>
      <trkpt lat="44.15701" lon="5.7642">
        <ele>774.2</ele>
      </trkpt>
      <trkpt lat="44.15709" lon="5.764">
        <ele>774.7</ele>
      </trkpt>
      <trkpt lat="44.15709" lon="5.76392">
        <ele>775.3</ele>
      </trkpt>
      <trkpt lat="44.15702" lon="5.76361">
        <ele>779.2</ele>
      </trkpt>
      <trkpt lat="44.15702" lon="5.76345">
        <ele>780.5</ele>
      </trkpt>
      <trkpt lat="44.15698" lon="5.76284">
        <ele>784.3</ele>
      </trkpt>
      <trkpt lat="44.15688" lon="5.76266">
        <ele>788.7</ele>
      </trkpt>
      <trkpt lat="44.15687" lon="5.76259">
        <ele>789.4</ele>
      </trkpt>
      <trkpt lat="44.15695" lon="5.7624">
        <ele>785.7</ele>
      </trkpt>
      <trkpt lat="44.15694" lon="5.76232">
        <ele>785.3</ele>
      </trkpt>
      <trkpt lat="44.15652" lon="5.76111">
        <ele>788.7</ele>
      </trkpt>
      <trkpt lat="44.15653" lon="5.76072">
        <ele>786.4</ele>
      </trkpt>
      <trkpt lat="44.15672" lon="5.76001">
        <ele>786.1</ele>
      </trkpt>
      <trkpt lat="44.15675" lon="5.75971">
        <ele>792</ele>
      </trkpt>
      <trkpt lat="44.1569" lon="5.75951">
        <ele>791.3</ele>
      </trkpt>
      <trkpt lat="44.15707" lon="5.75948">
        <ele>785.7</ele>
      </trkpt>
      <trkpt lat="44.1572" lon="5.75935">
        <ele>783.7</ele>
      </trkpt>
      <trkpt lat="44.15753" lon="5.75863">
        <ele>785.5</ele>
      </trkpt>
      <trkpt lat="44.1577" lon="5.75809">
        <ele>785.4</ele>
      </trkpt>
      <trkpt lat="44.15772" lon="5.75795">
        <ele>785.8</ele>
      </trkpt>
      <trkpt lat="44.15809" lon="5.75736">
        <ele>773.6</ele>
      </trkpt>
      <trkpt lat="44.15819" lon="5.7571">
        <ele>773.5</ele>
      </trkpt>
      <trkpt lat="44.15841" lon="5.75694">
        <ele>766.2</ele>
      </trkpt>
      <trkpt lat="44.15855" lon="5.75671">
        <ele>764.3</ele>
      </trkpt>
      <trkpt lat="44.1589" lon="5.75648">
        <ele>751.7</ele>
      </trkpt>
      <trkpt lat="44.15897" lon="5.75635">
        <ele>750.1</ele>
      </trkpt>
      <trkpt lat="44.159" lon="5.7562">
        <ele>750.6</ele>
      </trkpt>
      <trkpt lat="44.15911" lon="5.75595">
        <ele>748.4</ele>
      </trkpt>
      <trkpt lat="44.15918" lon="5.7556">
        <ele>749.7</ele>
      </trkpt>
      <trkpt lat="44.15926" lon="5.75517">
        <ele>752.5</ele>
      </trkpt>
      <trkpt lat="44.15928" lon="5.75511">
        <ele>752.6</ele>
      </trkpt>
      <trkpt lat="44.15939" lon="5.7551">
        <ele>748.8</ele>
      </trkpt>
      <trkpt lat="44.15991" lon="5.75522">
        <ele>729.7</ele>
      </trkpt>
      <trkpt lat="44.16034" lon="5.75512">
        <ele>719.9</ele>
      </trkpt>
      <trkpt lat="44.16049" lon="5.75504">
        <ele>717.1</ele>
      </trkpt>
      <trkpt lat="44.16107" lon="5.75518">
        <ele>706.1</ele>
      </trkpt>
      <trkpt lat="44.1611" lon="5.75522">
        <ele>705.6</ele>
      </trkpt>
      <trkpt lat="44.16121" lon="5.7555">
        <ele>703</ele>
      </trkpt>
      <trkpt lat="44.16126" lon="5.75554">
        <ele>702.3</ele>
      </trkpt>
      <trkpt lat="44.16134" lon="5.75545">
        <ele>702</ele>
      </trkpt>
      <trkpt lat="44.16139" lon="5.75524">
        <ele>702.4</ele>
      </trkpt>
      <trkpt lat="44.16132" lon="5.75496">
        <ele>704.2</ele>
      </trkpt>
      <trkpt lat="44.16128" lon="5.75491">
        <ele>704.8</ele>
      </trkpt>
      <trkpt lat="44.16132" lon="5.75478">
        <ele>704.5</ele>
      </trkpt>
      <trkpt lat="44.16147" lon="5.75473">
        <ele>702.6</ele>
      </trkpt>
      <trkpt lat="44.16164" lon="5.75456">
        <ele>700.4</ele>
      </trkpt>
      <trkpt lat="44.16179" lon="5.75454">
        <ele>698.3</ele>
      </trkpt>
      <trkpt lat="44.16196" lon="5.75448">
        <ele>696</ele>
      </trkpt>
      <trkpt lat="44.16205" lon="5.75445">
        <ele>694.8</ele>
      </trkpt>
      <trkpt lat="44.16247" lon="5.75442">
        <ele>689.1</ele>
      </trkpt>
      <trkpt lat="44.16251" lon="5.75434">
        <ele>688.7</ele>
      </trkpt>
      <trkpt lat="44.16271" lon="5.75357">
        <ele>686.5</ele>
      </trkpt>
      <trkpt lat="44.16285" lon="5.75268">
        <ele>685.6</ele>
      </trkpt>
      <trkpt lat="44.16288" lon="5.75234">
        <ele>686</ele>
      </trkpt>
      <trkpt lat="44.16317" lon="5.75154">
        <ele>682</ele>
      </trkpt>
      <trkpt lat="44.16339" lon="5.75127">
        <ele>676.8</ele>
      </trkpt>
      <trkpt lat="44.16426" lon="5.75082">
        <ele>662.9</ele>
      </trkpt>
      <trkpt lat="44.16439" lon="5.75084">
        <ele>662.6</ele>
      </trkpt>
      <trkpt lat="44.16467" lon="5.75088">
        <ele>663.2</ele>
      </trkpt>
      <trkpt lat="44.1648" lon="5.75089">
        <ele>663.4</ele>
      </trkpt>
      <trkpt lat="44.16506" lon="5.75098">
        <ele>665.7</ele>
      </trkpt>
      <trkpt lat="44.16506" lon="5.75091">
        <ele>663.1</ele>
      </trkpt>
      <trkpt lat="44.16468" lon="5.75072">
        <ele>661.7</ele>
      </trkpt>
      <trkpt lat="44.16438" lon="5.75051">
        <ele>664</ele>
      </trkpt>
      <trkpt lat="44.16411" lon="5.75032">
        <ele>667.7</ele>
      </trkpt>
      <trkpt lat="44.16415" lon="5.75022">
        <ele>668.3</ele>
      </trkpt>
      <trkpt lat="44.16435" lon="5.75011">
        <ele>666.3</ele>
      </trkpt>
      <trkpt lat="44.165" lon="5.7498">
        <ele>662.7</ele>
      </trkpt>
      <trkpt lat="44.16509" lon="5.74968">
        <ele>664.6</ele>
      </trkpt>
      <trkpt lat="44.16544" lon="5.74875">
        <ele>675.7</ele>
      </trkpt>
      <trkpt lat="44.16568" lon="5.74767">
        <ele>672.6</ele>
      </trkpt>
      <trkpt lat="44.16567" lon="5.74736">
        <ele>672.7</ele>
      </trkpt>
      <trkpt lat="44.1657" lon="5.74727">
        <ele>670.9</ele>
      </trkpt>
      <trkpt lat="44.16597" lon="5.74724">
        <ele>659</ele>
      </trkpt>
      <trkpt lat="44.16611" lon="5.74717">
        <ele>652.7</ele>
      </trkpt>
      <trkpt lat="44.16637" lon="5.74671">
        <ele>640.2</ele>
      </trkpt>
      <trkpt lat="44.16642" lon="5.74664">
        <ele>638.1</ele>
      </trkpt>
      <trkpt lat="44.16647" lon="5.74677">
        <ele>636.3</ele>
      </trkpt>
      <trkpt lat="44.16656" lon="5.74685">
        <ele>632.8</ele>
      </trkpt>
      <trkpt lat="44.16682" lon="5.74693">
        <ele>627.6</ele>
      </trkpt>
      <trkpt lat="44.16736" lon="5.74697">
        <ele>624</ele>
      </trkpt>
      <trkpt lat="44.168" lon="5.74704">
        <ele>623.7</ele>
      </trkpt>
      <trkpt lat="44.168" lon="5.74666">
        <ele>624.2</ele>
      </trkpt>
      <trkpt lat="44.16801" lon="5.74652">
        <ele>624.6</ele>
      </trkpt>
      <trkpt lat="44.1683" lon="5.74679">
        <ele>624.6</ele>
      </trkpt>
      <trkpt lat="44.16886" lon="5.74703">
        <ele>632.1</ele>
      </trkpt>
      <trkpt lat="44.16993" lon="5.7475">
        <ele>644.1</ele>
      </trkpt>
      <trkpt lat="44.17033" lon="5.74758">
        <ele>646.8</ele>
      </trkpt>
      <trkpt lat="44.17085" lon="5.74751">
        <ele>646.1</ele>
      </trkpt>
      <trkpt lat="44.17092" lon="5.74764">
        <ele>647.4</ele>
      </trkpt>
      <trkpt lat="44.17119" lon="5.74851">
        <ele>651.5</ele>
      </trkpt>
      <trkpt lat="44.17114" lon="5.74897">
        <ele>653.3</ele>
      </trkpt>
      <trkpt lat="44.17218" lon="5.74867">
        <ele>644.4</ele>
      </trkpt>
      <trkpt lat="44.17262" lon="5.7479">
        <ele>647.9</ele>
      </trkpt>
      <trkpt lat="44.17283" lon="5.74742">
        <ele>652.5</ele>
      </trkpt>
      <trkpt lat="44.17284" lon="5.74793">
        <ele>650.3</ele>
      </trkpt>
      <trkpt lat="44.17263" lon="5.74869">
        <ele>645.5</ele>
      </trkpt>
      <trkpt lat="44.17269" lon="5.74924">
        <ele>644.6</ele>
      </trkpt>
      <trkpt lat="44.17274" lon="5.74957">
        <ele>643.2</ele>
      </trkpt>
      <trkpt lat="44.17312" lon="5.75001">
        <ele>643.4</ele>
      </trkpt>
      <trkpt lat="44.1732" lon="5.7501">
        <ele>643.6</ele>
      </trkpt>
      <trkpt lat="44.17383" lon="5.75128">
        <ele>641.5</ele>
      </trkpt>
      <trkpt lat="44.1741" lon="5.75177">
        <ele>640.3</ele>
      </trkpt>
      <trkpt lat="44.1743" lon="5.75193">
        <ele>640.3</ele>
      </trkpt>
      <trkpt lat="44.1743" lon="5.75203">
        <ele>640</ele>
      </trkpt>
      <trkpt lat="44.17409" lon="5.75273">
        <ele>636.7</ele>
      </trkpt>
      <trkpt lat="44.17412" lon="5.753">
        <ele>636.8</ele>
      </trkpt>
      <trkpt lat="44.17435" lon="5.75374">
        <ele>639.4</ele>
      </trkpt>
      <trkpt lat="44.17448" lon="5.75388">
        <ele>640.6</ele>
      </trkpt>
      <trkpt lat="44.17464" lon="5.75396">
        <ele>641.9</ele>
      </trkpt>
      <trkpt lat="44.17507" lon="5.75411">
        <ele>645.4</ele>
      </trkpt>
      <trkpt lat="44.17517" lon="5.75429">
        <ele>646.2</ele>
      </trkpt>
      <trkpt lat="44.17532" lon="5.75487">
        <ele>646</ele>
      </trkpt>
      <trkpt lat="44.17541" lon="5.75502">
        <ele>646.5</ele>
      </trkpt>
      <trkpt lat="44.17611" lon="5.75533">
        <ele>654.1</ele>
      </trkpt>
      <trkpt lat="44.17642" lon="5.75556">
        <ele>657.8</ele>
      </trkpt>
      <trkpt lat="44.17658" lon="5.75586">
        <ele>660.1</ele>
      </trkpt>
      <trkpt lat="44.17669" lon="5.75614">
        <ele>664</ele>
      </trkpt>
      <trkpt lat="44.17666" lon="5.7564">
        <ele>680</ele>
      </trkpt>
      <trkpt lat="44.17698" lon="5.75673">
        <ele>674.9</ele>
      </trkpt>
      <trkpt lat="44.17705" lon="5.75691">
        <ele>679.8</ele>
      </trkpt>
      <trkpt lat="44.17685" lon="5.7572">
        <ele>681.5</ele>
      </trkpt>
      <trkpt lat="44.17683" lon="5.75759">
        <ele>688.2</ele>
      </trkpt>
      <trkpt lat="44.17675" lon="5.75792">
        <ele>715.6</ele>
      </trkpt>
      <trkpt lat="44.17666" lon="5.75853">
        <ele>697.8</ele>
      </trkpt>
      <trkpt lat="44.17721" lon="5.75909">
        <ele>717.1</ele>
      </trkpt>
      <trkpt lat="44.17737" lon="5.7589">
        <ele>720</ele>
      </trkpt>
      <trkpt lat="44.17756" lon="5.75963">
        <ele>749.6</ele>
      </trkpt>
      <trkpt lat="44.17788" lon="5.7604">
        <ele>734.4</ele>
      </trkpt>
      <trkpt lat="44.178" lon="5.76035">
        <ele>737</ele>
      </trkpt>
      <trkpt lat="44.1787" lon="5.76093">
        <ele>771.4</ele>
      </trkpt>
      <trkpt lat="44.17869" lon="5.76107">
        <ele>747</ele>
      </trkpt>
      <trkpt lat="44.17856" lon="5.76123">
        <ele>741.3</ele>
      </trkpt>
      <trkpt lat="44.17873" lon="5.76156">
        <ele>776.4</ele>
      </trkpt>
      <trkpt lat="44.17872" lon="5.76174">
        <ele>741.5</ele>
      </trkpt>
      <trkpt lat="44.17884" lon="5.76205">
        <ele>749.1</ele>
      </trkpt>
      <trkpt lat="44.17877" lon="5.76305">
        <ele>764.2</ele>
      </trkpt>
      <trkpt lat="44.17878" lon="5.7633">
        <ele>769.7</ele>
      </trkpt>
      <trkpt lat="44.17864" lon="5.76359">
        <ele>800.3</ele>
      </trkpt>
      <trkpt lat="44.17864" lon="5.76388">
        <ele>779.7</ele>
      </trkpt>
      <trkpt lat="44.17899" lon="5.76429">
        <ele>790.6</ele>
      </trkpt>
      <trkpt lat="44.17909" lon="5.76466">
        <ele>796.1</ele>
      </trkpt>
      <trkpt lat="44.17923" lon="5.76497">
        <ele>802.6</ele>
      </trkpt>
      <trkpt lat="44.17924" lon="5.76518">
        <ele>802.5</ele>
      </trkpt>
      <trkpt lat="44.17924" lon="5.7652">
        <ele>802.4</ele>
      </trkpt>
      <trkpt lat="44.1795" lon="5.76551">
        <ele>807.4</ele>
      </trkpt>
      <trkpt lat="44.17978" lon="5.76561">
        <ele>813.1</ele>
      </trkpt>
      <trkpt lat="44.1804" lon="5.76637">
        <ele>812.3</ele>
      </trkpt>
      <trkpt lat="44.18059" lon="5.76652">
        <ele>814.9</ele>
      </trkpt>
      <trkpt lat="44.18092" lon="5.76705">
        <ele>814.5</ele>
      </trkpt>
      <trkpt lat="44.181" lon="5.76717">
        <ele>815.5</ele>
      </trkpt>
      <trkpt lat="44.18135" lon="5.76733">
        <ele>829.8</ele>
      </trkpt>
      <trkpt lat="44.18182" lon="5.7674">
        <ele>848.5</ele>
      </trkpt>
      <trkpt lat="44.18197" lon="5.76734">
        <ele>853.7</ele>
      </trkpt>
      <trkpt lat="44.18198" lon="5.76727">
        <ele>855.8</ele>
      </trkpt>
      <trkpt lat="44.18169" lon="5.7672">
        <ele>850.5</ele>
      </trkpt>
      <trkpt lat="44.18152" lon="5.76715">
        <ele>843.5</ele>
      </trkpt>
      <trkpt lat="44.18114" lon="5.76678">
        <ele>833.2</ele>
      </trkpt>
      <trkpt lat="44.18116" lon="5.76669">
        <ele>836.6</ele>
      </trkpt>
      <trkpt lat="44.1812" lon="5.76667">
        <ele>839.3</ele>
      </trkpt>
      <trkpt lat="44.18134" lon="5.76684">
        <ele>842.2</ele>
      </trkpt>
      <trkpt lat="44.18145" lon="5.76696">
        <ele>844.8</ele>
      </trkpt>
      <trkpt lat="44.18168" lon="5.76693">
        <ele>857.4</ele>
      </trkpt>
      <trkpt lat="44.1818" lon="5.76679">
        <ele>863.8</ele>
      </trkpt>
      <trkpt lat="44.1821" lon="5.76628">
        <ele>887.1</ele>
      </trkpt>
      <trkpt lat="44.18222" lon="5.7662">
        <ele>892.5</ele>
      </trkpt>
      <trkpt lat="44.1826" lon="5.76615">
        <ele>899.2</ele>
      </trkpt>
      <trkpt lat="44.18351" lon="5.76635">
        <ele>889.9</ele>
      </trkpt>
      <trkpt lat="44.18378" lon="5.76636">
        <ele>891.8</ele>
      </trkpt>
      <trkpt lat="44.18412" lon="5.76627">
        <ele>893.8</ele>
      </trkpt>
      <trkpt lat="44.18436" lon="5.7663">
        <ele>896.7</ele>
      </trkpt>
      <trkpt lat="44.18445" lon="5.76627">
        <ele>897.6</ele>
      </trkpt>
      <trkpt lat="44.18479" lon="5.76601">
        <ele>898.2</ele>
      </trkpt>
      <trkpt lat="44.18509" lon="5.76596">
        <ele>900.6</ele>
      </trkpt>
      <trkpt lat="44.18547" lon="5.76597">
        <ele>907</ele>
      </trkpt>
      <trkpt lat="44.18596" lon="5.76621">
        <ele>920.4</ele>
      </trkpt>
      <trkpt lat="44.18599" lon="5.7663">
        <ele>923.1</ele>
      </trkpt>
      <trkpt lat="44.18598" lon="5.76645">
        <ele>927.2</ele>
      </trkpt>
      <trkpt lat="44.1859" lon="5.76655">
        <ele>929.8</ele>
      </trkpt>
      <trkpt lat="44.18579" lon="5.76656">
        <ele>928.9</ele>
      </trkpt>
      <trkpt lat="44.18573" lon="5.7665">
        <ele>925.7</ele>
      </trkpt>
      <trkpt lat="44.18551" lon="5.76627">
        <ele>914.9</ele>
      </trkpt>
      <trkpt lat="44.18545" lon="5.7663">
        <ele>914.3</ele>
      </trkpt>
      <trkpt lat="44.18544" lon="5.76642">
        <ele>916.9</ele>
      </trkpt>
      <trkpt lat="44.18561" lon="5.76655">
        <ele>924.1</ele>
      </trkpt>
      <trkpt lat="44.18582" lon="5.76675">
        <ele>933.6</ele>
      </trkpt>
      <trkpt lat="44.18593" lon="5.76675">
        <ele>934.4</ele>
      </trkpt>
      <trkpt lat="44.18621" lon="5.76675">
        <ele>935.5</ele>
      </trkpt>
      <trkpt lat="44.18643" lon="5.76694">
        <ele>940.8</ele>
      </trkpt>
      <trkpt lat="44.18651" lon="5.76697">
        <ele>942.1</ele>
      </trkpt>
      <trkpt lat="44.18671" lon="5.76682">
        <ele>939.3</ele>
      </trkpt>
      <trkpt lat="44.18692" lon="5.76675">
        <ele>938.1</ele>
      </trkpt>
      <trkpt lat="44.18707" lon="5.76649">
        <ele>932.6</ele>
      </trkpt>
      <trkpt lat="44.18712" lon="5.7664">
        <ele>931</ele>
      </trkpt>
      <trkpt lat="44.18725" lon="5.76642">
        <ele>932.1</ele>
      </trkpt>
      <trkpt lat="44.18726" lon="5.76657">
        <ele>935.2</ele>
      </trkpt>
      <trkpt lat="44.18712" lon="5.76696">
        <ele>944</ele>
      </trkpt>
      <trkpt lat="44.18704" lon="5.76708">
        <ele>946.9</ele>
      </trkpt>
      <trkpt lat="44.18689" lon="5.76726">
        <ele>951.4</ele>
      </trkpt>
      <trkpt lat="44.18688" lon="5.76731">
        <ele>952.7</ele>
      </trkpt>
      <trkpt lat="44.18696" lon="5.76797">
        <ele>963.5</ele>
      </trkpt>
      <trkpt lat="44.1869" lon="5.76807">
        <ele>964.8</ele>
      </trkpt>
      <trkpt lat="44.18678" lon="5.76826">
        <ele>967.1</ele>
      </trkpt>
      <trkpt lat="44.18676" lon="5.76836">
        <ele>968.2</ele>
      </trkpt>
      <trkpt lat="44.18679" lon="5.76843">
        <ele>968.7</ele>
      </trkpt>
      <trkpt lat="44.18712" lon="5.76814">
        <ele>965.6</ele>
      </trkpt>
      <trkpt lat="44.18722" lon="5.76796">
        <ele>963.2</ele>
      </trkpt>
      <trkpt lat="44.18752" lon="5.76762">
        <ele>958.9</ele>
      </trkpt>
      <trkpt lat="44.18759" lon="5.76749">
        <ele>958.3</ele>
      </trkpt>
      <trkpt lat="44.18773" lon="5.76727">
        <ele>956.2</ele>
      </trkpt>
      <trkpt lat="44.18779" lon="5.76731">
        <ele>958.1</ele>
      </trkpt>
      <trkpt lat="44.18761" lon="5.76775">
        <ele>962.1</ele>
      </trkpt>
      <trkpt lat="44.18756" lon="5.76791">
        <ele>963.4</ele>
      </trkpt>
      <trkpt lat="44.18755" lon="5.76848">
        <ele>969.5</ele>
      </trkpt>
      <trkpt lat="44.18761" lon="5.76874">
        <ele>972.1</ele>
      </trkpt>
      <trkpt lat="44.18753" lon="5.76906">
        <ele>972.1</ele>
      </trkpt>
      <trkpt lat="44.18746" lon="5.76951">
        <ele>976.2</ele>
      </trkpt>
      <trkpt lat="44.18739" lon="5.76998">
        <ele>981.6</ele>
      </trkpt>
      <trkpt lat="44.187" lon="5.7708">
        <ele>991.2</ele>
      </trkpt>
      <trkpt lat="44.1869" lon="5.77111">
        <ele>994.4</ele>
      </trkpt>
      <trkpt lat="44.18682" lon="5.77221">
        <ele>1007.6</ele>
      </trkpt>
      <trkpt lat="44.18678" lon="5.7724">
        <ele>1009.8</ele>
      </trkpt>
      <trkpt lat="44.1862" lon="5.77265">
        <ele>995.4</ele>
      </trkpt>
      <trkpt lat="44.18616" lon="5.77281">
        <ele>993.9</ele>
      </trkpt>
      <trkpt lat="44.18611" lon="5.77337">
        <ele>990.9</ele>
      </trkpt>
      <trkpt lat="44.18597" lon="5.77354">
        <ele>982.8</ele>
      </trkpt>
      <trkpt lat="44.18597" lon="5.7739">
        <ele>978.1</ele>
      </trkpt>
      <trkpt lat="44.18613" lon="5.77433">
        <ele>982.5</ele>
      </trkpt>
      <trkpt lat="44.18634" lon="5.77561">
        <ele>995</ele>
      </trkpt>
      <trkpt lat="44.18632" lon="5.77617">
        <ele>998.8</ele>
      </trkpt>
      <trkpt lat="44.18626" lon="5.77711">
        <ele>1007.1</ele>
      </trkpt>
      <trkpt lat="44.18612" lon="5.77753">
        <ele>1006.3</ele>
      </trkpt>
      <trkpt lat="44.18605" lon="5.77834">
        <ele>1016.2</ele>
      </trkpt>
      <trkpt lat="44.18606" lon="5.77845">
        <ele>1018.4</ele>
      </trkpt>
      <trkpt lat="44.18611" lon="5.77849">
        <ele>1021.3</ele>
        <extensions>
          <visugpx:TrkExtension xmlns:visugpx="https://www.visugpx.com/editgpx/">
            <visugpx:node>12</visugpx:node>
            </visugpx:TrkExtension>
        </extensions>
      </trkpt>
      <trkpt lat="44.18565" lon="5.77911">
        <ele>1010.9</ele>
      </trkpt>
      <trkpt lat="44.18546" lon="5.77968">
        <ele>1014.8</ele>
      </trkpt>
      <trkpt lat="44.18527" lon="5.77958">
        <ele>1035.4</ele>
      </trkpt>
      <trkpt lat="44.18476" lon="5.77982">
        <ele>999.7</ele>
      </trkpt>
      <trkpt lat="44.18456" lon="5.78">
        <ele>1001.1</ele>
      </trkpt>
      <trkpt lat="44.18407" lon="5.78032">
        <ele>994.5</ele>
      </trkpt>
      <trkpt lat="44.18381" lon="5.78058">
        <ele>992.3</ele>
      </trkpt>
      <trkpt lat="44.18325" lon="5.78139">
        <ele>979.3</ele>
      </trkpt>
      <trkpt lat="44.18301" lon="5.78225">
        <ele>967.4</ele>
      </trkpt>
      <trkpt lat="44.18296" lon="5.78267">
        <ele>962.6</ele>
      </trkpt>
      <trkpt lat="44.18304" lon="5.78288">
        <ele>961.9</ele>
      </trkpt>
      <trkpt lat="44.18326" lon="5.78391">
        <ele>953.5</ele>
      </trkpt>
      <trkpt lat="44.18307" lon="5.78415">
        <ele>948.6</ele>
      </trkpt>
      <trkpt lat="44.18349" lon="5.78531">
        <ele>940.8</ele>
      </trkpt>
      <trkpt lat="44.18342" lon="5.78576">
        <ele>935.2</ele>
      </trkpt>
      <trkpt lat="44.18322" lon="5.78631">
        <ele>928.2</ele>
      </trkpt>
      <trkpt lat="44.18331" lon="5.78677">
        <ele>924.3</ele>
      </trkpt>
      <trkpt lat="44.18322" lon="5.78711">
        <ele>921.9</ele>
      </trkpt>
      <trkpt lat="44.18309" lon="5.78754">
        <ele>918.8</ele>
      </trkpt>
      <trkpt lat="44.1833" lon="5.78745">
        <ele>920.2</ele>
      </trkpt>
      <trkpt lat="44.18403" lon="5.78716">
        <ele>920.2</ele>
      </trkpt>
      <trkpt lat="44.18491" lon="5.78741">
        <ele>908.4</ele>
      </trkpt>
      <trkpt lat="44.18557" lon="5.7878">
        <ele>894.7</ele>
      </trkpt>
      <trkpt lat="44.18578" lon="5.78805">
        <ele>887.6</ele>
      </trkpt>
      <trkpt lat="44.18615" lon="5.78868">
        <ele>878.8</ele>
      </trkpt>
      <trkpt lat="44.18626" lon="5.78875">
        <ele>878.6</ele>
      </trkpt>
      <trkpt lat="44.18653" lon="5.78974">
        <ele>867.4</ele>
      </trkpt>
      <trkpt lat="44.18648" lon="5.79015">
        <ele>862.9</ele>
      </trkpt>
      <trkpt lat="44.18688" lon="5.79068">
        <ele>863.9</ele>
      </trkpt>
      <trkpt lat="44.1871" lon="5.79097">
        <ele>865.6</ele>
      </trkpt>
      <trkpt lat="44.18722" lon="5.79141">
        <ele>863.7</ele>
      </trkpt>
      <trkpt lat="44.1878" lon="5.7916">
        <ele>868</ele>
      </trkpt>
      <trkpt lat="44.18783" lon="5.79168">
        <ele>867.3</ele>
        <extensions>
          <visugpx:TrkExtension xmlns:visugpx="https://www.visugpx.com/editgpx/">
            <visugpx:node>11</visugpx:node>
            </visugpx:TrkExtension>
        </extensions>
      </trkpt>
      <trkpt lat="44.18775" lon="5.79161">
        <ele>867.5</ele>
      </trkpt>
      <trkpt lat="44.18767" lon="5.79162">
        <ele>866.8</ele>
      </trkpt>
      <trkpt lat="44.18762" lon="5.79163">
        <ele>866.3</ele>
        <extensions>
          <visugpx:TrkExtension xmlns:visugpx="https://www.visugpx.com/editgpx/">
            <visugpx:node>3</visugpx:node>
            </visugpx:TrkExtension>
        </extensions>
      </trkpt>
      <trkpt lat="44.18783" lon="5.79168">
        <ele>867.3</ele>
        <extensions>
          <visugpx:TrkExtension xmlns:visugpx="https://www.visugpx.com/editgpx/">
            <visugpx:node>11</visugpx:node>
            </visugpx:TrkExtension>
        </extensions>
      </trkpt>
      <trkpt lat="44.18753" lon="5.79194">
        <ele>862</ele>
      </trkpt>
      <trkpt lat="44.18721" lon="5.7924">
        <ele>853.3</ele>
      </trkpt>
      <trkpt lat="44.18688" lon="5.79295">
        <ele>843.7</ele>
      </trkpt>
      <trkpt lat="44.18682" lon="5.79309">
        <ele>841.2</ele>
      </trkpt>
      <trkpt lat="44.18643" lon="5.79376">
        <ele>832.6</ele>
      </trkpt>
      <trkpt lat="44.18632" lon="5.79386">
        <ele>831.5</ele>
      </trkpt>
      <trkpt lat="44.18621" lon="5.79407">
        <ele>829.5</ele>
      </trkpt>
      <trkpt lat="44.18617" lon="5.79482">
        <ele>824.1</ele>
      </trkpt>
      <trkpt lat="44.18564" lon="5.7953">
        <ele>815.3</ele>
      </trkpt>
      <trkpt lat="44.18555" lon="5.79519">
        <ele>815.1</ele>
      </trkpt>
      <trkpt lat="44.18545" lon="5.79494">
        <ele>816.5</ele>
      </trkpt>
      <trkpt lat="44.18533" lon="5.79505">
        <ele>814</ele>
      </trkpt>
      <trkpt lat="44.18526" lon="5.79531">
        <ele>810</ele>
      </trkpt>
      <trkpt lat="44.18532" lon="5.79703">
        <ele>797.5</ele>
      </trkpt>
      <trkpt lat="44.18537" lon="5.7974">
        <ele>797.8</ele>
      </trkpt>
      <trkpt lat="44.18548" lon="5.79787">
        <ele>797.8</ele>
      </trkpt>
      <trkpt lat="44.18548" lon="5.79814">
        <ele>795.5</ele>
      </trkpt>
      <trkpt lat="44.18538" lon="5.79882">
        <ele>793.6</ele>
      </trkpt>
      <trkpt lat="44.18525" lon="5.79914">
        <ele>791.7</ele>
      </trkpt>
      <trkpt lat="44.18509" lon="5.79928">
        <ele>788.2</ele>
      </trkpt>
      <trkpt lat="44.18507" lon="5.7993">
        <ele>787.8</ele>
      </trkpt>
      <trkpt lat="44.18492" lon="5.79946">
        <ele>783.7</ele>
      </trkpt>
      <trkpt lat="44.18499" lon="5.79998">
        <ele>789.5</ele>
      </trkpt>
      <trkpt lat="44.18511" lon="5.80087">
        <ele>789.6</ele>
      </trkpt>
      <trkpt lat="44.18515" lon="5.80106">
        <ele>789.8</ele>
      </trkpt>
      <trkpt lat="44.18531" lon="5.80137">
        <ele>794.7</ele>
      </trkpt>
      <trkpt lat="44.18541" lon="5.8016">
        <ele>798.4</ele>
      </trkpt>
      <trkpt lat="44.18549" lon="5.80195">
        <ele>802.2</ele>
      </trkpt>
      <trkpt lat="44.18573" lon="5.8022">
        <ele>812.8</ele>
      </trkpt>
      <trkpt lat="44.18591" lon="5.80242">
        <ele>819.3</ele>
      </trkpt>
      <trkpt lat="44.18605" lon="5.80265">
        <ele>823</ele>
      </trkpt>
      <trkpt lat="44.18617" lon="5.80281">
        <ele>826.2</ele>
      </trkpt>
      <trkpt lat="44.18653" lon="5.80316">
        <ele>835.6</ele>
      </trkpt>
      <trkpt lat="44.18664" lon="5.80336">
        <ele>838.2</ele>
      </trkpt>
      <trkpt lat="44.18668" lon="5.8041">
        <ele>838.3</ele>
      </trkpt>
      <trkpt lat="44.1867" lon="5.80428">
        <ele>839.1</ele>
      </trkpt>
      <trkpt lat="44.18704" lon="5.80502">
        <ele>847.6</ele>
      </trkpt>
      <trkpt lat="44.187" lon="5.80506">
        <ele>847.5</ele>
      </trkpt>
      <trkpt lat="44.18699" lon="5.80519">
        <ele>849.2</ele>
      </trkpt>
      <trkpt lat="44.18712" lon="5.80536">
        <ele>853.5</ele>
      </trkpt>
      <trkpt lat="44.18711" lon="5.80571">
        <ele>858.1</ele>
      </trkpt>
      <trkpt lat="44.18711" lon="5.80583">
        <ele>859.7</ele>
      </trkpt>
      <trkpt lat="44.18716" lon="5.80605">
        <ele>864.5</ele>
      </trkpt>
      <trkpt lat="44.18727" lon="5.80623">
        <ele>868.5</ele>
      </trkpt>
      <trkpt lat="44.18733" lon="5.80637">
        <ele>871.2</ele>
      </trkpt>
      <trkpt lat="44.18754" lon="5.8068">
        <ele>880.3</ele>
      </trkpt>
      <trkpt lat="44.18755" lon="5.80699">
        <ele>885.6</ele>
      </trkpt>
      <trkpt lat="44.18763" lon="5.80729">
        <ele>894.5</ele>
      </trkpt>
      <trkpt lat="44.18763" lon="5.80741">
        <ele>897.6</ele>
      </trkpt>
      <trkpt lat="44.18722" lon="5.80761">
        <ele>902.9</ele>
      </trkpt>
      <trkpt lat="44.18692" lon="5.80779">
        <ele>908.5</ele>
      </trkpt>
      <trkpt lat="44.18658" lon="5.80805">
        <ele>916.4</ele>
      </trkpt>
      <trkpt lat="44.18647" lon="5.80809">
        <ele>918.4</ele>
      </trkpt>
      <trkpt lat="44.18623" lon="5.80835">
        <ele>925.7</ele>
      </trkpt>
      <trkpt lat="44.18627" lon="5.80845">
        <ele>925.4</ele>
      </trkpt>
      <trkpt lat="44.18648" lon="5.80871">
        <ele>923.4</ele>
      </trkpt>
      <trkpt lat="44.18655" lon="5.80885">
        <ele>922.6</ele>
      </trkpt>
      <trkpt lat="44.18658" lon="5.80925">
        <ele>921.5</ele>
      </trkpt>
      <trkpt lat="44.18663" lon="5.80994">
        <ele>916.5</ele>
      </trkpt>
      <trkpt lat="44.18671" lon="5.81035">
        <ele>913.3</ele>
      </trkpt>
      <trkpt lat="44.18709" lon="5.81097">
        <ele>906.9</ele>
      </trkpt>
      <trkpt lat="44.18722" lon="5.81117">
        <ele>905</ele>
      </trkpt>
      <trkpt lat="44.18726" lon="5.81177">
        <ele>900.8</ele>
      </trkpt>
      <trkpt lat="44.18732" lon="5.81209">
        <ele>898.1</ele>
      </trkpt>
      <trkpt lat="44.18744" lon="5.81258">
        <ele>894.1</ele>
      </trkpt>
      <trkpt lat="44.18743" lon="5.81321">
        <ele>882.7</ele>
      </trkpt>
      <trkpt lat="44.18759" lon="5.81392">
        <ele>871.9</ele>
      </trkpt>
      <trkpt lat="44.18763" lon="5.81422">
        <ele>867.4</ele>
      </trkpt>
      <trkpt lat="44.18783" lon="5.81476">
        <ele>863</ele>
      </trkpt>
      <trkpt lat="44.18791" lon="5.81499">
        <ele>861</ele>
      </trkpt>
      <trkpt lat="44.18791" lon="5.81551">
        <ele>855.1</ele>
      </trkpt>
      <trkpt lat="44.18786" lon="5.81569">
        <ele>852.2</ele>
      </trkpt>
      <trkpt lat="44.18777" lon="5.81586">
        <ele>848.9</ele>
      </trkpt>
      <trkpt lat="44.18763" lon="5.81623">
        <ele>842.6</ele>
      </trkpt>
      <trkpt lat="44.18772" lon="5.81666">
        <ele>839</ele>
      </trkpt>
      <trkpt lat="44.18786" lon="5.81718">
        <ele>832.8</ele>
      </trkpt>
      <trkpt lat="44.18788" lon="5.8175">
        <ele>828.1</ele>
      </trkpt>
      <trkpt lat="44.18799" lon="5.81789">
        <ele>823.4</ele>
      </trkpt>
      <trkpt lat="44.18791" lon="5.81843">
        <ele>814.7</ele>
      </trkpt>
      <trkpt lat="44.18795" lon="5.81923">
        <ele>810</ele>
      </trkpt>
      <trkpt lat="44.18799" lon="5.81999">
        <ele>808</ele>
      </trkpt>
      <trkpt lat="44.18819" lon="5.82134">
        <ele>814</ele>
      </trkpt>
      <trkpt lat="44.18825" lon="5.82162">
        <ele>814.7</ele>
      </trkpt>
      <trkpt lat="44.18836" lon="5.8224">
        <ele>811.5</ele>
      </trkpt>
      <trkpt lat="44.18844" lon="5.82265">
        <ele>813</ele>
      </trkpt>
      <trkpt lat="44.18849" lon="5.82307">
        <ele>814</ele>
      </trkpt>
      <trkpt lat="44.1887" lon="5.8238">
        <ele>820.9</ele>
      </trkpt>
      <trkpt lat="44.18879" lon="5.82414">
        <ele>824.1</ele>
      </trkpt>
      <trkpt lat="44.18892" lon="5.82487">
        <ele>835.6</ele>
      </trkpt>
      <trkpt lat="44.18892" lon="5.82497">
        <ele>836.9</ele>
      </trkpt>
      <trkpt lat="44.18865" lon="5.82566">
        <ele>842.5</ele>
      </trkpt>
      <trkpt lat="44.18859" lon="5.826">
        <ele>847.5</ele>
      </trkpt>
      <trkpt lat="44.1884" lon="5.82648">
        <ele>854.1</ele>
      </trkpt>
      <trkpt lat="44.1881" lon="5.82677">
        <ele>855.7</ele>
      </trkpt>
      <trkpt lat="44.18776" lon="5.82698">
        <ele>855.3</ele>
      </trkpt>
      <trkpt lat="44.1876" lon="5.82699">
        <ele>852.3</ele>
      </trkpt>
      <trkpt lat="44.18705" lon="5.82704">
        <ele>843.3</ele>
      </trkpt>
      <trkpt lat="44.1866" lon="5.8273">
        <ele>840.1</ele>
      </trkpt>
      <trkpt lat="44.18621" lon="5.82751">
        <ele>837.9</ele>
      </trkpt>
      <trkpt lat="44.18605" lon="5.82758">
        <ele>835.8</ele>
      </trkpt>
      <trkpt lat="44.18609" lon="5.8276">
        <ele>836.5</ele>
      </trkpt>
      <trkpt lat="44.18605" lon="5.82758">
        <ele>835.8</ele>
      </trkpt>
      <trkpt lat="44.1857" lon="5.82751">
        <ele>829.5</ele>
      </trkpt>
      <trkpt lat="44.18454" lon="5.82784">
        <ele>809.3</ele>
      </trkpt>
      <trkpt lat="44.18317" lon="5.8277">
        <ele>782.3</ele>
      </trkpt>
      <trkpt lat="44.18173" lon="5.82766">
        <ele>753.8</ele>
      </trkpt>
      <trkpt lat="44.181" lon="5.82782">
        <ele>740.3</ele>
      </trkpt>
      <trkpt lat="44.18045" lon="5.82832">
        <ele>736.4</ele>
      </trkpt>
      <trkpt lat="44.17973" lon="5.82888">
        <ele>729.1</ele>
      </trkpt>
      <trkpt lat="44.1785" lon="5.82891">
        <ele>712.4</ele>
      </trkpt>
      <trkpt lat="44.17755" lon="5.82892">
        <ele>700</ele>
      </trkpt>
      <trkpt lat="44.17564" lon="5.82858">
        <ele>667.3</ele>
      </trkpt>
      <trkpt lat="44.17512" lon="5.82865">
        <ele>658.8</ele>
      </trkpt>
      <trkpt lat="44.17352" lon="5.82924">
        <ele>629.9</ele>
      </trkpt>
      <trkpt lat="44.1733" lon="5.82916">
        <ele>626.6</ele>
      </trkpt>
      <trkpt lat="44.1729" lon="5.82938">
        <ele>620.6</ele>
      </trkpt>
      <trkpt lat="44.17281" lon="5.82928">
        <ele>632.7</ele>
      </trkpt>
      <trkpt lat="44.17258" lon="5.82931">
        <ele>616.6</ele>
      </trkpt>
      <trkpt lat="44.17247" lon="5.82938">
        <ele>614.7</ele>
      </trkpt>
      <trkpt lat="44.17229" lon="5.82949">
        <ele>611.3</ele>
      </trkpt>
      <trkpt lat="44.17225" lon="5.8296">
        <ele>610.4</ele>
      </trkpt>
      <trkpt lat="44.1721" lon="5.82964">
        <ele>607.9</ele>
      </trkpt>
      <trkpt lat="44.17204" lon="5.82953">
        <ele>607.1</ele>
      </trkpt>
      <trkpt lat="44.17204" lon="5.8292">
        <ele>618.6</ele>
      </trkpt>
      <trkpt lat="44.17192" lon="5.82891">
        <ele>607.8</ele>
      </trkpt>
      <trkpt lat="44.17156" lon="5.82869">
        <ele>604.1</ele>
      </trkpt>
      <trkpt lat="44.17121" lon="5.82875">
        <ele>598.4</ele>
      </trkpt>
      <trkpt lat="44.17094" lon="5.82867">
        <ele>595.5</ele>
      </trkpt>
      <trkpt lat="44.17081" lon="5.82886">
        <ele>591.1</ele>
      </trkpt>
      <trkpt lat="44.17075" lon="5.82883">
        <ele>590</ele>
      </trkpt>
      <trkpt lat="44.17059" lon="5.82889">
        <ele>591.7</ele>
      </trkpt>
      <trkpt lat="44.17053" lon="5.82911">
        <ele>581.7</ele>
      </trkpt>
      <trkpt lat="44.17045" lon="5.82919">
        <ele>579.3</ele>
      </trkpt>
      <trkpt lat="44.17033" lon="5.82899">
        <ele>578.3</ele>
      </trkpt>
      <trkpt lat="44.17004" lon="5.82896">
        <ele>571.7</ele>
      </trkpt>
      <trkpt lat="44.16989" lon="5.82886">
        <ele>569.6</ele>
      </trkpt>
      <trkpt lat="44.16955" lon="5.82887">
        <ele>563.5</ele>
      </trkpt>
      <trkpt lat="44.16921" lon="5.82875">
        <ele>557.8</ele>
      </trkpt>
      <trkpt lat="44.16896" lon="5.82896">
        <ele>554.4</ele>
      </trkpt>
      <trkpt lat="44.16874" lon="5.82889">
        <ele>552.2</ele>
      </trkpt>
      <trkpt lat="44.16864" lon="5.829">
        <ele>551.1</ele>
      </trkpt>
      <trkpt lat="44.16851" lon="5.82917">
        <ele>549.7</ele>
      </trkpt>
      <trkpt lat="44.16844" lon="5.82914">
        <ele>549</ele>
      </trkpt>
      <trkpt lat="44.16814" lon="5.8288">
        <ele>547.1</ele>
      </trkpt>
      <trkpt lat="44.16748" lon="5.82807">
        <ele>544</ele>
      </trkpt>
      <trkpt lat="44.16744" lon="5.82802">
        <ele>544.2</ele>
      </trkpt>
      <trkpt lat="44.16725" lon="5.82799">
        <ele>544.7</ele>
      </trkpt>
      <trkpt lat="44.16708" lon="5.82805">
        <ele>545</ele>
      </trkpt>
      <trkpt lat="44.16682" lon="5.82813">
        <ele>545.4</ele>
      </trkpt>
      <trkpt lat="44.16651" lon="5.82826">
        <ele>547.2</ele>
      </trkpt>
      <trkpt lat="44.16615" lon="5.82862">
        <ele>551.3</ele>
      </trkpt>
      <trkpt lat="44.1659" lon="5.82849">
        <ele>554.4</ele>
      </trkpt>
      <trkpt lat="44.1655" lon="5.82828">
        <ele>563</ele>
      </trkpt>
      <trkpt lat="44.16502" lon="5.82847">
        <ele>572.7</ele>
      </trkpt>
      <trkpt lat="44.16494" lon="5.82962">
        <ele>565.9</ele>
      </trkpt>
      <trkpt lat="44.16486" lon="5.82972">
        <ele>565.8</ele>
      </trkpt>
      <trkpt lat="44.16434" lon="5.8292">
        <ele>578.8</ele>
      </trkpt>
      <trkpt lat="44.16419" lon="5.82912">
        <ele>582</ele>
      </trkpt>
      <trkpt lat="44.16409" lon="5.82915">
        <ele>582.7</ele>
      </trkpt>
      <trkpt lat="44.16404" lon="5.8292">
        <ele>582.4</ele>
      </trkpt>
      <trkpt lat="44.16388" lon="5.82934">
        <ele>581.4</ele>
      </trkpt>
      <trkpt lat="44.16344" lon="5.82957">
        <ele>573.3</ele>
      </trkpt>
      <trkpt lat="44.16302" lon="5.82989">
        <ele>581.6</ele>
      </trkpt>
      <trkpt lat="44.16235" lon="5.8304">
        <ele>588.8</ele>
      </trkpt>
      <trkpt lat="44.16229" lon="5.8306">
        <ele>589.9</ele>
      </trkpt>
      <trkpt lat="44.16244" lon="5.83106">
        <ele>589.2</ele>
      </trkpt>
      <trkpt lat="44.16257" lon="5.83183">
        <ele>591.2</ele>
      </trkpt>
      <trkpt lat="44.16265" lon="5.83234">
        <ele>591.1</ele>
      </trkpt>
      <trkpt lat="44.16257" lon="5.8333">
        <ele>583.5</ele>
      </trkpt>
      <trkpt lat="44.16238" lon="5.83361">
        <ele>581.7</ele>
      </trkpt>
      <trkpt lat="44.1618" lon="5.83442">
        <ele>578.2</ele>
      </trkpt>
      <trkpt lat="44.16147" lon="5.83469">
        <ele>579.9</ele>
      </trkpt>
      <trkpt lat="44.16083" lon="5.83531">
        <ele>584.1</ele>
      </trkpt>
      <trkpt lat="44.16068" lon="5.8355">
        <ele>583.6</ele>
      </trkpt>
      <trkpt lat="44.16056" lon="5.83571">
        <ele>582.8</ele>
      </trkpt>
      <trkpt lat="44.15981" lon="5.8369">
        <ele>579.5</ele>
      </trkpt>
      <trkpt lat="44.1597" lon="5.83704">
        <ele>579.1</ele>
      </trkpt>
      <trkpt lat="44.15977" lon="5.83773">
        <ele>574.4</ele>
      </trkpt>
      <trkpt lat="44.1599" lon="5.83808">
        <ele>572</ele>
      </trkpt>
      <trkpt lat="44.16017" lon="5.83876">
        <ele>569</ele>
      </trkpt>
      <trkpt lat="44.16016" lon="5.83881">
        <ele>568.9</ele>
      </trkpt>
      <trkpt lat="44.15875" lon="5.83836">
        <ele>582.1</ele>
      </trkpt>
      <trkpt lat="44.15835" lon="5.83801">
        <ele>585.7</ele>
      </trkpt>
      <trkpt lat="44.15779" lon="5.83752">
        <ele>589.4</ele>
      </trkpt>
      <trkpt lat="44.15752" lon="5.83731">
        <ele>592.5</ele>
      </trkpt>
      <trkpt lat="44.15619" lon="5.8366">
        <ele>601.4</ele>
      </trkpt>
      <trkpt lat="44.15568" lon="5.83648">
        <ele>607.6</ele>
      </trkpt>
      <trkpt lat="44.15459" lon="5.83637">
        <ele>623.3</ele>
      </trkpt>
      <trkpt lat="44.1541" lon="5.83614">
        <ele>628.5</ele>
      </trkpt>
      <trkpt lat="44.15363" lon="5.83603">
        <ele>639.4</ele>
      </trkpt>
      <trkpt lat="44.15269" lon="5.83614">
        <ele>655.9</ele>
      </trkpt>
      <trkpt lat="44.1518" lon="5.83667">
        <ele>667.4</ele>
      </trkpt>
      <trkpt lat="44.15168" lon="5.83729">
        <ele>682.5</ele>
      </trkpt>
      <trkpt lat="44.15162" lon="5.83753">
        <ele>689</ele>
      </trkpt>
      <trkpt lat="44.15144" lon="5.83716">
        <ele>687.8</ele>
      </trkpt>
      <trkpt lat="44.15127" lon="5.83684">
        <ele>686.5</ele>
      </trkpt>
      <trkpt lat="44.15049" lon="5.8363">
        <ele>697.6</ele>
      </trkpt>
      <trkpt lat="44.14987" lon="5.83623">
        <ele>708.1</ele>
      </trkpt>
      <trkpt lat="44.1498" lon="5.83594">
        <ele>706.9</ele>
      </trkpt>
      <trkpt lat="44.15004" lon="5.83585">
        <ele>699.6</ele>
      </trkpt>
      <trkpt lat="44.15042" lon="5.83576">
        <ele>696</ele>
      </trkpt>
      <trkpt lat="44.15041" lon="5.83564">
        <ele>700.3</ele>
      </trkpt>
      <trkpt lat="44.14918" lon="5.83577">
        <ele>726</ele>
      </trkpt>
      <trkpt lat="44.14863" lon="5.83603">
        <ele>738.8</ele>
      </trkpt>
      <trkpt lat="44.14858" lon="5.83623">
        <ele>740.7</ele>
      </trkpt>
      <trkpt lat="44.14882" lon="5.83669">
        <ele>736.9</ele>
      </trkpt>
      <trkpt lat="44.14948" lon="5.83682">
        <ele>725.1</ele>
      </trkpt>
      <trkpt lat="44.14985" lon="5.83721">
        <ele>727.9</ele>
      </trkpt>
      <trkpt lat="44.14984" lon="5.83742">
        <ele>733.7</ele>
      </trkpt>
      <trkpt lat="44.14944" lon="5.83805">
        <ele>747.9</ele>
      </trkpt>
      <trkpt lat="44.14928" lon="5.83814">
        <ele>751.4</ele>
      </trkpt>
      <trkpt lat="44.1492" lon="5.83849">
        <ele>757.4</ele>
      </trkpt>
      <trkpt lat="44.14933" lon="5.83888">
        <ele>762.4</ele>
      </trkpt>
      <trkpt lat="44.14988" lon="5.83956">
        <ele>765.6</ele>
      </trkpt>
      <trkpt lat="44.15022" lon="5.84024">
        <ele>774.5</ele>
      </trkpt>
      <trkpt lat="44.15033" lon="5.84152">
        <ele>792.6</ele>
      </trkpt>
      <trkpt lat="44.15018" lon="5.84231">
        <ele>803.9</ele>
      </trkpt>
      <trkpt lat="44.15023" lon="5.84327">
        <ele>814.5</ele>
      </trkpt>
      <trkpt lat="44.15063" lon="5.84386">
        <ele>815.5</ele>
      </trkpt>
      <trkpt lat="44.15077" lon="5.84428">
        <ele>819.7</ele>
      </trkpt>
      <trkpt lat="44.15089" lon="5.84554">
        <ele>833</ele>
      </trkpt>
      <trkpt lat="44.15077" lon="5.84587">
        <ele>838.8</ele>
      </trkpt>
      <trkpt lat="44.15002" lon="5.84685">
        <ele>866.3</ele>
      </trkpt>
      <trkpt lat="44.14984" lon="5.84739">
        <ele>873.1</ele>
      </trkpt>
      <trkpt lat="44.14979" lon="5.84785">
        <ele>827.3</ele>
      </trkpt>
      <trkpt lat="44.14962" lon="5.84713">
        <ele>884.3</ele>
      </trkpt>
      <trkpt lat="44.14951" lon="5.84651">
        <ele>886.1</ele>
      </trkpt>
      <trkpt lat="44.14831" lon="5.84547">
        <ele>912.2</ele>
      </trkpt>
      <trkpt lat="44.14786" lon="5.84519">
        <ele>919.5</ele>
      </trkpt>
      <trkpt lat="44.14656" lon="5.84399">
        <ele>940.2</ele>
      </trkpt>
      <trkpt lat="44.14615" lon="5.84353">
        <ele>941.4</ele>
      </trkpt>
      <trkpt lat="44.14448" lon="5.84311">
        <ele>992.5</ele>
      </trkpt>
      <trkpt lat="44.14388" lon="5.84331">
        <ele>1011.3</ele>
      </trkpt>
      <trkpt lat="44.14313" lon="5.84328">
        <ele>1001.4</ele>
      </trkpt>
      <trkpt lat="44.1415" lon="5.84227">
        <ele>1060.4</ele>
      </trkpt>
      <trkpt lat="44.14025" lon="5.84123">
        <ele>1074.7</ele>
      </trkpt>
      <trkpt lat="44.13948" lon="5.84046">
        <ele>1104.7</ele>
      </trkpt>
      <trkpt lat="44.13842" lon="5.83945">
        <ele>1164</ele>
      </trkpt>
      <trkpt lat="44.13821" lon="5.83924">
        <ele>1169.1</ele>
      </trkpt>
      <trkpt lat="44.13822" lon="5.83849">
        <ele>1155.8</ele>
      </trkpt>
      <trkpt lat="44.13829" lon="5.83819">
        <ele>1150.6</ele>
      </trkpt>
      <trkpt lat="44.13823" lon="5.83672">
        <ele>1130.4</ele>
      </trkpt>
      <trkpt lat="44.13773" lon="5.83574">
        <ele>1127.3</ele>
      </trkpt>
      <trkpt lat="44.13705" lon="5.83508">
        <ele>1127.5</ele>
      </trkpt>
      <trkpt lat="44.13685" lon="5.83471">
        <ele>1125.3</ele>
      </trkpt>
      <trkpt lat="44.1367" lon="5.834">
        <ele>1119.7</ele>
      </trkpt>
      <trkpt lat="44.1366" lon="5.8338">
        <ele>1119.1</ele>
      </trkpt>
      <trkpt lat="44.13571" lon="5.83307">
        <ele>1120.3</ele>
      </trkpt>
      <trkpt lat="44.1352" lon="5.8326">
        <ele>1118.8</ele>
      </trkpt>
      <trkpt lat="44.13465" lon="5.83179">
        <ele>1121.7</ele>
      </trkpt>
      <trkpt lat="44.13438" lon="5.83159">
        <ele>1124</ele>
      </trkpt>
      <trkpt lat="44.13395" lon="5.83151">
        <ele>1125.6</ele>
      </trkpt>
      <trkpt lat="44.13359" lon="5.83162">
        <ele>1125.2</ele>
      </trkpt>
      <trkpt lat="44.13349" lon="5.83171">
        <ele>1124.8</ele>
        <extensions>
          <visugpx:TrkExtension xmlns:visugpx="https://www.visugpx.com/editgpx/">
            <visugpx:node>8</visugpx:node>
            </visugpx:TrkExtension>
        </extensions>
      </trkpt>
      <trkpt lat="44.13324" lon="5.8322">
        <ele>1120.5</ele>
      </trkpt>
      <trkpt lat="44.13296" lon="5.83287">
        <ele>1112.1</ele>
      </trkpt>
      <trkpt lat="44.13286" lon="5.83379">
        <ele>1105.7</ele>
      </trkpt>
      <trkpt lat="44.13277" lon="5.83405">
        <ele>1103.4</ele>
      </trkpt>
      <trkpt lat="44.13258" lon="5.8342">
        <ele>1100.8</ele>
      </trkpt>
      <trkpt lat="44.13211" lon="5.83432">
        <ele>1088.7</ele>
      </trkpt>
      <trkpt lat="44.13196" lon="5.83427">
        <ele>1084.4</ele>
      </trkpt>
      <trkpt lat="44.13179" lon="5.83388">
        <ele>1078.7</ele>
      </trkpt>
      <trkpt lat="44.13149" lon="5.83333">
        <ele>1066.4</ele>
      </trkpt>
      <trkpt lat="44.13138" lon="5.83301">
        <ele>1063.1</ele>
      </trkpt>
      <trkpt lat="44.13133" lon="5.83263">
        <ele>1062.2</ele>
      </trkpt>
      <trkpt lat="44.13133" lon="5.83243">
        <ele>1062.5</ele>
      </trkpt>
      <trkpt lat="44.13126" lon="5.8323">
        <ele>1060</ele>
      </trkpt>
      <trkpt lat="44.13116" lon="5.83234">
        <ele>1056.3</ele>
      </trkpt>
      <trkpt lat="44.13114" lon="5.83267">
        <ele>1055</ele>
      </trkpt>
      <trkpt lat="44.13105" lon="5.83302">
        <ele>1050.8</ele>
      </trkpt>
      <trkpt lat="44.13099" lon="5.83346">
        <ele>1047.8</ele>
      </trkpt>
      <trkpt lat="44.13099" lon="5.83371">
        <ele>1047.7</ele>
      </trkpt>
      <trkpt lat="44.13089" lon="5.83377">
        <ele>1043.7</ele>
      </trkpt>
      <trkpt lat="44.1308" lon="5.83322">
        <ele>1042.6</ele>
      </trkpt>
      <trkpt lat="44.13058" lon="5.83271">
        <ele>1045.5</ele>
      </trkpt>
      <trkpt lat="44.13022" lon="5.8314">
        <ele>1051.9</ele>
      </trkpt>
      <trkpt lat="44.13005" lon="5.83103">
        <ele>1053.5</ele>
      </trkpt>
      <trkpt lat="44.13" lon="5.83064">
        <ele>1054.9</ele>
      </trkpt>
      <trkpt lat="44.12991" lon="5.83019">
        <ele>1058.5</ele>
      </trkpt>
      <trkpt lat="44.12997" lon="5.82942">
        <ele>1063.2</ele>
      </trkpt>
      <trkpt lat="44.13024" lon="5.82865">
        <ele>1068.4</ele>
      </trkpt>
      <trkpt lat="44.1302" lon="5.82849">
        <ele>1071.7</ele>
      </trkpt>
      <trkpt lat="44.13025" lon="5.82824">
        <ele>1073.5</ele>
      </trkpt>
      <trkpt lat="44.13021" lon="5.82789">
        <ele>1078.5</ele>
      </trkpt>
      <trkpt lat="44.13034" lon="5.82751">
        <ele>1078.1</ele>
      </trkpt>
      <trkpt lat="44.1303" lon="5.82736">
        <ele>1079.7</ele>
      </trkpt>
      <trkpt lat="44.13036" lon="5.82701">
        <ele>1078.2</ele>
      </trkpt>
      <trkpt lat="44.13047" lon="5.82659">
        <ele>1076.3</ele>
      </trkpt>
      <trkpt lat="44.13063" lon="5.82683">
        <ele>1069.9</ele>
      </trkpt>
      <trkpt lat="44.13072" lon="5.82683">
        <ele>1067</ele>
      </trkpt>
      <trkpt lat="44.13093" lon="5.82665">
        <ele>1065.3</ele>
      </trkpt>
      <trkpt lat="44.13127" lon="5.82642">
        <ele>1071</ele>
      </trkpt>
      <trkpt lat="44.13159" lon="5.8263">
        <ele>1073.5</ele>
      </trkpt>
      <trkpt lat="44.13197" lon="5.82653">
        <ele>1084.9</ele>
      </trkpt>
      <trkpt lat="44.13211" lon="5.8265">
        <ele>1090.2</ele>
      </trkpt>
      <trkpt lat="44.13243" lon="5.82664">
        <ele>1102.3</ele>
      </trkpt>
      <trkpt lat="44.13265" lon="5.82669">
        <ele>1108.7</ele>
      </trkpt>
      <trkpt lat="44.13274" lon="5.82661">
        <ele>1110.5</ele>
      </trkpt>
      <trkpt lat="44.13278" lon="5.82621">
        <ele>1111.6</ele>
      </trkpt>
      <trkpt lat="44.13284" lon="5.82586">
        <ele>1113.1</ele>
      </trkpt>
      <trkpt lat="44.13297" lon="5.82558">
        <ele>1117.3</ele>
      </trkpt>
      <trkpt lat="44.13304" lon="5.82532">
        <ele>1120.2</ele>
      </trkpt>
      <trkpt lat="44.13311" lon="5.8251">
        <ele>1123.1</ele>
        <extensions>
          <visugpx:TrkExtension xmlns:visugpx="https://www.visugpx.com/editgpx/">
            <visugpx:node>10</visugpx:node>
            </visugpx:TrkExtension>
        </extensions>
      </trkpt>
      <trkpt lat="44.13313" lon="5.82504">
        <ele>1124</ele>
        <extensions>
          <visugpx:TrkExtension xmlns:visugpx="https://www.visugpx.com/editgpx/">
            <visugpx:node>7</visugpx:node>
            </visugpx:TrkExtension>
        </extensions>
      </trkpt>
      <trkpt lat="44.13327" lon="5.82476">
        <ele>1126.1</ele>
      </trkpt>
      <trkpt lat="44.13365" lon="5.82352">
        <ele>1124.3</ele>
      </trkpt>
      <trkpt lat="44.1338" lon="5.82276">
        <ele>1121</ele>
      </trkpt>
      <trkpt lat="44.1339" lon="5.82251">
        <ele>1121.8</ele>
      </trkpt>
      <trkpt lat="44.13433" lon="5.82185">
        <ele>1126.9</ele>
      </trkpt>
      <trkpt lat="44.13462" lon="5.82085">
        <ele>1129.4</ele>
      </trkpt>
      <trkpt lat="44.1347" lon="5.81995">
        <ele>1128.7</ele>
      </trkpt>
      <trkpt lat="44.13463" lon="5.81892">
        <ele>1123.9</ele>
      </trkpt>
      <trkpt lat="44.13456" lon="5.81795">
        <ele>1120.8</ele>
      </trkpt>
      <trkpt lat="44.13437" lon="5.81741">
        <ele>1116.2</ele>
      </trkpt>
      <trkpt lat="44.13419" lon="5.81665">
        <ele>1115.6</ele>
      </trkpt>
      <trkpt lat="44.13386" lon="5.81573">
        <ele>1120.2</ele>
      </trkpt>
      <trkpt lat="44.13336" lon="5.81466">
        <ele>1141.1</ele>
      </trkpt>
      <trkpt lat="44.13409" lon="5.81376">
        <ele>1137.3</ele>
      </trkpt>
      <trkpt lat="44.13489" lon="5.81155">
        <ele>1132</ele>
      </trkpt>
      <trkpt lat="44.13522" lon="5.81074">
        <ele>1127.7</ele>
      </trkpt>
      <trkpt lat="44.13572" lon="5.80985">
        <ele>1115.8</ele>
      </trkpt>
      <trkpt lat="44.13568" lon="5.8095">
        <ele>1115.8</ele>
      </trkpt>
      <trkpt lat="44.13538" lon="5.80894">
        <ele>1118.5</ele>
      </trkpt>
      <trkpt lat="44.13484" lon="5.80786">
        <ele>1101.6</ele>
      </trkpt>
      <trkpt lat="44.1349" lon="5.80752">
        <ele>1133.1</ele>
      </trkpt>
      <trkpt lat="44.13513" lon="5.80745">
        <ele>1126.7</ele>
      </trkpt>
      <trkpt lat="44.13553" lon="5.80679">
        <ele>1122.6</ele>
      </trkpt>
      <trkpt lat="44.13399" lon="5.8096">
        <ele>1129.2</ele>
      </trkpt>
      <trkpt lat="44.13558" lon="5.80528">
        <ele>1125.3</ele>
      </trkpt>
      <trkpt lat="44.13575" lon="5.80389">
        <ele>1126</ele>
      </trkpt>
      <trkpt lat="44.13573" lon="5.80242">
        <ele>1120.5</ele>
      </trkpt>
      <trkpt lat="44.1359" lon="5.80195">
        <ele>1090.2</ele>
      </trkpt>
      <trkpt lat="44.13595" lon="5.80139">
        <ele>1115</ele>
      </trkpt>
      <trkpt lat="44.13578" lon="5.80074">
        <ele>1116.7</ele>
      </trkpt>
      <trkpt lat="44.13549" lon="5.80002">
        <ele>1118.9</ele>
      </trkpt>
      <trkpt lat="44.13562" lon="5.7999">
        <ele>1116.9</ele>
      </trkpt>
      <trkpt lat="44.13606" lon="5.79998">
        <ele>1103.6</ele>
      </trkpt>
      <trkpt lat="44.13632" lon="5.79997">
        <ele>1098.2</ele>
      </trkpt>
      <trkpt lat="44.1363" lon="5.79929">
        <ele>1114.5</ele>
      </trkpt>
      <trkpt lat="44.13638" lon="5.79853">
        <ele>1127.3</ele>
      </trkpt>
      <trkpt lat="44.13662" lon="5.79787">
        <ele>1126.2</ele>
      </trkpt>
      <trkpt lat="44.13683" lon="5.79657">
        <ele>1126.2</ele>
      </trkpt>
      <trkpt lat="44.13691" lon="5.79619">
        <ele>1120.6</ele>
      </trkpt>
      <trkpt lat="44.13678" lon="5.79574">
        <ele>1084.7</ele>
      </trkpt>
      <trkpt lat="44.13583" lon="5.79527">
        <ele>1151.1</ele>
      </trkpt>
      <trkpt lat="44.13561" lon="5.79513">
        <ele>1160.3</ele>
      </trkpt>
      <trkpt lat="44.13577" lon="5.79441">
        <ele>1143.9</ele>
      </trkpt>
      <trkpt lat="44.13583" lon="5.79352">
        <ele>1123.4</ele>
      </trkpt>
      <trkpt lat="44.13594" lon="5.79326">
        <ele>1114.9</ele>
      </trkpt>
      <trkpt lat="44.1361" lon="5.79294">
        <ele>1105.6</ele>
      </trkpt>
      <trkpt lat="44.13683" lon="5.79134">
        <ele>1082.6</ele>
      </trkpt>
      <trkpt lat="44.13698" lon="5.7908">
        <ele>1081.7</ele>
      </trkpt>
      <trkpt lat="44.13692" lon="5.79022">
        <ele>1075.8</ele>
      </trkpt>
      <trkpt lat="44.13695" lon="5.78951">
        <ele>1071.8</ele>
      </trkpt>
      <trkpt lat="44.13692" lon="5.78891">
        <ele>1066.8</ele>
      </trkpt>
      <trkpt lat="44.13695" lon="5.78686">
        <ele>1069</ele>
      </trkpt>
      <trkpt lat="44.13697" lon="5.78609">
        <ele>1062.6</ele>
      </trkpt>
      <trkpt lat="44.137" lon="5.78594">
        <ele>1061.5</ele>
      </trkpt>
      <trkpt lat="44.13744" lon="5.78462">
        <ele>1058.6</ele>
      </trkpt>
      <trkpt lat="44.13746" lon="5.78448">
        <ele>1057.5</ele>
      </trkpt>
      <trkpt lat="44.13739" lon="5.78438">
        <ele>1053.4</ele>
      </trkpt>
      <trkpt lat="44.13709" lon="5.78446">
        <ele>1074.3</ele>
      </trkpt>
      <trkpt lat="44.13689" lon="5.78421">
        <ele>1030.7</ele>
      </trkpt>
      <trkpt lat="44.13683" lon="5.78408">
        <ele>1027</ele>
      </trkpt>
      <trkpt lat="44.13669" lon="5.78326">
        <ele>1015.4</ele>
      </trkpt>
      <trkpt lat="44.13665" lon="5.7832">
        <ele>1013.4</ele>
      </trkpt>
      <trkpt lat="44.13656" lon="5.78325">
        <ele>1010.4</ele>
      </trkpt>
      <trkpt lat="44.13651" lon="5.78337">
        <ele>1009.4</ele>
      </trkpt>
      <trkpt lat="44.13643" lon="5.78348">
        <ele>1007.3</ele>
      </trkpt>
      <trkpt lat="44.13599" lon="5.78456">
        <ele>1001.2</ele>
      </trkpt>
      <trkpt lat="44.13592" lon="5.78467">
        <ele>999.7</ele>
      </trkpt>
      <trkpt lat="44.13585" lon="5.78487">
        <ele>999.2</ele>
      </trkpt>
      <trkpt lat="44.13568" lon="5.78478">
        <ele>994.2</ele>
      </trkpt>
      <trkpt lat="44.13563" lon="5.78465">
        <ele>991.7</ele>
      </trkpt>
      <trkpt lat="44.13565" lon="5.78443">
        <ele>989.8</ele>
      </trkpt>
      <trkpt lat="44.1355" lon="5.78409">
        <ele>983.2</ele>
      </trkpt>
      <trkpt lat="44.13541" lon="5.78379">
        <ele>979.2</ele>
      </trkpt>
      <trkpt lat="44.13535" lon="5.78368">
        <ele>977.1</ele>
      </trkpt>
      <trkpt lat="44.13524" lon="5.78367">
        <ele>974.9</ele>
      </trkpt>
      <trkpt lat="44.13503" lon="5.78388">
        <ele>971.9</ele>
      </trkpt>
      <trkpt lat="44.13474" lon="5.78381">
        <ele>978.5</ele>
      </trkpt>
      <trkpt lat="44.1346" lon="5.78371">
        <ele>981.6</ele>
      </trkpt>
      <trkpt lat="44.13452" lon="5.7838">
        <ele>984.9</ele>
      </trkpt>
      <trkpt lat="44.13449" lon="5.78386">
        <ele>986.5</ele>
      </trkpt>
      <trkpt lat="44.13437" lon="5.78423">
        <ele>994.1</ele>
      </trkpt>
      <trkpt lat="44.13433" lon="5.78427">
        <ele>995.4</ele>
      </trkpt>
      <trkpt lat="44.13412" lon="5.78426">
        <ele>1001.8</ele>
      </trkpt>
      <trkpt lat="44.13401" lon="5.78418">
        <ele>1004.5</ele>
      </trkpt>
      <trkpt lat="44.13388" lon="5.78393">
        <ele>1003.3</ele>
      </trkpt>
      <trkpt lat="44.13378" lon="5.7835">
        <ele>997.2</ele>
      </trkpt>
      <trkpt lat="44.13367" lon="5.78293">
        <ele>985.6</ele>
      </trkpt>
      <trkpt lat="44.13363" lon="5.78288">
        <ele>984.8</ele>
      </trkpt>
      <trkpt lat="44.13333" lon="5.78263">
        <ele>981.7</ele>
      </trkpt>
      <trkpt lat="44.13318" lon="5.78241">
        <ele>981.6</ele>
      </trkpt>
      <trkpt lat="44.13295" lon="5.78221">
        <ele>987.2</ele>
      </trkpt>
      <trkpt lat="44.1329" lon="5.78209">
        <ele>988.1</ele>
      </trkpt>
      <trkpt lat="44.13292" lon="5.78191">
        <ele>986.3</ele>
      </trkpt>
      <trkpt lat="44.13304" lon="5.78167">
        <ele>980.3</ele>
      </trkpt>
      <trkpt lat="44.13304" lon="5.78147">
        <ele>980.7</ele>
      </trkpt>
      <trkpt lat="44.13286" lon="5.78102">
        <ele>989.4</ele>
      </trkpt>
      <trkpt lat="44.13284" lon="5.78094">
        <ele>990.5</ele>
      </trkpt>
      <trkpt lat="44.13284" lon="5.7804">
        <ele>988</ele>
      </trkpt>
      <trkpt lat="44.13291" lon="5.78023">
        <ele>984.1</ele>
      </trkpt>
      <trkpt lat="44.13303" lon="5.78007">
        <ele>978.6</ele>
      </trkpt>
      <trkpt lat="44.13304" lon="5.77985">
        <ele>975.2</ele>
      </trkpt>
      <trkpt lat="44.13281" lon="5.77958">
        <ele>978.9</ele>
      </trkpt>
      <trkpt lat="44.13276" lon="5.77953">
        <ele>979.9</ele>
      </trkpt>
      <trkpt lat="44.13268" lon="5.77933">
        <ele>979.2</ele>
      </trkpt>
      <trkpt lat="44.13268" lon="5.77925">
        <ele>977.8</ele>
      </trkpt>
      <trkpt lat="44.13289" lon="5.779">
        <ele>969.1</ele>
      </trkpt>
      <trkpt lat="44.13291" lon="5.77885">
        <ele>968.9</ele>
      </trkpt>
      <trkpt lat="44.1329" lon="5.77814">
        <ele>972.4</ele>
      </trkpt>
      <trkpt lat="44.13313" lon="5.77763">
        <ele>966.1</ele>
      </trkpt>
      <trkpt lat="44.13333" lon="5.77726">
        <ele>958.6</ele>
      </trkpt>
      <trkpt lat="44.13355" lon="5.77676">
        <ele>950.3</ele>
      </trkpt>
      <trkpt lat="44.13371" lon="5.77656">
        <ele>948</ele>
      </trkpt>
      <trkpt lat="44.13432" lon="5.77606">
        <ele>943.1</ele>
      </trkpt>
      <trkpt lat="44.13461" lon="5.77587">
        <ele>939.2</ele>
      </trkpt>
      <trkpt lat="44.13472" lon="5.77584">
        <ele>936.6</ele>
      </trkpt>
      <trkpt lat="44.13494" lon="5.77585">
        <ele>929.4</ele>
      </trkpt>
      <trkpt lat="44.13505" lon="5.77596">
        <ele>923.7</ele>
      </trkpt>
      <trkpt lat="44.13525" lon="5.77605">
        <ele>916.9</ele>
      </trkpt>
      <trkpt lat="44.13535" lon="5.77623">
        <ele>910.2</ele>
      </trkpt>
      <trkpt lat="44.13539" lon="5.77627">
        <ele>908.3</ele>
      </trkpt>
      <trkpt lat="44.13567" lon="5.77613">
        <ele>879.7</ele>
      </trkpt>
      <trkpt lat="44.1358" lon="5.77593">
        <ele>907.4</ele>
      </trkpt>
      <trkpt lat="44.13585" lon="5.77588">
        <ele>907.3</ele>
      </trkpt>
      <trkpt lat="44.13602" lon="5.77569">
        <ele>903.4</ele>
      </trkpt>
      <trkpt lat="44.13603" lon="5.77555">
        <ele>904.2</ele>
      </trkpt>
      <trkpt lat="44.13596" lon="5.77544">
        <ele>908</ele>
      </trkpt>
      <trkpt lat="44.13572" lon="5.77518">
        <ele>919.6</ele>
      </trkpt>
      <trkpt lat="44.13568" lon="5.77513">
        <ele>921.5</ele>
      </trkpt>
      <trkpt lat="44.13557" lon="5.77466">
        <ele>922.5</ele>
      </trkpt>
      <trkpt lat="44.13554" lon="5.77459">
        <ele>922.6</ele>
      </trkpt>
      <trkpt lat="44.13565" lon="5.77395">
        <ele>915.4</ele>
      </trkpt>
      <trkpt lat="44.13585" lon="5.77394">
        <ele>908.6</ele>
      </trkpt>
      <trkpt lat="44.13622" lon="5.77429">
        <ele>899.2</ele>
      </trkpt>
      <trkpt lat="44.13655" lon="5.77433">
        <ele>890.7</ele>
      </trkpt>
      <trkpt lat="44.13669" lon="5.7743">
        <ele>888.9</ele>
      </trkpt>
      <trkpt lat="44.13672" lon="5.77413">
        <ele>892.5</ele>
      </trkpt>
      <trkpt lat="44.13688" lon="5.77331">
        <ele>911.8</ele>
      </trkpt>
      <trkpt lat="44.13718" lon="5.77217">
        <ele>928.3</ele>
      </trkpt>
      <trkpt lat="44.13764" lon="5.77164">
        <ele>942.8</ele>
      </trkpt>
      <trkpt lat="44.13775" lon="5.77141">
        <ele>946.8</ele>
      </trkpt>
      <trkpt lat="44.13808" lon="5.77051">
        <ele>960.8</ele>
      </trkpt>
      <trkpt lat="44.13831" lon="5.76988">
        <ele>975.1</ele>
      </trkpt>
      <trkpt lat="44.13826" lon="5.76951">
        <ele>979.4</ele>
      </trkpt>
      <trkpt lat="44.13814" lon="5.76907">
        <ele>983</ele>
      </trkpt>
      <trkpt lat="44.13845" lon="5.7684">
        <ele>1009</ele>
      </trkpt>
      <trkpt lat="44.13856" lon="5.76831">
        <ele>1013.4</ele>
      </trkpt>
      <trkpt lat="44.13849" lon="5.76803">
        <ele>1018.8</ele>
      </trkpt>
      <trkpt lat="44.13849" lon="5.76744">
        <ele>1032.5</ele>
      </trkpt>
      <trkpt lat="44.13846" lon="5.76693">
        <ele>1040.1</ele>
      </trkpt>
      <trkpt lat="44.13833" lon="5.76607">
        <ele>1047</ele>
      </trkpt>
      <trkpt lat="44.1383" lon="5.76586">
        <ele>1047.2</ele>
      </trkpt>
      <trkpt lat="44.13851" lon="5.76542">
        <ele>1039.9</ele>
      </trkpt>
      <trkpt lat="44.13883" lon="5.76449">
        <ele>1038.1</ele>
      </trkpt>
      <trkpt lat="44.13899" lon="5.76326">
        <ele>1050.9</ele>
      </trkpt>
      <trkpt lat="44.13909" lon="5.7627">
        <ele>1053.8</ele>
      </trkpt>
      <trkpt lat="44.13908" lon="5.76211">
        <ele>1056.3</ele>
      </trkpt>
      <trkpt lat="44.13947" lon="5.7611">
        <ele>1047.6</ele>
      </trkpt>
      <trkpt lat="44.13965" lon="5.7607">
        <ele>1047.9</ele>
      </trkpt>
      <trkpt lat="44.13996" lon="5.76022">
        <ele>1050.4</ele>
      </trkpt>
      <trkpt lat="44.14017" lon="5.75987">
        <ele>1053.7</ele>
      </trkpt>
      <trkpt lat="44.14096" lon="5.75816">
        <ele>1064.5</ele>
      </trkpt>
      <trkpt lat="44.14102" lon="5.75778">
        <ele>1069.3</ele>
      </trkpt>
      <trkpt lat="44.14151" lon="5.75672">
        <ele>1066.9</ele>
      </trkpt>
      <trkpt lat="44.14182" lon="5.75579">
        <ele>1068</ele>
      </trkpt>
      <trkpt lat="44.14199" lon="5.75525">
        <ele>1069.3</ele>
      </trkpt>
      <trkpt lat="44.14173" lon="5.75515">
        <ele>1074.6</ele>
      </trkpt>
      <trkpt lat="44.1416" lon="5.75499">
        <ele>1078.9</ele>
      </trkpt>
      <trkpt lat="44.14133" lon="5.75439">
        <ele>1083.9</ele>
      </trkpt>
      <trkpt lat="44.1409" lon="5.75379">
        <ele>1094.7</ele>
      </trkpt>
      <trkpt lat="44.14081" lon="5.75371">
        <ele>1097.5</ele>
      </trkpt>
      <trkpt lat="44.14079" lon="5.7535">
        <ele>1098.6</ele>
      </trkpt>
      <trkpt lat="44.14131" lon="5.75264">
        <ele>1100.7</ele>
      </trkpt>
      <trkpt lat="44.14139" lon="5.75242">
        <ele>1101.5</ele>
      </trkpt>
      <trkpt lat="44.14119" lon="5.75209">
        <ele>1109.7</ele>
      </trkpt>
      <trkpt lat="44.14065" lon="5.75149">
        <ele>1136.1</ele>
      </trkpt>
      <trkpt lat="44.14044" lon="5.75092">
        <ele>1149.4</ele>
      </trkpt>
      <trkpt lat="44.1405" lon="5.75076">
        <ele>1146.5</ele>
      </trkpt>
      <trkpt lat="44.14077" lon="5.75029">
        <ele>1134.8</ele>
      </trkpt>
      <trkpt lat="44.14063" lon="5.74964">
        <ele>1145.6</ele>
      </trkpt>
      <trkpt lat="44.13999" lon="5.74837">
        <ele>1177.4</ele>
      </trkpt>
      <trkpt lat="44.13974" lon="5.74791">
        <ele>1181.4</ele>
      </trkpt>
      <trkpt lat="44.13925" lon="5.74697">
        <ele>1182.5</ele>
      </trkpt>
      <trkpt lat="44.13902" lon="5.74679">
        <ele>1191</ele>
      </trkpt>
      <trkpt lat="44.13883" lon="5.74631">
        <ele>1195.1</ele>
      </trkpt>
      <trkpt lat="44.13867" lon="5.74604">
        <ele>1201.7</ele>
      </trkpt>
      <trkpt lat="44.13826" lon="5.74585">
        <ele>1225.7</ele>
      </trkpt>
      <trkpt lat="44.13805" lon="5.74492">
        <ele>1216.2</ele>
      </trkpt>
      <trkpt lat="44.13784" lon="5.74464">
        <ele>1216.7</ele>
      </trkpt>
      <trkpt lat="44.13739" lon="5.74433">
        <ele>1228.1</ele>
      </trkpt>
      <trkpt lat="44.13694" lon="5.7442">
        <ele>1249.3</ele>
      </trkpt>
      <trkpt lat="44.13656" lon="5.74373">
        <ele>1260.9</ele>
      </trkpt>
      <trkpt lat="44.13646" lon="5.74361">
        <ele>1262.9</ele>
      </trkpt>
      <trkpt lat="44.13636" lon="5.74291">
        <ele>1245.2</ele>
      </trkpt>
      <trkpt lat="44.13561" lon="5.74238">
        <ele>1250.8</ele>
      </trkpt>
      <trkpt lat="44.13491" lon="5.74246">
        <ele>1274.9</ele>
      </trkpt>
      <trkpt lat="44.13383" lon="5.7421">
        <ele>1308.5</ele>
      </trkpt>
      <trkpt lat="44.13235" lon="5.741">
        <ele>1336.9</ele>
      </trkpt>
      <trkpt lat="44.13169" lon="5.74072">
        <ele>1355.6</ele>
      </trkpt>
      <trkpt lat="44.12991" lon="5.73933">
        <ele>1370.2</ele>
      </trkpt>
      <trkpt lat="44.12964" lon="5.73919">
        <ele>1369.8</ele>
      </trkpt>
      <trkpt lat="44.12945" lon="5.73873">
        <ele>1378.7</ele>
      </trkpt>
      <trkpt lat="44.12928" lon="5.73941">
        <ele>1368</ele>
      </trkpt>
      <trkpt lat="44.12912" lon="5.73941">
        <ele>1367.4</ele>
      </trkpt>
      <trkpt lat="44.12896" lon="5.73884">
        <ele>1380</ele>
      </trkpt>
      <trkpt lat="44.12871" lon="5.73856">
        <ele>1388.6</ele>
      </trkpt>
      <trkpt lat="44.12831" lon="5.73792">
        <ele>1409.3</ele>
      </trkpt>
      <trkpt lat="44.12813" lon="5.73722">
        <ele>1433.3</ele>
      </trkpt>
      <trkpt lat="44.12773" lon="5.73656">
        <ele>1459.6</ele>
      </trkpt>
      <trkpt lat="44.12772" lon="5.7364">
        <ele>1464</ele>
      </trkpt>
      <trkpt lat="44.12787" lon="5.73563">
        <ele>1482.2</ele>
      </trkpt>
      <trkpt lat="44.12778" lon="5.73512">
        <ele>1498</ele>
      </trkpt>
      <trkpt lat="44.12753" lon="5.73409">
        <ele>1526.9</ele>
      </trkpt>
      <trkpt lat="44.12721" lon="5.73306">
        <ele>1555.1</ele>
      </trkpt>
      <trkpt lat="44.1265" lon="5.73136">
        <ele>1590.6</ele>
      </trkpt>
      <trkpt lat="44.12639" lon="5.73099">
        <ele>1592.8</ele>
      </trkpt>
      <trkpt lat="44.12634" lon="5.73057">
        <ele>1593.6</ele>
      </trkpt>
      <trkpt lat="44.12608" lon="5.72976">
        <ele>1596.6</ele>
      </trkpt>
      <trkpt lat="44.12555" lon="5.72858">
        <ele>1596</ele>
      </trkpt>
      <trkpt lat="44.12439" lon="5.72743">
        <ele>1590.5</ele>
      </trkpt>
      <trkpt lat="44.1241" lon="5.72731">
        <ele>1588.9</ele>
      </trkpt>
      <trkpt lat="44.12514" lon="5.72779">
        <ele>1594.9</ele>
      </trkpt>
      <trkpt lat="44.12593" lon="5.72832">
        <ele>1595</ele>
      </trkpt>
      <trkpt lat="44.12753" lon="5.72894">
        <ele>1598.4</ele>
      </trkpt>
      <trkpt lat="44.12835" lon="5.72882">
        <ele>1609.4</ele>
      </trkpt>
      <trkpt lat="44.12907" lon="5.72882">
        <ele>1611.6</ele>
      </trkpt>
      <trkpt lat="44.12962" lon="5.72856">
        <ele>1609.8</ele>
      </trkpt>
      <trkpt lat="44.13107" lon="5.72767">
        <ele>1592.1</ele>
      </trkpt>
      <trkpt lat="44.13125" lon="5.72747">
        <ele>1591.6</ele>
      </trkpt>
      <trkpt lat="44.13176" lon="5.72686">
        <ele>1590.6</ele>
      </trkpt>
      <trkpt lat="44.13189" lon="5.72658">
        <ele>1591.3</ele>
      </trkpt>
      <trkpt lat="44.132" lon="5.72603">
        <ele>1593</ele>
      </trkpt>
      <trkpt lat="44.13237" lon="5.72506">
        <ele>1607</ele>
      </trkpt>
      <trkpt lat="44.13253" lon="5.72487">
        <ele>1611.3</ele>
      </trkpt>
      <trkpt lat="44.13283" lon="5.72436">
        <ele>1612.8</ele>
      </trkpt>
      <trkpt lat="44.13306" lon="5.72388">
        <ele>1609.2</ele>
      </trkpt>
      <trkpt lat="44.13363" lon="5.72314">
        <ele>1595.6</ele>
      </trkpt>
      <trkpt lat="44.13383" lon="5.72302">
        <ele>1592.1</ele>
      </trkpt>
      <trkpt lat="44.13421" lon="5.72258">
        <ele>1582.2</ele>
      </trkpt>
      <trkpt lat="44.13442" lon="5.72236">
        <ele>1577.9</ele>
      </trkpt>
      <trkpt lat="44.13509" lon="5.72167">
        <ele>1560.7</ele>
      </trkpt>
      <trkpt lat="44.13532" lon="5.72141">
        <ele>1551.7</ele>
      </trkpt>
      <trkpt lat="44.13576" lon="5.72108">
        <ele>1539.9</ele>
      </trkpt>
      <trkpt lat="44.13593" lon="5.72081">
        <ele>1530</ele>
      </trkpt>
      <trkpt lat="44.13634" lon="5.72052">
        <ele>1516.2</ele>
      </trkpt>
      <trkpt lat="44.13638" lon="5.72034">
        <ele>1510.4</ele>
      </trkpt>
      <trkpt lat="44.13658" lon="5.72012">
        <ele>1503.3</ele>
      </trkpt>
      <trkpt lat="44.13717" lon="5.71946">
        <ele>1483.4</ele>
      </trkpt>
      <trkpt lat="44.13742" lon="5.71912">
        <ele>1479.6</ele>
      </trkpt>
      <trkpt lat="44.13772" lon="5.71848">
        <ele>1485.1</ele>
      </trkpt>
      <trkpt lat="44.13775" lon="5.71818">
        <ele>1489.1</ele>
      </trkpt>
      <trkpt lat="44.13746" lon="5.7175">
        <ele>1496.2</ele>
      </trkpt>
      <trkpt lat="44.13743" lon="5.71732">
        <ele>1499.5</ele>
      </trkpt>
      <trkpt lat="44.13726" lon="5.71674">
        <ele>1508.5</ele>
      </trkpt>
      <trkpt lat="44.13716" lon="5.71664">
        <ele>1508.5</ele>
      </trkpt>
      <trkpt lat="44.13702" lon="5.71626">
        <ele>1512.1</ele>
      </trkpt>
      <trkpt lat="44.13696" lon="5.7161">
        <ele>1513.9</ele>
      </trkpt>
      <trkpt lat="44.13668" lon="5.71561">
        <ele>1518.1</ele>
      </trkpt>
      <trkpt lat="44.13655" lon="5.71556">
        <ele>1515.6</ele>
      </trkpt>
      <trkpt lat="44.13645" lon="5.71494">
        <ele>1521.9</ele>
      </trkpt>
      <trkpt lat="44.13646" lon="5.7144">
        <ele>1527.3</ele>
      </trkpt>
      <trkpt lat="44.13626" lon="5.71393">
        <ele>1526</ele>
      </trkpt>
      <trkpt lat="44.13612" lon="5.71361">
        <ele>1524.4</ele>
      </trkpt>
      <trkpt lat="44.136" lon="5.71356">
        <ele>1523.4</ele>
      </trkpt>
      <trkpt lat="44.13579" lon="5.71338">
        <ele>1521.9</ele>
      </trkpt>
      <trkpt lat="44.13569" lon="5.7133">
        <ele>1519.8</ele>
      </trkpt>
      <trkpt lat="44.13578" lon="5.71291">
        <ele>1518.6</ele>
      </trkpt>
      <trkpt lat="44.13578" lon="5.71279">
        <ele>1517.6</ele>
      </trkpt>
      <trkpt lat="44.13575" lon="5.71238">
        <ele>1512.5</ele>
      </trkpt>
      <trkpt lat="44.13569" lon="5.71186">
        <ele>1501.7</ele>
      </trkpt>
      <trkpt lat="44.13552" lon="5.71153">
        <ele>1492.7</ele>
      </trkpt>
      <trkpt lat="44.13555" lon="5.71134">
        <ele>1487.3</ele>
      </trkpt>
      <trkpt lat="44.13548" lon="5.71096">
        <ele>1475.4</ele>
      </trkpt>
      <trkpt lat="44.13543" lon="5.71075">
        <ele>1468.1</ele>
      </trkpt>
      <trkpt lat="44.13565" lon="5.71051">
        <ele>1460.9</ele>
      </trkpt>
      <trkpt lat="44.13562" lon="5.7101">
        <ele>1445</ele>
      </trkpt>
      <trkpt lat="44.13584" lon="5.71005">
        <ele>1443.9</ele>
      </trkpt>
      <trkpt lat="44.13608" lon="5.70989">
        <ele>1436.7</ele>
      </trkpt>
      <trkpt lat="44.13618" lon="5.70965">
        <ele>1427.4</ele>
      </trkpt>
      <trkpt lat="44.13624" lon="5.70935">
        <ele>1416.2</ele>
      </trkpt>
      <trkpt lat="44.13621" lon="5.70918">
        <ele>1410</ele>
      </trkpt>
      <trkpt lat="44.13604" lon="5.70866">
        <ele>1389.8</ele>
      </trkpt>
      <trkpt lat="44.13607" lon="5.7083">
        <ele>1375.7</ele>
      </trkpt>
      <trkpt lat="44.1361" lon="5.7079">
        <ele>1359.5</ele>
      </trkpt>
      <trkpt lat="44.1361" lon="5.70775">
        <ele>1353.4</ele>
      </trkpt>
      <trkpt lat="44.13611" lon="5.70744">
        <ele>1341.1</ele>
      </trkpt>
      <trkpt lat="44.13614" lon="5.70723">
        <ele>1333.2</ele>
      </trkpt>
      <trkpt lat="44.13606" lon="5.70697">
        <ele>1322.9</ele>
      </trkpt>
      <trkpt lat="44.13633" lon="5.7066">
        <ele>1311.8</ele>
      </trkpt>
      <trkpt lat="44.13664" lon="5.70622">
        <ele>1304.3</ele>
      </trkpt>
      <trkpt lat="44.13699" lon="5.70589">
        <ele>1296.6</ele>
      </trkpt>
      <trkpt lat="44.13707" lon="5.70556">
        <ele>1294.8</ele>
      </trkpt>
      <trkpt lat="44.13707" lon="5.70545">
        <ele>1294.5</ele>
        <time>2021-09-01T11:03:46Z</time>
      </trkpt>
      <trkpt lat="44.13678" lon="5.70556">
        <ele>1293.8</ele>
        <time>2021-09-01T10:59:34Z</time>
      </trkpt>
      <trkpt lat="44.13667" lon="5.70554">
        <ele>1293.3</ele>
        <time>2021-09-01T10:59:30Z</time>
      </trkpt>
      <trkpt lat="44.13659" lon="5.7055">
        <ele>1292.1</ele>
        <time>2021-09-01T10:59:27Z</time>
      </trkpt>
      <trkpt lat="44.13646" lon="5.70545">
        <ele>1290.2</ele>
        <time>2021-09-01T10:59:22Z</time>
      </trkpt>
      <trkpt lat="44.13623" lon="5.70543">
        <ele>1287</ele>
        <time>2021-09-01T10:59:13Z</time>
      </trkpt>
      <trkpt lat="44.13609" lon="5.70542">
        <ele>1285</ele>
        <time>2021-09-01T10:59:07Z</time>
      </trkpt>
      <trkpt lat="44.13582" lon="5.70544">
        <ele>1281.3</ele>
        <time>2021-09-01T10:58:57Z</time>
      </trkpt>
      <trkpt lat="44.1357" lon="5.70548">
        <ele>1279.3</ele>
        <time>2021-09-01T10:58:52Z</time>
      </trkpt>
      <trkpt lat="44.1356" lon="5.70552">
        <ele>1277.8</ele>
        <time>2021-09-01T10:58:47Z</time>
      </trkpt>
      <trkpt lat="44.13549" lon="5.70557">
        <ele>1276.2</ele>
        <time>2021-09-01T10:58:41Z</time>
      </trkpt>
      <trkpt lat="44.13542" lon="5.70558">
        <ele>1275.2</ele>
        <time>2021-09-01T10:58:37Z</time>
      </trkpt>
      <trkpt lat="44.13535" lon="5.70558">
        <ele>1274.1</ele>
        <time>2021-09-01T10:58:32Z</time>
      </trkpt>
      <trkpt lat="44.13527" lon="5.70555">
        <ele>1272.6</ele>
        <time>2021-09-01T10:58:27Z</time>
      </trkpt>
      <trkpt lat="44.13522" lon="5.70548">
        <ele>1271.3</ele>
        <time>2021-09-01T10:58:22Z</time>
      </trkpt>
      <trkpt lat="44.1352" lon="5.70546">
        <ele>1270.8</ele>
        <time>2021-09-01T10:58:20Z</time>
      </trkpt>
      <trkpt lat="44.13507" lon="5.70543">
        <ele>1268.3</ele>
        <time>2021-09-01T10:58:14Z</time>
      </trkpt>
      <trkpt lat="44.13496" lon="5.70541">
        <ele>1266.4</ele>
        <time>2021-09-01T10:58:10Z</time>
      </trkpt>
      <trkpt lat="44.13477" lon="5.70535">
        <ele>1263.2</ele>
        <time>2021-09-01T10:58:01Z</time>
      </trkpt>
      <trkpt lat="44.13474" lon="5.70533">
        <ele>1262.5</ele>
        <time>2021-09-01T10:57:59Z</time>
      </trkpt>
      <trkpt lat="44.13465" lon="5.70535">
        <ele>1261.5</ele>
        <time>2021-09-01T10:57:56Z</time>
      </trkpt>
      <trkpt lat="44.13459" lon="5.70534">
        <ele>1260.6</ele>
        <time>2021-09-01T10:57:54Z</time>
      </trkpt>
      <trkpt lat="44.13443" lon="5.7053">
        <ele>1257.8</ele>
        <time>2021-09-01T10:57:49Z</time>
      </trkpt>
      <trkpt lat="44.13421" lon="5.70528">
        <ele>1254.3</ele>
        <time>2021-09-01T10:57:42Z</time>
      </trkpt>
      <trkpt lat="44.13409" lon="5.70525">
        <ele>1252.3</ele>
        <time>2021-09-01T10:57:37Z</time>
      </trkpt>
      <trkpt lat="44.13396" lon="5.70525">
        <ele>1250.8</ele>
        <time>2021-09-01T10:57:33Z</time>
      </trkpt>
      <trkpt lat="44.13379" lon="5.70525">
        <ele>1248.8</ele>
        <time>2021-09-01T10:57:26Z</time>
      </trkpt>
      <trkpt lat="44.13374" lon="5.70524">
        <ele>1248</ele>
        <time>2021-09-01T10:57:24Z</time>
      </trkpt>
      <trkpt lat="44.13366" lon="5.70523">
        <ele>1246.8</ele>
        <time>2021-09-01T10:57:20Z</time>
      </trkpt>
      <trkpt lat="44.13343" lon="5.70519">
        <ele>1242.9</ele>
        <time>2021-09-01T10:57:10Z</time>
      </trkpt>
      <trkpt lat="44.13333" lon="5.70516">
        <ele>1240.8</ele>
        <time>2021-09-01T10:57:06Z</time>
      </trkpt>
      <trkpt lat="44.13323" lon="5.70514">
        <ele>1238.7</ele>
        <time>2021-09-01T10:57:02Z</time>
      </trkpt>
      <trkpt lat="44.13321" lon="5.70514">
        <ele>1238.4</ele>
        <time>2021-09-01T10:57:01Z</time>
      </trkpt>
      <trkpt lat="44.133" lon="5.70506">
        <ele>1232.8</ele>
        <time>2021-09-01T10:56:52Z</time>
      </trkpt>
      <trkpt lat="44.13285" lon="5.70502">
        <ele>1229.1</ele>
        <time>2021-09-01T10:56:47Z</time>
      </trkpt>
      <trkpt lat="44.13267" lon="5.70498">
        <ele>1225.9</ele>
        <time>2021-09-01T10:56:41Z</time>
      </trkpt>
      <trkpt lat="44.13255" lon="5.70496">
        <ele>1224.1</ele>
        <time>2021-09-01T10:56:37Z</time>
      </trkpt>
      <trkpt lat="44.13235" lon="5.70489">
        <ele>1222.1</ele>
        <time>2021-09-01T10:56:30Z</time>
      </trkpt>
      <trkpt lat="44.13233" lon="5.70488">
        <ele>1222</ele>
        <time>2021-09-01T10:56:29Z</time>
      </trkpt>
      <trkpt lat="44.13213" lon="5.70487">
        <ele>1219.6</ele>
        <time>2021-09-01T10:56:22Z</time>
      </trkpt>
      <trkpt lat="44.13207" lon="5.70486">
        <ele>1218.9</ele>
        <time>2021-09-01T10:56:20Z</time>
      </trkpt>
      <trkpt lat="44.13187" lon="5.70489">
        <ele>1216.4</ele>
        <time>2021-09-01T10:56:12Z</time>
      </trkpt>
      <trkpt lat="44.13172" lon="5.70487">
        <ele>1214.6</ele>
        <time>2021-09-01T10:56:07Z</time>
      </trkpt>
      <trkpt lat="44.13163" lon="5.70486">
        <ele>1213.6</ele>
        <time>2021-09-01T10:56:03Z</time>
      </trkpt>
      <trkpt lat="44.13138" lon="5.70481">
        <ele>1210.4</ele>
        <time>2021-09-01T10:55:53Z</time>
      </trkpt>
      <trkpt lat="44.13126" lon="5.70478">
        <ele>1208.7</ele>
        <time>2021-09-01T10:55:48Z</time>
      </trkpt>
      <trkpt lat="44.13116" lon="5.70471">
        <ele>1207</ele>
        <time>2021-09-01T10:55:44Z</time>
      </trkpt>
      <trkpt lat="44.13111" lon="5.70467">
        <ele>1206.1</ele>
        <time>2021-09-01T10:55:42Z</time>
      </trkpt>
      <trkpt lat="44.13093" lon="5.70458">
        <ele>1202.9</ele>
        <time>2021-09-01T10:55:35Z</time>
      </trkpt>
      <trkpt lat="44.1308" lon="5.70451">
        <ele>1200.4</ele>
        <time>2021-09-01T10:55:30Z</time>
      </trkpt>
      <trkpt lat="44.13065" lon="5.70443">
        <ele>1197.2</ele>
        <time>2021-09-01T10:55:22Z</time>
      </trkpt>
      <trkpt lat="44.13063" lon="5.70442">
        <ele>1196.7</ele>
        <time>2021-09-01T10:55:21Z</time>
      </trkpt>
      <trkpt lat="44.13045" lon="5.70437">
        <ele>1193</ele>
        <time>2021-09-01T10:55:14Z</time>
      </trkpt>
      <trkpt lat="44.13043" lon="5.70437">
        <ele>1192.7</ele>
        <time>2021-09-01T10:55:13Z</time>
      </trkpt>
      <trkpt lat="44.13016" lon="5.70441">
        <ele>1188.7</ele>
        <time>2021-09-01T10:55:03Z</time>
      </trkpt>
      <trkpt lat="44.13003" lon="5.70443">
        <ele>1186.9</ele>
        <time>2021-09-01T10:54:58Z</time>
      </trkpt>
      <trkpt lat="44.12978" lon="5.70445">
        <ele>1184.5</ele>
        <time>2021-09-01T10:54:49Z</time>
      </trkpt>
      <trkpt lat="44.12966" lon="5.70446">
        <ele>1183.5</ele>
        <time>2021-09-01T10:54:45Z</time>
      </trkpt>
      <trkpt lat="44.12949" lon="5.70445">
        <ele>1181.5</ele>
        <time>2021-09-01T10:54:39Z</time>
      </trkpt>
      <trkpt lat="44.12934" lon="5.70439">
        <ele>1178.3</ele>
        <time>2021-09-01T10:54:31Z</time>
      </trkpt>
      <trkpt lat="44.1293" lon="5.70437">
        <ele>1177.3</ele>
        <time>2021-09-01T10:54:29Z</time>
      </trkpt>
      <trkpt lat="44.12919" lon="5.70435">
        <ele>1175.5</ele>
        <time>2021-09-01T10:54:24Z</time>
      </trkpt>
      <trkpt lat="44.12915" lon="5.70433">
        <ele>1174.5</ele>
        <time>2021-09-01T10:54:22Z</time>
      </trkpt>
      <trkpt lat="44.12902" lon="5.70425">
        <ele>1170.9</ele>
        <time>2021-09-01T10:54:17Z</time>
      </trkpt>
      <trkpt lat="44.1289" lon="5.70418">
        <ele>1167.5</ele>
        <time>2021-09-01T10:54:12Z</time>
      </trkpt>
      <trkpt lat="44.12867" lon="5.70415">
        <ele>1164.9</ele>
        <time>2021-09-01T10:54:04Z</time>
      </trkpt>
      <trkpt lat="44.12864" lon="5.70415">
        <ele>1164.5</ele>
        <time>2021-09-01T10:54:03Z</time>
      </trkpt>
      <trkpt lat="44.12856" lon="5.70414">
        <ele>1163.8</ele>
        <time>2021-09-01T10:54:00Z</time>
      </trkpt>
      <trkpt lat="44.12851" lon="5.70411">
        <ele>1163.5</ele>
        <time>2021-09-01T10:53:58Z</time>
      </trkpt>
      <trkpt lat="44.12842" lon="5.70409">
        <ele>1162.6</ele>
        <time>2021-09-01T10:53:54Z</time>
      </trkpt>
      <trkpt lat="44.12839" lon="5.70409">
        <ele>1162.3</ele>
        <time>2021-09-01T10:53:53Z</time>
      </trkpt>
      <trkpt lat="44.12831" lon="5.70407">
        <ele>1161.7</ele>
        <time>2021-09-01T10:53:50Z</time>
      </trkpt>
      <trkpt lat="44.12814" lon="5.70404">
        <ele>1162.1</ele>
        <time>2021-09-01T10:53:43Z</time>
      </trkpt>
      <trkpt lat="44.12798" lon="5.704">
        <ele>1162.2</ele>
        <time>2021-09-01T10:53:37Z</time>
      </trkpt>
      <trkpt lat="44.12782" lon="5.70391">
        <ele>1161.5</ele>
        <time>2021-09-01T10:53:30Z</time>
      </trkpt>
      <trkpt lat="44.12777" lon="5.7039">
        <ele>1161.3</ele>
        <time>2021-09-01T10:53:28Z</time>
      </trkpt>
      <trkpt lat="44.12764" lon="5.70388">
        <ele>1160.7</ele>
        <time>2021-09-01T10:53:23Z</time>
      </trkpt>
      <trkpt lat="44.12762" lon="5.70388">
        <ele>1160.6</ele>
        <time>2021-09-01T10:53:22Z</time>
      </trkpt>
      <trkpt lat="44.12755" lon="5.70385">
        <ele>1159.9</ele>
        <time>2021-09-01T10:53:19Z</time>
      </trkpt>
      <trkpt lat="44.12748" lon="5.70377">
        <ele>1158.2</ele>
        <time>2021-09-01T10:53:16Z</time>
      </trkpt>
      <trkpt lat="44.12729" lon="5.70362">
        <ele>1153.8</ele>
        <time>2021-09-01T10:53:08Z</time>
      </trkpt>
      <trkpt lat="44.12722" lon="5.70356">
        <ele>1152.1</ele>
        <time>2021-09-01T10:53:05Z</time>
      </trkpt>
      <trkpt lat="44.12702" lon="5.70352">
        <ele>1149.3</ele>
        <time>2021-09-01T10:52:56Z</time>
      </trkpt>
      <trkpt lat="44.12685" lon="5.70346">
        <ele>1146.5</ele>
        <time>2021-09-01T10:52:50Z</time>
      </trkpt>
      <trkpt lat="44.12656" lon="5.70336">
        <ele>1141.3</ele>
        <time>2021-09-01T10:52:39Z</time>
      </trkpt>
      <trkpt lat="44.12643" lon="5.70331">
        <ele>1139.9</ele>
        <time>2021-09-01T10:52:34Z</time>
      </trkpt>
      <trkpt lat="44.12628" lon="5.70325">
        <ele>1140.2</ele>
        <time>2021-09-01T10:52:28Z</time>
      </trkpt>
      <trkpt lat="44.12623" lon="5.70325">
        <ele>1139.7</ele>
        <time>2021-09-01T10:52:26Z</time>
      </trkpt>
      <trkpt lat="44.12606" lon="5.7032">
        <ele>1139.5</ele>
        <time>2021-09-01T10:52:20Z</time>
      </trkpt>
      <trkpt lat="44.12578" lon="5.70331">
        <ele>1132.5</ele>
        <time>2021-09-01T10:52:09Z</time>
      </trkpt>
      <trkpt lat="44.12571" lon="5.70329">
        <ele>1132.8</ele>
        <time>2021-09-01T10:52:05Z</time>
      </trkpt>
      <trkpt lat="44.1257" lon="5.70329">
        <ele>1132.8</ele>
        <time>2021-09-01T10:51:48Z</time>
      </trkpt>
      <trkpt lat="44.1256" lon="5.7033">
        <ele>1131.8</ele>
        <time>2021-09-01T10:51:43Z</time>
      </trkpt>
      <trkpt lat="44.12521" lon="5.70338">
        <ele>1129.7</ele>
        <time>2021-09-01T10:51:30Z</time>
      </trkpt>
      <trkpt lat="44.12509" lon="5.70342">
        <ele>1130.2</ele>
        <time>2021-09-01T10:51:26Z</time>
      </trkpt>
      <trkpt lat="44.1248" lon="5.70344">
        <ele>1127.3</ele>
        <time>2021-09-01T10:51:16Z</time>
      </trkpt>
      <trkpt lat="44.12467" lon="5.70345">
        <ele>1125.7</ele>
        <time>2021-09-01T10:51:11Z</time>
      </trkpt>
      <trkpt lat="44.1244" lon="5.70344">
        <ele>1121.2</ele>
        <time>2021-09-01T10:51:01Z</time>
      </trkpt>
      <trkpt lat="44.12437" lon="5.70342">
        <ele>1119.9</ele>
        <time>2021-09-01T10:51:00Z</time>
      </trkpt>
      <trkpt lat="44.12431" lon="5.70337">
        <ele>1116.9</ele>
        <time>2021-09-01T10:50:57Z</time>
      </trkpt>
      <trkpt lat="44.12413" lon="5.7033">
        <ele>1113.4</ele>
        <time>2021-09-01T10:50:51Z</time>
      </trkpt>
      <trkpt lat="44.12389" lon="5.70328">
        <ele>1110</ele>
        <time>2021-09-01T10:50:43Z</time>
      </trkpt>
      <trkpt lat="44.12373" lon="5.70318">
        <ele>1109.6</ele>
        <time>2021-09-01T10:50:38Z</time>
      </trkpt>
      <trkpt lat="44.12362" lon="5.70311">
        <ele>1109.1</ele>
        <time>2021-09-01T10:50:34Z</time>
      </trkpt>
      <trkpt lat="44.1233" lon="5.70314">
        <ele>1102.4</ele>
        <time>2021-09-01T10:50:23Z</time>
      </trkpt>
      <trkpt lat="44.12323" lon="5.70314">
        <ele>1101</ele>
        <time>2021-09-01T10:50:21Z</time>
      </trkpt>
      <trkpt lat="44.12299" lon="5.70308">
        <ele>1096.6</ele>
        <time>2021-09-01T10:50:14Z</time>
      </trkpt>
      <trkpt lat="44.12278" lon="5.70304">
        <ele>1092.2</ele>
        <time>2021-09-01T10:50:08Z</time>
      </trkpt>
      <trkpt lat="44.12247" lon="5.70314">
        <ele>1086.3</ele>
        <time>2021-09-01T10:49:59Z</time>
      </trkpt>
      <trkpt lat="44.12232" lon="5.70317">
        <ele>1085.2</ele>
        <time>2021-09-01T10:49:54Z</time>
      </trkpt>
      <trkpt lat="44.1222" lon="5.70313">
        <ele>1083.6</ele>
        <time>2021-09-01T10:49:50Z</time>
      </trkpt>
      <trkpt lat="44.12205" lon="5.70306">
        <ele>1080.9</ele>
        <time>2021-09-01T10:49:45Z</time>
      </trkpt>
      <trkpt lat="44.12171" lon="5.70307">
        <ele>1077.2</ele>
        <time>2021-09-01T10:49:35Z</time>
      </trkpt>
      <trkpt lat="44.12165" lon="5.70307">
        <ele>1076.6</ele>
        <time>2021-09-01T10:49:33Z</time>
      </trkpt>
      <trkpt lat="44.12146" lon="5.70307">
        <ele>1075.5</ele>
        <time>2021-09-01T10:49:26Z</time>
      </trkpt>
      <trkpt lat="44.12133" lon="5.70303">
        <ele>1073.6</ele>
        <time>2021-09-01T10:49:21Z</time>
      </trkpt>
      <trkpt lat="44.12101" lon="5.70287">
        <ele>1067.3</ele>
        <time>2021-09-01T10:49:10Z</time>
      </trkpt>
      <trkpt lat="44.12086" lon="5.70277">
        <ele>1063.6</ele>
        <time>2021-09-01T10:49:05Z</time>
      </trkpt>
      <trkpt lat="44.12072" lon="5.70269">
        <ele>1060.5</ele>
        <time>2021-09-01T10:49:00Z</time>
      </trkpt>
      <trkpt lat="44.12038" lon="5.70263">
        <ele>1057.1</ele>
        <time>2021-09-01T10:48:50Z</time>
      </trkpt>
      <trkpt lat="44.12017" lon="5.7027">
        <ele>1057.2</ele>
        <time>2021-09-01T10:48:44Z</time>
      </trkpt>
      <trkpt lat="44.12004" lon="5.70261">
        <ele>1054.9</ele>
        <time>2021-09-01T10:48:37Z</time>
      </trkpt>
      <trkpt lat="44.12003" lon="5.7026">
        <ele>1054.7</ele>
        <time>2021-09-01T10:48:36Z</time>
      </trkpt>
      <trkpt lat="44.12001" lon="5.70259">
        <ele>1054.5</ele>
        <time>2021-09-01T10:47:59Z</time>
      </trkpt>
      <trkpt lat="44.11959" lon="5.70265">
        <ele>1054.4</ele>
        <time>2021-09-01T10:47:44Z</time>
      </trkpt>
      <trkpt lat="44.11939" lon="5.70266">
        <ele>1054</ele>
        <time>2021-09-01T10:47:38Z</time>
      </trkpt>
      <trkpt lat="44.11912" lon="5.70273">
        <ele>1052.9</ele>
        <time>2021-09-01T10:47:31Z</time>
      </trkpt>
      <trkpt lat="44.11868" lon="5.70291">
        <ele>1049.2</ele>
        <time>2021-09-01T10:47:19Z</time>
      </trkpt>
      <trkpt lat="44.11846" lon="5.70294">
        <ele>1047.6</ele>
        <time>2021-09-01T10:47:13Z</time>
      </trkpt>
      <trkpt lat="44.11802" lon="5.7028">
        <ele>1042.4</ele>
        <time>2021-09-01T10:47:01Z</time>
      </trkpt>
      <trkpt lat="44.11784" lon="5.7027">
        <ele>1038.8</ele>
        <time>2021-09-01T10:46:56Z</time>
      </trkpt>
      <trkpt lat="44.11769" lon="5.70269">
        <ele>1037.6</ele>
        <time>2021-09-01T10:46:52Z</time>
      </trkpt>
      <trkpt lat="44.1175" lon="5.70266">
        <ele>1035.4</ele>
        <time>2021-09-01T10:46:47Z</time>
      </trkpt>
      <trkpt lat="44.11746" lon="5.70265">
        <ele>1034.9</ele>
        <time>2021-09-01T10:46:46Z</time>
      </trkpt>
      <trkpt lat="44.11726" lon="5.7026">
        <ele>1033</ele>
        <time>2021-09-01T10:46:41Z</time>
      </trkpt>
      <trkpt lat="44.11698" lon="5.70242">
        <ele>1030.3</ele>
        <time>2021-09-01T10:46:33Z</time>
      </trkpt>
      <trkpt lat="44.1167" lon="5.70203">
        <ele>1029.8</ele>
        <time>2021-09-01T10:46:22Z</time>
      </trkpt>
      <trkpt lat="44.11661" lon="5.70184">
        <ele>1030.6</ele>
        <time>2021-09-01T10:46:17Z</time>
      </trkpt>
      <trkpt lat="44.11652" lon="5.70135">
        <ele>1025.2</ele>
        <time>2021-09-01T10:46:07Z</time>
      </trkpt>
      <trkpt lat="44.1164" lon="5.70111">
        <ele>1021.2</ele>
        <time>2021-09-01T10:46:01Z</time>
      </trkpt>
      <trkpt lat="44.11617" lon="5.70073">
        <ele>1014.7</ele>
        <time>2021-09-01T10:45:51Z</time>
      </trkpt>
      <trkpt lat="44.11593" lon="5.70056">
        <ele>1012.3</ele>
        <time>2021-09-01T10:45:44Z</time>
      </trkpt>
      <trkpt lat="44.11544" lon="5.70029">
        <ele>1005.2</ele>
        <time>2021-09-01T10:45:29Z</time>
      </trkpt>
      <trkpt lat="44.11519" lon="5.70027">
        <ele>1002.7</ele>
        <time>2021-09-01T10:45:22Z</time>
      </trkpt>
      <trkpt lat="44.11481" lon="5.70023">
        <ele>1000</ele>
        <time>2021-09-01T10:45:11Z</time>
      </trkpt>
      <trkpt lat="44.11459" lon="5.70021">
        <ele>999</ele>
        <time>2021-09-01T10:45:05Z</time>
      </trkpt>
      <trkpt lat="44.11435" lon="5.70015">
        <ele>997.3</ele>
        <time>2021-09-01T10:44:58Z</time>
      </trkpt>
      <trkpt lat="44.11416" lon="5.70015">
        <ele>996.5</ele>
        <time>2021-09-01T10:44:53Z</time>
      </trkpt>
      <trkpt lat="44.1139" lon="5.70013">
        <ele>993.9</ele>
        <time>2021-09-01T10:44:46Z</time>
      </trkpt>
      <trkpt lat="44.11354" lon="5.70002">
        <ele>987.8</ele>
        <time>2021-09-01T10:44:36Z</time>
      </trkpt>
      <trkpt lat="44.11336" lon="5.70001">
        <ele>985.6</ele>
        <time>2021-09-01T10:44:31Z</time>
      </trkpt>
      <trkpt lat="44.11288" lon="5.70003">
        <ele>984.9</ele>
        <time>2021-09-01T10:44:18Z</time>
      </trkpt>
      <trkpt lat="44.11263" lon="5.7">
        <ele>983.3</ele>
        <time>2021-09-01T10:44:11Z</time>
      </trkpt>
      <trkpt lat="44.11216" lon="5.69993">
        <ele>982.2</ele>
        <time>2021-09-01T10:43:58Z</time>
      </trkpt>
      <trkpt lat="44.11192" lon="5.6999">
        <ele>981.4</ele>
        <time>2021-09-01T10:43:51Z</time>
      </trkpt>
      <trkpt lat="44.11158" lon="5.69973">
        <ele>977.7</ele>
        <time>2021-09-01T10:43:41Z</time>
      </trkpt>
      <trkpt lat="44.11132" lon="5.69964">
        <ele>974.5</ele>
        <time>2021-09-01T10:43:34Z</time>
      </trkpt>
      <trkpt lat="44.11085" lon="5.69958">
        <ele>970.1</ele>
        <time>2021-09-01T10:43:21Z</time>
      </trkpt>
      <trkpt lat="44.11063" lon="5.69958">
        <ele>968.6</ele>
        <time>2021-09-01T10:43:15Z</time>
      </trkpt>
      <trkpt lat="44.11017" lon="5.69949">
        <ele>964.6</ele>
        <time>2021-09-01T10:43:02Z</time>
      </trkpt>
      <trkpt lat="44.10996" lon="5.69945">
        <ele>962.8</ele>
        <time>2021-09-01T10:42:56Z</time>
      </trkpt>
      <trkpt lat="44.10979" lon="5.6995">
        <ele>962.1</ele>
        <time>2021-09-01T10:42:51Z</time>
      </trkpt>
      <trkpt lat="44.1093" lon="5.69949">
        <ele>958.4</ele>
        <time>2021-09-01T10:42:37Z</time>
      </trkpt>
      <trkpt lat="44.10907" lon="5.69937">
        <ele>955</ele>
        <time>2021-09-01T10:42:30Z</time>
      </trkpt>
      <trkpt lat="44.10866" lon="5.69927">
        <ele>952.3</ele>
        <time>2021-09-01T10:42:18Z</time>
      </trkpt>
      <trkpt lat="44.1084" lon="5.69929">
        <ele>951.7</ele>
        <time>2021-09-01T10:42:11Z</time>
      </trkpt>
      <trkpt lat="44.10795" lon="5.69933">
        <ele>952.8</ele>
        <time>2021-09-01T10:41:59Z</time>
      </trkpt>
      <trkpt lat="44.10773" lon="5.69938">
        <ele>953</ele>
        <time>2021-09-01T10:41:53Z</time>
      </trkpt>
      <trkpt lat="44.1072" lon="5.69959">
        <ele>949</ele>
        <time>2021-09-01T10:41:37Z</time>
      </trkpt>
      <trkpt lat="44.10707" lon="5.69969">
        <ele>946.5</ele>
        <time>2021-09-01T10:41:33Z</time>
      </trkpt>
      <trkpt lat="44.10701" lon="5.69986">
        <ele>942.5</ele>
        <time>2021-09-01T10:41:29Z</time>
      </trkpt>
      <trkpt lat="44.10702" lon="5.70003">
        <ele>939.9</ele>
        <time>2021-09-01T10:41:25Z</time>
      </trkpt>
      <trkpt lat="44.10697" lon="5.70012">
        <ele>940.6</ele>
        <time>2021-09-01T10:41:22Z</time>
      </trkpt>
      <trkpt lat="44.10671" lon="5.70026">
        <ele>939.3</ele>
        <time>2021-09-01T10:41:18Z</time>
      </trkpt>
      <trkpt lat="44.10641" lon="5.70042">
        <ele>937.2</ele>
        <time>2021-09-01T10:41:14Z</time>
      </trkpt>
      <trkpt lat="44.10635" lon="5.70044">
        <ele>936.6</ele>
        <time>2021-09-01T10:41:13Z</time>
      </trkpt>
      <trkpt lat="44.10624" lon="5.70051">
        <ele>935.5</ele>
        <time>2021-09-01T10:41:11Z</time>
      </trkpt>
      <trkpt lat="44.1058" lon="5.70134">
        <ele>932.1</ele>
        <time>2021-09-01T10:41:00Z</time>
      </trkpt>
      <trkpt lat="44.10556" lon="5.70165">
        <ele>929.3</ele>
        <time>2021-09-01T10:40:54Z</time>
      </trkpt>
      <trkpt lat="44.10539" lon="5.70184">
        <ele>927.1</ele>
        <time>2021-09-01T10:40:47Z</time>
      </trkpt>
      <trkpt lat="44.10538" lon="5.70185">
        <ele>926.9</ele>
        <time>2021-09-01T10:40:42Z</time>
      </trkpt>
      <trkpt lat="44.10521" lon="5.70185">
        <ele>923.3</ele>
        <time>2021-09-01T10:40:34Z</time>
      </trkpt>
      <trkpt lat="44.10509" lon="5.70198">
        <ele>921.5</ele>
        <time>2021-09-01T10:40:29Z</time>
      </trkpt>
      <trkpt lat="44.10484" lon="5.70239">
        <ele>919.9</ele>
        <time>2021-09-01T10:40:17Z</time>
      </trkpt>
      <trkpt lat="44.10467" lon="5.7026">
        <ele>918.8</ele>
        <time>2021-09-01T10:40:10Z</time>
      </trkpt>
      <trkpt lat="44.1044" lon="5.70301">
        <ele>917.4</ele>
        <time>2021-09-01T10:39:57Z</time>
      </trkpt>
      <trkpt lat="44.10431" lon="5.70324">
        <ele>917.2</ele>
        <time>2021-09-01T10:39:51Z</time>
      </trkpt>
      <trkpt lat="44.10406" lon="5.70349">
        <ele>917.1</ele>
        <time>2021-09-01T10:39:42Z</time>
      </trkpt>
      <trkpt lat="44.10395" lon="5.70347">
        <ele>915.9</ele>
        <time>2021-09-01T10:39:39Z</time>
      </trkpt>
      <trkpt lat="44.10376" lon="5.7034">
        <ele>913.4</ele>
        <time>2021-09-01T10:39:35Z</time>
      </trkpt>
      <trkpt lat="44.10371" lon="5.70341">
        <ele>913.1</ele>
        <time>2021-09-01T10:39:34Z</time>
      </trkpt>
      <trkpt lat="44.10366" lon="5.70344">
        <ele>913.1</ele>
        <time>2021-09-01T10:39:33Z</time>
      </trkpt>
      <trkpt lat="44.1036" lon="5.70353">
        <ele>913.7</ele>
        <time>2021-09-01T10:35:20Z</time>
      </trkpt>
      <trkpt lat="44.10339" lon="5.70333">
        <ele>909.5</ele>
        <time>2021-09-01T10:35:13Z</time>
      </trkpt>
      <trkpt lat="44.1028" lon="5.70315">
        <ele>909.6</ele>
        <time>2021-09-01T10:34:57Z</time>
      </trkpt>
      <trkpt lat="44.1026" lon="5.7031">
        <ele>910.2</ele>
        <time>2021-09-01T10:34:52Z</time>
      </trkpt>
      <trkpt lat="44.10228" lon="5.70304">
        <ele>910.5</ele>
        <time>2021-09-01T10:34:44Z</time>
      </trkpt>
      <trkpt lat="44.10203" lon="5.70302">
        <ele>909.8</ele>
        <time>2021-09-01T10:34:39Z</time>
      </trkpt>
      <trkpt lat="44.10181" lon="5.70298">
        <ele>909.4</ele>
        <time>2021-09-01T10:34:35Z</time>
      </trkpt>
      <trkpt lat="44.10149" lon="5.70302">
        <ele>906.7</ele>
        <time>2021-09-01T10:34:31Z</time>
      </trkpt>
      <trkpt lat="44.10118" lon="5.703">
        <ele>903.8</ele>
        <time>2021-09-01T10:34:27Z</time>
      </trkpt>
      <trkpt lat="44.10105" lon="5.70293">
        <ele>902.8</ele>
        <time>2021-09-01T10:34:25Z</time>
      </trkpt>
      <trkpt lat="44.1009" lon="5.70277">
        <ele>901.5</ele>
        <time>2021-09-01T10:34:22Z</time>
      </trkpt>
      <trkpt lat="44.10082" lon="5.7026">
        <ele>900.8</ele>
        <time>2021-09-01T10:34:20Z</time>
      </trkpt>
      <trkpt lat="44.10072" lon="5.70205">
        <ele>906.4</ele>
        <time>2021-09-01T10:34:14Z</time>
      </trkpt>
      <trkpt lat="44.10071" lon="5.70197">
        <ele>907.4</ele>
        <time>2021-09-01T10:34:13Z</time>
      </trkpt>
      <trkpt lat="44.10067" lon="5.7018">
        <ele>909.5</ele>
        <time>2021-09-01T10:34:11Z</time>
      </trkpt>
      <trkpt lat="44.10049" lon="5.70163">
        <ele>911</ele>
        <time>2021-09-01T10:34:08Z</time>
      </trkpt>
      <trkpt lat="44.1001" lon="5.70151">
        <ele>911</ele>
        <time>2021-09-01T10:34:03Z</time>
      </trkpt>
      <trkpt lat="44.09966" lon="5.70135">
        <ele>910.7</ele>
        <time>2021-09-01T10:33:57Z</time>
      </trkpt>
      <trkpt lat="44.09932" lon="5.70132">
        <ele>908.8</ele>
        <time>2021-09-01T10:33:52Z</time>
      </trkpt>
      <trkpt lat="44.09902" lon="5.70115">
        <ele>907.5</ele>
        <time>2021-09-01T10:33:47Z</time>
      </trkpt>
      <trkpt lat="44.09888" lon="5.70099">
        <ele>907.2</ele>
        <time>2021-09-01T10:33:44Z</time>
      </trkpt>
      <trkpt lat="44.09871" lon="5.70064">
        <ele>908.2</ele>
        <time>2021-09-01T10:33:38Z</time>
      </trkpt>
      <trkpt lat="44.09868" lon="5.70059">
        <ele>908.3</ele>
        <time>2021-09-01T10:33:37Z</time>
      </trkpt>
      <trkpt lat="44.09841" lon="5.70012">
        <ele>909.6</ele>
        <time>2021-09-01T10:33:28Z</time>
      </trkpt>
      <trkpt lat="44.09834" lon="5.70001">
        <ele>910</ele>
        <time>2021-09-01T10:33:26Z</time>
      </trkpt>
      <trkpt lat="44.09806" lon="5.6994">
        <ele>913.6</ele>
        <time>2021-09-01T10:33:16Z</time>
      </trkpt>
      <trkpt lat="44.09803" lon="5.69934">
        <ele>914</ele>
        <time>2021-09-01T10:33:15Z</time>
      </trkpt>
      <trkpt lat="44.09781" lon="5.69907">
        <ele>915</ele>
        <time>2021-09-01T10:33:09Z</time>
      </trkpt>
      <trkpt lat="44.09769" lon="5.69898">
        <ele>915</ele>
        <time>2021-09-01T10:33:06Z</time>
      </trkpt>
      <trkpt lat="44.0976" lon="5.69895">
        <ele>914.5</ele>
        <time>2021-09-01T10:33:04Z</time>
      </trkpt>
      <trkpt lat="44.09723" lon="5.69885">
        <ele>911.8</ele>
        <time>2021-09-01T10:32:53Z</time>
      </trkpt>
      <trkpt lat="44.09708" lon="5.69882">
        <ele>910.4</ele>
        <time>2021-09-01T10:32:48Z</time>
      </trkpt>
      <trkpt lat="44.09643" lon="5.69868">
        <ele>904.3</ele>
        <time>2021-09-01T10:32:33Z</time>
      </trkpt>
      <trkpt lat="44.09612" lon="5.6986">
        <ele>901.6</ele>
        <time>2021-09-01T10:32:26Z</time>
      </trkpt>
      <trkpt lat="44.09587" lon="5.69848">
        <ele>900.3</ele>
        <time>2021-09-01T10:32:20Z</time>
      </trkpt>
      <trkpt lat="44.09557" lon="5.6982">
        <ele>899.6</ele>
        <time>2021-09-01T10:32:12Z</time>
      </trkpt>
      <trkpt lat="44.095" lon="5.69758">
        <ele>897.3</ele>
        <time>2021-09-01T10:31:56Z</time>
      </trkpt>
      <trkpt lat="44.09475" lon="5.69724">
        <ele>895.7</ele>
        <time>2021-09-01T10:31:48Z</time>
      </trkpt>
      <trkpt lat="44.09446" lon="5.69684">
        <ele>892.5</ele>
        <time>2021-09-01T10:31:39Z</time>
      </trkpt>
      <trkpt lat="44.09428" lon="5.69665">
        <ele>890.1</ele>
        <time>2021-09-01T10:31:34Z</time>
      </trkpt>
      <trkpt lat="44.0937" lon="5.6961">
        <ele>889.8</ele>
        <time>2021-09-01T10:31:18Z</time>
      </trkpt>
      <trkpt lat="44.09357" lon="5.69599">
        <ele>889.1</ele>
        <time>2021-09-01T10:31:13Z</time>
      </trkpt>
      <trkpt lat="44.09354" lon="5.69597">
        <ele>888.9</ele>
        <time>2021-09-01T10:29:58Z</time>
      </trkpt>
      <trkpt lat="44.09353" lon="5.69597">
        <ele>888.7</ele>
        <time>2021-09-01T10:29:39Z</time>
      </trkpt>
      <trkpt lat="44.09339" lon="5.69583">
        <ele>887.9</ele>
        <time>2021-09-01T10:29:34Z</time>
      </trkpt>
      <trkpt lat="44.09283" lon="5.6956">
        <ele>881.8</ele>
        <time>2021-09-01T10:29:21Z</time>
      </trkpt>
      <trkpt lat="44.09279" lon="5.69558">
        <ele>881.4</ele>
        <time>2021-09-01T10:29:20Z</time>
      </trkpt>
      <trkpt lat="44.09251" lon="5.69545">
        <ele>878.7</ele>
        <time>2021-09-01T10:29:13Z</time>
      </trkpt>
      <trkpt lat="44.09236" lon="5.69536">
        <ele>877.7</ele>
        <time>2021-09-01T10:29:09Z</time>
      </trkpt>
      <trkpt lat="44.09214" lon="5.69519">
        <ele>876.9</ele>
        <time>2021-09-01T10:29:03Z</time>
      </trkpt>
      <trkpt lat="44.09207" lon="5.69512">
        <ele>876.9</ele>
        <time>2021-09-01T10:29:01Z</time>
      </trkpt>
      <trkpt lat="44.09168" lon="5.6944">
        <ele>879.6</ele>
        <time>2021-09-01T10:28:45Z</time>
      </trkpt>
      <trkpt lat="44.09158" lon="5.69396">
        <ele>881.7</ele>
        <time>2021-09-01T10:28:37Z</time>
      </trkpt>
      <trkpt lat="44.09146" lon="5.69319">
        <ele>881.5</ele>
        <time>2021-09-01T10:28:23Z</time>
      </trkpt>
      <trkpt lat="44.09147" lon="5.69297">
        <ele>879.6</ele>
        <time>2021-09-01T10:28:18Z</time>
      </trkpt>
      <trkpt lat="44.09149" lon="5.69274">
        <ele>877.8</ele>
        <time>2021-09-01T10:28:13Z</time>
      </trkpt>
      <trkpt lat="44.0917" lon="5.69217">
        <ele>876</ele>
        <time>2021-09-01T10:28:00Z</time>
      </trkpt>
      <trkpt lat="44.09177" lon="5.69185">
        <ele>874.7</ele>
        <time>2021-09-01T10:27:53Z</time>
      </trkpt>
      <trkpt lat="44.09172" lon="5.69126">
        <ele>874.4</ele>
        <time>2021-09-01T10:27:41Z</time>
      </trkpt>
      <trkpt lat="44.09172" lon="5.69123">
        <ele>874.6</ele>
      </trkpt>
      <trkpt lat="44.09168" lon="5.69046">
        <ele>876</ele>
      </trkpt>
      <trkpt lat="44.09138" lon="5.69052">
        <ele>876.4</ele>
      </trkpt>
      <trkpt lat="44.0895" lon="5.69118">
        <ele>869.5</ele>
      </trkpt>
      <trkpt lat="44.08595" lon="5.68965">
        <ele>849.8</ele>
        <extensions>
          <visugpx:TrkExtension xmlns:visugpx="https://www.visugpx.com/editgpx/">
            <visugpx:node>4</visugpx:node>
            </visugpx:TrkExtension>
        </extensions>
      </trkpt>
      <trkpt lat="44.08605" lon="5.68889">
        <ele>847.5</ele>
        <extensions>
          <visugpx:TrkExtension xmlns:visugpx="https://www.visugpx.com/editgpx/">
            <visugpx:node>6</visugpx:node>
            </visugpx:TrkExtension>
        </extensions>
      </trkpt>
      <trkpt lat="44.08606" lon="5.68881">
        <ele>847.4</ele>
      </trkpt>
      <trkpt lat="44.08607" lon="5.68842">
        <ele>846.4</ele>
      </trkpt>
      <trkpt lat="44.08606" lon="5.68821">
        <ele>846</ele>
      </trkpt>
      <trkpt lat="44.08585" lon="5.687">
        <ele>842.9</ele>
      </trkpt>
      <trkpt lat="44.0858" lon="5.6868">
        <ele>842.2</ele>
      </trkpt>
      <trkpt lat="44.08565" lon="5.68638">
        <ele>841.3</ele>
      </trkpt>
      <trkpt lat="44.0853" lon="5.6858">
        <ele>839.4</ele>
      </trkpt>
      <trkpt lat="44.08514" lon="5.68548">
        <ele>837.8</ele>
      </trkpt>
      <trkpt lat="44.08483" lon="5.68491">
        <ele>835.9</ele>
      </trkpt>
      <trkpt lat="44.08481" lon="5.68487">
        <ele>835.8</ele>
      </trkpt>
      <trkpt lat="44.08468" lon="5.68468">
        <ele>835.4</ele>
      </trkpt>
      <trkpt lat="44.08351" lon="5.68322">
        <ele>832.1</ele>
      </trkpt>
      <trkpt lat="44.08276" lon="5.68237">
        <ele>829.9</ele>
        <extensions>
          <visugpx:TrkExtension xmlns:visugpx="https://www.visugpx.com/editgpx/">
            <visugpx:node>15</visugpx:node>
            </visugpx:TrkExtension>
        </extensions>
      </trkpt>
      <trkpt lat="44.08276" lon="5.68264">
        <ele>831.6</ele>
      </trkpt>
      <trkpt lat="44.08221" lon="5.68368">
        <ele>836.6</ele>
      </trkpt>
      <trkpt lat="44.08216" lon="5.6837">
        <ele>836.6</ele>
      </trkpt>
      <trkpt lat="44.08174" lon="5.68332">
        <ele>836.9</ele>
      </trkpt>
      <trkpt lat="44.08169" lon="5.68317">
        <ele>836.2</ele>
      </trkpt>
      <trkpt lat="44.08162" lon="5.68308">
        <ele>835.7</ele>
      </trkpt>
      <trkpt lat="44.08138" lon="5.68291">
        <ele>834.8</ele>
      </trkpt>
      <trkpt lat="44.08101" lon="5.68274">
        <ele>833.9</ele>
      </trkpt>
      <trkpt lat="44.08084" lon="5.68274">
        <ele>833.9</ele>
      </trkpt>
      <trkpt lat="44.08073" lon="5.6828">
        <ele>834.1</ele>
      </trkpt>
      <trkpt lat="44.08065" lon="5.68282">
        <ele>834.2</ele>
      </trkpt>
      <trkpt lat="44.08051" lon="5.68272">
        <ele>834</ele>
      </trkpt>
      <trkpt lat="44.08018" lon="5.68266">
        <ele>834.1</ele>
      </trkpt>
      <trkpt lat="44.08" lon="5.6826">
        <ele>834.1</ele>
      </trkpt>
      <trkpt lat="44.07995" lon="5.68262">
        <ele>834.2</ele>
      </trkpt>
      <trkpt lat="44.07982" lon="5.68328">
        <ele>834.9</ele>
      </trkpt>
      <trkpt lat="44.07979" lon="5.68359">
        <ele>835.4</ele>
      </trkpt>
      <trkpt lat="44.07976" lon="5.68369">
        <ele>835.6</ele>
      </trkpt>
      <trkpt lat="44.07961" lon="5.68383">
        <ele>835.9</ele>
      </trkpt>
      <trkpt lat="44.07947" lon="5.68404">
        <ele>836.4</ele>
      </trkpt>
      <trkpt lat="44.0793" lon="5.68447">
        <ele>836.5</ele>
      </trkpt>
      <trkpt lat="44.07907" lon="5.68478">
        <ele>837.9</ele>
        <extensions>
          <visugpx:TrkExtension xmlns:visugpx="https://www.visugpx.com/editgpx/">
            <visugpx:node>16</visugpx:node>
            </visugpx:TrkExtension>
        </extensions>
      </trkpt>
      <trkpt lat="44.07884" lon="5.68494">
        <ele>840.4</ele>
      </trkpt>
      <trkpt lat="44.07847" lon="5.68457">
        <ele>842.4</ele>
      </trkpt>
      <trkpt lat="44.0779" lon="5.68414">
        <ele>848.4</ele>
      </trkpt>
      <trkpt lat="44.07669" lon="5.68312">
        <ele>851.4</ele>
      </trkpt>
      <trkpt lat="44.07591" lon="5.68265">
        <ele>851.3</ele>
      </trkpt>
      <trkpt lat="44.07459" lon="5.68169">
        <ele>854</ele>
      </trkpt>
      <trkpt lat="44.07409" lon="5.68117">
        <ele>850.7</ele>
      </trkpt>
      <trkpt lat="44.07394" lon="5.68095">
        <ele>848.1</ele>
      </trkpt>
      <trkpt lat="44.07352" lon="5.6806">
        <ele>847.3</ele>
      </trkpt>
      <trkpt lat="44.07259" lon="5.68">
        <ele>843.9</ele>
      </trkpt>
      <trkpt lat="44.0717" lon="5.67942">
        <ele>842.3</ele>
      </trkpt>
      <trkpt lat="44.07112" lon="5.67915">
        <ele>840.9</ele>
      </trkpt>
      <trkpt lat="44.07092" lon="5.67887">
        <ele>837</ele>
      </trkpt>
      <trkpt lat="44.07048" lon="5.67846">
        <ele>829</ele>
      </trkpt>
      <trkpt lat="44.07013" lon="5.67827">
        <ele>825.5</ele>
      </trkpt>
      <trkpt lat="44.07" lon="5.67806">
        <ele>821.1</ele>
      </trkpt>
      <trkpt lat="44.0678" lon="5.67767">
        <ele>808.4</ele>
      </trkpt>
      <trkpt lat="44.06726" lon="5.67763">
        <ele>816.8</ele>
      </trkpt>
      <trkpt lat="44.06705" lon="5.67755">
        <ele>818.1</ele>
      </trkpt>
      <trkpt lat="44.06676" lon="5.67721">
        <ele>814.4</ele>
      </trkpt>
      <trkpt lat="44.06639" lon="5.67662">
        <ele>801</ele>
      </trkpt>
      <trkpt lat="44.06612" lon="5.67657">
        <ele>799.8</ele>
      </trkpt>
      <trkpt lat="44.06579" lon="5.67662">
        <ele>801.4</ele>
      </trkpt>
      <trkpt lat="44.06541" lon="5.67653">
        <ele>797.8</ele>
      </trkpt>
      <trkpt lat="44.06466" lon="5.67646">
        <ele>793.7</ele>
      </trkpt>
      <trkpt lat="44.0643" lon="5.67648">
        <ele>793.7</ele>
      </trkpt>
      <trkpt lat="44.06404" lon="5.67642">
        <ele>790.6</ele>
      </trkpt>
      <trkpt lat="44.06286" lon="5.67657">
        <ele>784.6</ele>
      </trkpt>
      <trkpt lat="44.06265" lon="5.6765">
        <ele>781.8</ele>
      </trkpt>
      <trkpt lat="44.06245" lon="5.6765">
        <ele>780.6</ele>
      </trkpt>
      <trkpt lat="44.06193" lon="5.67669">
        <ele>782.4</ele>
      </trkpt>
      <trkpt lat="44.0617" lon="5.67668">
        <ele>781.5</ele>
      </trkpt>
      <trkpt lat="44.06147" lon="5.67648">
        <ele>775.7</ele>
      </trkpt>
      <trkpt lat="44.0607" lon="5.67644">
        <ele>767.3</ele>
      </trkpt>
      <trkpt lat="44.06032" lon="5.67654">
        <ele>764.2</ele>
      </trkpt>
      <trkpt lat="44.05981" lon="5.67641">
        <ele>756.5</ele>
      </trkpt>
      <trkpt lat="44.05925" lon="5.67647">
        <ele>750.5</ele>
      </trkpt>
      <trkpt lat="44.05915" lon="5.67655">
        <ele>750.9</ele>
      </trkpt>
      <trkpt lat="44.05872" lon="5.67679">
        <ele>752</ele>
      </trkpt>
      <trkpt lat="44.05857" lon="5.6767">
        <ele>749.4</ele>
      </trkpt>
      <trkpt lat="44.05848" lon="5.67647">
        <ele>745.3</ele>
      </trkpt>
      <trkpt lat="44.05783" lon="5.67647">
        <ele>740.6</ele>
      </trkpt>
      <trkpt lat="44.05758" lon="5.67642">
        <ele>738.2</ele>
      </trkpt>
      <trkpt lat="44.05681" lon="5.67672">
        <ele>734.1</ele>
      </trkpt>
      <trkpt lat="44.05632" lon="5.67673">
        <ele>733.5</ele>
      </trkpt>
      <trkpt lat="44.05592" lon="5.67705">
        <ele>736.3</ele>
      </trkpt>
      <trkpt lat="44.05552" lon="5.67719">
        <ele>739.3</ele>
      </trkpt>
      <trkpt lat="44.05494" lon="5.67638">
        <ele>739.4</ele>
      </trkpt>
      <trkpt lat="44.05499" lon="5.67587">
        <ele>738.2</ele>
      </trkpt>
      <trkpt lat="44.05526" lon="5.67577">
        <ele>735.3</ele>
      </trkpt>
      <trkpt lat="44.056" lon="5.67397">
        <ele>722.5</ele>
      </trkpt>
      <trkpt lat="44.05354" lon="5.67317">
        <ele>722.4</ele>
      </trkpt>
      <trkpt lat="44.05299" lon="5.67387">
        <ele>723.1</ele>
      </trkpt>
      <trkpt lat="44.05202" lon="5.67391">
        <ele>725.6</ele>
      </trkpt>
      <trkpt lat="44.05114" lon="5.67374">
        <ele>727.2</ele>
      </trkpt>
      <trkpt lat="44.05091" lon="5.67384">
        <ele>727</ele>
      </trkpt>
      <trkpt lat="44.05043" lon="5.67358">
        <ele>727.4</ele>
      </trkpt>
      <trkpt lat="44.04999" lon="5.67362">
        <ele>727.3</ele>
      </trkpt>
      <trkpt lat="44.04937" lon="5.67382">
        <ele>728.5</ele>
      </trkpt>
      <trkpt lat="44.04844" lon="5.67444">
        <ele>720.6</ele>
      </trkpt>
      <trkpt lat="44.04801" lon="5.67485">
        <ele>715</ele>
      </trkpt>
      <trkpt lat="44.04777" lon="5.67493">
        <ele>714.6</ele>
      </trkpt>
      <trkpt lat="44.04736" lon="5.67528">
        <ele>713.4</ele>
      </trkpt>
      <trkpt lat="44.04725" lon="5.6753">
        <ele>713.6</ele>
      </trkpt>
      <trkpt lat="44.04707" lon="5.67549">
        <ele>713.2</ele>
      </trkpt>
      <trkpt lat="44.04642" lon="5.67575">
        <ele>711.7</ele>
      </trkpt>
      <trkpt lat="44.04599" lon="5.67561">
        <ele>712.7</ele>
      </trkpt>
      <trkpt lat="44.04532" lon="5.67576">
        <ele>712.5</ele>
      </trkpt>
      <trkpt lat="44.04509" lon="5.67576">
        <ele>713.9</ele>
      </trkpt>
      <trkpt lat="44.0443" lon="5.67632">
        <ele>718.5</ele>
      </trkpt>
      <trkpt lat="44.04403" lon="5.67654">
        <ele>717.1</ele>
      </trkpt>
      <trkpt lat="44.04305" lon="5.67773">
        <ele>712.1</ele>
      </trkpt>
      <trkpt lat="44.0429" lon="5.67787">
        <ele>712</ele>
      </trkpt>
      <trkpt lat="44.04266" lon="5.67797">
        <ele>712.9</ele>
      </trkpt>
      <trkpt lat="44.04222" lon="5.67851">
        <ele>707.3</ele>
      </trkpt>
      <trkpt lat="44.04142" lon="5.67923">
        <ele>697.6</ele>
      </trkpt>
      <trkpt lat="44.0411" lon="5.67935">
        <ele>698.6</ele>
      </trkpt>
      <trkpt lat="44.04054" lon="5.67942">
        <ele>697.2</ele>
      </trkpt>
      <trkpt lat="44.0403" lon="5.67943">
        <ele>696.1</ele>
      </trkpt>
      <trkpt lat="44.04003" lon="5.6796">
        <ele>693.5</ele>
      </trkpt>
      <trkpt lat="44.03861" lon="5.68014">
        <ele>688.7</ele>
      </trkpt>
      <trkpt lat="44.03827" lon="5.68018">
        <ele>689.2</ele>
      </trkpt>
      <trkpt lat="44.03813" lon="5.68033">
        <ele>689.5</ele>
      </trkpt>
      <trkpt lat="44.03748" lon="5.68031">
        <ele>692.2</ele>
      </trkpt>
      <trkpt lat="44.03724" lon="5.68045">
        <ele>689.6</ele>
      </trkpt>
      <trkpt lat="44.03707" lon="5.68043">
        <ele>689.3</ele>
      </trkpt>
      <trkpt lat="44.03659" lon="5.68061">
        <ele>685.8</ele>
      </trkpt>
      <trkpt lat="44.03608" lon="5.6805">
        <ele>687.6</ele>
      </trkpt>
      <trkpt lat="44.03547" lon="5.68065">
        <ele>684.2</ele>
      </trkpt>
      <trkpt lat="44.03451" lon="5.68072">
        <ele>681.9</ele>
      </trkpt>
      <trkpt lat="44.03432" lon="5.68073">
        <ele>681.9</ele>
      </trkpt>
      <trkpt lat="44.03391" lon="5.68095">
        <ele>679.8</ele>
      </trkpt>
      <trkpt lat="44.03264" lon="5.68136">
        <ele>673.9</ele>
      </trkpt>
      <trkpt lat="44.03206" lon="5.68146">
        <ele>671.1</ele>
      </trkpt>
      <trkpt lat="44.03146" lon="5.68126">
        <ele>668.6</ele>
      </trkpt>
      <trkpt lat="44.03102" lon="5.68126">
        <ele>665.7</ele>
      </trkpt>
      <trkpt lat="44.03063" lon="5.68131">
        <ele>663.4</ele>
      </trkpt>
      <trkpt lat="44.03024" lon="5.68114">
        <ele>661.6</ele>
      </trkpt>
      <trkpt lat="44.02934" lon="5.68167">
        <ele>657.2</ele>
      </trkpt>
      <trkpt lat="44.02894" lon="5.68162">
        <ele>656.4</ele>
      </trkpt>
      <trkpt lat="44.02858" lon="5.68178">
        <ele>655.2</ele>
      </trkpt>
      <trkpt lat="44.02816" lon="5.68172">
        <ele>652.8</ele>
      </trkpt>
      <trkpt lat="44.02786" lon="5.68138">
        <ele>653.5</ele>
      </trkpt>
      <trkpt lat="44.02726" lon="5.68115">
        <ele>652.5</ele>
      </trkpt>
      <trkpt lat="44.02728" lon="5.68067">
        <ele>656.1</ele>
      </trkpt>
      <trkpt lat="44.02669" lon="5.67982">
        <ele>659.8</ele>
      </trkpt>
      <trkpt lat="44.02677" lon="5.67972">
        <ele>661.3</ele>
      </trkpt>
      <trkpt lat="44.02651" lon="5.67934">
        <ele>663.7</ele>
      </trkpt>
      <trkpt lat="44.02615" lon="5.67936">
        <ele>662.2</ele>
      </trkpt>
      <trkpt lat="44.02559" lon="5.6793">
        <ele>661.3</ele>
      </trkpt>
      <trkpt lat="44.02546" lon="5.67918">
        <ele>662.4</ele>
      </trkpt>
      <trkpt lat="44.0252" lon="5.67919">
        <ele>662</ele>
      </trkpt>
      <trkpt lat="44.02517" lon="5.67908">
        <ele>663</ele>
      </trkpt>
      <trkpt lat="44.02481" lon="5.67895">
        <ele>663.3</ele>
      </trkpt>
      <trkpt lat="44.02455" lon="5.67873">
        <ele>664.3</ele>
      </trkpt>
      <trkpt lat="44.02452" lon="5.67831">
        <ele>667.6</ele>
      </trkpt>
      <trkpt lat="44.02404" lon="5.67782">
        <ele>672.1</ele>
      </trkpt>
      <trkpt lat="44.02404" lon="5.6765">
        <ele>683.8</ele>
      </trkpt>
      <trkpt lat="44.02393" lon="5.67633">
        <ele>684.9</ele>
      </trkpt>
      <trkpt lat="44.02382" lon="5.67634">
        <ele>684.6</ele>
      </trkpt>
      <trkpt lat="44.0237" lon="5.67616">
        <ele>686</ele>
      </trkpt>
      <trkpt lat="44.02354" lon="5.67596">
        <ele>687.7</ele>
      </trkpt>
      <trkpt lat="44.02307" lon="5.67569">
        <ele>691</ele>
      </trkpt>
      <trkpt lat="44.02278" lon="5.67517">
        <ele>697.1</ele>
      </trkpt>
      <trkpt lat="44.02257" lon="5.67514">
        <ele>697.4</ele>
      </trkpt>
      <trkpt lat="44.02245" lon="5.67492">
        <ele>699.8</ele>
      </trkpt>
      <trkpt lat="44.02238" lon="5.67386">
        <ele>709.8</ele>
      </trkpt>
      <trkpt lat="44.02231" lon="5.67352">
        <ele>712.7</ele>
      </trkpt>
      <trkpt lat="44.02226" lon="5.67329">
        <ele>714.2</ele>
      </trkpt>
      <trkpt lat="44.02226" lon="5.67321">
        <ele>714.4</ele>
      </trkpt>
      <trkpt lat="44.02261" lon="5.67208">
        <ele>720</ele>
      </trkpt>
      <trkpt lat="44.02286" lon="5.67096">
        <ele>724.2</ele>
      </trkpt>
      <trkpt lat="44.02294" lon="5.67051">
        <ele>725.6</ele>
      </trkpt>
      <trkpt lat="44.02292" lon="5.6704">
        <ele>725.5</ele>
      </trkpt>
      <trkpt lat="44.02272" lon="5.6703">
        <ele>723.8</ele>
      </trkpt>
      <trkpt lat="44.02273" lon="5.67013">
        <ele>724.3</ele>
      </trkpt>
      <trkpt lat="44.02287" lon="5.66985">
        <ele>726.4</ele>
      </trkpt>
      <trkpt lat="44.02288" lon="5.66972">
        <ele>727.2</ele>
      </trkpt>
      <trkpt lat="44.02285" lon="5.66935">
        <ele>729</ele>
      </trkpt>
      <trkpt lat="44.02299" lon="5.66886">
        <ele>732.2</ele>
      </trkpt>
      <trkpt lat="44.02296" lon="5.66858">
        <ele>734.3</ele>
      </trkpt>
      <trkpt lat="44.02271" lon="5.66869">
        <ele>734.7</ele>
      </trkpt>
      <trkpt lat="44.02267" lon="5.66841">
        <ele>737.8</ele>
      </trkpt>
      <trkpt lat="44.02328" lon="5.66774">
        <ele>740.5</ele>
      </trkpt>
      <trkpt lat="44.02401" lon="5.66729">
        <ele>744.2</ele>
      </trkpt>
      <trkpt lat="44.02441" lon="5.66697">
        <ele>749</ele>
      </trkpt>
      <trkpt lat="44.02464" lon="5.6666">
        <ele>752.5</ele>
      </trkpt>
      <trkpt lat="44.02481" lon="5.66633">
        <ele>756.5</ele>
      </trkpt>
      <trkpt lat="44.02526" lon="5.66546">
        <ele>766.8</ele>
      </trkpt>
      <trkpt lat="44.02573" lon="5.66477">
        <ele>770.4</ele>
      </trkpt>
      <trkpt lat="44.02596" lon="5.66429">
        <ele>775.5</ele>
      </trkpt>
      <trkpt lat="44.02624" lon="5.66394">
        <ele>777</ele>
      </trkpt>
      <trkpt lat="44.02643" lon="5.66344">
        <ele>782.5</ele>
      </trkpt>
      <trkpt lat="44.02679" lon="5.66315">
        <ele>780.2</ele>
      </trkpt>
      <trkpt lat="44.02751" lon="5.66288">
        <ele>768.9</ele>
      </trkpt>
      <trkpt lat="44.0284" lon="5.66189">
        <ele>780.2</ele>
      </trkpt>
      <trkpt lat="44.02954" lon="5.66078">
        <ele>787.2</ele>
      </trkpt>
      <trkpt lat="44.02992" lon="5.66046">
        <ele>785.9</ele>
      </trkpt>
      <trkpt lat="44.03006" lon="5.66024">
        <ele>786.9</ele>
      </trkpt>
      <trkpt lat="44.03021" lon="5.65991">
        <ele>789.6</ele>
      </trkpt>
      <trkpt lat="44.03028" lon="5.65939">
        <ele>795.6</ele>
      </trkpt>
      <trkpt lat="44.03037" lon="5.65864">
        <ele>800.3</ele>
      </trkpt>
      <trkpt lat="44.03035" lon="5.65813">
        <ele>802.3</ele>
      </trkpt>
      <trkpt lat="44.03052" lon="5.65684">
        <ele>794.8</ele>
      </trkpt>
      <trkpt lat="44.03186" lon="5.65397">
        <ele>800.5</ele>
      </trkpt>
      <trkpt lat="44.03231" lon="5.65303">
        <ele>791.7</ele>
      </trkpt>
      <trkpt lat="44.0328" lon="5.65236">
        <ele>786.5</ele>
      </trkpt>
      <trkpt lat="44.03433" lon="5.65151">
        <ele>792.3</ele>
      </trkpt>
      <trkpt lat="44.03518" lon="5.65118">
        <ele>793.5</ele>
      </trkpt>
      <trkpt lat="44.03571" lon="5.65111">
        <ele>798</ele>
      </trkpt>
      <trkpt lat="44.03639" lon="5.64952">
        <ele>786.2</ele>
        <extensions>
          <visugpx:TrkExtension xmlns:visugpx="https://www.visugpx.com/editgpx/">
            <visugpx:node>17</visugpx:node>
            </visugpx:TrkExtension>
        </extensions>
      </trkpt>
      <trkpt lat="44.03664" lon="5.64908">
        <ele>788.3</ele>
      </trkpt>
      <trkpt lat="44.03674" lon="5.64875">
        <ele>791.2</ele>
      </trkpt>
      <trkpt lat="44.03694" lon="5.64802">
        <ele>795.6</ele>
      </trkpt>
      <trkpt lat="44.03697" lon="5.64774">
        <ele>796.7</ele>
      </trkpt>
      <trkpt lat="44.037" lon="5.64714">
        <ele>796.8</ele>
      </trkpt>
      <trkpt lat="44.03698" lon="5.64682">
        <ele>796.5</ele>
      </trkpt>
      <trkpt lat="44.03685" lon="5.6464">
        <ele>794.2</ele>
      </trkpt>
      <trkpt lat="44.03683" lon="5.64633">
        <ele>793.6</ele>
      </trkpt>
      <trkpt lat="44.03685" lon="5.64628">
        <ele>792.6</ele>
      </trkpt>
      <trkpt lat="44.0369" lon="5.64631">
        <ele>792.3</ele>
      </trkpt>
      <trkpt lat="44.03721" lon="5.64674">
        <ele>793.7</ele>
      </trkpt>
      <trkpt lat="44.0373" lon="5.64689">
        <ele>793.4</ele>
      </trkpt>
      <trkpt lat="44.03739" lon="5.64718">
        <ele>793.9</ele>
      </trkpt>
      <trkpt lat="44.03746" lon="5.64727">
        <ele>793.9</ele>
        <extensions>
          <visugpx:TrkExtension xmlns:visugpx="https://www.visugpx.com/editgpx/">
            <visugpx:node>18</visugpx:node>
            </visugpx:TrkExtension>
        </extensions>
      </trkpt>
      <trkpt lat="44.03748" lon="5.6473">
        <ele>793.9</ele>
      </trkpt>
      <trkpt lat="44.03758" lon="5.64736">
        <ele>793.1</ele>
      </trkpt>
      <trkpt lat="44.03773" lon="5.64739">
        <ele>791.3</ele>
      </trkpt>
      <trkpt lat="44.03817" lon="5.64766">
        <ele>788.9</ele>
      </trkpt>
      <trkpt lat="44.03842" lon="5.64815">
        <ele>792.9</ele>
      </trkpt>
      <trkpt lat="44.03859" lon="5.64818">
        <ele>790.5</ele>
      </trkpt>
      <trkpt lat="44.03896" lon="5.64819">
        <ele>784.5</ele>
      </trkpt>
      <trkpt lat="44.03915" lon="5.64816">
        <ele>780.7</ele>
      </trkpt>
      <trkpt lat="44.03914" lon="5.64809">
        <ele>779.5</ele>
      </trkpt>
      <trkpt lat="44.03913" lon="5.64807">
        <ele>779.3</ele>
      </trkpt>
      <trkpt lat="44.03884" lon="5.64793">
        <ele>781.8</ele>
      </trkpt>
      <trkpt lat="44.03868" lon="5.64769">
        <ele>780.7</ele>
      </trkpt>
      <trkpt lat="44.03844" lon="5.64725">
        <ele>778.5</ele>
      </trkpt>
      <trkpt lat="44.038" lon="5.64629">
        <ele>771.8</ele>
      </trkpt>
      <trkpt lat="44.03753" lon="5.64546">
        <ele>764.6</ele>
      </trkpt>
      <trkpt lat="44.03713" lon="5.64487">
        <ele>756.7</ele>
      </trkpt>
      <trkpt lat="44.03686" lon="5.64458">
        <ele>753.4</ele>
      </trkpt>
      <trkpt lat="44.03683" lon="5.64448">
        <ele>751</ele>
      </trkpt>
      <trkpt lat="44.03683" lon="5.64437">
        <ele>747.9</ele>
      </trkpt>
      <trkpt lat="44.03686" lon="5.64437">
        <ele>747.4</ele>
        <extensions>
          <visugpx:TrkExtension xmlns:visugpx="https://www.visugpx.com/editgpx/">
            <visugpx:node>19</visugpx:node>
            </visugpx:TrkExtension>
        </extensions>
      </trkpt>
      <trkpt lat="44.0361" lon="5.64374">
        <ele>738.9</ele>
      </trkpt>
      <trkpt lat="44.0356" lon="5.64363">
        <ele>740.2</ele>
      </trkpt>
      <trkpt lat="44.03335" lon="5.64235">
        <ele>720.2</ele>
      </trkpt>
      <trkpt lat="44.03261" lon="5.64242">
        <ele>737.4</ele>
      </trkpt>
      <trkpt lat="44.0325" lon="5.64221">
        <ele>737.1</ele>
      </trkpt>
    </trkseg>
  </trk>
  <trk>
    <name><![CDATA[Boucle Banon Lure CLEAN_2]]></name>
    <extensions>
      <line xmlns="http://www.topografix.com/GPX/gpx_style/0/2">
        <color>00FF00</color>
        <width>4</width>
      </line>
    </extensions>
    <trkseg>
      <trkpt lat="44.18611" lon="5.77849">
        <ele>1056.1</ele>
        <extensions>
          <visugpx:TrkExtension xmlns:visugpx="https://www.visugpx.com/editgpx/">
            <visugpx:node>12</visugpx:node>
            </visugpx:TrkExtension>
        </extensions>
      </trkpt>
      <trkpt lat="44.18619" lon="5.7784">
        <ele>1059.4</ele>
        <extensions>
          <visugpx:TrkExtension xmlns:visugpx="https://www.visugpx.com/editgpx/">
            <visugpx:node>3</visugpx:node>
            </visugpx:TrkExtension>
        </extensions>
      </trkpt>
      <trkpt lat="44.18626" lon="5.77769">
        <ele>1057.2</ele>
      </trkpt>
      <trkpt lat="44.18643" lon="5.77719">
        <ele>1060.5</ele>
      </trkpt>
      <trkpt lat="44.18657" lon="5.77695">
        <ele>1062.3</ele>
      </trkpt>
      <trkpt lat="44.18675" lon="5.77676">
        <ele>1066.9</ele>
      </trkpt>
      <trkpt lat="44.18689" lon="5.77641">
        <ele>1068.1</ele>
      </trkpt>
      <trkpt lat="44.18697" lon="5.77605">
        <ele>1068.6</ele>
      </trkpt>
      <trkpt lat="44.18699" lon="5.77525">
        <ele>1070.7</ele>
      </trkpt>
      <trkpt lat="44.18706" lon="5.775">
        <ele>1071.8</ele>
      </trkpt>
      <trkpt lat="44.1878" lon="5.77376">
        <ele>1080.2</ele>
      </trkpt>
      <trkpt lat="44.18792" lon="5.77341">
        <ele>1083.8</ele>
      </trkpt>
      <trkpt lat="44.18799" lon="5.77301">
        <ele>1085.3</ele>
      </trkpt>
      <trkpt lat="44.18832" lon="5.77255">
        <ele>1090.3</ele>
      </trkpt>
      <trkpt lat="44.1888" lon="5.77196">
        <ele>1095.4</ele>
      </trkpt>
      <trkpt lat="44.18902" lon="5.77181">
        <ele>1099.3</ele>
      </trkpt>
      <trkpt lat="44.18913" lon="5.77169">
        <ele>1101</ele>
      </trkpt>
      <trkpt lat="44.18923" lon="5.77146">
        <ele>1103</ele>
      </trkpt>
      <trkpt lat="44.18934" lon="5.77129">
        <ele>1104.9</ele>
      </trkpt>
      <trkpt lat="44.18972" lon="5.77097">
        <ele>1109.4</ele>
      </trkpt>
      <trkpt lat="44.1899" lon="5.77083">
        <ele>1112.5</ele>
      </trkpt>
      <trkpt lat="44.19" lon="5.77063">
        <ele>1114.3</ele>
      </trkpt>
      <trkpt lat="44.19011" lon="5.77037">
        <ele>1116.2</ele>
      </trkpt>
      <trkpt lat="44.19032" lon="5.77018">
        <ele>1120.5</ele>
      </trkpt>
      <trkpt lat="44.19043" lon="5.76999">
        <ele>1122.9</ele>
      </trkpt>
      <trkpt lat="44.19054" lon="5.76975">
        <ele>1124.6</ele>
      </trkpt>
      <trkpt lat="44.19071" lon="5.76951">
        <ele>1128.3</ele>
      </trkpt>
      <trkpt lat="44.19086" lon="5.76927">
        <ele>1131.4</ele>
      </trkpt>
      <trkpt lat="44.19101" lon="5.76885">
        <ele>1136.3</ele>
      </trkpt>
      <trkpt lat="44.19105" lon="5.76864">
        <ele>1136.1</ele>
      </trkpt>
      <trkpt lat="44.19107" lon="5.76832">
        <ele>1137.2</ele>
      </trkpt>
      <trkpt lat="44.19111" lon="5.76804">
        <ele>1138.8</ele>
      </trkpt>
      <trkpt lat="44.19122" lon="5.76776">
        <ele>1143</ele>
      </trkpt>
      <trkpt lat="44.19148" lon="5.76716">
        <ele>1149.6</ele>
      </trkpt>
      <trkpt lat="44.19168" lon="5.76649">
        <ele>1154.8</ele>
      </trkpt>
      <trkpt lat="44.19178" lon="5.76601">
        <ele>1158.4</ele>
      </trkpt>
      <trkpt lat="44.19215" lon="5.76512">
        <ele>1167.3</ele>
      </trkpt>
      <trkpt lat="44.19234" lon="5.76453">
        <ele>1168</ele>
      </trkpt>
      <trkpt lat="44.19281" lon="5.76399">
        <ele>1174.4</ele>
      </trkpt>
      <trkpt lat="44.19297" lon="5.76375">
        <ele>1176.1</ele>
      </trkpt>
      <trkpt lat="44.19376" lon="5.76221">
        <ele>1188.7</ele>
      </trkpt>
      <trkpt lat="44.19391" lon="5.7619">
        <ele>1189.6</ele>
      </trkpt>
      <trkpt lat="44.1941" lon="5.76141">
        <ele>1191.3</ele>
      </trkpt>
      <trkpt lat="44.1943" lon="5.7611">
        <ele>1193.5</ele>
      </trkpt>
      <trkpt lat="44.19453" lon="5.76083">
        <ele>1190.2</ele>
      </trkpt>
      <trkpt lat="44.19464" lon="5.76082">
        <ele>1190.1</ele>
      </trkpt>
      <trkpt lat="44.19471" lon="5.76089">
        <ele>1192.4</ele>
      </trkpt>
      <trkpt lat="44.1948" lon="5.76124">
        <ele>1196.4</ele>
      </trkpt>
      <trkpt lat="44.19501" lon="5.76329">
        <ele>1192.5</ele>
      </trkpt>
      <trkpt lat="44.19508" lon="5.76373">
        <ele>1190.1</ele>
      </trkpt>
      <trkpt lat="44.19511" lon="5.76421">
        <ele>1191.9</ele>
      </trkpt>
      <trkpt lat="44.19516" lon="5.76432">
        <ele>1192.5</ele>
      </trkpt>
      <trkpt lat="44.19534" lon="5.7645">
        <ele>1191.9</ele>
      </trkpt>
      <trkpt lat="44.1955" lon="5.7647">
        <ele>1193.5</ele>
      </trkpt>
      <trkpt lat="44.19576" lon="5.76489">
        <ele>1192</ele>
      </trkpt>
      <trkpt lat="44.19594" lon="5.76511">
        <ele>1193.1</ele>
      </trkpt>
      <trkpt lat="44.19614" lon="5.7656">
        <ele>1198.4</ele>
      </trkpt>
      <trkpt lat="44.19638" lon="5.76564">
        <ele>1196.2</ele>
      </trkpt>
      <trkpt lat="44.19661" lon="5.76578">
        <ele>1196.6</ele>
      </trkpt>
      <trkpt lat="44.19682" lon="5.76601">
        <ele>1198.5</ele>
      </trkpt>
      <trkpt lat="44.19698" lon="5.76623">
        <ele>1200</ele>
      </trkpt>
      <trkpt lat="44.19717" lon="5.76631">
        <ele>1200.8</ele>
      </trkpt>
      <trkpt lat="44.1974" lon="5.76655">
        <ele>1203.5</ele>
      </trkpt>
      <trkpt lat="44.19748" lon="5.76656">
        <ele>1202.7</ele>
      </trkpt>
      <trkpt lat="44.19763" lon="5.76647">
        <ele>1201.8</ele>
      </trkpt>
      <trkpt lat="44.19811" lon="5.76627">
        <ele>1200.2</ele>
      </trkpt>
      <trkpt lat="44.19835" lon="5.76632">
        <ele>1202.2</ele>
      </trkpt>
      <trkpt lat="44.19892" lon="5.76668">
        <ele>1209.3</ele>
      </trkpt>
      <trkpt lat="44.19966" lon="5.76683">
        <ele>1216.3</ele>
      </trkpt>
      <trkpt lat="44.19979" lon="5.76683">
        <ele>1218.3</ele>
      </trkpt>
      <trkpt lat="44.20025" lon="5.76643">
        <ele>1217.6</ele>
      </trkpt>
      <trkpt lat="44.2006" lon="5.76609">
        <ele>1218.8</ele>
      </trkpt>
      <trkpt lat="44.20105" lon="5.76582">
        <ele>1222.2</ele>
      </trkpt>
      <trkpt lat="44.20117" lon="5.76573">
        <ele>1223.3</ele>
      </trkpt>
      <trkpt lat="44.2013" lon="5.76551">
        <ele>1223.1</ele>
      </trkpt>
      <trkpt lat="44.20138" lon="5.76498">
        <ele>1222.6</ele>
      </trkpt>
      <trkpt lat="44.20144" lon="5.76483">
        <ele>1222.6</ele>
      </trkpt>
      <trkpt lat="44.20153" lon="5.76479">
        <ele>1223.5</ele>
      </trkpt>
      <trkpt lat="44.2016" lon="5.76482">
        <ele>1225.1</ele>
      </trkpt>
      <trkpt lat="44.20178" lon="5.765">
        <ele>1230</ele>
      </trkpt>
      <trkpt lat="44.20188" lon="5.76504">
        <ele>1231.1</ele>
      </trkpt>
      <trkpt lat="44.20205" lon="5.76506">
        <ele>1232.2</ele>
      </trkpt>
      <trkpt lat="44.20265" lon="5.7648">
        <ele>1226.2</ele>
      </trkpt>
      <trkpt lat="44.20286" lon="5.7646">
        <ele>1223.9</ele>
      </trkpt>
      <trkpt lat="44.20298" lon="5.76442">
        <ele>1223.3</ele>
      </trkpt>
      <trkpt lat="44.20307" lon="5.76421">
        <ele>1220.9</ele>
      </trkpt>
      <trkpt lat="44.20333" lon="5.76397">
        <ele>1226.9</ele>
      </trkpt>
      <trkpt lat="44.20342" lon="5.76381">
        <ele>1227.7</ele>
      </trkpt>
      <trkpt lat="44.20351" lon="5.76334">
        <ele>1223.7</ele>
      </trkpt>
      <trkpt lat="44.20357" lon="5.7633">
        <ele>1225.8</ele>
      </trkpt>
      <trkpt lat="44.20378" lon="5.7633">
        <ele>1234.8</ele>
      </trkpt>
      <trkpt lat="44.20391" lon="5.76317">
        <ele>1238.4</ele>
      </trkpt>
      <trkpt lat="44.20405" lon="5.76296">
        <ele>1240.4</ele>
      </trkpt>
      <trkpt lat="44.20418" lon="5.76249">
        <ele>1240.4</ele>
      </trkpt>
      <trkpt lat="44.20434" lon="5.76219">
        <ele>1243.3</ele>
      </trkpt>
      <trkpt lat="44.20441" lon="5.76176">
        <ele>1241</ele>
      </trkpt>
      <trkpt lat="44.20449" lon="5.76159">
        <ele>1241</ele>
      </trkpt>
      <trkpt lat="44.20547" lon="5.76081">
        <ele>1252.6</ele>
      </trkpt>
      <trkpt lat="44.20568" lon="5.76048">
        <ele>1253.8</ele>
      </trkpt>
      <trkpt lat="44.20582" lon="5.76038">
        <ele>1255.5</ele>
      </trkpt>
      <trkpt lat="44.20635" lon="5.76024">
        <ele>1257.4</ele>
      </trkpt>
      <trkpt lat="44.20651" lon="5.76014">
        <ele>1258.3</ele>
      </trkpt>
      <trkpt lat="44.20663" lon="5.75997">
        <ele>1258.1</ele>
      </trkpt>
      <trkpt lat="44.20689" lon="5.75932">
        <ele>1258.4</ele>
      </trkpt>
      <trkpt lat="44.20707" lon="5.75897">
        <ele>1261.3</ele>
      </trkpt>
      <trkpt lat="44.20737" lon="5.75842">
        <ele>1262.8</ele>
      </trkpt>
      <trkpt lat="44.20785" lon="5.75764">
        <ele>1268.8</ele>
      </trkpt>
      <trkpt lat="44.20815" lon="5.7569">
        <ele>1270.8</ele>
      </trkpt>
      <trkpt lat="44.20839" lon="5.75611">
        <ele>1271.4</ele>
      </trkpt>
      <trkpt lat="44.20845" lon="5.75602">
        <ele>1273.2</ele>
        <extensions>
          <visugpx:TrkExtension xmlns:visugpx="https://www.visugpx.com/editgpx/">
            <visugpx:node>1</visugpx:node>
            </visugpx:TrkExtension>
        </extensions>
      </trkpt>
      <trkpt lat="44.2087" lon="5.75561">
        <ele>1277.5</ele>
      </trkpt>
      <trkpt lat="44.20875" lon="5.75552">
        <ele>1277.9</ele>
      </trkpt>
      <trkpt lat="44.20902" lon="5.7553">
        <ele>1281.3</ele>
      </trkpt>
      <trkpt lat="44.20927" lon="5.75516">
        <ele>1286.5</ele>
      </trkpt>
      <trkpt lat="44.20945" lon="5.75504">
        <ele>1288.5</ele>
      </trkpt>
      <trkpt lat="44.20968" lon="5.75484">
        <ele>1289.9</ele>
      </trkpt>
      <trkpt lat="44.21014" lon="5.75446">
        <ele>1288.9</ele>
      </trkpt>
      <trkpt lat="44.2104" lon="5.75433">
        <ele>1289.6</ele>
      </trkpt>
      <trkpt lat="44.21074" lon="5.75431">
        <ele>1288.6</ele>
      </trkpt>
      <trkpt lat="44.21097" lon="5.75433">
        <ele>1287.8</ele>
      </trkpt>
      <trkpt lat="44.21109" lon="5.75428">
        <ele>1288.4</ele>
      </trkpt>
      <trkpt lat="44.21117" lon="5.75416">
        <ele>1288.8</ele>
      </trkpt>
      <trkpt lat="44.21145" lon="5.75345">
        <ele>1291.2</ele>
      </trkpt>
      <trkpt lat="44.2117" lon="5.75305">
        <ele>1286.8</ele>
      </trkpt>
      <trkpt lat="44.21199" lon="5.75253">
        <ele>1282.7</ele>
      </trkpt>
      <trkpt lat="44.21229" lon="5.75189">
        <ele>1286.5</ele>
      </trkpt>
      <trkpt lat="44.21263" lon="5.75148">
        <ele>1289.5</ele>
      </trkpt>
      <trkpt lat="44.21278" lon="5.75177">
        <ele>1286.4</ele>
      </trkpt>
      <trkpt lat="44.21299" lon="5.75195">
        <ele>1285.7</ele>
      </trkpt>
      <trkpt lat="44.21308" lon="5.7521">
        <ele>1284.3</ele>
      </trkpt>
      <trkpt lat="44.21314" lon="5.75252">
        <ele>1280.7</ele>
      </trkpt>
      <trkpt lat="44.21313" lon="5.75272">
        <ele>1279.8</ele>
      </trkpt>
      <trkpt lat="44.21303" lon="5.75311">
        <ele>1277.1</ele>
      </trkpt>
      <trkpt lat="44.21299" lon="5.75346">
        <ele>1274.9</ele>
      </trkpt>
      <trkpt lat="44.21292" lon="5.75446">
        <ele>1269.7</ele>
      </trkpt>
      <trkpt lat="44.21273" lon="5.75489">
        <ele>1264.2</ele>
      </trkpt>
      <trkpt lat="44.21266" lon="5.7551">
        <ele>1262.5</ele>
      </trkpt>
      <trkpt lat="44.21263" lon="5.75541">
        <ele>1261.6</ele>
      </trkpt>
      <trkpt lat="44.21263" lon="5.756">
        <ele>1257.1</ele>
      </trkpt>
      <trkpt lat="44.21267" lon="5.75658">
        <ele>1250.6</ele>
      </trkpt>
      <trkpt lat="44.21273" lon="5.75667">
        <ele>1250.7</ele>
      </trkpt>
      <trkpt lat="44.21279" lon="5.75669">
        <ele>1251.6</ele>
      </trkpt>
      <trkpt lat="44.21288" lon="5.7566">
        <ele>1253.3</ele>
      </trkpt>
      <trkpt lat="44.21295" lon="5.75658">
        <ele>1253.6</ele>
      </trkpt>
      <trkpt lat="44.21301" lon="5.75663">
        <ele>1253.2</ele>
      </trkpt>
      <trkpt lat="44.213" lon="5.75698">
        <ele>1250.2</ele>
      </trkpt>
      <trkpt lat="44.21295" lon="5.75717">
        <ele>1249.1</ele>
      </trkpt>
      <trkpt lat="44.21287" lon="5.75727">
        <ele>1247.2</ele>
      </trkpt>
      <trkpt lat="44.21272" lon="5.75752">
        <ele>1245</ele>
      </trkpt>
      <trkpt lat="44.2125" lon="5.7581">
        <ele>1239.8</ele>
      </trkpt>
      <trkpt lat="44.21249" lon="5.75846">
        <ele>1237.9</ele>
      </trkpt>
      <trkpt lat="44.21265" lon="5.75937">
        <ele>1236.2</ele>
      </trkpt>
      <trkpt lat="44.21266" lon="5.75963">
        <ele>1234.6</ele>
      </trkpt>
      <trkpt lat="44.21264" lon="5.76012">
        <ele>1230.7</ele>
      </trkpt>
      <trkpt lat="44.21273" lon="5.76044">
        <ele>1228.9</ele>
      </trkpt>
      <trkpt lat="44.21273" lon="5.76072">
        <ele>1227.9</ele>
      </trkpt>
      <trkpt lat="44.21267" lon="5.7611">
        <ele>1228.5</ele>
      </trkpt>
      <trkpt lat="44.21266" lon="5.7618">
        <ele>1226.7</ele>
      </trkpt>
      <trkpt lat="44.21268" lon="5.76202">
        <ele>1225.1</ele>
      </trkpt>
      <trkpt lat="44.21286" lon="5.76249">
        <ele>1224.4</ele>
      </trkpt>
      <trkpt lat="44.21294" lon="5.76284">
        <ele>1222.8</ele>
      </trkpt>
      <trkpt lat="44.21307" lon="5.7637">
        <ele>1218.4</ele>
      </trkpt>
      <trkpt lat="44.21324" lon="5.76438">
        <ele>1212.9</ele>
      </trkpt>
      <trkpt lat="44.21339" lon="5.76454">
        <ele>1212.3</ele>
      </trkpt>
      <trkpt lat="44.21345" lon="5.76465">
        <ele>1211.8</ele>
      </trkpt>
      <trkpt lat="44.21348" lon="5.76478">
        <ele>1212.1</ele>
      </trkpt>
      <trkpt lat="44.21347" lon="5.76494">
        <ele>1213.4</ele>
      </trkpt>
      <trkpt lat="44.21327" lon="5.76512">
        <ele>1210.9</ele>
      </trkpt>
      <trkpt lat="44.2132" lon="5.76522">
        <ele>1210</ele>
      </trkpt>
      <trkpt lat="44.21315" lon="5.76539">
        <ele>1208.5</ele>
      </trkpt>
      <trkpt lat="44.21314" lon="5.76564">
        <ele>1206.8</ele>
      </trkpt>
      <trkpt lat="44.21322" lon="5.76644">
        <ele>1204.2</ele>
      </trkpt>
      <trkpt lat="44.21322" lon="5.7668">
        <ele>1201.9</ele>
      </trkpt>
      <trkpt lat="44.21328" lon="5.76719">
        <ele>1201.5</ele>
      </trkpt>
      <trkpt lat="44.21328" lon="5.76798">
        <ele>1200.2</ele>
      </trkpt>
      <trkpt lat="44.21333" lon="5.76886">
        <ele>1195.1</ele>
      </trkpt>
      <trkpt lat="44.21334" lon="5.76946">
        <ele>1193.3</ele>
      </trkpt>
      <trkpt lat="44.21342" lon="5.77">
        <ele>1194.1</ele>
      </trkpt>
      <trkpt lat="44.21346" lon="5.77063">
        <ele>1193</ele>
      </trkpt>
      <trkpt lat="44.21355" lon="5.7709">
        <ele>1193.8</ele>
      </trkpt>
      <trkpt lat="44.21381" lon="5.77142">
        <ele>1189.4</ele>
      </trkpt>
      <trkpt lat="44.21399" lon="5.77173">
        <ele>1187</ele>
      </trkpt>
      <trkpt lat="44.21422" lon="5.77219">
        <ele>1184.6</ele>
      </trkpt>
      <trkpt lat="44.21431" lon="5.77267">
        <ele>1183.1</ele>
      </trkpt>
      <trkpt lat="44.2145" lon="5.77335">
        <ele>1183</ele>
      </trkpt>
      <trkpt lat="44.21453" lon="5.77349">
        <ele>1183.3</ele>
      </trkpt>
      <trkpt lat="44.21446" lon="5.77405">
        <ele>1182.1</ele>
      </trkpt>
      <trkpt lat="44.21446" lon="5.77437">
        <ele>1183.8</ele>
      </trkpt>
      <trkpt lat="44.21444" lon="5.77464">
        <ele>1185.3</ele>
      </trkpt>
      <trkpt lat="44.21445" lon="5.775">
        <ele>1188</ele>
      </trkpt>
      <trkpt lat="44.21449" lon="5.77525">
        <ele>1187</ele>
      </trkpt>
      <trkpt lat="44.2147" lon="5.77574">
        <ele>1188.1</ele>
      </trkpt>
      <trkpt lat="44.21501" lon="5.77602">
        <ele>1191.9</ele>
      </trkpt>
      <trkpt lat="44.21516" lon="5.77623">
        <ele>1194</ele>
      </trkpt>
      <trkpt lat="44.2153" lon="5.77626">
        <ele>1195.8</ele>
      </trkpt>
      <trkpt lat="44.21545" lon="5.77618">
        <ele>1199.5</ele>
      </trkpt>
      <trkpt lat="44.21555" lon="5.77619">
        <ele>1201.3</ele>
      </trkpt>
      <trkpt lat="44.21562" lon="5.7763">
        <ele>1202.3</ele>
      </trkpt>
      <trkpt lat="44.21562" lon="5.77645">
        <ele>1202.1</ele>
      </trkpt>
      <trkpt lat="44.21557" lon="5.77668">
        <ele>1202.4</ele>
      </trkpt>
      <trkpt lat="44.2156" lon="5.77688">
        <ele>1203.8</ele>
      </trkpt>
      <trkpt lat="44.21566" lon="5.77707">
        <ele>1205.4</ele>
      </trkpt>
      <trkpt lat="44.21561" lon="5.77736">
        <ele>1203.6</ele>
      </trkpt>
      <trkpt lat="44.21566" lon="5.77749">
        <ele>1202.9</ele>
      </trkpt>
      <trkpt lat="44.21584" lon="5.77753">
        <ele>1202.9</ele>
      </trkpt>
      <trkpt lat="44.21612" lon="5.77752">
        <ele>1203.6</ele>
      </trkpt>
      <trkpt lat="44.21636" lon="5.77762">
        <ele>1204</ele>
      </trkpt>
      <trkpt lat="44.21648" lon="5.77779">
        <ele>1204.3</ele>
      </trkpt>
      <trkpt lat="44.21649" lon="5.77795">
        <ele>1204.5</ele>
      </trkpt>
      <trkpt lat="44.21646" lon="5.77816">
        <ele>1204.4</ele>
      </trkpt>
      <trkpt lat="44.21639" lon="5.77828">
        <ele>1203.6</ele>
      </trkpt>
      <trkpt lat="44.21631" lon="5.77836">
        <ele>1203.1</ele>
      </trkpt>
      <trkpt lat="44.21621" lon="5.7785">
        <ele>1203</ele>
      </trkpt>
      <trkpt lat="44.21618" lon="5.77872">
        <ele>1204.7</ele>
      </trkpt>
      <trkpt lat="44.21621" lon="5.77893">
        <ele>1206.5</ele>
      </trkpt>
      <trkpt lat="44.21637" lon="5.77917">
        <ele>1207.9</ele>
      </trkpt>
      <trkpt lat="44.21647" lon="5.77927">
        <ele>1209.6</ele>
      </trkpt>
      <trkpt lat="44.21664" lon="5.77993">
        <ele>1213.4</ele>
      </trkpt>
      <trkpt lat="44.21669" lon="5.78008">
        <ele>1214</ele>
      </trkpt>
      <trkpt lat="44.21676" lon="5.78013">
        <ele>1214.9</ele>
      </trkpt>
      <trkpt lat="44.21687" lon="5.78008">
        <ele>1216.6</ele>
      </trkpt>
      <trkpt lat="44.21724" lon="5.78">
        <ele>1223.3</ele>
      </trkpt>
      <trkpt lat="44.21732" lon="5.78001">
        <ele>1224.7</ele>
      </trkpt>
      <trkpt lat="44.21752" lon="5.78033">
        <ele>1225.6</ele>
      </trkpt>
      <trkpt lat="44.21763" lon="5.78041">
        <ele>1224.8</ele>
      </trkpt>
      <trkpt lat="44.21767" lon="5.78039">
        <ele>1224.9</ele>
      </trkpt>
      <trkpt lat="44.21774" lon="5.78001">
        <ele>1227.1</ele>
      </trkpt>
      <trkpt lat="44.2181" lon="5.7795">
        <ele>1221.1</ele>
      </trkpt>
      <trkpt lat="44.21827" lon="5.77932">
        <ele>1219.5</ele>
      </trkpt>
      <trkpt lat="44.21851" lon="5.77924">
        <ele>1216.7</ele>
      </trkpt>
      <trkpt lat="44.21879" lon="5.77924">
        <ele>1212.7</ele>
      </trkpt>
      <trkpt lat="44.21904" lon="5.7791">
        <ele>1212.1</ele>
      </trkpt>
      <trkpt lat="44.21931" lon="5.779">
        <ele>1209.8</ele>
      </trkpt>
      <trkpt lat="44.21992" lon="5.77851">
        <ele>1202.9</ele>
      </trkpt>
      <trkpt lat="44.22008" lon="5.7783">
        <ele>1200.8</ele>
      </trkpt>
      <trkpt lat="44.22046" lon="5.77765">
        <ele>1193.9</ele>
      </trkpt>
      <trkpt lat="44.22056" lon="5.77745">
        <ele>1191</ele>
      </trkpt>
      <trkpt lat="44.22065" lon="5.77722">
        <ele>1188.6</ele>
      </trkpt>
      <trkpt lat="44.22082" lon="5.77703">
        <ele>1184.6</ele>
      </trkpt>
      <trkpt lat="44.22096" lon="5.77676">
        <ele>1183.9</ele>
      </trkpt>
      <trkpt lat="44.22122" lon="5.77645">
        <ele>1182.6</ele>
      </trkpt>
      <trkpt lat="44.22149" lon="5.7763">
        <ele>1181.2</ele>
      </trkpt>
      <trkpt lat="44.22166" lon="5.7763">
        <ele>1179</ele>
      </trkpt>
      <trkpt lat="44.22186" lon="5.77634">
        <ele>1178</ele>
      </trkpt>
      <trkpt lat="44.22195" lon="5.77633">
        <ele>1177.9</ele>
      </trkpt>
      <trkpt lat="44.22199" lon="5.77628">
        <ele>1176.9</ele>
      </trkpt>
      <trkpt lat="44.22198" lon="5.77608">
        <ele>1176.8</ele>
      </trkpt>
      <trkpt lat="44.22185" lon="5.77558">
        <ele>1177.2</ele>
      </trkpt>
      <trkpt lat="44.22184" lon="5.7753">
        <ele>1176.5</ele>
      </trkpt>
      <trkpt lat="44.222" lon="5.77499">
        <ele>1173.3</ele>
      </trkpt>
      <trkpt lat="44.2222" lon="5.77469">
        <ele>1172.5</ele>
      </trkpt>
      <trkpt lat="44.22223" lon="5.77453">
        <ele>1172.6</ele>
      </trkpt>
      <trkpt lat="44.22233" lon="5.7744">
        <ele>1172.5</ele>
      </trkpt>
      <trkpt lat="44.22253" lon="5.77431">
        <ele>1171.1</ele>
      </trkpt>
      <trkpt lat="44.22266" lon="5.77429">
        <ele>1169.6</ele>
      </trkpt>
      <trkpt lat="44.22312" lon="5.77409">
        <ele>1164.3</ele>
      </trkpt>
      <trkpt lat="44.22323" lon="5.774">
        <ele>1164.6</ele>
      </trkpt>
      <trkpt lat="44.22333" lon="5.77404">
        <ele>1162.8</ele>
      </trkpt>
      <trkpt lat="44.22347" lon="5.77412">
        <ele>1161.5</ele>
      </trkpt>
      <trkpt lat="44.22359" lon="5.77414">
        <ele>1161.5</ele>
      </trkpt>
      <trkpt lat="44.22476" lon="5.77401">
        <ele>1157.4</ele>
      </trkpt>
      <trkpt lat="44.22486" lon="5.77402">
        <ele>1155.3</ele>
      </trkpt>
      <trkpt lat="44.22489" lon="5.77414">
        <ele>1154.1</ele>
      </trkpt>
      <trkpt lat="44.22483" lon="5.77433">
        <ele>1153.3</ele>
      </trkpt>
      <trkpt lat="44.22488" lon="5.77434">
        <ele>1152.3</ele>
      </trkpt>
      <trkpt lat="44.22515" lon="5.77425">
        <ele>1146.4</ele>
      </trkpt>
      <trkpt lat="44.22527" lon="5.77426">
        <ele>1142.6</ele>
      </trkpt>
      <trkpt lat="44.22541" lon="5.77431">
        <ele>1138.4</ele>
      </trkpt>
      <trkpt lat="44.22565" lon="5.77448">
        <ele>1131.7</ele>
      </trkpt>
      <trkpt lat="44.22572" lon="5.77449">
        <ele>1130.1</ele>
      </trkpt>
      <trkpt lat="44.22596" lon="5.77415">
        <ele>1128.2</ele>
      </trkpt>
      <trkpt lat="44.22615" lon="5.77385">
        <ele>1126.9</ele>
      </trkpt>
      <trkpt lat="44.22621" lon="5.7736">
        <ele>1128</ele>
      </trkpt>
      <trkpt lat="44.22632" lon="5.77337">
        <ele>1129.1</ele>
      </trkpt>
      <trkpt lat="44.2264" lon="5.77333">
        <ele>1129.5</ele>
      </trkpt>
      <trkpt lat="44.22645" lon="5.77338">
        <ele>1130.8</ele>
      </trkpt>
      <trkpt lat="44.22644" lon="5.77353">
        <ele>1128.6</ele>
      </trkpt>
      <trkpt lat="44.22655" lon="5.77429">
        <ele>1122.9</ele>
      </trkpt>
      <trkpt lat="44.22677" lon="5.77483">
        <ele>1120.8</ele>
      </trkpt>
      <trkpt lat="44.22688" lon="5.77497">
        <ele>1120.4</ele>
      </trkpt>
      <trkpt lat="44.22698" lon="5.77507">
        <ele>1119.5</ele>
      </trkpt>
      <trkpt lat="44.22713" lon="5.77499">
        <ele>1121.3</ele>
      </trkpt>
      <trkpt lat="44.22729" lon="5.77481">
        <ele>1125.9</ele>
      </trkpt>
      <trkpt lat="44.22756" lon="5.7747">
        <ele>1126.8</ele>
      </trkpt>
      <trkpt lat="44.22783" lon="5.77453">
        <ele>1130.3</ele>
      </trkpt>
      <trkpt lat="44.2279" lon="5.77457">
        <ele>1130.2</ele>
      </trkpt>
      <trkpt lat="44.2279" lon="5.77466">
        <ele>1129.5</ele>
      </trkpt>
      <trkpt lat="44.22738" lon="5.77591">
        <ele>1120.8</ele>
      </trkpt>
      <trkpt lat="44.22725" lon="5.77614">
        <ele>1119.9</ele>
      </trkpt>
      <trkpt lat="44.22722" lon="5.77633">
        <ele>1120.5</ele>
      </trkpt>
      <trkpt lat="44.22722" lon="5.77661">
        <ele>1121</ele>
      </trkpt>
      <trkpt lat="44.22727" lon="5.77702">
        <ele>1121.3</ele>
      </trkpt>
      <trkpt lat="44.22715" lon="5.77767">
        <ele>1119.5</ele>
      </trkpt>
      <trkpt lat="44.2272" lon="5.77895">
        <ele>1118.7</ele>
      </trkpt>
      <trkpt lat="44.22724" lon="5.77906">
        <ele>1119.2</ele>
      </trkpt>
      <trkpt lat="44.22731" lon="5.77916">
        <ele>1119.7</ele>
      </trkpt>
      <trkpt lat="44.22754" lon="5.77918">
        <ele>1123.5</ele>
      </trkpt>
      <trkpt lat="44.22769" lon="5.77922">
        <ele>1126</ele>
      </trkpt>
      <trkpt lat="44.22776" lon="5.77935">
        <ele>1126.9</ele>
      </trkpt>
      <trkpt lat="44.22768" lon="5.77969">
        <ele>1127</ele>
      </trkpt>
      <trkpt lat="44.22739" lon="5.78046">
        <ele>1128.8</ele>
      </trkpt>
      <trkpt lat="44.22734" lon="5.78064">
        <ele>1129.2</ele>
      </trkpt>
      <trkpt lat="44.22732" lon="5.78086">
        <ele>1129.8</ele>
      </trkpt>
      <trkpt lat="44.22742" lon="5.7818">
        <ele>1130.8</ele>
      </trkpt>
      <trkpt lat="44.22743" lon="5.78215">
        <ele>1128.9</ele>
      </trkpt>
      <trkpt lat="44.22747" lon="5.78235">
        <ele>1128.6</ele>
      </trkpt>
      <trkpt lat="44.22784" lon="5.78285">
        <ele>1133.3</ele>
      </trkpt>
      <trkpt lat="44.22815" lon="5.78352">
        <ele>1135.8</ele>
      </trkpt>
      <trkpt lat="44.22856" lon="5.7841">
        <ele>1141.8</ele>
      </trkpt>
      <trkpt lat="44.2288" lon="5.78432">
        <ele>1145.6</ele>
      </trkpt>
      <trkpt lat="44.22885" lon="5.78446">
        <ele>1146.4</ele>
      </trkpt>
      <trkpt lat="44.22869" lon="5.78522">
        <ele>1146.6</ele>
      </trkpt>
      <trkpt lat="44.22867" lon="5.78552">
        <ele>1147.4</ele>
      </trkpt>
      <trkpt lat="44.22869" lon="5.78576">
        <ele>1147.5</ele>
      </trkpt>
      <trkpt lat="44.22869" lon="5.78634">
        <ele>1146</ele>
      </trkpt>
      <trkpt lat="44.22874" lon="5.78673">
        <ele>1145.5</ele>
      </trkpt>
      <trkpt lat="44.22874" lon="5.78686">
        <ele>1145</ele>
        <extensions>
          <visugpx:TrkExtension xmlns:visugpx="https://www.visugpx.com/editgpx/">
            <visugpx:node>2</visugpx:node>
            </visugpx:TrkExtension>
        </extensions>
      </trkpt>
      <trkpt lat="44.22874" lon="5.78771">
        <ele>1145.7</ele>
      </trkpt>
      <trkpt lat="44.22882" lon="5.78801">
        <ele>1147</ele>
      </trkpt>
      <trkpt lat="44.22903" lon="5.78853">
        <ele>1145.7</ele>
      </trkpt>
      <trkpt lat="44.22906" lon="5.78879">
        <ele>1145.7</ele>
      </trkpt>
      <trkpt lat="44.22906" lon="5.78888">
        <ele>1145.8</ele>
      </trkpt>
      <trkpt lat="44.22892" lon="5.7893">
        <ele>1147</ele>
      </trkpt>
      <trkpt lat="44.22879" lon="5.78953">
        <ele>1144.6</ele>
      </trkpt>
      <trkpt lat="44.22872" lon="5.78978">
        <ele>1143.5</ele>
      </trkpt>
      <trkpt lat="44.22882" lon="5.7905">
        <ele>1141.9</ele>
      </trkpt>
      <trkpt lat="44.22881" lon="5.79061">
        <ele>1141.4</ele>
      </trkpt>
      <trkpt lat="44.22872" lon="5.79075">
        <ele>1139.4</ele>
      </trkpt>
      <trkpt lat="44.22849" lon="5.79089">
        <ele>1133.4</ele>
      </trkpt>
      <trkpt lat="44.22825" lon="5.79125">
        <ele>1129.2</ele>
      </trkpt>
      <trkpt lat="44.22807" lon="5.79161">
        <ele>1124.1</ele>
      </trkpt>
      <trkpt lat="44.22797" lon="5.79202">
        <ele>1119.1</ele>
      </trkpt>
      <trkpt lat="44.22798" lon="5.79213">
        <ele>1117.6</ele>
      </trkpt>
      <trkpt lat="44.22824" lon="5.79229">
        <ele>1120.2</ele>
      </trkpt>
      <trkpt lat="44.22834" lon="5.79242">
        <ele>1118.9</ele>
      </trkpt>
      <trkpt lat="44.22844" lon="5.79261">
        <ele>1118.1</ele>
      </trkpt>
      <trkpt lat="44.22856" lon="5.79294">
        <ele>1115.4</ele>
      </trkpt>
      <trkpt lat="44.22877" lon="5.79334">
        <ele>1113.9</ele>
      </trkpt>
      <trkpt lat="44.22899" lon="5.79412">
        <ele>1108.3</ele>
      </trkpt>
      <trkpt lat="44.22907" lon="5.79448">
        <ele>1104.6</ele>
      </trkpt>
      <trkpt lat="44.22931" lon="5.79487">
        <ele>1106.7</ele>
      </trkpt>
      <trkpt lat="44.22936" lon="5.79507">
        <ele>1104.9</ele>
      </trkpt>
      <trkpt lat="44.22934" lon="5.79551">
        <ele>1099.2</ele>
      </trkpt>
      <trkpt lat="44.22938" lon="5.79562">
        <ele>1097.7</ele>
      </trkpt>
      <trkpt lat="44.22979" lon="5.79613">
        <ele>1097.2</ele>
      </trkpt>
      <trkpt lat="44.22998" lon="5.79643">
        <ele>1096.9</ele>
      </trkpt>
      <trkpt lat="44.23006" lon="5.7967">
        <ele>1095.4</ele>
      </trkpt>
      <trkpt lat="44.2301" lon="5.79697">
        <ele>1094.2</ele>
      </trkpt>
      <trkpt lat="44.23008" lon="5.79713">
        <ele>1094.4</ele>
      </trkpt>
      <trkpt lat="44.23" lon="5.79723">
        <ele>1093.2</ele>
      </trkpt>
      <trkpt lat="44.22987" lon="5.79721">
        <ele>1090.4</ele>
      </trkpt>
      <trkpt lat="44.22969" lon="5.79726">
        <ele>1088.3</ele>
      </trkpt>
      <trkpt lat="44.22942" lon="5.79742">
        <ele>1086.2</ele>
      </trkpt>
      <trkpt lat="44.22923" lon="5.79745">
        <ele>1084.2</ele>
      </trkpt>
      <trkpt lat="44.22912" lon="5.79753">
        <ele>1083.1</ele>
      </trkpt>
      <trkpt lat="44.22905" lon="5.79769">
        <ele>1081.6</ele>
      </trkpt>
      <trkpt lat="44.22904" lon="5.79786">
        <ele>1080.1</ele>
      </trkpt>
      <trkpt lat="44.22914" lon="5.79846">
        <ele>1072.1</ele>
      </trkpt>
      <trkpt lat="44.22935" lon="5.79898">
        <ele>1069.8</ele>
      </trkpt>
      <trkpt lat="44.22949" lon="5.7997">
        <ele>1063.5</ele>
      </trkpt>
      <trkpt lat="44.22973" lon="5.80053">
        <ele>1054.7</ele>
      </trkpt>
      <trkpt lat="44.22984" lon="5.80104">
        <ele>1052.1</ele>
      </trkpt>
      <trkpt lat="44.22992" lon="5.80162">
        <ele>1050.6</ele>
      </trkpt>
      <trkpt lat="44.22988" lon="5.8019">
        <ele>1050.6</ele>
      </trkpt>
      <trkpt lat="44.22981" lon="5.80207">
        <ele>1050.7</ele>
      </trkpt>
      <trkpt lat="44.22975" lon="5.80224">
        <ele>1051.1</ele>
      </trkpt>
      <trkpt lat="44.22968" lon="5.8024">
        <ele>1050</ele>
      </trkpt>
      <trkpt lat="44.22969" lon="5.8025">
        <ele>1049.7</ele>
      </trkpt>
      <trkpt lat="44.22982" lon="5.80262">
        <ele>1049.3</ele>
      </trkpt>
      <trkpt lat="44.22997" lon="5.80304">
        <ele>1047.5</ele>
      </trkpt>
      <trkpt lat="44.22994" lon="5.80333">
        <ele>1045.7</ele>
        <extensions>
          <visugpx:TrkExtension xmlns:visugpx="https://www.visugpx.com/editgpx/">
            <visugpx:node>4</visugpx:node>
            </visugpx:TrkExtension>
        </extensions>
      </trkpt>
      <trkpt lat="44.22993" lon="5.80354">
        <ele>1044.9</ele>
      </trkpt>
      <trkpt lat="44.22986" lon="5.80379">
        <ele>1042.8</ele>
      </trkpt>
      <trkpt lat="44.22971" lon="5.80394">
        <ele>1040.9</ele>
      </trkpt>
      <trkpt lat="44.22952" lon="5.80404">
        <ele>1039.6</ele>
      </trkpt>
      <trkpt lat="44.22929" lon="5.80409">
        <ele>1038.3</ele>
      </trkpt>
      <trkpt lat="44.22912" lon="5.80417">
        <ele>1037.7</ele>
      </trkpt>
      <trkpt lat="44.22884" lon="5.80448">
        <ele>1036.8</ele>
      </trkpt>
      <trkpt lat="44.22875" lon="5.8047">
        <ele>1036</ele>
      </trkpt>
      <trkpt lat="44.22871" lon="5.80521">
        <ele>1034.8</ele>
      </trkpt>
      <trkpt lat="44.22872" lon="5.80602">
        <ele>1033.9</ele>
      </trkpt>
      <trkpt lat="44.22879" lon="5.80698">
        <ele>1030.2</ele>
      </trkpt>
      <trkpt lat="44.22886" lon="5.80717">
        <ele>1028</ele>
      </trkpt>
      <trkpt lat="44.22926" lon="5.80772">
        <ele>1021.9</ele>
      </trkpt>
      <trkpt lat="44.22951" lon="5.80803">
        <ele>1020.1</ele>
      </trkpt>
      <trkpt lat="44.22968" lon="5.80843">
        <ele>1016.1</ele>
      </trkpt>
      <trkpt lat="44.2297" lon="5.80855">
        <ele>1013.9</ele>
      </trkpt>
      <trkpt lat="44.22965" lon="5.80863">
        <ele>1010.5</ele>
      </trkpt>
      <trkpt lat="44.22956" lon="5.80863">
        <ele>1007.9</ele>
      </trkpt>
      <trkpt lat="44.22926" lon="5.80844">
        <ele>1003.8</ele>
      </trkpt>
      <trkpt lat="44.22916" lon="5.80834">
        <ele>1003.6</ele>
      </trkpt>
      <trkpt lat="44.22906" lon="5.80837">
        <ele>999.8</ele>
      </trkpt>
      <trkpt lat="44.22901" lon="5.80846">
        <ele>996.4</ele>
      </trkpt>
      <trkpt lat="44.22906" lon="5.80865">
        <ele>994.1</ele>
      </trkpt>
      <trkpt lat="44.22951" lon="5.80936">
        <ele>987.9</ele>
      </trkpt>
      <trkpt lat="44.22973" lon="5.80982">
        <ele>985.1</ele>
      </trkpt>
      <trkpt lat="44.22984" lon="5.81021">
        <ele>980.4</ele>
      </trkpt>
      <trkpt lat="44.2298" lon="5.8104">
        <ele>976.7</ele>
      </trkpt>
      <trkpt lat="44.22969" lon="5.81046">
        <ele>974.6</ele>
      </trkpt>
      <trkpt lat="44.2296" lon="5.81041">
        <ele>973.8</ele>
      </trkpt>
      <trkpt lat="44.2295" lon="5.81045">
        <ele>971.9</ele>
      </trkpt>
      <trkpt lat="44.22945" lon="5.81064">
        <ele>969.8</ele>
      </trkpt>
      <trkpt lat="44.22943" lon="5.81091">
        <ele>968</ele>
      </trkpt>
      <trkpt lat="44.22944" lon="5.81126">
        <ele>965.8</ele>
      </trkpt>
      <trkpt lat="44.22951" lon="5.81141">
        <ele>965.5</ele>
      </trkpt>
      <trkpt lat="44.22968" lon="5.81165">
        <ele>964.7</ele>
      </trkpt>
      <trkpt lat="44.22972" lon="5.81184">
        <ele>961.9</ele>
      </trkpt>
      <trkpt lat="44.22966" lon="5.81195">
        <ele>959.4</ele>
      </trkpt>
      <trkpt lat="44.22947" lon="5.81194">
        <ele>958.2</ele>
      </trkpt>
      <trkpt lat="44.22938" lon="5.81187">
        <ele>957.7</ele>
      </trkpt>
      <trkpt lat="44.22925" lon="5.81172">
        <ele>956</ele>
      </trkpt>
      <trkpt lat="44.22916" lon="5.81156">
        <ele>954.9</ele>
      </trkpt>
      <trkpt lat="44.22908" lon="5.81153">
        <ele>952.5</ele>
      </trkpt>
      <trkpt lat="44.22902" lon="5.81163">
        <ele>950</ele>
      </trkpt>
      <trkpt lat="44.22902" lon="5.81182">
        <ele>948.9</ele>
      </trkpt>
      <trkpt lat="44.22905" lon="5.81221">
        <ele>947.3</ele>
      </trkpt>
      <trkpt lat="44.22914" lon="5.81245">
        <ele>946.2</ele>
      </trkpt>
      <trkpt lat="44.22935" lon="5.81272">
        <ele>942.3</ele>
      </trkpt>
      <trkpt lat="44.22992" lon="5.81267">
        <ele>941.1</ele>
      </trkpt>
      <trkpt lat="44.22999" lon="5.8128">
        <ele>937.7</ele>
      </trkpt>
      <trkpt lat="44.23002" lon="5.81295">
        <ele>936.1</ele>
      </trkpt>
      <trkpt lat="44.23025" lon="5.81364">
        <ele>928.5</ele>
      </trkpt>
      <trkpt lat="44.2304" lon="5.81387">
        <ele>927</ele>
      </trkpt>
      <trkpt lat="44.23047" lon="5.81411">
        <ele>925.1</ele>
      </trkpt>
      <trkpt lat="44.2305" lon="5.8146">
        <ele>920.6</ele>
      </trkpt>
      <trkpt lat="44.2304" lon="5.8151">
        <ele>913.5</ele>
      </trkpt>
      <trkpt lat="44.23029" lon="5.81546">
        <ele>908</ele>
      </trkpt>
      <trkpt lat="44.2302" lon="5.81552">
        <ele>906.6</ele>
      </trkpt>
      <trkpt lat="44.23006" lon="5.81553">
        <ele>905.4</ele>
      </trkpt>
      <trkpt lat="44.22989" lon="5.81536">
        <ele>903.2</ele>
      </trkpt>
      <trkpt lat="44.22982" lon="5.81522">
        <ele>902.1</ele>
      </trkpt>
      <trkpt lat="44.22969" lon="5.81489">
        <ele>900.4</ele>
      </trkpt>
      <trkpt lat="44.22967" lon="5.81484">
        <ele>900.1</ele>
      </trkpt>
      <trkpt lat="44.22952" lon="5.81441">
        <ele>901.2</ele>
      </trkpt>
      <trkpt lat="44.22935" lon="5.8142">
        <ele>901.7</ele>
      </trkpt>
      <trkpt lat="44.22926" lon="5.81404">
        <ele>902.2</ele>
      </trkpt>
      <trkpt lat="44.22919" lon="5.81385">
        <ele>903</ele>
      </trkpt>
      <trkpt lat="44.22912" lon="5.81381">
        <ele>902.5</ele>
      </trkpt>
      <trkpt lat="44.22894" lon="5.81385">
        <ele>899.4</ele>
      </trkpt>
      <trkpt lat="44.22876" lon="5.81383">
        <ele>898</ele>
      </trkpt>
      <trkpt lat="44.22848" lon="5.81398">
        <ele>893</ele>
      </trkpt>
      <trkpt lat="44.22817" lon="5.81383">
        <ele>889.6</ele>
      </trkpt>
      <trkpt lat="44.22732" lon="5.81292">
        <ele>879.4</ele>
      </trkpt>
      <trkpt lat="44.22692" lon="5.81267">
        <ele>878.7</ele>
      </trkpt>
      <trkpt lat="44.22672" lon="5.81233">
        <ele>877.1</ele>
      </trkpt>
      <trkpt lat="44.22665" lon="5.81203">
        <ele>875.6</ele>
      </trkpt>
      <trkpt lat="44.22661" lon="5.8118">
        <ele>874.7</ele>
      </trkpt>
      <trkpt lat="44.22656" lon="5.81168">
        <ele>873.7</ele>
      </trkpt>
      <trkpt lat="44.22641" lon="5.81152">
        <ele>871</ele>
      </trkpt>
      <trkpt lat="44.22618" lon="5.81138">
        <ele>868.1</ele>
      </trkpt>
      <trkpt lat="44.22593" lon="5.81135">
        <ele>865.2</ele>
      </trkpt>
      <trkpt lat="44.22581" lon="5.8113">
        <ele>864.2</ele>
      </trkpt>
      <trkpt lat="44.22565" lon="5.81105">
        <ele>862.3</ele>
      </trkpt>
      <trkpt lat="44.22551" lon="5.81064">
        <ele>859.7</ele>
      </trkpt>
      <trkpt lat="44.22527" lon="5.81024">
        <ele>855.5</ele>
      </trkpt>
      <trkpt lat="44.22521" lon="5.80996">
        <ele>851.9</ele>
      </trkpt>
      <trkpt lat="44.22495" lon="5.80907">
        <ele>843.7</ele>
      </trkpt>
      <trkpt lat="44.22489" lon="5.80857">
        <ele>843.3</ele>
      </trkpt>
      <trkpt lat="44.22485" lon="5.80853">
        <ele>841.3</ele>
      </trkpt>
      <trkpt lat="44.2248" lon="5.80858">
        <ele>838.3</ele>
        <extensions>
          <visugpx:TrkExtension xmlns:visugpx="https://www.visugpx.com/editgpx/">
            <visugpx:node>15</visugpx:node>
            </visugpx:TrkExtension>
        </extensions>
      </trkpt>
      <trkpt lat="44.22477" lon="5.80926">
        <ele>832.9</ele>
      </trkpt>
      <trkpt lat="44.22482" lon="5.80965">
        <ele>833.3</ele>
      </trkpt>
      <trkpt lat="44.22479" lon="5.81015">
        <ele>831.1</ele>
      </trkpt>
      <trkpt lat="44.22457" lon="5.81061">
        <ele>824.2</ele>
      </trkpt>
      <trkpt lat="44.22447" lon="5.81108">
        <ele>821.3</ele>
      </trkpt>
      <trkpt lat="44.22441" lon="5.8115">
        <ele>818.1</ele>
      </trkpt>
      <trkpt lat="44.2244" lon="5.81179">
        <ele>817.8</ele>
      </trkpt>
      <trkpt lat="44.22426" lon="5.81238">
        <ele>812.7</ele>
      </trkpt>
      <trkpt lat="44.22424" lon="5.81268">
        <ele>810.5</ele>
      </trkpt>
      <trkpt lat="44.22428" lon="5.81325">
        <ele>809</ele>
      </trkpt>
      <trkpt lat="44.22426" lon="5.81335">
        <ele>808.1</ele>
      </trkpt>
      <trkpt lat="44.22411" lon="5.81383">
        <ele>803.5</ele>
      </trkpt>
      <trkpt lat="44.22403" lon="5.81419">
        <ele>801</ele>
      </trkpt>
      <trkpt lat="44.224" lon="5.8144">
        <ele>799.6</ele>
      </trkpt>
      <trkpt lat="44.22402" lon="5.81461">
        <ele>798.6</ele>
      </trkpt>
      <trkpt lat="44.22414" lon="5.81517">
        <ele>793.2</ele>
      </trkpt>
      <trkpt lat="44.22427" lon="5.81565">
        <ele>789.6</ele>
      </trkpt>
      <trkpt lat="44.22438" lon="5.81602">
        <ele>787.6</ele>
      </trkpt>
      <trkpt lat="44.2245" lon="5.81649">
        <ele>786.3</ele>
      </trkpt>
      <trkpt lat="44.22451" lon="5.8168">
        <ele>785.1</ele>
      </trkpt>
      <trkpt lat="44.22443" lon="5.81757">
        <ele>779.4</ele>
      </trkpt>
      <trkpt lat="44.2244" lon="5.81778">
        <ele>777.7</ele>
      </trkpt>
      <trkpt lat="44.22435" lon="5.81779">
        <ele>776.2</ele>
      </trkpt>
      <trkpt lat="44.22428" lon="5.81799">
        <ele>772.7</ele>
      </trkpt>
      <trkpt lat="44.22423" lon="5.81829">
        <ele>770</ele>
      </trkpt>
      <trkpt lat="44.22417" lon="5.81857">
        <ele>765.5</ele>
      </trkpt>
      <trkpt lat="44.22415" lon="5.81882">
        <ele>763</ele>
      </trkpt>
      <trkpt lat="44.22414" lon="5.81887">
        <ele>762.4</ele>
      </trkpt>
      <trkpt lat="44.22407" lon="5.81909">
        <ele>759</ele>
      </trkpt>
      <trkpt lat="44.22402" lon="5.81931">
        <ele>756.5</ele>
      </trkpt>
      <trkpt lat="44.224" lon="5.81949">
        <ele>755.4</ele>
      </trkpt>
      <trkpt lat="44.22395" lon="5.8196">
        <ele>754.3</ele>
      </trkpt>
      <trkpt lat="44.22385" lon="5.81969">
        <ele>752.3</ele>
      </trkpt>
      <trkpt lat="44.22375" lon="5.81969">
        <ele>750.5</ele>
      </trkpt>
      <trkpt lat="44.22348" lon="5.8193">
        <ele>746.2</ele>
      </trkpt>
      <trkpt lat="44.22337" lon="5.81924">
        <ele>743.9</ele>
      </trkpt>
      <trkpt lat="44.2232" lon="5.81935">
        <ele>740.4</ele>
      </trkpt>
      <trkpt lat="44.22313" lon="5.81952">
        <ele>738.6</ele>
      </trkpt>
      <trkpt lat="44.22307" lon="5.81984">
        <ele>736.9</ele>
      </trkpt>
      <trkpt lat="44.22307" lon="5.82071">
        <ele>730.2</ele>
      </trkpt>
      <trkpt lat="44.22308" lon="5.82086">
        <ele>729.3</ele>
      </trkpt>
      <trkpt lat="44.22303" lon="5.82093">
        <ele>728.3</ele>
      </trkpt>
      <trkpt lat="44.22296" lon="5.82092">
        <ele>727.2</ele>
      </trkpt>
      <trkpt lat="44.22274" lon="5.82052">
        <ele>721.8</ele>
      </trkpt>
      <trkpt lat="44.22264" lon="5.81997">
        <ele>717.7</ele>
      </trkpt>
      <trkpt lat="44.2225" lon="5.81966">
        <ele>713.7</ele>
      </trkpt>
      <trkpt lat="44.22223" lon="5.81931">
        <ele>708.7</ele>
      </trkpt>
      <trkpt lat="44.22206" lon="5.81921">
        <ele>705.5</ele>
      </trkpt>
      <trkpt lat="44.222" lon="5.81919">
        <ele>704.2</ele>
      </trkpt>
      <trkpt lat="44.22195" lon="5.81917">
        <ele>703.1</ele>
      </trkpt>
      <trkpt lat="44.22179" lon="5.8193">
        <ele>699</ele>
      </trkpt>
      <trkpt lat="44.22147" lon="5.81953">
        <ele>692.9</ele>
      </trkpt>
      <trkpt lat="44.2214" lon="5.8198">
        <ele>690.9</ele>
      </trkpt>
      <trkpt lat="44.22143" lon="5.82002">
        <ele>690.5</ele>
      </trkpt>
      <trkpt lat="44.2215" lon="5.82017">
        <ele>691</ele>
      </trkpt>
      <trkpt lat="44.22158" lon="5.8205">
        <ele>690.7</ele>
      </trkpt>
      <trkpt lat="44.22155" lon="5.82071">
        <ele>689.3</ele>
      </trkpt>
      <trkpt lat="44.22151" lon="5.82083">
        <ele>688.1</ele>
      </trkpt>
      <trkpt lat="44.22159" lon="5.82143">
        <ele>685.6</ele>
      </trkpt>
      <trkpt lat="44.22191" lon="5.82258">
        <ele>682.8</ele>
      </trkpt>
      <trkpt lat="44.22157" lon="5.82298">
        <ele>671.3</ele>
        <extensions>
          <visugpx:TrkExtension xmlns:visugpx="https://www.visugpx.com/editgpx/">
            <visugpx:node>13</visugpx:node>
            </visugpx:TrkExtension>
        </extensions>
      </trkpt>
      <trkpt lat="44.22154" lon="5.82299">
        <ele>670.7</ele>
        <extensions>
          <visugpx:TrkExtension xmlns:visugpx="https://www.visugpx.com/editgpx/">
            <visugpx:node>13</visugpx:node>
            </visugpx:TrkExtension>
        </extensions>
      </trkpt>
      <trkpt lat="44.22153" lon="5.82305">
        <ele>670</ele>
      </trkpt>
      <trkpt lat="44.22139" lon="5.82312">
        <ele>666.6</ele>
      </trkpt>
      <trkpt lat="44.22141" lon="5.82336">
        <ele>665.2</ele>
      </trkpt>
      <trkpt lat="44.22143" lon="5.82342">
        <ele>665</ele>
        <extensions>
          <visugpx:TrkExtension xmlns:visugpx="https://www.visugpx.com/editgpx/">
            <visugpx:node>7</visugpx:node>
            </visugpx:TrkExtension>
        </extensions>
      </trkpt>
      <trkpt lat="44.22153" lon="5.82374">
        <ele>663.7</ele>
      </trkpt>
      <trkpt lat="44.22166" lon="5.82396">
        <ele>663.6</ele>
      </trkpt>
      <trkpt lat="44.22177" lon="5.82409">
        <ele>663.4</ele>
      </trkpt>
      <trkpt lat="44.22181" lon="5.82418">
        <ele>662.9</ele>
      </trkpt>
      <trkpt lat="44.22179" lon="5.82425">
        <ele>661.2</ele>
      </trkpt>
      <trkpt lat="44.22173" lon="5.82426">
        <ele>659.7</ele>
      </trkpt>
      <trkpt lat="44.22146" lon="5.82395">
        <ele>658.9</ele>
      </trkpt>
      <trkpt lat="44.22134" lon="5.82383">
        <ele>657.6</ele>
      </trkpt>
      <trkpt lat="44.22127" lon="5.82361">
        <ele>658.6</ele>
      </trkpt>
      <trkpt lat="44.22126" lon="5.82351">
        <ele>659.4</ele>
      </trkpt>
      <trkpt lat="44.22122" lon="5.82346">
        <ele>658.8</ele>
      </trkpt>
      <trkpt lat="44.22116" lon="5.82349">
        <ele>656.7</ele>
      </trkpt>
      <trkpt lat="44.22117" lon="5.8236">
        <ele>655.8</ele>
      </trkpt>
      <trkpt lat="44.2212" lon="5.82375">
        <ele>654.9</ele>
      </trkpt>
      <trkpt lat="44.22147" lon="5.8245">
        <ele>650.5</ele>
      </trkpt>
      <trkpt lat="44.22173" lon="5.82479">
        <ele>649.7</ele>
      </trkpt>
      <trkpt lat="44.2221" lon="5.82516">
        <ele>649</ele>
      </trkpt>
      <trkpt lat="44.22225" lon="5.82542">
        <ele>648.3</ele>
      </trkpt>
      <trkpt lat="44.22227" lon="5.82556">
        <ele>646.7</ele>
      </trkpt>
      <trkpt lat="44.22227" lon="5.82623">
        <ele>638.4</ele>
      </trkpt>
      <trkpt lat="44.22233" lon="5.82651">
        <ele>637</ele>
      </trkpt>
      <trkpt lat="44.22243" lon="5.82669">
        <ele>637.5</ele>
      </trkpt>
      <trkpt lat="44.22257" lon="5.82698">
        <ele>634.1</ele>
      </trkpt>
      <trkpt lat="44.22288" lon="5.82722">
        <ele>633.1</ele>
      </trkpt>
      <trkpt lat="44.22343" lon="5.82771">
        <ele>631.5</ele>
      </trkpt>
      <trkpt lat="44.22384" lon="5.82818">
        <ele>628.3</ele>
        <extensions>
          <visugpx:TrkExtension xmlns:visugpx="https://www.visugpx.com/editgpx/">
            <visugpx:node>8</visugpx:node>
            </visugpx:TrkExtension>
        </extensions>
      </trkpt>
      <trkpt lat="44.22381" lon="5.82832">
        <ele>626.6</ele>
      </trkpt>
      <trkpt lat="44.22364" lon="5.82841">
        <ele>624.7</ele>
      </trkpt>
      <trkpt lat="44.22342" lon="5.82869">
        <ele>619.5</ele>
      </trkpt>
      <trkpt lat="44.22327" lon="5.82895">
        <ele>614.6</ele>
      </trkpt>
      <trkpt lat="44.22313" lon="5.8292">
        <ele>610.1</ele>
      </trkpt>
      <trkpt lat="44.22282" lon="5.82992">
        <ele>599.9</ele>
      </trkpt>
      <trkpt lat="44.22261" lon="5.83021">
        <ele>596.1</ele>
      </trkpt>
      <trkpt lat="44.22249" lon="5.8304">
        <ele>594.7</ele>
      </trkpt>
      <trkpt lat="44.22237" lon="5.83047">
        <ele>596.4</ele>
      </trkpt>
      <trkpt lat="44.22232" lon="5.83064">
        <ele>597.6</ele>
      </trkpt>
      <trkpt lat="44.22243" lon="5.83113">
        <ele>594.5</ele>
      </trkpt>
      <trkpt lat="44.22248" lon="5.83159">
        <ele>594</ele>
      </trkpt>
      <trkpt lat="44.22257" lon="5.83185">
        <ele>595.5</ele>
      </trkpt>
      <trkpt lat="44.22276" lon="5.83213">
        <ele>594.7</ele>
      </trkpt>
      <trkpt lat="44.22291" lon="5.83263">
        <ele>592.6</ele>
      </trkpt>
      <trkpt lat="44.22406" lon="5.83542">
        <ele>606.4</ele>
      </trkpt>
      <trkpt lat="44.22428" lon="5.83578">
        <ele>604.7</ele>
      </trkpt>
      <trkpt lat="44.22453" lon="5.83615">
        <ele>601.1</ele>
      </trkpt>
      <trkpt lat="44.22461" lon="5.83654">
        <ele>603.7</ele>
      </trkpt>
      <trkpt lat="44.22368" lon="5.83855">
        <ele>609.9</ele>
      </trkpt>
      <trkpt lat="44.22325" lon="5.83944">
        <ele>610.3</ele>
      </trkpt>
      <trkpt lat="44.22303" lon="5.83999">
        <ele>608</ele>
      </trkpt>
      <trkpt lat="44.22297" lon="5.83995">
        <ele>608.1</ele>
        <extensions>
          <visugpx:TrkExtension xmlns:visugpx="https://www.visugpx.com/editgpx/">
            <visugpx:node>9</visugpx:node>
            </visugpx:TrkExtension>
        </extensions>
      </trkpt>
      <trkpt lat="44.22285" lon="5.83987">
        <ele>608.5</ele>
      </trkpt>
      <trkpt lat="44.22276" lon="5.83974">
        <ele>609.5</ele>
      </trkpt>
      <trkpt lat="44.22233" lon="5.8386">
        <ele>617.1</ele>
      </trkpt>
      <trkpt lat="44.22221" lon="5.83819">
        <ele>620.5</ele>
      </trkpt>
      <trkpt lat="44.22186" lon="5.83662">
        <ele>626</ele>
      </trkpt>
      <trkpt lat="44.22173" lon="5.83626">
        <ele>628.1</ele>
      </trkpt>
      <trkpt lat="44.22158" lon="5.83592">
        <ele>631.1</ele>
      </trkpt>
      <trkpt lat="44.22113" lon="5.8352">
        <ele>638.5</ele>
      </trkpt>
      <trkpt lat="44.22094" lon="5.83501">
        <ele>640.5</ele>
      </trkpt>
      <trkpt lat="44.22023" lon="5.8344">
        <ele>651.3</ele>
      </trkpt>
      <trkpt lat="44.21975" lon="5.83381">
        <ele>657.7</ele>
      </trkpt>
      <trkpt lat="44.21969" lon="5.83368">
        <ele>659.7</ele>
      </trkpt>
      <trkpt lat="44.21969" lon="5.83351">
        <ele>661.2</ele>
      </trkpt>
      <trkpt lat="44.21981" lon="5.83294">
        <ele>663.1</ele>
      </trkpt>
      <trkpt lat="44.21981" lon="5.83273">
        <ele>664.1</ele>
      </trkpt>
      <trkpt lat="44.21978" lon="5.83254">
        <ele>664.8</ele>
      </trkpt>
      <trkpt lat="44.21969" lon="5.83236">
        <ele>666.2</ele>
      </trkpt>
      <trkpt lat="44.21948" lon="5.832">
        <ele>668.6</ele>
      </trkpt>
      <trkpt lat="44.21937" lon="5.83191">
        <ele>670.6</ele>
      </trkpt>
      <trkpt lat="44.21924" lon="5.83184">
        <ele>673.1</ele>
      </trkpt>
      <trkpt lat="44.2191" lon="5.83179">
        <ele>675.8</ele>
      </trkpt>
      <trkpt lat="44.21897" lon="5.83169">
        <ele>678.1</ele>
      </trkpt>
      <trkpt lat="44.21878" lon="5.83149">
        <ele>681.6</ele>
      </trkpt>
      <trkpt lat="44.21858" lon="5.83107">
        <ele>684.3</ele>
      </trkpt>
      <trkpt lat="44.21836" lon="5.8307">
        <ele>687.7</ele>
      </trkpt>
      <trkpt lat="44.21825" lon="5.83061">
        <ele>689.6</ele>
      </trkpt>
      <trkpt lat="44.21799" lon="5.83049">
        <ele>695</ele>
      </trkpt>
      <trkpt lat="44.21765" lon="5.83021">
        <ele>701.3</ele>
      </trkpt>
      <trkpt lat="44.21746" lon="5.83001">
        <ele>704.9</ele>
      </trkpt>
      <trkpt lat="44.21732" lon="5.82981">
        <ele>706.7</ele>
      </trkpt>
      <trkpt lat="44.21714" lon="5.82942">
        <ele>709.9</ele>
      </trkpt>
      <trkpt lat="44.21701" lon="5.82936">
        <ele>712.9</ele>
      </trkpt>
      <trkpt lat="44.2169" lon="5.82935">
        <ele>715.1</ele>
      </trkpt>
      <trkpt lat="44.21676" lon="5.82936">
        <ele>716.4</ele>
      </trkpt>
      <trkpt lat="44.21651" lon="5.82932">
        <ele>718.6</ele>
      </trkpt>
      <trkpt lat="44.2164" lon="5.82925">
        <ele>719.6</ele>
      </trkpt>
      <trkpt lat="44.21575" lon="5.82872">
        <ele>726.2</ele>
      </trkpt>
      <trkpt lat="44.21549" lon="5.82864">
        <ele>728.6</ele>
      </trkpt>
      <trkpt lat="44.21537" lon="5.82858">
        <ele>730</ele>
      </trkpt>
      <trkpt lat="44.21522" lon="5.82839">
        <ele>731.6</ele>
      </trkpt>
      <trkpt lat="44.21496" lon="5.82796">
        <ele>735.8</ele>
      </trkpt>
      <trkpt lat="44.21491" lon="5.82792">
        <ele>736.5</ele>
      </trkpt>
      <trkpt lat="44.21483" lon="5.82786">
        <ele>737.5</ele>
      </trkpt>
      <trkpt lat="44.2147" lon="5.82775">
        <ele>739.2</ele>
      </trkpt>
      <trkpt lat="44.21458" lon="5.82754">
        <ele>741</ele>
      </trkpt>
      <trkpt lat="44.2144" lon="5.82732">
        <ele>744.1</ele>
      </trkpt>
      <trkpt lat="44.21355" lon="5.82645">
        <ele>760.2</ele>
      </trkpt>
      <trkpt lat="44.21348" lon="5.8263">
        <ele>761.1</ele>
      </trkpt>
      <trkpt lat="44.21344" lon="5.82612">
        <ele>760.9</ele>
      </trkpt>
      <trkpt lat="44.21344" lon="5.82597">
        <ele>761.4</ele>
      </trkpt>
      <trkpt lat="44.2135" lon="5.82563">
        <ele>762.7</ele>
      </trkpt>
      <trkpt lat="44.21355" lon="5.82527">
        <ele>765</ele>
      </trkpt>
      <trkpt lat="44.21361" lon="5.82503">
        <ele>767.6</ele>
      </trkpt>
      <trkpt lat="44.21376" lon="5.82482">
        <ele>769</ele>
      </trkpt>
      <trkpt lat="44.21408" lon="5.82422">
        <ele>772.2</ele>
      </trkpt>
      <trkpt lat="44.21417" lon="5.82388">
        <ele>772.9</ele>
      </trkpt>
      <trkpt lat="44.21417" lon="5.82365">
        <ele>772</ele>
      </trkpt>
      <trkpt lat="44.21407" lon="5.82347">
        <ele>771.6</ele>
      </trkpt>
      <trkpt lat="44.21385" lon="5.82321">
        <ele>774.2</ele>
      </trkpt>
      <trkpt lat="44.21349" lon="5.82253">
        <ele>780</ele>
      </trkpt>
      <trkpt lat="44.21328" lon="5.82217">
        <ele>784.9</ele>
      </trkpt>
      <trkpt lat="44.21312" lon="5.82184">
        <ele>787.5</ele>
      </trkpt>
      <trkpt lat="44.21308" lon="5.82177">
        <ele>788.2</ele>
      </trkpt>
      <trkpt lat="44.21302" lon="5.82167">
        <ele>789.2</ele>
      </trkpt>
      <trkpt lat="44.21289" lon="5.82153">
        <ele>792.2</ele>
      </trkpt>
      <trkpt lat="44.21276" lon="5.82135">
        <ele>795</ele>
      </trkpt>
      <trkpt lat="44.21264" lon="5.82115">
        <ele>796.2</ele>
      </trkpt>
      <trkpt lat="44.2124" lon="5.82103">
        <ele>801.1</ele>
      </trkpt>
      <trkpt lat="44.21231" lon="5.82094">
        <ele>802.3</ele>
      </trkpt>
      <trkpt lat="44.21227" lon="5.82083">
        <ele>803</ele>
      </trkpt>
      <trkpt lat="44.21216" lon="5.82073">
        <ele>805.3</ele>
      </trkpt>
      <trkpt lat="44.21199" lon="5.82065">
        <ele>809</ele>
      </trkpt>
      <trkpt lat="44.21189" lon="5.82065">
        <ele>811.3</ele>
      </trkpt>
      <trkpt lat="44.21171" lon="5.82073">
        <ele>815.4</ele>
      </trkpt>
      <trkpt lat="44.21162" lon="5.82079">
        <ele>817.1</ele>
      </trkpt>
      <trkpt lat="44.21156" lon="5.82081">
        <ele>818.4</ele>
      </trkpt>
      <trkpt lat="44.21155" lon="5.8208">
        <ele>818.6</ele>
        <extensions>
          <visugpx:TrkExtension xmlns:visugpx="https://www.visugpx.com/editgpx/">
            <visugpx:node>10</visugpx:node>
            </visugpx:TrkExtension>
        </extensions>
      </trkpt>
      <trkpt lat="44.21151" lon="5.82077">
        <ele>819.5</ele>
      </trkpt>
      <trkpt lat="44.21146" lon="5.82043">
        <ele>819.4</ele>
      </trkpt>
      <trkpt lat="44.21141" lon="5.82036">
        <ele>819.5</ele>
      </trkpt>
      <trkpt lat="44.2112" lon="5.82015">
        <ele>821.7</ele>
      </trkpt>
      <trkpt lat="44.21111" lon="5.82001">
        <ele>822.1</ele>
      </trkpt>
      <trkpt lat="44.21097" lon="5.81967">
        <ele>823.3</ele>
      </trkpt>
      <trkpt lat="44.21097" lon="5.81953">
        <ele>822.5</ele>
      </trkpt>
      <trkpt lat="44.211" lon="5.81943">
        <ele>821.4</ele>
      </trkpt>
      <trkpt lat="44.21117" lon="5.81919">
        <ele>820.2</ele>
      </trkpt>
      <trkpt lat="44.21127" lon="5.81887">
        <ele>822.8</ele>
      </trkpt>
      <trkpt lat="44.21129" lon="5.81877">
        <ele>822.9</ele>
      </trkpt>
      <trkpt lat="44.21125" lon="5.81776">
        <ele>831.2</ele>
      </trkpt>
      <trkpt lat="44.21126" lon="5.81766">
        <ele>832.4</ele>
      </trkpt>
      <trkpt lat="44.21131" lon="5.81755">
        <ele>833.2</ele>
      </trkpt>
      <trkpt lat="44.21149" lon="5.81742">
        <ele>831.3</ele>
      </trkpt>
      <trkpt lat="44.21152" lon="5.81733">
        <ele>831.8</ele>
      </trkpt>
      <trkpt lat="44.21156" lon="5.81707">
        <ele>833.8</ele>
      </trkpt>
      <trkpt lat="44.2117" lon="5.81659">
        <ele>836</ele>
      </trkpt>
      <trkpt lat="44.21171" lon="5.81642">
        <ele>835.7</ele>
      </trkpt>
      <trkpt lat="44.21166" lon="5.81627">
        <ele>836.7</ele>
      </trkpt>
      <trkpt lat="44.21157" lon="5.81614">
        <ele>837.8</ele>
      </trkpt>
      <trkpt lat="44.2115" lon="5.81608">
        <ele>838.9</ele>
      </trkpt>
      <trkpt lat="44.21145" lon="5.8159">
        <ele>839.6</ele>
      </trkpt>
      <trkpt lat="44.21124" lon="5.81524">
        <ele>842.9</ele>
      </trkpt>
      <trkpt lat="44.21108" lon="5.81493">
        <ele>843</ele>
        <extensions>
          <visugpx:TrkExtension xmlns:visugpx="https://www.visugpx.com/editgpx/">
            <visugpx:node>11</visugpx:node>
            </visugpx:TrkExtension>
        </extensions>
      </trkpt>
      <trkpt lat="44.21108" lon="5.81492">
        <ele>842.9</ele>
      </trkpt>
      <trkpt lat="44.2108" lon="5.81469">
        <ele>844.1</ele>
      </trkpt>
      <trkpt lat="44.21057" lon="5.8146">
        <ele>846.9</ele>
      </trkpt>
      <trkpt lat="44.2105" lon="5.81443">
        <ele>846.9</ele>
      </trkpt>
      <trkpt lat="44.21043" lon="5.81411">
        <ele>846.4</ele>
      </trkpt>
      <trkpt lat="44.21027" lon="5.81388">
        <ele>849.1</ele>
      </trkpt>
      <trkpt lat="44.21015" lon="5.81375">
        <ele>851</ele>
      </trkpt>
      <trkpt lat="44.21006" lon="5.81351">
        <ele>852.1</ele>
      </trkpt>
      <trkpt lat="44.20992" lon="5.81308">
        <ele>854.4</ele>
      </trkpt>
      <trkpt lat="44.20973" lon="5.81272">
        <ele>859.7</ele>
      </trkpt>
      <trkpt lat="44.20945" lon="5.81227">
        <ele>871.8</ele>
      </trkpt>
      <trkpt lat="44.20937" lon="5.81229">
        <ele>875.2</ele>
      </trkpt>
      <trkpt lat="44.20933" lon="5.81276">
        <ele>874.7</ele>
      </trkpt>
      <trkpt lat="44.2092" lon="5.81302">
        <ele>876.5</ele>
      </trkpt>
      <trkpt lat="44.20905" lon="5.81306">
        <ele>881.1</ele>
      </trkpt>
      <trkpt lat="44.20899" lon="5.813">
        <ele>884.3</ele>
      </trkpt>
      <trkpt lat="44.20896" lon="5.81275">
        <ele>889.4</ele>
      </trkpt>
      <trkpt lat="44.20902" lon="5.81245">
        <ele>889</ele>
      </trkpt>
      <trkpt lat="44.20899" lon="5.81199">
        <ele>890.7</ele>
      </trkpt>
      <trkpt lat="44.20887" lon="5.81146">
        <ele>894.1</ele>
      </trkpt>
      <trkpt lat="44.20867" lon="5.81099">
        <ele>902.5</ele>
      </trkpt>
      <trkpt lat="44.20852" lon="5.81079">
        <ele>910.6</ele>
      </trkpt>
      <trkpt lat="44.20851" lon="5.81046">
        <ele>911.1</ele>
      </trkpt>
      <trkpt lat="44.20845" lon="5.80992">
        <ele>912.2</ele>
      </trkpt>
      <trkpt lat="44.20821" lon="5.80948">
        <ele>918.8</ele>
      </trkpt>
      <trkpt lat="44.20806" lon="5.80911">
        <ele>920.7</ele>
      </trkpt>
      <trkpt lat="44.20813" lon="5.80859">
        <ele>917.3</ele>
      </trkpt>
      <trkpt lat="44.20797" lon="5.80802">
        <ele>916.9</ele>
      </trkpt>
      <trkpt lat="44.20775" lon="5.80761">
        <ele>922.7</ele>
      </trkpt>
      <trkpt lat="44.20777" lon="5.80727">
        <ele>924.8</ele>
      </trkpt>
      <trkpt lat="44.20781" lon="5.80704">
        <ele>924.8</ele>
      </trkpt>
      <trkpt lat="44.20773" lon="5.80672">
        <ele>927.8</ele>
      </trkpt>
      <trkpt lat="44.20771" lon="5.80665">
        <ele>928.5</ele>
        <extensions>
          <visugpx:TrkExtension xmlns:visugpx="https://www.visugpx.com/editgpx/">
            <visugpx:node>12</visugpx:node>
            </visugpx:TrkExtension>
        </extensions>
      </trkpt>
      <trkpt lat="44.20772" lon="5.80655">
        <ele>928</ele>
        <extensions>
          <visugpx:TrkExtension xmlns:visugpx="https://www.visugpx.com/editgpx/">
            <visugpx:node>2</visugpx:node>
            </visugpx:TrkExtension>
        </extensions>
      </trkpt>
      <trkpt lat="44.20769" lon="5.80639">
        <ele>927.6</ele>
      </trkpt>
      <trkpt lat="44.20767" lon="5.80627">
        <ele>927.4</ele>
      </trkpt>
      <trkpt lat="44.20764" lon="5.80616">
        <ele>927.7</ele>
      </trkpt>
      <trkpt lat="44.20759" lon="5.80607">
        <ele>928.3</ele>
      </trkpt>
      <trkpt lat="44.20753" lon="5.80601">
        <ele>929</ele>
      </trkpt>
      <trkpt lat="44.20745" lon="5.80596">
        <ele>935.7</ele>
      </trkpt>
      <trkpt lat="44.20737" lon="5.8059">
        <ele>936.2</ele>
      </trkpt>
      <trkpt lat="44.2073" lon="5.80582">
        <ele>937.1</ele>
      </trkpt>
      <trkpt lat="44.20724" lon="5.80573">
        <ele>938.3</ele>
      </trkpt>
      <trkpt lat="44.20721" lon="5.80562">
        <ele>939</ele>
      </trkpt>
      <trkpt lat="44.20719" lon="5.80549">
        <ele>939.4</ele>
      </trkpt>
      <trkpt lat="44.20717" lon="5.80535">
        <ele>939.6</ele>
      </trkpt>
      <trkpt lat="44.20715" lon="5.8052">
        <ele>939.6</ele>
      </trkpt>
      <trkpt lat="44.20712" lon="5.80505">
        <ele>939.7</ele>
      </trkpt>
      <trkpt lat="44.20709" lon="5.80491">
        <ele>939.2</ele>
      </trkpt>
      <trkpt lat="44.20705" lon="5.80479">
        <ele>939.6</ele>
      </trkpt>
      <trkpt lat="44.207" lon="5.80467">
        <ele>939.8</ele>
      </trkpt>
      <trkpt lat="44.20695" lon="5.80457">
        <ele>940.1</ele>
      </trkpt>
      <trkpt lat="44.20691" lon="5.80447">
        <ele>940.3</ele>
      </trkpt>
      <trkpt lat="44.20688" lon="5.8044">
        <ele>940.5</ele>
      </trkpt>
      <trkpt lat="44.20681" lon="5.80433">
        <ele>941.2</ele>
      </trkpt>
      <trkpt lat="44.20676" lon="5.80432">
        <ele>941.7</ele>
      </trkpt>
      <trkpt lat="44.20669" lon="5.8043">
        <ele>942.2</ele>
      </trkpt>
      <trkpt lat="44.2066" lon="5.80426">
        <ele>948.8</ele>
      </trkpt>
      <trkpt lat="44.20651" lon="5.8042">
        <ele>950.5</ele>
      </trkpt>
      <trkpt lat="44.20643" lon="5.80412">
        <ele>950.5</ele>
      </trkpt>
      <trkpt lat="44.20635" lon="5.80402">
        <ele>952.1</ele>
      </trkpt>
      <trkpt lat="44.20628" lon="5.80389">
        <ele>953.3</ele>
      </trkpt>
      <trkpt lat="44.20622" lon="5.80376">
        <ele>953.9</ele>
      </trkpt>
      <trkpt lat="44.20618" lon="5.80364">
        <ele>954.3</ele>
      </trkpt>
      <trkpt lat="44.20612" lon="5.80354">
        <ele>955</ele>
      </trkpt>
      <trkpt lat="44.20607" lon="5.80343">
        <ele>956.2</ele>
      </trkpt>
      <trkpt lat="44.20603" lon="5.8033">
        <ele>957.2</ele>
      </trkpt>
      <trkpt lat="44.20599" lon="5.80314">
        <ele>956.9</ele>
      </trkpt>
      <trkpt lat="44.20596" lon="5.80298">
        <ele>956.5</ele>
      </trkpt>
      <trkpt lat="44.20593" lon="5.80281">
        <ele>957.2</ele>
      </trkpt>
      <trkpt lat="44.20588" lon="5.80267">
        <ele>959.2</ele>
      </trkpt>
      <trkpt lat="44.20583" lon="5.80254">
        <ele>962.5</ele>
      </trkpt>
      <trkpt lat="44.20578" lon="5.80242">
        <ele>968.8</ele>
      </trkpt>
      <trkpt lat="44.20575" lon="5.8023">
        <ele>972.6</ele>
      </trkpt>
      <trkpt lat="44.20574" lon="5.80217">
        <ele>974.7</ele>
      </trkpt>
      <trkpt lat="44.20575" lon="5.80205">
        <ele>975.7</ele>
      </trkpt>
      <trkpt lat="44.20579" lon="5.80192">
        <ele>975.7</ele>
      </trkpt>
      <trkpt lat="44.20582" lon="5.80182">
        <ele>975.2</ele>
      </trkpt>
      <trkpt lat="44.20584" lon="5.80173">
        <ele>970.2</ele>
      </trkpt>
      <trkpt lat="44.20583" lon="5.80164">
        <ele>974</ele>
      </trkpt>
      <trkpt lat="44.20579" lon="5.80158">
        <ele>976.5</ele>
      </trkpt>
      <trkpt lat="44.20574" lon="5.80151">
        <ele>978.5</ele>
      </trkpt>
      <trkpt lat="44.20567" lon="5.80143">
        <ele>980.2</ele>
      </trkpt>
      <trkpt lat="44.20562" lon="5.80135">
        <ele>981.3</ele>
      </trkpt>
      <trkpt lat="44.2056" lon="5.80127">
        <ele>981.9</ele>
      </trkpt>
      <trkpt lat="44.2056" lon="5.80118">
        <ele>982</ele>
      </trkpt>
      <trkpt lat="44.20565" lon="5.80108">
        <ele>981.5</ele>
      </trkpt>
      <trkpt lat="44.2057" lon="5.80098">
        <ele>980.6</ele>
      </trkpt>
      <trkpt lat="44.20574" lon="5.80084">
        <ele>979.2</ele>
      </trkpt>
      <trkpt lat="44.20576" lon="5.8007">
        <ele>982.9</ele>
      </trkpt>
      <trkpt lat="44.20581" lon="5.80056">
        <ele>985.4</ele>
      </trkpt>
      <trkpt lat="44.20585" lon="5.80043">
        <ele>977.4</ele>
      </trkpt>
      <trkpt lat="44.2059" lon="5.80032">
        <ele>978.2</ele>
      </trkpt>
      <trkpt lat="44.20597" lon="5.80024">
        <ele>978.7</ele>
      </trkpt>
      <trkpt lat="44.20604" lon="5.80017">
        <ele>978.6</ele>
      </trkpt>
      <trkpt lat="44.2061" lon="5.8001">
        <ele>978.3</ele>
      </trkpt>
      <trkpt lat="44.20613" lon="5.80002">
        <ele>978</ele>
      </trkpt>
      <trkpt lat="44.20615" lon="5.79993">
        <ele>981.8</ele>
      </trkpt>
      <trkpt lat="44.20616" lon="5.79982">
        <ele>981.8</ele>
      </trkpt>
      <trkpt lat="44.20616" lon="5.7997">
        <ele>982.1</ele>
      </trkpt>
      <trkpt lat="44.20615" lon="5.79958">
        <ele>982.6</ele>
      </trkpt>
      <trkpt lat="44.20613" lon="5.79947">
        <ele>983.5</ele>
      </trkpt>
      <trkpt lat="44.20611" lon="5.79935">
        <ele>984.5</ele>
      </trkpt>
      <trkpt lat="44.20609" lon="5.79924">
        <ele>985.5</ele>
      </trkpt>
      <trkpt lat="44.20606" lon="5.79914">
        <ele>989.2</ele>
      </trkpt>
      <trkpt lat="44.20603" lon="5.79907">
        <ele>989.6</ele>
      </trkpt>
      <trkpt lat="44.20595" lon="5.799">
        <ele>990.1</ele>
      </trkpt>
      <trkpt lat="44.20591" lon="5.79902">
        <ele>990.6</ele>
      </trkpt>
      <trkpt lat="44.20586" lon="5.79906">
        <ele>991.6</ele>
      </trkpt>
      <trkpt lat="44.20581" lon="5.79911">
        <ele>996.1</ele>
      </trkpt>
      <trkpt lat="44.20575" lon="5.79914">
        <ele>996.9</ele>
      </trkpt>
      <trkpt lat="44.20568" lon="5.79917">
        <ele>998.8</ele>
      </trkpt>
      <trkpt lat="44.20565" lon="5.79917">
        <ele>997.6</ele>
      </trkpt>
      <trkpt lat="44.20564" lon="5.79917">
        <ele>997.7</ele>
      </trkpt>
      <trkpt lat="44.20564" lon="5.79919">
        <ele>997.8</ele>
      </trkpt>
      <trkpt lat="44.20563" lon="5.79918">
        <ele>997.8</ele>
      </trkpt>
      <trkpt lat="44.20557" lon="5.79913">
        <ele>1001.2</ele>
      </trkpt>
      <trkpt lat="44.20553" lon="5.79909">
        <ele>1002</ele>
      </trkpt>
      <trkpt lat="44.20549" lon="5.79901">
        <ele>1002.9</ele>
      </trkpt>
      <trkpt lat="44.20544" lon="5.79894">
        <ele>1003.7</ele>
      </trkpt>
      <trkpt lat="44.20538" lon="5.79887">
        <ele>1004.5</ele>
      </trkpt>
      <trkpt lat="44.20532" lon="5.7988">
        <ele>1005.2</ele>
      </trkpt>
      <trkpt lat="44.20527" lon="5.79871">
        <ele>1005.8</ele>
      </trkpt>
      <trkpt lat="44.20522" lon="5.79863">
        <ele>1006.5</ele>
      </trkpt>
      <trkpt lat="44.20518" lon="5.79855">
        <ele>1007.3</ele>
      </trkpt>
      <trkpt lat="44.20516" lon="5.79846">
        <ele>1008.3</ele>
      </trkpt>
      <trkpt lat="44.20514" lon="5.79837">
        <ele>1009.4</ele>
      </trkpt>
      <trkpt lat="44.20512" lon="5.7983">
        <ele>1009.2</ele>
      </trkpt>
      <trkpt lat="44.20509" lon="5.79827">
        <ele>1009.7</ele>
      </trkpt>
      <trkpt lat="44.20504" lon="5.79827">
        <ele>1010.9</ele>
      </trkpt>
      <trkpt lat="44.20499" lon="5.79831">
        <ele>1014.5</ele>
      </trkpt>
      <trkpt lat="44.20496" lon="5.79838">
        <ele>1016</ele>
      </trkpt>
      <trkpt lat="44.20493" lon="5.79845">
        <ele>1017.8</ele>
      </trkpt>
      <trkpt lat="44.20491" lon="5.79853">
        <ele>1019</ele>
      </trkpt>
      <trkpt lat="44.2049" lon="5.79861">
        <ele>1019.8</ele>
      </trkpt>
      <trkpt lat="44.20489" lon="5.79869">
        <ele>1020.3</ele>
      </trkpt>
      <trkpt lat="44.20491" lon="5.79877">
        <ele>1020.4</ele>
      </trkpt>
      <trkpt lat="44.20492" lon="5.79884">
        <ele>1020.2</ele>
      </trkpt>
      <trkpt lat="44.20494" lon="5.79892">
        <ele>1019.7</ele>
      </trkpt>
      <trkpt lat="44.20495" lon="5.79899">
        <ele>1019</ele>
      </trkpt>
      <trkpt lat="44.20492" lon="5.79905">
        <ele>1018.5</ele>
      </trkpt>
      <trkpt lat="44.20488" lon="5.79909">
        <ele>1018.7</ele>
      </trkpt>
      <trkpt lat="44.20483" lon="5.79913">
        <ele>1019.5</ele>
      </trkpt>
      <trkpt lat="44.20476" lon="5.79914">
        <ele>1020.7</ele>
      </trkpt>
      <trkpt lat="44.2047" lon="5.79914">
        <ele>1021.8</ele>
      </trkpt>
      <trkpt lat="44.20463" lon="5.79912">
        <ele>1022.9</ele>
      </trkpt>
      <trkpt lat="44.20457" lon="5.79909">
        <ele>1024</ele>
      </trkpt>
      <trkpt lat="44.2045" lon="5.79907">
        <ele>1025</ele>
      </trkpt>
      <trkpt lat="44.20444" lon="5.79904">
        <ele>1025.9</ele>
      </trkpt>
      <trkpt lat="44.20437" lon="5.799">
        <ele>1026.8</ele>
      </trkpt>
      <trkpt lat="44.2043" lon="5.79899">
        <ele>1027.7</ele>
      </trkpt>
      <trkpt lat="44.20423" lon="5.79898">
        <ele>1028.4</ele>
      </trkpt>
      <trkpt lat="44.20417" lon="5.79899">
        <ele>1028.8</ele>
      </trkpt>
      <trkpt lat="44.20411" lon="5.79901">
        <ele>1038.3</ele>
      </trkpt>
      <trkpt lat="44.20408" lon="5.79906">
        <ele>1038.1</ele>
      </trkpt>
      <trkpt lat="44.20403" lon="5.79912">
        <ele>1038.4</ele>
      </trkpt>
      <trkpt lat="44.20398" lon="5.79916">
        <ele>1039.7</ele>
      </trkpt>
      <trkpt lat="44.20391" lon="5.79919">
        <ele>1041.6</ele>
      </trkpt>
      <trkpt lat="44.20383" lon="5.79921">
        <ele>1043.3</ele>
      </trkpt>
      <trkpt lat="44.20376" lon="5.79924">
        <ele>1044.7</ele>
      </trkpt>
      <trkpt lat="44.2037" lon="5.79925">
        <ele>1046.1</ele>
      </trkpt>
      <trkpt lat="44.20365" lon="5.79924">
        <ele>1047.3</ele>
      </trkpt>
      <trkpt lat="44.20359" lon="5.79921">
        <ele>1048.7</ele>
      </trkpt>
      <trkpt lat="44.20355" lon="5.79916">
        <ele>1049.6</ele>
      </trkpt>
      <trkpt lat="44.20351" lon="5.79912">
        <ele>1050.6</ele>
      </trkpt>
      <trkpt lat="44.20346" lon="5.79909">
        <ele>1051.4</ele>
      </trkpt>
      <trkpt lat="44.20338" lon="5.79909">
        <ele>1053.8</ele>
      </trkpt>
      <trkpt lat="44.20333" lon="5.79912">
        <ele>1055.5</ele>
      </trkpt>
      <trkpt lat="44.20328" lon="5.79914">
        <ele>1060.1</ele>
      </trkpt>
      <trkpt lat="44.20322" lon="5.79915">
        <ele>1061.5</ele>
      </trkpt>
      <trkpt lat="44.20316" lon="5.79913">
        <ele>1063</ele>
      </trkpt>
      <trkpt lat="44.20316" lon="5.79914">
        <ele>1063</ele>
      </trkpt>
      <trkpt lat="44.20308" lon="5.79909">
        <ele>1064.8</ele>
      </trkpt>
      <trkpt lat="44.20303" lon="5.79904">
        <ele>1065.9</ele>
      </trkpt>
      <trkpt lat="44.20296" lon="5.79897">
        <ele>1067</ele>
      </trkpt>
      <trkpt lat="44.20291" lon="5.79891">
        <ele>1067.7</ele>
      </trkpt>
      <trkpt lat="44.20286" lon="5.79884">
        <ele>1068.4</ele>
      </trkpt>
      <trkpt lat="44.2028" lon="5.79877">
        <ele>1069</ele>
      </trkpt>
      <trkpt lat="44.20274" lon="5.79872">
        <ele>1069.6</ele>
      </trkpt>
      <trkpt lat="44.20269" lon="5.79867">
        <ele>1070.1</ele>
      </trkpt>
      <trkpt lat="44.20264" lon="5.79863">
        <ele>1070.7</ele>
      </trkpt>
      <trkpt lat="44.2026" lon="5.79858">
        <ele>1071.3</ele>
      </trkpt>
      <trkpt lat="44.20256" lon="5.79852">
        <ele>1072.1</ele>
      </trkpt>
      <trkpt lat="44.20252" lon="5.79847">
        <ele>1073.2</ele>
      </trkpt>
      <trkpt lat="44.20247" lon="5.79844">
        <ele>1082.5</ele>
      </trkpt>
      <trkpt lat="44.20242" lon="5.79841">
        <ele>1082.9</ele>
      </trkpt>
      <trkpt lat="44.20237" lon="5.79839">
        <ele>1084.2</ele>
      </trkpt>
      <trkpt lat="44.20232" lon="5.79836">
        <ele>1085.7</ele>
      </trkpt>
      <trkpt lat="44.20228" lon="5.79832">
        <ele>1085.9</ele>
      </trkpt>
      <trkpt lat="44.20224" lon="5.79828">
        <ele>1087.1</ele>
      </trkpt>
      <trkpt lat="44.2022" lon="5.79825">
        <ele>1088.3</ele>
      </trkpt>
      <trkpt lat="44.20215" lon="5.79822">
        <ele>1089.5</ele>
      </trkpt>
      <trkpt lat="44.20207" lon="5.7982">
        <ele>1091.5</ele>
      </trkpt>
      <trkpt lat="44.20203" lon="5.79816">
        <ele>1092.3</ele>
      </trkpt>
      <trkpt lat="44.202" lon="5.79812">
        <ele>1093</ele>
      </trkpt>
      <trkpt lat="44.20196" lon="5.79808">
        <ele>1093.5</ele>
      </trkpt>
      <trkpt lat="44.20188" lon="5.79811">
        <ele>1095.4</ele>
      </trkpt>
      <trkpt lat="44.20189" lon="5.79818">
        <ele>1095.8</ele>
      </trkpt>
      <trkpt lat="44.20189" lon="5.79825">
        <ele>1096.4</ele>
      </trkpt>
      <trkpt lat="44.20189" lon="5.79833">
        <ele>1096.7</ele>
      </trkpt>
      <trkpt lat="44.20188" lon="5.79842">
        <ele>1097.9</ele>
      </trkpt>
      <trkpt lat="44.20187" lon="5.79851">
        <ele>1097.5</ele>
      </trkpt>
      <trkpt lat="44.20186" lon="5.79859">
        <ele>1097.2</ele>
      </trkpt>
      <trkpt lat="44.20186" lon="5.79867">
        <ele>1097</ele>
      </trkpt>
      <trkpt lat="44.20186" lon="5.79875">
        <ele>1097.1</ele>
      </trkpt>
      <trkpt lat="44.20186" lon="5.79882">
        <ele>1097.5</ele>
      </trkpt>
      <trkpt lat="44.20186" lon="5.79889">
        <ele>1098.1</ele>
      </trkpt>
      <trkpt lat="44.20185" lon="5.79897">
        <ele>1099</ele>
      </trkpt>
      <trkpt lat="44.20185" lon="5.79905">
        <ele>1100.1</ele>
      </trkpt>
      <trkpt lat="44.20183" lon="5.79913">
        <ele>1101.7</ele>
      </trkpt>
      <trkpt lat="44.20181" lon="5.79922">
        <ele>1104.9</ele>
      </trkpt>
      <trkpt lat="44.20178" lon="5.79928">
        <ele>1105.1</ele>
      </trkpt>
      <trkpt lat="44.20174" lon="5.79934">
        <ele>1105</ele>
      </trkpt>
      <trkpt lat="44.20169" lon="5.79938">
        <ele>1105</ele>
      </trkpt>
      <trkpt lat="44.20164" lon="5.79941">
        <ele>1119.7</ele>
      </trkpt>
      <trkpt lat="44.20159" lon="5.79941">
        <ele>1120.2</ele>
      </trkpt>
      <trkpt lat="44.20154" lon="5.79938">
        <ele>1120.3</ele>
      </trkpt>
      <trkpt lat="44.20151" lon="5.79931">
        <ele>1119.6</ele>
      </trkpt>
      <trkpt lat="44.2015" lon="5.79923">
        <ele>1118.6</ele>
      </trkpt>
      <trkpt lat="44.20148" lon="5.79913">
        <ele>1116.5</ele>
      </trkpt>
      <trkpt lat="44.20145" lon="5.79902">
        <ele>1117.8</ele>
      </trkpt>
      <trkpt lat="44.2014" lon="5.7989">
        <ele>1119.1</ele>
      </trkpt>
      <trkpt lat="44.20136" lon="5.79878">
        <ele>1119.8</ele>
      </trkpt>
      <trkpt lat="44.20131" lon="5.79865">
        <ele>1120.3</ele>
      </trkpt>
      <trkpt lat="44.20126" lon="5.79853">
        <ele>1120.9</ele>
      </trkpt>
      <trkpt lat="44.20122" lon="5.79843">
        <ele>1121.6</ele>
      </trkpt>
      <trkpt lat="44.2012" lon="5.79835">
        <ele>1122.2</ele>
      </trkpt>
      <trkpt lat="44.20118" lon="5.79827">
        <ele>1122.3</ele>
      </trkpt>
      <trkpt lat="44.20116" lon="5.79819">
        <ele>1122.6</ele>
      </trkpt>
      <trkpt lat="44.20114" lon="5.79811">
        <ele>1122.8</ele>
      </trkpt>
      <trkpt lat="44.20111" lon="5.79803">
        <ele>1123.1</ele>
      </trkpt>
      <trkpt lat="44.2011" lon="5.79796">
        <ele>1123.3</ele>
      </trkpt>
      <trkpt lat="44.20108" lon="5.79789">
        <ele>1123.5</ele>
      </trkpt>
      <trkpt lat="44.20107" lon="5.79782">
        <ele>1124</ele>
      </trkpt>
      <trkpt lat="44.20106" lon="5.79776">
        <ele>1124.6</ele>
      </trkpt>
      <trkpt lat="44.20102" lon="5.79765">
        <ele>1126.4</ele>
      </trkpt>
      <trkpt lat="44.20098" lon="5.79761">
        <ele>1128</ele>
      </trkpt>
      <trkpt lat="44.20093" lon="5.79757">
        <ele>1130.2</ele>
      </trkpt>
      <trkpt lat="44.20089" lon="5.79753">
        <ele>1132.7</ele>
      </trkpt>
      <trkpt lat="44.20085" lon="5.79747">
        <ele>1134.5</ele>
      </trkpt>
      <trkpt lat="44.20081" lon="5.79741">
        <ele>1139.7</ele>
      </trkpt>
      <trkpt lat="44.20077" lon="5.79736">
        <ele>1141.5</ele>
      </trkpt>
      <trkpt lat="44.20073" lon="5.79732">
        <ele>1142.9</ele>
      </trkpt>
      <trkpt lat="44.20068" lon="5.79727">
        <ele>1144.1</ele>
      </trkpt>
      <trkpt lat="44.20063" lon="5.79723">
        <ele>1145</ele>
      </trkpt>
      <trkpt lat="44.2006" lon="5.79719">
        <ele>1145.7</ele>
      </trkpt>
      <trkpt lat="44.20057" lon="5.79713">
        <ele>1146.2</ele>
      </trkpt>
      <trkpt lat="44.20054" lon="5.79706">
        <ele>1146.5</ele>
      </trkpt>
      <trkpt lat="44.20052" lon="5.79698">
        <ele>1146.8</ele>
      </trkpt>
      <trkpt lat="44.20049" lon="5.79691">
        <ele>1146.9</ele>
      </trkpt>
      <trkpt lat="44.20048" lon="5.79682">
        <ele>1147</ele>
      </trkpt>
      <trkpt lat="44.20046" lon="5.79673">
        <ele>1147.2</ele>
      </trkpt>
      <trkpt lat="44.20044" lon="5.79663">
        <ele>1145.9</ele>
      </trkpt>
      <trkpt lat="44.20042" lon="5.79654">
        <ele>1146.1</ele>
      </trkpt>
      <trkpt lat="44.2004" lon="5.79645">
        <ele>1146.2</ele>
      </trkpt>
      <trkpt lat="44.20039" lon="5.79636">
        <ele>1146.2</ele>
      </trkpt>
      <trkpt lat="44.20039" lon="5.79627">
        <ele>1145.9</ele>
      </trkpt>
      <trkpt lat="44.20039" lon="5.79618">
        <ele>1145.7</ele>
      </trkpt>
      <trkpt lat="44.2004" lon="5.79609">
        <ele>1145.5</ele>
      </trkpt>
      <trkpt lat="44.20039" lon="5.796">
        <ele>1145.4</ele>
      </trkpt>
      <trkpt lat="44.20039" lon="5.79591">
        <ele>1145.4</ele>
      </trkpt>
      <trkpt lat="44.20039" lon="5.79582">
        <ele>1142.4</ele>
      </trkpt>
      <trkpt lat="44.20038" lon="5.79574">
        <ele>1142.2</ele>
      </trkpt>
      <trkpt lat="44.20038" lon="5.79566">
        <ele>1142</ele>
      </trkpt>
      <trkpt lat="44.20038" lon="5.79558">
        <ele>1141.7</ele>
      </trkpt>
      <trkpt lat="44.20038" lon="5.79551">
        <ele>1141.5</ele>
      </trkpt>
      <trkpt lat="44.20037" lon="5.79545">
        <ele>1141.3</ele>
      </trkpt>
      <trkpt lat="44.20036" lon="5.79539">
        <ele>1141.3</ele>
      </trkpt>
      <trkpt lat="44.20035" lon="5.79533">
        <ele>1141.3</ele>
      </trkpt>
      <trkpt lat="44.20034" lon="5.79521">
        <ele>1141.4</ele>
      </trkpt>
      <trkpt lat="44.20033" lon="5.79515">
        <ele>1141.5</ele>
      </trkpt>
      <trkpt lat="44.20033" lon="5.79506">
        <ele>1141.6</ele>
      </trkpt>
      <trkpt lat="44.20033" lon="5.795">
        <ele>1138.9</ele>
      </trkpt>
      <trkpt lat="44.20032" lon="5.79493">
        <ele>1138.9</ele>
      </trkpt>
      <trkpt lat="44.20032" lon="5.79492">
        <ele>1138.8</ele>
      </trkpt>
      <trkpt lat="44.2003" lon="5.7948">
        <ele>1138.8</ele>
      </trkpt>
      <trkpt lat="44.20029" lon="5.79476">
        <ele>1138.7</ele>
      </trkpt>
      <trkpt lat="44.20029" lon="5.79466">
        <ele>1138.3</ele>
      </trkpt>
      <trkpt lat="44.20029" lon="5.79463">
        <ele>1138.3</ele>
      </trkpt>
      <trkpt lat="44.20029" lon="5.79453">
        <ele>1138.2</ele>
      </trkpt>
      <trkpt lat="44.20028" lon="5.79449">
        <ele>1138.3</ele>
      </trkpt>
      <trkpt lat="44.20028" lon="5.79438">
        <ele>1138.7</ele>
      </trkpt>
      <trkpt lat="44.20028" lon="5.79437">
        <ele>1138.8</ele>
      </trkpt>
      <trkpt lat="44.20028" lon="5.79439">
        <ele>1138.7</ele>
      </trkpt>
      <trkpt lat="44.20028" lon="5.79438">
        <ele>1138.6</ele>
      </trkpt>
      <trkpt lat="44.20028" lon="5.79434">
        <ele>1139</ele>
      </trkpt>
      <trkpt lat="44.20027" lon="5.79432">
        <ele>1139.3</ele>
      </trkpt>
      <trkpt lat="44.20023" lon="5.79422">
        <ele>1140.9</ele>
      </trkpt>
      <trkpt lat="44.20021" lon="5.79419">
        <ele>1141.7</ele>
      </trkpt>
      <trkpt lat="44.20017" lon="5.79412">
        <ele>1142.2</ele>
      </trkpt>
      <trkpt lat="44.20015" lon="5.79409">
        <ele>1142.6</ele>
      </trkpt>
      <trkpt lat="44.20009" lon="5.79402">
        <ele>1143.1</ele>
      </trkpt>
      <trkpt lat="44.20007" lon="5.79401">
        <ele>1143.2</ele>
      </trkpt>
      <trkpt lat="44.20001" lon="5.79394">
        <ele>1142.3</ele>
      </trkpt>
      <trkpt lat="44.2" lon="5.7939">
        <ele>1161.1</ele>
      </trkpt>
      <trkpt lat="44.19997" lon="5.79379">
        <ele>1162</ele>
      </trkpt>
      <trkpt lat="44.19995" lon="5.79374">
        <ele>1162</ele>
      </trkpt>
      <trkpt lat="44.19994" lon="5.79363">
        <ele>1161.2</ele>
      </trkpt>
      <trkpt lat="44.19995" lon="5.79356">
        <ele>1159.9</ele>
      </trkpt>
      <trkpt lat="44.19996" lon="5.79348">
        <ele>1157.7</ele>
      </trkpt>
      <trkpt lat="44.19997" lon="5.79341">
        <ele>1154.7</ele>
      </trkpt>
      <trkpt lat="44.2" lon="5.79333">
        <ele>1150.4</ele>
      </trkpt>
      <trkpt lat="44.20003" lon="5.79327">
        <ele>1146</ele>
      </trkpt>
      <trkpt lat="44.20006" lon="5.7932">
        <ele>1143.2</ele>
      </trkpt>
      <trkpt lat="44.20012" lon="5.79316">
        <ele>1141.2</ele>
      </trkpt>
      <trkpt lat="44.20017" lon="5.79306">
        <ele>1138.9</ele>
      </trkpt>
      <trkpt lat="44.20017" lon="5.79304">
        <ele>1138.7</ele>
      </trkpt>
      <trkpt lat="44.2002" lon="5.79292">
        <ele>1137.7</ele>
      </trkpt>
      <trkpt lat="44.20021" lon="5.79288">
        <ele>1137.5</ele>
      </trkpt>
      <trkpt lat="44.20023" lon="5.7928">
        <ele>1137.4</ele>
      </trkpt>
      <trkpt lat="44.20024" lon="5.79276">
        <ele>1137.5</ele>
      </trkpt>
      <trkpt lat="44.20025" lon="5.79265">
        <ele>1137.8</ele>
      </trkpt>
      <trkpt lat="44.20026" lon="5.7926">
        <ele>1137.9</ele>
      </trkpt>
      <trkpt lat="44.20025" lon="5.79249">
        <ele>1137.7</ele>
      </trkpt>
      <trkpt lat="44.20024" lon="5.79245">
        <ele>1137.9</ele>
      </trkpt>
      <trkpt lat="44.20017" lon="5.79238">
        <ele>1139</ele>
      </trkpt>
      <trkpt lat="44.20013" lon="5.79235">
        <ele>1139.4</ele>
      </trkpt>
      <trkpt lat="44.20009" lon="5.79232">
        <ele>1139.6</ele>
      </trkpt>
      <trkpt lat="44.20004" lon="5.7923">
        <ele>1139.6</ele>
      </trkpt>
      <trkpt lat="44.19999" lon="5.79227">
        <ele>1151.5</ele>
      </trkpt>
      <trkpt lat="44.19995" lon="5.79224">
        <ele>1151.9</ele>
      </trkpt>
      <trkpt lat="44.19988" lon="5.79219">
        <ele>1152.6</ele>
      </trkpt>
      <trkpt lat="44.19983" lon="5.79218">
        <ele>1153.1</ele>
      </trkpt>
      <trkpt lat="44.19975" lon="5.79215">
        <ele>1154</ele>
      </trkpt>
      <trkpt lat="44.19971" lon="5.79214">
        <ele>1154.5</ele>
      </trkpt>
      <trkpt lat="44.19965" lon="5.79207">
        <ele>1155</ele>
      </trkpt>
      <trkpt lat="44.19962" lon="5.79202">
        <ele>1155.3</ele>
      </trkpt>
      <trkpt lat="44.19956" lon="5.79193">
        <ele>1155.7</ele>
      </trkpt>
      <trkpt lat="44.19953" lon="5.79188">
        <ele>1156.1</ele>
      </trkpt>
      <trkpt lat="44.19949" lon="5.79183">
        <ele>1156.5</ele>
      </trkpt>
      <trkpt lat="44.19946" lon="5.79178">
        <ele>1157.1</ele>
      </trkpt>
      <trkpt lat="44.19942" lon="5.79174">
        <ele>1157.6</ele>
      </trkpt>
      <trkpt lat="44.19939" lon="5.79169">
        <ele>1158.2</ele>
      </trkpt>
      <trkpt lat="44.19936" lon="5.79164">
        <ele>1155.9</ele>
      </trkpt>
      <trkpt lat="44.19931" lon="5.7916">
        <ele>1156.7</ele>
      </trkpt>
      <trkpt lat="44.19927" lon="5.79156">
        <ele>1157.3</ele>
      </trkpt>
      <trkpt lat="44.19922" lon="5.79153">
        <ele>1157.5</ele>
      </trkpt>
      <trkpt lat="44.19917" lon="5.7915">
        <ele>1157.1</ele>
      </trkpt>
      <trkpt lat="44.19912" lon="5.79148">
        <ele>1168.5</ele>
      </trkpt>
      <trkpt lat="44.19906" lon="5.79146">
        <ele>1169.4</ele>
      </trkpt>
      <trkpt lat="44.19901" lon="5.79144">
        <ele>1170.3</ele>
      </trkpt>
      <trkpt lat="44.19897" lon="5.79142">
        <ele>1171</ele>
      </trkpt>
      <trkpt lat="44.19893" lon="5.79139">
        <ele>1171.6</ele>
      </trkpt>
      <trkpt lat="44.19888" lon="5.79131">
        <ele>1172.4</ele>
      </trkpt>
      <trkpt lat="44.19885" lon="5.79129">
        <ele>1172.7</ele>
      </trkpt>
      <trkpt lat="44.19881" lon="5.79121">
        <ele>1173.1</ele>
      </trkpt>
      <trkpt lat="44.19881" lon="5.79113">
        <ele>1172.7</ele>
      </trkpt>
      <trkpt lat="44.19879" lon="5.79107">
        <ele>1172.7</ele>
      </trkpt>
      <trkpt lat="44.19877" lon="5.79103">
        <ele>1173</ele>
      </trkpt>
      <trkpt lat="44.19871" lon="5.79098">
        <ele>1174.1</ele>
      </trkpt>
      <trkpt lat="44.19868" lon="5.79095">
        <ele>1174.7</ele>
      </trkpt>
      <trkpt lat="44.19862" lon="5.79091">
        <ele>1175.9</ele>
      </trkpt>
      <trkpt lat="44.19859" lon="5.79088">
        <ele>1176.6</ele>
      </trkpt>
      <trkpt lat="44.19854" lon="5.7908">
        <ele>1177.8</ele>
      </trkpt>
      <trkpt lat="44.19853" lon="5.79075">
        <ele>1177.8</ele>
      </trkpt>
      <trkpt lat="44.1985" lon="5.79066">
        <ele>1177.9</ele>
      </trkpt>
      <trkpt lat="44.19848" lon="5.79063">
        <ele>1178.1</ele>
      </trkpt>
      <trkpt lat="44.19842" lon="5.7906">
        <ele>1178.6</ele>
      </trkpt>
      <trkpt lat="44.19839" lon="5.79057">
        <ele>1178.8</ele>
      </trkpt>
      <trkpt lat="44.19832" lon="5.79051">
        <ele>1196.9</ele>
      </trkpt>
      <trkpt lat="44.19829" lon="5.79047">
        <ele>1197.7</ele>
      </trkpt>
      <trkpt lat="44.19823" lon="5.79042">
        <ele>1198.8</ele>
      </trkpt>
      <trkpt lat="44.1982" lon="5.79038">
        <ele>1199.3</ele>
      </trkpt>
      <trkpt lat="44.19817" lon="5.79031">
        <ele>1199.9</ele>
      </trkpt>
      <trkpt lat="44.19817" lon="5.79026">
        <ele>1199.9</ele>
      </trkpt>
      <trkpt lat="44.19817" lon="5.79013">
        <ele>1199.3</ele>
      </trkpt>
      <trkpt lat="44.19816" lon="5.79007">
        <ele>1199</ele>
      </trkpt>
      <trkpt lat="44.19815" lon="5.79001">
        <ele>1199</ele>
      </trkpt>
      <trkpt lat="44.19815" lon="5.78994">
        <ele>1204.3</ele>
      </trkpt>
      <trkpt lat="44.19816" lon="5.78987">
        <ele>1205.1</ele>
      </trkpt>
      <trkpt lat="44.19819" lon="5.7898">
        <ele>1206</ele>
      </trkpt>
      <trkpt lat="44.19823" lon="5.7897">
        <ele>1207.4</ele>
      </trkpt>
      <trkpt lat="44.19824" lon="5.78968">
        <ele>1207.6</ele>
      </trkpt>
      <trkpt lat="44.19828" lon="5.78958">
        <ele>1208.7</ele>
      </trkpt>
      <trkpt lat="44.1983" lon="5.78954">
        <ele>1208.9</ele>
      </trkpt>
      <trkpt lat="44.19834" lon="5.78945">
        <ele>1191.4</ele>
      </trkpt>
      <trkpt lat="44.19836" lon="5.78941">
        <ele>1192.4</ele>
      </trkpt>
      <trkpt lat="44.19836" lon="5.78931">
        <ele>1196</ele>
      </trkpt>
      <trkpt lat="44.19834" lon="5.78925">
        <ele>1198.8</ele>
      </trkpt>
      <trkpt lat="44.1983" lon="5.78917">
        <ele>1206.3</ele>
      </trkpt>
      <trkpt lat="44.19828" lon="5.78913">
        <ele>1209.2</ele>
      </trkpt>
      <trkpt lat="44.19827" lon="5.78903">
        <ele>1213</ele>
      </trkpt>
      <trkpt lat="44.19827" lon="5.78898">
        <ele>1214.5</ele>
      </trkpt>
      <trkpt lat="44.19827" lon="5.78889">
        <ele>1216.6</ele>
      </trkpt>
      <trkpt lat="44.19827" lon="5.78884">
        <ele>1217.3</ele>
      </trkpt>
      <trkpt lat="44.19827" lon="5.78874">
        <ele>1217.9</ele>
      </trkpt>
      <trkpt lat="44.19827" lon="5.78869">
        <ele>1217.9</ele>
      </trkpt>
      <trkpt lat="44.19827" lon="5.78859">
        <ele>1217.3</ele>
      </trkpt>
      <trkpt lat="44.19826" lon="5.78854">
        <ele>1216.6</ele>
      </trkpt>
      <trkpt lat="44.19825" lon="5.78846">
        <ele>1215</ele>
      </trkpt>
      <trkpt lat="44.19824" lon="5.78842">
        <ele>1214.5</ele>
      </trkpt>
      <trkpt lat="44.19819" lon="5.78831">
        <ele>1215.6</ele>
      </trkpt>
      <trkpt lat="44.19818" lon="5.78828">
        <ele>1216.5</ele>
      </trkpt>
      <trkpt lat="44.19813" lon="5.78818">
        <ele>1219.3</ele>
      </trkpt>
      <trkpt lat="44.19811" lon="5.78814">
        <ele>1220</ele>
      </trkpt>
      <trkpt lat="44.19809" lon="5.78805">
        <ele>1221</ele>
      </trkpt>
      <trkpt lat="44.19808" lon="5.788">
        <ele>1221.4</ele>
      </trkpt>
      <trkpt lat="44.19804" lon="5.78792">
        <ele>1222.1</ele>
      </trkpt>
      <trkpt lat="44.19802" lon="5.7879">
        <ele>1222.4</ele>
      </trkpt>
      <trkpt lat="44.19798" lon="5.78781">
        <ele>1222.9</ele>
      </trkpt>
      <trkpt lat="44.19798" lon="5.78778">
        <ele>1222.9</ele>
      </trkpt>
      <trkpt lat="44.19795" lon="5.78767">
        <ele>1223.1</ele>
      </trkpt>
      <trkpt lat="44.19794" lon="5.7876">
        <ele>1223.1</ele>
      </trkpt>
      <trkpt lat="44.19795" lon="5.78748">
        <ele>1219.7</ele>
      </trkpt>
      <trkpt lat="44.19796" lon="5.78742">
        <ele>1219.4</ele>
      </trkpt>
      <trkpt lat="44.19797" lon="5.78735">
        <ele>1219.2</ele>
      </trkpt>
      <trkpt lat="44.19798" lon="5.78729">
        <ele>1219</ele>
      </trkpt>
      <trkpt lat="44.19799" lon="5.78723">
        <ele>1218.8</ele>
      </trkpt>
      <trkpt lat="44.19801" lon="5.78716">
        <ele>1218.4</ele>
      </trkpt>
      <trkpt lat="44.19803" lon="5.7871">
        <ele>1218.1</ele>
      </trkpt>
      <trkpt lat="44.19804" lon="5.78704">
        <ele>1217.9</ele>
      </trkpt>
      <trkpt lat="44.19804" lon="5.78696">
        <ele>1217.6</ele>
      </trkpt>
      <trkpt lat="44.19804" lon="5.78693">
        <ele>1217.5</ele>
      </trkpt>
      <trkpt lat="44.19806" lon="5.78683">
        <ele>1216.6</ele>
      </trkpt>
      <trkpt lat="44.19807" lon="5.78681">
        <ele>1222.8</ele>
      </trkpt>
      <trkpt lat="44.19818" lon="5.78671">
        <ele>1212.5</ele>
      </trkpt>
      <trkpt lat="44.19827" lon="5.78671">
        <ele>1209.6</ele>
      </trkpt>
      <trkpt lat="44.19831" lon="5.7867">
        <ele>1207.8</ele>
      </trkpt>
      <trkpt lat="44.19835" lon="5.78666">
        <ele>1204.5</ele>
      </trkpt>
      <trkpt lat="44.19835" lon="5.78659">
        <ele>1201.2</ele>
      </trkpt>
      <trkpt lat="44.19835" lon="5.78648">
        <ele>1197.2</ele>
      </trkpt>
      <trkpt lat="44.19834" lon="5.78641">
        <ele>1195.8</ele>
      </trkpt>
      <trkpt lat="44.19833" lon="5.78634">
        <ele>1208.9</ele>
      </trkpt>
      <trkpt lat="44.19833" lon="5.78627">
        <ele>1208.8</ele>
      </trkpt>
      <trkpt lat="44.19832" lon="5.7862">
        <ele>1208.4</ele>
      </trkpt>
      <trkpt lat="44.19831" lon="5.78614">
        <ele>1207.9</ele>
      </trkpt>
      <trkpt lat="44.1983" lon="5.78607">
        <ele>1207.2</ele>
      </trkpt>
      <trkpt lat="44.19829" lon="5.786">
        <ele>1206.2</ele>
      </trkpt>
      <trkpt lat="44.19828" lon="5.78593">
        <ele>1205.1</ele>
      </trkpt>
      <trkpt lat="44.19828" lon="5.78587">
        <ele>1204</ele>
      </trkpt>
      <trkpt lat="44.19827" lon="5.7858">
        <ele>1200.9</ele>
      </trkpt>
      <trkpt lat="44.19826" lon="5.78573">
        <ele>1200.1</ele>
      </trkpt>
      <trkpt lat="44.19825" lon="5.78566">
        <ele>1199.3</ele>
      </trkpt>
      <trkpt lat="44.19825" lon="5.78559">
        <ele>1198.6</ele>
      </trkpt>
      <trkpt lat="44.19825" lon="5.78551">
        <ele>1197.7</ele>
      </trkpt>
      <trkpt lat="44.19824" lon="5.78542">
        <ele>1196.6</ele>
      </trkpt>
      <trkpt lat="44.19823" lon="5.78533">
        <ele>1195.6</ele>
      </trkpt>
      <trkpt lat="44.19823" lon="5.78524">
        <ele>1194.5</ele>
      </trkpt>
      <trkpt lat="44.19824" lon="5.78515">
        <ele>1193.1</ele>
      </trkpt>
      <trkpt lat="44.19825" lon="5.78505">
        <ele>1191.6</ele>
      </trkpt>
      <trkpt lat="44.19825" lon="5.78496">
        <ele>1188.1</ele>
      </trkpt>
      <trkpt lat="44.19826" lon="5.78487">
        <ele>1187.6</ele>
      </trkpt>
      <trkpt lat="44.19826" lon="5.7848">
        <ele>1187.1</ele>
      </trkpt>
      <trkpt lat="44.19826" lon="5.78473">
        <ele>1186.6</ele>
      </trkpt>
      <trkpt lat="44.19826" lon="5.78465">
        <ele>1186.1</ele>
      </trkpt>
      <trkpt lat="44.19827" lon="5.78458">
        <ele>1185.6</ele>
      </trkpt>
      <trkpt lat="44.19828" lon="5.78448">
        <ele>1184.9</ele>
      </trkpt>
      <trkpt lat="44.19827" lon="5.78442">
        <ele>1184.4</ele>
      </trkpt>
      <trkpt lat="44.19826" lon="5.78435">
        <ele>1183.9</ele>
      </trkpt>
      <trkpt lat="44.19824" lon="5.78429">
        <ele>1183.4</ele>
      </trkpt>
      <trkpt lat="44.19822" lon="5.78423">
        <ele>1183</ele>
      </trkpt>
      <trkpt lat="44.19819" lon="5.78418">
        <ele>1183.1</ele>
      </trkpt>
      <trkpt lat="44.19813" lon="5.78413">
        <ele>1186.1</ele>
      </trkpt>
      <trkpt lat="44.1981" lon="5.78412">
        <ele>1186.6</ele>
      </trkpt>
      <trkpt lat="44.19801" lon="5.78412">
        <ele>1187.5</ele>
      </trkpt>
      <trkpt lat="44.19797" lon="5.78413">
        <ele>1187.8</ele>
      </trkpt>
      <trkpt lat="44.19789" lon="5.78413">
        <ele>1188.2</ele>
      </trkpt>
      <trkpt lat="44.19787" lon="5.78413">
        <ele>1188.2</ele>
      </trkpt>
      <trkpt lat="44.19779" lon="5.78418">
        <ele>1184.9</ele>
      </trkpt>
      <trkpt lat="44.19773" lon="5.78425">
        <ele>1185</ele>
      </trkpt>
      <trkpt lat="44.19771" lon="5.78427">
        <ele>1185</ele>
      </trkpt>
      <trkpt lat="44.19766" lon="5.78432">
        <ele>1185.1</ele>
      </trkpt>
      <trkpt lat="44.19763" lon="5.78434">
        <ele>1185.2</ele>
      </trkpt>
      <trkpt lat="44.19757" lon="5.78438">
        <ele>1185.3</ele>
      </trkpt>
      <trkpt lat="44.19757" lon="5.78439">
        <ele>1185.3</ele>
      </trkpt>
      <trkpt lat="44.19756" lon="5.7844">
        <ele>1185.4</ele>
      </trkpt>
      <trkpt lat="44.19753" lon="5.78445">
        <ele>1185.6</ele>
      </trkpt>
      <trkpt lat="44.19752" lon="5.78446">
        <ele>1185.7</ele>
      </trkpt>
      <trkpt lat="44.19751" lon="5.78447">
        <ele>1185.8</ele>
      </trkpt>
      <trkpt lat="44.19751" lon="5.78448">
        <ele>1185.8</ele>
      </trkpt>
      <trkpt lat="44.1975" lon="5.78449">
        <ele>1182.6</ele>
      </trkpt>
      <trkpt lat="44.19749" lon="5.78449">
        <ele>1182.6</ele>
      </trkpt>
      <trkpt lat="44.19748" lon="5.7845">
        <ele>1182.6</ele>
      </trkpt>
      <trkpt lat="44.19748" lon="5.78451">
        <ele>1182.6</ele>
      </trkpt>
      <trkpt lat="44.19749" lon="5.78451">
        <ele>1182.6</ele>
      </trkpt>
      <trkpt lat="44.19744" lon="5.78453">
        <ele>1182.5</ele>
      </trkpt>
      <trkpt lat="44.19739" lon="5.78463">
        <ele>1182.5</ele>
      </trkpt>
      <trkpt lat="44.19737" lon="5.78464">
        <ele>1182.5</ele>
      </trkpt>
      <trkpt lat="44.19729" lon="5.78465">
        <ele>1181.9</ele>
      </trkpt>
      <trkpt lat="44.19725" lon="5.78464">
        <ele>1181.6</ele>
      </trkpt>
      <trkpt lat="44.19719" lon="5.78464">
        <ele>1181.1</ele>
      </trkpt>
      <trkpt lat="44.19717" lon="5.78465">
        <ele>1180.8</ele>
      </trkpt>
      <trkpt lat="44.1971" lon="5.78466">
        <ele>1180.1</ele>
      </trkpt>
      <trkpt lat="44.19708" lon="5.78466">
        <ele>1179.9</ele>
      </trkpt>
      <trkpt lat="44.19701" lon="5.78463">
        <ele>1179.3</ele>
      </trkpt>
      <trkpt lat="44.19699" lon="5.78463">
        <ele>1179.1</ele>
      </trkpt>
      <trkpt lat="44.1969" lon="5.78463">
        <ele>1178.4</ele>
      </trkpt>
      <trkpt lat="44.19691" lon="5.7846">
        <ele>1178.7</ele>
      </trkpt>
      <trkpt lat="44.19688" lon="5.7846">
        <ele>1178.5</ele>
      </trkpt>
      <trkpt lat="44.19686" lon="5.7846">
        <ele>1178.4</ele>
      </trkpt>
      <trkpt lat="44.19679" lon="5.78461">
        <ele>1177.8</ele>
      </trkpt>
      <trkpt lat="44.19676" lon="5.78463">
        <ele>1177.3</ele>
      </trkpt>
      <trkpt lat="44.19669" lon="5.78466">
        <ele>1176.5</ele>
      </trkpt>
      <trkpt lat="44.19666" lon="5.78467">
        <ele>1161.9</ele>
      </trkpt>
      <trkpt lat="44.19658" lon="5.7847">
        <ele>1160.9</ele>
      </trkpt>
      <trkpt lat="44.19656" lon="5.78471">
        <ele>1160.6</ele>
      </trkpt>
      <trkpt lat="44.19658" lon="5.78474">
        <ele>1160.6</ele>
      </trkpt>
      <trkpt lat="44.19657" lon="5.78474">
        <ele>1160.5</ele>
      </trkpt>
      <trkpt lat="44.19649" lon="5.78481">
        <ele>1159.2</ele>
      </trkpt>
      <trkpt lat="44.19647" lon="5.78485">
        <ele>1158.6</ele>
      </trkpt>
      <trkpt lat="44.19642" lon="5.78492">
        <ele>1157.4</ele>
      </trkpt>
      <trkpt lat="44.19641" lon="5.78496">
        <ele>1157</ele>
      </trkpt>
      <trkpt lat="44.19641" lon="5.78504">
        <ele>1150.3</ele>
      </trkpt>
      <trkpt lat="44.1964" lon="5.78508">
        <ele>1150.1</ele>
      </trkpt>
      <trkpt lat="44.19639" lon="5.78518">
        <ele>1149.2</ele>
      </trkpt>
      <trkpt lat="44.19638" lon="5.78522">
        <ele>1148.7</ele>
      </trkpt>
      <trkpt lat="44.19637" lon="5.78532">
        <ele>1148.1</ele>
      </trkpt>
      <trkpt lat="44.19636" lon="5.78536">
        <ele>1147.9</ele>
      </trkpt>
      <trkpt lat="44.19633" lon="5.78547">
        <ele>1147.4</ele>
      </trkpt>
      <trkpt lat="44.19632" lon="5.78552">
        <ele>1147.5</ele>
      </trkpt>
      <trkpt lat="44.19633" lon="5.78565">
        <ele>1148.7</ele>
      </trkpt>
      <trkpt lat="44.19633" lon="5.78564">
        <ele>1148.5</ele>
      </trkpt>
      <trkpt lat="44.19632" lon="5.78565">
        <ele>1148.2</ele>
      </trkpt>
      <trkpt lat="44.19631" lon="5.78566">
        <ele>1148.1</ele>
      </trkpt>
      <trkpt lat="44.19625" lon="5.78573">
        <ele>1145.4</ele>
      </trkpt>
      <trkpt lat="44.19623" lon="5.78574">
        <ele>1144.8</ele>
      </trkpt>
      <trkpt lat="44.19616" lon="5.78581">
        <ele>1141.5</ele>
      </trkpt>
      <trkpt lat="44.19613" lon="5.78583">
        <ele>1139.9</ele>
      </trkpt>
      <trkpt lat="44.19612" lon="5.78585">
        <ele>1146.1</ele>
      </trkpt>
      <trkpt lat="44.19606" lon="5.78595">
        <ele>1144</ele>
      </trkpt>
      <trkpt lat="44.19604" lon="5.78598">
        <ele>1143.7</ele>
      </trkpt>
      <trkpt lat="44.19599" lon="5.78604">
        <ele>1143.8</ele>
      </trkpt>
      <trkpt lat="44.19596" lon="5.78608">
        <ele>1144.3</ele>
      </trkpt>
      <trkpt lat="44.19591" lon="5.78614">
        <ele>1145.1</ele>
      </trkpt>
      <trkpt lat="44.19588" lon="5.78617">
        <ele>1145.5</ele>
      </trkpt>
      <trkpt lat="44.19582" lon="5.78625">
        <ele>1115.8</ele>
      </trkpt>
      <trkpt lat="44.19581" lon="5.78628">
        <ele>1116.1</ele>
      </trkpt>
      <trkpt lat="44.19574" lon="5.78634">
        <ele>1116.5</ele>
      </trkpt>
      <trkpt lat="44.19572" lon="5.78637">
        <ele>1116.9</ele>
      </trkpt>
      <trkpt lat="44.19566" lon="5.78645">
        <ele>1117.8</ele>
      </trkpt>
      <trkpt lat="44.19564" lon="5.78647">
        <ele>1117.9</ele>
      </trkpt>
      <trkpt lat="44.19558" lon="5.78656">
        <ele>1117.4</ele>
      </trkpt>
      <trkpt lat="44.19556" lon="5.78658">
        <ele>1116.7</ele>
      </trkpt>
      <trkpt lat="44.19551" lon="5.78668">
        <ele>1124.2</ele>
      </trkpt>
      <trkpt lat="44.1955" lon="5.78669">
        <ele>1123.8</ele>
      </trkpt>
      <trkpt lat="44.19544" lon="5.78676">
        <ele>1121.2</ele>
      </trkpt>
      <trkpt lat="44.19541" lon="5.78678">
        <ele>1120.3</ele>
      </trkpt>
      <trkpt lat="44.19535" lon="5.78684">
        <ele>1118.1</ele>
      </trkpt>
      <trkpt lat="44.19532" lon="5.78687">
        <ele>1117.2</ele>
      </trkpt>
      <trkpt lat="44.19527" lon="5.78692">
        <ele>1115.8</ele>
      </trkpt>
      <trkpt lat="44.19524" lon="5.78694">
        <ele>1115.4</ele>
      </trkpt>
      <trkpt lat="44.19519" lon="5.787">
        <ele>1115</ele>
      </trkpt>
      <trkpt lat="44.19517" lon="5.78703">
        <ele>1114.8</ele>
      </trkpt>
      <trkpt lat="44.19511" lon="5.78704">
        <ele>1113.5</ele>
      </trkpt>
      <trkpt lat="44.19511" lon="5.78705">
        <ele>1113.5</ele>
      </trkpt>
      <trkpt lat="44.19508" lon="5.7871">
        <ele>1113.7</ele>
      </trkpt>
      <trkpt lat="44.19508" lon="5.78708">
        <ele>1113.5</ele>
      </trkpt>
      <trkpt lat="44.19509" lon="5.78704">
        <ele>1113.1</ele>
      </trkpt>
      <trkpt lat="44.19508" lon="5.78694">
        <ele>1110.7</ele>
      </trkpt>
      <trkpt lat="44.19507" lon="5.78694">
        <ele>1110.7</ele>
      </trkpt>
      <trkpt lat="44.195" lon="5.78699">
        <ele>1110.8</ele>
      </trkpt>
      <trkpt lat="44.19499" lon="5.787">
        <ele>1081.1</ele>
      </trkpt>
      <trkpt lat="44.19499" lon="5.78698">
        <ele>1081.1</ele>
      </trkpt>
      <trkpt lat="44.19499" lon="5.78697">
        <ele>1081.1</ele>
      </trkpt>
      <trkpt lat="44.19499" lon="5.78687">
        <ele>1082.3</ele>
      </trkpt>
      <trkpt lat="44.19499" lon="5.78682">
        <ele>1083.4</ele>
      </trkpt>
      <trkpt lat="44.19495" lon="5.78675">
        <ele>1085.2</ele>
      </trkpt>
      <trkpt lat="44.19493" lon="5.78675">
        <ele>1084.6</ele>
      </trkpt>
      <trkpt lat="44.19487" lon="5.78684">
        <ele>1080.7</ele>
      </trkpt>
      <trkpt lat="44.19486" lon="5.78687">
        <ele>1079.9</ele>
      </trkpt>
      <trkpt lat="44.19482" lon="5.78694">
        <ele>1078.4</ele>
      </trkpt>
      <trkpt lat="44.1948" lon="5.78697">
        <ele>1077.8</ele>
      </trkpt>
      <trkpt lat="44.19474" lon="5.78705">
        <ele>1076.6</ele>
      </trkpt>
      <trkpt lat="44.19473" lon="5.78709">
        <ele>1076.4</ele>
      </trkpt>
      <trkpt lat="44.19469" lon="5.78716">
        <ele>1076.1</ele>
      </trkpt>
      <trkpt lat="44.19467" lon="5.7872">
        <ele>1075.9</ele>
      </trkpt>
      <trkpt lat="44.19464" lon="5.78728">
        <ele>1075.4</ele>
      </trkpt>
      <trkpt lat="44.19462" lon="5.78732">
        <ele>1075.1</ele>
      </trkpt>
      <trkpt lat="44.19459" lon="5.78741">
        <ele>1074.3</ele>
      </trkpt>
      <trkpt lat="44.19458" lon="5.7874">
        <ele>1074.1</ele>
      </trkpt>
      <trkpt lat="44.19456" lon="5.78729">
        <ele>1073</ele>
      </trkpt>
      <trkpt lat="44.19455" lon="5.78729">
        <ele>1072.3</ele>
      </trkpt>
      <trkpt lat="44.19456" lon="5.78728">
        <ele>1072.6</ele>
      </trkpt>
      <trkpt lat="44.19454" lon="5.78728">
        <ele>1072.1</ele>
      </trkpt>
      <trkpt lat="44.19454" lon="5.78729">
        <ele>1072.1</ele>
      </trkpt>
      <trkpt lat="44.19448" lon="5.78735">
        <ele>1070.3</ele>
      </trkpt>
      <trkpt lat="44.19447" lon="5.78737">
        <ele>1069.6</ele>
      </trkpt>
      <trkpt lat="44.19441" lon="5.78744">
        <ele>1067.1</ele>
      </trkpt>
      <trkpt lat="44.19441" lon="5.78743">
        <ele>1067.1</ele>
      </trkpt>
      <trkpt lat="44.19441" lon="5.78741">
        <ele>1067.2</ele>
      </trkpt>
      <trkpt lat="44.19434" lon="5.78743">
        <ele>1064.2</ele>
      </trkpt>
      <trkpt lat="44.19432" lon="5.78738">
        <ele>1064.2</ele>
      </trkpt>
      <trkpt lat="44.19429" lon="5.78727">
        <ele>1064.9</ele>
      </trkpt>
      <trkpt lat="44.19427" lon="5.78722">
        <ele>1065.1</ele>
      </trkpt>
      <trkpt lat="44.1942" lon="5.78722">
        <ele>1063.9</ele>
      </trkpt>
      <trkpt lat="44.19418" lon="5.78725">
        <ele>1063.4</ele>
      </trkpt>
      <trkpt lat="44.19412" lon="5.78731">
        <ele>1041.6</ele>
      </trkpt>
      <trkpt lat="44.19412" lon="5.7873">
        <ele>1041.3</ele>
      </trkpt>
      <trkpt lat="44.19407" lon="5.78721">
        <ele>1038</ele>
      </trkpt>
      <trkpt lat="44.19407" lon="5.7872">
        <ele>1037.9</ele>
      </trkpt>
      <trkpt lat="44.19408" lon="5.78721">
        <ele>1038.1</ele>
      </trkpt>
      <trkpt lat="44.19408" lon="5.78718">
        <ele>1037.8</ele>
      </trkpt>
      <trkpt lat="44.19408" lon="5.78717">
        <ele>1037.3</ele>
      </trkpt>
      <trkpt lat="44.19404" lon="5.78707">
        <ele>1035.6</ele>
      </trkpt>
      <trkpt lat="44.19403" lon="5.78706">
        <ele>1035.6</ele>
      </trkpt>
      <trkpt lat="44.19403" lon="5.78694">
        <ele>1035.3</ele>
      </trkpt>
      <trkpt lat="44.19403" lon="5.78693">
        <ele>1035.4</ele>
      </trkpt>
      <trkpt lat="44.19403" lon="5.7869">
        <ele>1035.4</ele>
      </trkpt>
      <trkpt lat="44.19402" lon="5.78681">
        <ele>1036.1</ele>
      </trkpt>
      <trkpt lat="44.19402" lon="5.78675">
        <ele>1036.7</ele>
      </trkpt>
      <trkpt lat="44.19402" lon="5.78667">
        <ele>1037.4</ele>
      </trkpt>
      <trkpt lat="44.19402" lon="5.78666">
        <ele>1035.9</ele>
      </trkpt>
      <trkpt lat="44.19403" lon="5.78666">
        <ele>1036.1</ele>
      </trkpt>
      <trkpt lat="44.19404" lon="5.78656">
        <ele>1035.1</ele>
      </trkpt>
      <trkpt lat="44.19403" lon="5.78651">
        <ele>1034</ele>
      </trkpt>
      <trkpt lat="44.19401" lon="5.7864">
        <ele>1031.8</ele>
      </trkpt>
      <trkpt lat="44.194" lon="5.78637">
        <ele>1031.4</ele>
      </trkpt>
      <trkpt lat="44.19397" lon="5.78626">
        <ele>1030.3</ele>
      </trkpt>
      <trkpt lat="44.19396" lon="5.7862">
        <ele>1030</ele>
      </trkpt>
      <trkpt lat="44.19395" lon="5.78622">
        <ele>1029.9</ele>
      </trkpt>
      <trkpt lat="44.19395" lon="5.78621">
        <ele>1029.9</ele>
      </trkpt>
      <trkpt lat="44.19387" lon="5.78617">
        <ele>1028.9</ele>
      </trkpt>
      <trkpt lat="44.19386" lon="5.78619">
        <ele>1028.6</ele>
      </trkpt>
      <trkpt lat="44.19382" lon="5.78627">
        <ele>1027.8</ele>
      </trkpt>
      <trkpt lat="44.19379" lon="5.7863">
        <ele>1027.5</ele>
      </trkpt>
      <trkpt lat="44.19374" lon="5.78637">
        <ele>1026.3</ele>
      </trkpt>
      <trkpt lat="44.19372" lon="5.7864">
        <ele>1025.8</ele>
      </trkpt>
      <trkpt lat="44.19368" lon="5.78647">
        <ele>1024.5</ele>
      </trkpt>
      <trkpt lat="44.19365" lon="5.78651">
        <ele>1023.5</ele>
      </trkpt>
      <trkpt lat="44.1936" lon="5.78658">
        <ele>1021.3</ele>
      </trkpt>
      <trkpt lat="44.19358" lon="5.78661">
        <ele>1020.2</ele>
      </trkpt>
      <trkpt lat="44.19352" lon="5.78667">
        <ele>1019</ele>
      </trkpt>
      <trkpt lat="44.19351" lon="5.78669">
        <ele>1018.3</ele>
      </trkpt>
      <trkpt lat="44.19346" lon="5.78679">
        <ele>1018.2</ele>
      </trkpt>
      <trkpt lat="44.19345" lon="5.78681">
        <ele>1018.7</ele>
      </trkpt>
      <trkpt lat="44.19341" lon="5.78689">
        <ele>1019.9</ele>
      </trkpt>
      <trkpt lat="44.19341" lon="5.7869">
        <ele>1020</ele>
      </trkpt>
      <trkpt lat="44.1934" lon="5.7869">
        <ele>1020.1</ele>
      </trkpt>
      <trkpt lat="44.19341" lon="5.78693">
        <ele>1021</ele>
      </trkpt>
      <trkpt lat="44.1934" lon="5.78695">
        <ele>1021.3</ele>
      </trkpt>
      <trkpt lat="44.19332" lon="5.78695">
        <ele>1003.3</ele>
      </trkpt>
      <trkpt lat="44.1933" lon="5.78695">
        <ele>1003.2</ele>
      </trkpt>
      <trkpt lat="44.19325" lon="5.78687">
        <ele>1003.1</ele>
      </trkpt>
      <trkpt lat="44.19324" lon="5.78685">
        <ele>1003.1</ele>
      </trkpt>
      <trkpt lat="44.19317" lon="5.78681">
        <ele>1002.7</ele>
      </trkpt>
      <trkpt lat="44.19316" lon="5.7868">
        <ele>1002.6</ele>
      </trkpt>
      <trkpt lat="44.19308" lon="5.78677">
        <ele>1001.6</ele>
      </trkpt>
      <trkpt lat="44.19304" lon="5.78677">
        <ele>1001.1</ele>
      </trkpt>
      <trkpt lat="44.19303" lon="5.78678">
        <ele>1000.9</ele>
      </trkpt>
      <trkpt lat="44.19294" lon="5.78679">
        <ele>999.8</ele>
      </trkpt>
      <trkpt lat="44.19291" lon="5.7868">
        <ele>999.4</ele>
      </trkpt>
      <trkpt lat="44.19284" lon="5.78682">
        <ele>998.5</ele>
      </trkpt>
      <trkpt lat="44.1928" lon="5.78683">
        <ele>998</ele>
      </trkpt>
      <trkpt lat="44.19273" lon="5.78686">
        <ele>997.3</ele>
      </trkpt>
      <trkpt lat="44.1927" lon="5.78687">
        <ele>997</ele>
      </trkpt>
      <trkpt lat="44.19264" lon="5.78691">
        <ele>996.4</ele>
      </trkpt>
      <trkpt lat="44.19262" lon="5.78693">
        <ele>996.3</ele>
      </trkpt>
      <trkpt lat="44.19257" lon="5.787">
        <ele>995.9</ele>
      </trkpt>
      <trkpt lat="44.19256" lon="5.78701">
        <ele>995.8</ele>
      </trkpt>
      <trkpt lat="44.19249" lon="5.78706">
        <ele>984.6</ele>
      </trkpt>
      <trkpt lat="44.19246" lon="5.78708">
        <ele>984.4</ele>
      </trkpt>
      <trkpt lat="44.1924" lon="5.78713">
        <ele>983.7</ele>
      </trkpt>
      <trkpt lat="44.19237" lon="5.78715">
        <ele>983.4</ele>
      </trkpt>
      <trkpt lat="44.19232" lon="5.78723">
        <ele>982.6</ele>
      </trkpt>
      <trkpt lat="44.1923" lon="5.78726">
        <ele>982.3</ele>
      </trkpt>
      <trkpt lat="44.19226" lon="5.78735">
        <ele>981.5</ele>
      </trkpt>
      <trkpt lat="44.19223" lon="5.7874">
        <ele>981.1</ele>
      </trkpt>
      <trkpt lat="44.19216" lon="5.78746">
        <ele>980</ele>
      </trkpt>
      <trkpt lat="44.19212" lon="5.78749">
        <ele>979.4</ele>
      </trkpt>
      <trkpt lat="44.19204" lon="5.78751">
        <ele>976</ele>
      </trkpt>
      <trkpt lat="44.19194" lon="5.78756">
        <ele>973.8</ele>
      </trkpt>
      <trkpt lat="44.19189" lon="5.78757">
        <ele>972.7</ele>
      </trkpt>
      <trkpt lat="44.19185" lon="5.78759">
        <ele>971.7</ele>
      </trkpt>
      <trkpt lat="44.19178" lon="5.78763">
        <ele>970.5</ele>
      </trkpt>
      <trkpt lat="44.19175" lon="5.78765">
        <ele>970.2</ele>
      </trkpt>
      <trkpt lat="44.19169" lon="5.78766">
        <ele>969.8</ele>
      </trkpt>
      <trkpt lat="44.19167" lon="5.78767">
        <ele>969.9</ele>
      </trkpt>
      <trkpt lat="44.19159" lon="5.7877">
        <ele>960.6</ele>
      </trkpt>
      <trkpt lat="44.19155" lon="5.78772">
        <ele>960.3</ele>
      </trkpt>
      <trkpt lat="44.1915" lon="5.78774">
        <ele>960</ele>
      </trkpt>
      <trkpt lat="44.1914" lon="5.78777">
        <ele>959.5</ele>
      </trkpt>
      <trkpt lat="44.19136" lon="5.78779">
        <ele>959.2</ele>
      </trkpt>
      <trkpt lat="44.1913" lon="5.78786">
        <ele>958.6</ele>
      </trkpt>
      <trkpt lat="44.19129" lon="5.78789">
        <ele>958.4</ele>
      </trkpt>
      <trkpt lat="44.19123" lon="5.78795">
        <ele>957.7</ele>
      </trkpt>
      <trkpt lat="44.19123" lon="5.78797">
        <ele>957.5</ele>
      </trkpt>
      <trkpt lat="44.19119" lon="5.788">
        <ele>957</ele>
      </trkpt>
      <trkpt lat="44.19114" lon="5.78805">
        <ele>956.1</ele>
      </trkpt>
      <trkpt lat="44.19112" lon="5.78809">
        <ele>955.5</ele>
      </trkpt>
      <trkpt lat="44.19106" lon="5.78815">
        <ele>953.9</ele>
      </trkpt>
      <trkpt lat="44.19102" lon="5.78818">
        <ele>952.9</ele>
      </trkpt>
      <trkpt lat="44.19099" lon="5.7882">
        <ele>951.9</ele>
      </trkpt>
      <trkpt lat="44.19092" lon="5.78827">
        <ele>948.6</ele>
      </trkpt>
      <trkpt lat="44.1909" lon="5.78829">
        <ele>947.2</ele>
      </trkpt>
      <trkpt lat="44.19083" lon="5.78833">
        <ele>943.1</ele>
      </trkpt>
      <trkpt lat="44.1908" lon="5.78836">
        <ele>942.2</ele>
      </trkpt>
      <trkpt lat="44.19073" lon="5.78842">
        <ele>940.7</ele>
      </trkpt>
      <trkpt lat="44.19071" lon="5.78845">
        <ele>940.3</ele>
      </trkpt>
      <trkpt lat="44.19065" lon="5.78849">
        <ele>939.5</ele>
      </trkpt>
      <trkpt lat="44.19064" lon="5.78853">
        <ele>939.3</ele>
      </trkpt>
      <trkpt lat="44.19062" lon="5.78861">
        <ele>938.7</ele>
      </trkpt>
      <trkpt lat="44.19058" lon="5.78865">
        <ele>938.3</ele>
      </trkpt>
      <trkpt lat="44.19053" lon="5.78871">
        <ele>937.7</ele>
      </trkpt>
      <trkpt lat="44.19049" lon="5.78874">
        <ele>937.4</ele>
      </trkpt>
      <trkpt lat="44.19042" lon="5.78882">
        <ele>936.5</ele>
      </trkpt>
      <trkpt lat="44.1904" lon="5.78884">
        <ele>936.2</ele>
      </trkpt>
      <trkpt lat="44.19031" lon="5.78886">
        <ele>935.1</ele>
      </trkpt>
      <trkpt lat="44.19028" lon="5.78887">
        <ele>934.8</ele>
      </trkpt>
      <trkpt lat="44.19022" lon="5.78887">
        <ele>934</ele>
      </trkpt>
      <trkpt lat="44.19021" lon="5.78888">
        <ele>933.9</ele>
      </trkpt>
      <trkpt lat="44.19015" lon="5.78895">
        <ele>931.9</ele>
      </trkpt>
      <trkpt lat="44.19011" lon="5.78899">
        <ele>930.7</ele>
      </trkpt>
      <trkpt lat="44.19005" lon="5.78902">
        <ele>929.1</ele>
      </trkpt>
      <trkpt lat="44.19" lon="5.78903">
        <ele>928.3</ele>
      </trkpt>
      <trkpt lat="44.18994" lon="5.78908">
        <ele>924.5</ele>
      </trkpt>
      <trkpt lat="44.1899" lon="5.78911">
        <ele>924.5</ele>
      </trkpt>
      <trkpt lat="44.18986" lon="5.78914">
        <ele>924.8</ele>
      </trkpt>
      <trkpt lat="44.18981" lon="5.78917">
        <ele>920.6</ele>
      </trkpt>
      <trkpt lat="44.18978" lon="5.7892">
        <ele>920.3</ele>
      </trkpt>
      <trkpt lat="44.18974" lon="5.78924">
        <ele>920.1</ele>
      </trkpt>
      <trkpt lat="44.18971" lon="5.78931">
        <ele>919.8</ele>
      </trkpt>
      <trkpt lat="44.18969" lon="5.78935">
        <ele>919.7</ele>
      </trkpt>
      <trkpt lat="44.18964" lon="5.78942">
        <ele>919.4</ele>
      </trkpt>
      <trkpt lat="44.18962" lon="5.78944">
        <ele>919.3</ele>
      </trkpt>
      <trkpt lat="44.18958" lon="5.78952">
        <ele>918.9</ele>
      </trkpt>
      <trkpt lat="44.18957" lon="5.78954">
        <ele>918.8</ele>
      </trkpt>
      <trkpt lat="44.18954" lon="5.78964">
        <ele>918.3</ele>
      </trkpt>
      <trkpt lat="44.18954" lon="5.78967">
        <ele>918.2</ele>
      </trkpt>
      <trkpt lat="44.18951" lon="5.78978">
        <ele>917.6</ele>
      </trkpt>
      <trkpt lat="44.18951" lon="5.78979">
        <ele>917.5</ele>
      </trkpt>
      <trkpt lat="44.18947" lon="5.7899">
        <ele>916.6</ele>
      </trkpt>
      <trkpt lat="44.18945" lon="5.78994">
        <ele>916.3</ele>
      </trkpt>
      <trkpt lat="44.18941" lon="5.79004">
        <ele>912.1</ele>
      </trkpt>
      <trkpt lat="44.1894" lon="5.79009">
        <ele>912</ele>
      </trkpt>
      <trkpt lat="44.18935" lon="5.79018">
        <ele>911.4</ele>
      </trkpt>
      <trkpt lat="44.18934" lon="5.79021">
        <ele>911.3</ele>
      </trkpt>
      <trkpt lat="44.18929" lon="5.7903">
        <ele>910.8</ele>
      </trkpt>
      <trkpt lat="44.18927" lon="5.79035">
        <ele>910.3</ele>
      </trkpt>
      <trkpt lat="44.18924" lon="5.79041">
        <ele>909.6</ele>
      </trkpt>
      <trkpt lat="44.18922" lon="5.79047">
        <ele>908.9</ele>
      </trkpt>
      <trkpt lat="44.18918" lon="5.79057">
        <ele>906.7</ele>
      </trkpt>
      <trkpt lat="44.18917" lon="5.79063">
        <ele>905.4</ele>
      </trkpt>
      <trkpt lat="44.18911" lon="5.79068">
        <ele>897.5</ele>
      </trkpt>
      <trkpt lat="44.18908" lon="5.7907">
        <ele>897.4</ele>
      </trkpt>
      <trkpt lat="44.18903" lon="5.79072">
        <ele>897.3</ele>
      </trkpt>
      <trkpt lat="44.18898" lon="5.79076">
        <ele>897.2</ele>
      </trkpt>
      <trkpt lat="44.1889" lon="5.79077">
        <ele>897.1</ele>
      </trkpt>
      <trkpt lat="44.18887" lon="5.79076">
        <ele>897</ele>
      </trkpt>
      <trkpt lat="44.18879" lon="5.79078">
        <ele>896.6</ele>
      </trkpt>
      <trkpt lat="44.18877" lon="5.79081">
        <ele>896.3</ele>
      </trkpt>
      <trkpt lat="44.18872" lon="5.79091">
        <ele>890.9</ele>
      </trkpt>
      <trkpt lat="44.18868" lon="5.79098">
        <ele>890.6</ele>
      </trkpt>
      <trkpt lat="44.18866" lon="5.79103">
        <ele>890.4</ele>
      </trkpt>
      <trkpt lat="44.18864" lon="5.79109">
        <ele>890.2</ele>
      </trkpt>
      <trkpt lat="44.18861" lon="5.79115">
        <ele>890</ele>
      </trkpt>
      <trkpt lat="44.18858" lon="5.7912">
        <ele>889.7</ele>
      </trkpt>
      <trkpt lat="44.18853" lon="5.79125">
        <ele>889.2</ele>
      </trkpt>
      <trkpt lat="44.18848" lon="5.79126">
        <ele>888.9</ele>
      </trkpt>
      <trkpt lat="44.18843" lon="5.79126">
        <ele>888.6</ele>
      </trkpt>
      <trkpt lat="44.18838" lon="5.79126">
        <ele>888.4</ele>
      </trkpt>
      <trkpt lat="44.18829" lon="5.79128">
        <ele>882.1</ele>
      </trkpt>
      <trkpt lat="44.18824" lon="5.79128">
        <ele>882</ele>
      </trkpt>
      <trkpt lat="44.18819" lon="5.79129">
        <ele>881.8</ele>
      </trkpt>
      <trkpt lat="44.18813" lon="5.79129">
        <ele>881.6</ele>
      </trkpt>
      <trkpt lat="44.18806" lon="5.79135">
        <ele>881.1</ele>
      </trkpt>
      <trkpt lat="44.18803" lon="5.79139">
        <ele>880.8</ele>
      </trkpt>
      <trkpt lat="44.18799" lon="5.79143">
        <ele>880.4</ele>
      </trkpt>
      <trkpt lat="44.18797" lon="5.79148">
        <ele>880.1</ele>
      </trkpt>
      <trkpt lat="44.1879" lon="5.79156">
        <ele>879.3</ele>
      </trkpt>
      <trkpt lat="44.18786" lon="5.79158">
        <ele>878.9</ele>
      </trkpt>
      <trkpt lat="44.18779" lon="5.79161">
        <ele>878</ele>
      </trkpt>
      <trkpt lat="44.18775" lon="5.79161">
        <ele>877.5</ele>
      </trkpt>
    </trkseg>
  </trk>
</gpx>